<?xml version='1.0' encoding='UTF-8'?><gpx version="1.1" creator="JPX - https://github.com/jenetics/jpx" xmlns="http://www.topografix.com/GPX/1/1"><trk><trkseg><trkpt lat="41.89663043977284" lon="12.43810613342348"><ele>69.0</ele><time>2026-04-17T15:32:35.998Z</time></trkpt><trkpt lat="41.89668663924807" lon="12.438223141725864"><ele>69.0</ele><time>2026-04-17T15:32:38.998Z</time></trkpt><trkpt lat="41.89670673956744" lon="12.438390338009496"><ele>69.0</ele><time>2026-04-17T15:32:40.998Z</time></trkpt><trkpt lat="41.8966762846658" lon="12.43847440932809"><ele>69.0</ele><time>2026-04-17T15:32:41.998Z</time></trkpt><trkpt lat="41.89665825925938" lon="12.438629679827283"><ele>69.0</ele><time>2026-04-17T15:32:43.998Z</time></trkpt><trkpt lat="41.89661597691645" lon="12.43876569138726"><ele>68.60000000000001</ele><time>2026-04-17T15:32:45.998Z</time></trkpt><trkpt lat="41.896559322062934" lon="12.438887755051772"><ele>68.2</ele><time>2026-04-17T15:32:47.998Z</time></trkpt><trkpt lat="41.89646797351075" lon="12.438967159560832"><ele>67.80000000000001</ele><time>2026-04-17T15:32:49.998Z</time></trkpt><trkpt lat="41.89637441157628" lon="12.439016311440565"><ele>67.4</ele><time>2026-04-17T15:32:51.998Z</time></trkpt><trkpt lat="41.89627973761391" lon="12.439032444870026"><ele>67.0</ele><time>2026-04-17T15:32:53.998Z</time></trkpt><trkpt lat="41.896192702731526" lon="12.439033965807585"><ele>67.0</ele><time>2026-04-17T15:32:55.998Z</time></trkpt><trkpt lat="41.89610736018669" lon="12.439042183699007"><ele>67.0</ele><time>2026-04-17T15:33:40.997Z</time></trkpt><trkpt lat="41.89599286038627" lon="12.439022113754948"><ele>67.0</ele><time>2026-04-17T15:33:42.997Z</time></trkpt><trkpt lat="41.895933713267134" lon="12.438930599167186"><ele>67.0</ele><time>2026-04-17T15:33:43.997Z</time></trkpt><trkpt lat="41.895872807855945" lon="12.4388377870422"><ele>67.0</ele><time>2026-04-17T15:33:44.997Z</time></trkpt><trkpt lat="41.89580544143574" lon="12.438734514188967"><ele>66.5</ele><time>2026-04-17T15:33:45.999Z</time></trkpt><trkpt lat="41.89575285950816" lon="12.43865086046305"><ele>66.0</ele><time>2026-04-17T15:33:46.999Z</time></trkpt><trkpt lat="41.895707938511684" lon="12.438583082528266"><ele>65.5</ele><time>2026-04-17T15:33:47.999Z</time></trkpt><trkpt lat="41.89564029415914" lon="12.43847580696125"><ele>65.0</ele><time>2026-04-17T15:33:49.999Z</time></trkpt><trkpt lat="41.895586299042805" lon="12.43839986990965"><ele>64.5</ele><time>2026-04-17T15:33:51.999Z</time></trkpt><trkpt lat="41.895531296344934" lon="12.438326997609575"><ele>64.0</ele><time>2026-04-17T15:33:53.999Z</time></trkpt><trkpt lat="41.89548082515982" lon="12.438256444755249"><ele>64.0</ele><time>2026-04-17T15:34:24.999Z</time></trkpt><trkpt lat="41.89542994790246" lon="12.438203028967935"><ele>64.0</ele><time>2026-04-17T15:34:26.999Z</time></trkpt><trkpt lat="41.895319760786556" lon="12.438102045670675"><ele>64.0</ele><time>2026-04-17T15:34:28.999Z</time></trkpt><trkpt lat="41.89524187062193" lon="12.438046182208636"><ele>64.0</ele><time>2026-04-17T15:34:29.999Z</time></trkpt><trkpt lat="41.89516634683065" lon="12.43799223595584"><ele>64.0</ele><time>2026-04-17T15:34:30.999Z</time></trkpt><trkpt lat="41.89509294118935" lon="12.43792473994549"><ele>64.33333333333333</ele><time>2026-04-17T15:34:31.999Z</time></trkpt><trkpt lat="41.895029432672196" lon="12.437861729841565"><ele>64.66666666666666</ele><time>2026-04-17T15:34:32.999Z</time></trkpt><trkpt lat="41.89497821089601" lon="12.437808848212285"><ele>65.0</ele><time>2026-04-17T15:34:33.999Z</time></trkpt><trkpt lat="41.8948831422729" lon="12.437703215723133"><ele>65.33333333333333</ele><time>2026-04-17T15:34:35.999Z</time></trkpt><trkpt lat="41.89483096776704" lon="12.437651118619424"><ele>65.66666666666667</ele><time>2026-04-17T15:34:36.999Z</time></trkpt><trkpt lat="41.89477818629528" lon="12.437600436784278"><ele>66.0</ele><time>2026-04-17T15:34:37.999Z</time></trkpt><trkpt lat="41.89472052734321" lon="12.437550971508768"><ele>66.0</ele><time>2026-04-17T15:34:38.999Z</time></trkpt><trkpt lat="41.89466078025941" lon="12.437492926840536"><ele>66.0</ele><time>2026-04-17T15:34:39.999Z</time></trkpt><trkpt lat="41.89459392082998" lon="12.437429583512493"><ele>66.0</ele><time>2026-04-17T15:34:40.998Z</time></trkpt><trkpt lat="41.89452530874258" lon="12.437366938288509"><ele>66.0</ele><time>2026-04-17T15:34:41.998Z</time></trkpt><trkpt lat="41.89446401315148" lon="12.43730990182049"><ele>66.0</ele><time>2026-04-17T15:34:42.998Z</time></trkpt><trkpt lat="41.894401950086035" lon="12.43725539106711"><ele>66.0</ele><time>2026-04-17T15:34:43.998Z</time></trkpt><trkpt lat="41.894340697689415" lon="12.437196742557232"><ele>66.0</ele><time>2026-04-17T15:34:44.998Z</time></trkpt><trkpt lat="41.89428496266744" lon="12.437139894256413"><ele>66.0</ele><time>2026-04-17T15:34:45.998Z</time></trkpt><trkpt lat="41.89422668827656" lon="12.437081073253603"><ele>66.0</ele><time>2026-04-17T15:34:46.998Z</time></trkpt><trkpt lat="41.89417170233709" lon="12.437030744556907"><ele>66.0</ele><time>2026-04-17T15:34:47.998Z</time></trkpt><trkpt lat="41.89408919351116" lon="12.436940569136237"><ele>66.0</ele><time>2026-04-17T15:34:49.998Z</time></trkpt><trkpt lat="41.89402230024536" lon="12.43688535847159"><ele>66.0</ele><time>2026-04-17T15:34:51.998Z</time></trkpt><trkpt lat="41.893931887445646" lon="12.436821488775994"><ele>65.6</ele><time>2026-04-17T15:34:53.998Z</time></trkpt><trkpt lat="41.893871484320314" lon="12.436758759189841"><ele>65.19999999999999</ele><time>2026-04-17T15:34:54.998Z</time></trkpt><trkpt lat="41.89381133563133" lon="12.436668058830971"><ele>64.80000000000001</ele><time>2026-04-17T15:34:55.998Z</time></trkpt><trkpt lat="41.893755247862806" lon="12.436572525630325"><ele>64.4</ele><time>2026-04-17T15:34:56.998Z</time></trkpt><trkpt lat="41.89370259931003" lon="12.436452613201403"><ele>64.0</ele><time>2026-04-17T15:34:57.998Z</time></trkpt><trkpt lat="41.893652031638936" lon="12.436310153875445"><ele>65.4</ele><time>2026-04-17T15:34:58.998Z</time></trkpt><trkpt lat="41.893603896607836" lon="12.436158213821306"><ele>66.80000000000001</ele><time>2026-04-17T15:34:59.998Z</time></trkpt><trkpt lat="41.893565187106354" lon="12.43600868349091"><ele>68.19999999999999</ele><time>2026-04-17T15:35:00.998Z</time></trkpt><trkpt lat="41.89353595997078" lon="12.435880093119565"><ele>69.6</ele><time>2026-04-17T15:35:01.998Z</time></trkpt><trkpt lat="41.893505286493955" lon="12.435751086363526"><ele>71.0</ele><time>2026-04-17T15:35:02.998Z</time></trkpt><trkpt lat="41.89347984521075" lon="12.435625414737883"><ele>71.0</ele><time>2026-04-17T15:35:03.998Z</time></trkpt><trkpt lat="41.893461571121854" lon="12.43549942462046"><ele>71.0</ele><time>2026-04-17T15:35:04.998Z</time></trkpt><trkpt lat="41.893451181591345" lon="12.435367845076032"><ele>71.0</ele><time>2026-04-17T15:35:05.998Z</time></trkpt><trkpt lat="41.89344820713103" lon="12.435230251515254"><ele>71.0</ele><time>2026-04-17T15:35:06.998Z</time></trkpt><trkpt lat="41.89344907000205" lon="12.435093757594409"><ele>71.0</ele><time>2026-04-17T15:35:07.998Z</time></trkpt><trkpt lat="41.893452454197956" lon="12.434977676274555"><ele>71.6</ele><time>2026-04-17T15:35:08.998Z</time></trkpt><trkpt lat="41.89346274333165" lon="12.434857605802902"><ele>72.19999999999999</ele><time>2026-04-17T15:35:09.998Z</time></trkpt><trkpt lat="41.893477122147864" lon="12.434748653620947"><ele>72.80000000000001</ele><time>2026-04-17T15:35:10.998Z</time></trkpt><trkpt lat="41.893492982544394" lon="12.434660187434051"><ele>73.4</ele><time>2026-04-17T15:35:11.998Z</time></trkpt><trkpt lat="41.89352341945157" lon="12.434511887510759"><ele>74.0</ele><time>2026-04-17T15:35:13.998Z</time></trkpt><trkpt lat="41.89355509914015" lon="12.434390889161211"><ele>74.2</ele><time>2026-04-17T15:35:15.998Z</time></trkpt><trkpt lat="41.89359718640406" lon="12.434242044858294"><ele>74.4</ele><time>2026-04-17T15:35:17.998Z</time></trkpt><trkpt lat="41.89361972727662" lon="12.434160563881417"><ele>74.6</ele><time>2026-04-17T15:35:18.998Z</time></trkpt><trkpt lat="41.893635539340366" lon="12.434072146561766"><ele>74.8</ele><time>2026-04-17T15:35:19.998Z</time></trkpt><trkpt lat="41.89367429152061" lon="12.43393289036711"><ele>75.0</ele><time>2026-04-17T15:35:21.998Z</time></trkpt><trkpt lat="41.893704920226135" lon="12.433811598065205"><ele>75.16666666666667</ele><time>2026-04-17T15:35:23.998Z</time></trkpt><trkpt lat="41.89373484916688" lon="12.433659807418957"><ele>75.33333333333333</ele><time>2026-04-17T15:35:25.998Z</time></trkpt><trkpt lat="41.89376798410648" lon="12.433582608478988"><ele>75.5</ele><time>2026-04-17T15:35:26.998Z</time></trkpt><trkpt lat="41.89379643765191" lon="12.433492028193864"><ele>75.66666666666666</ele><time>2026-04-17T15:35:27.998Z</time></trkpt><trkpt lat="41.89382451699759" lon="12.433405309680744"><ele>75.83333333333333</ele><time>2026-04-17T15:35:28.998Z</time></trkpt><trkpt lat="41.8938511861126" lon="12.433314363951665"><ele>76.0</ele><time>2026-04-17T15:35:29.997Z</time></trkpt><trkpt lat="41.893876219476766" lon="12.433226073338792"><ele>76.0</ele><time>2026-04-17T15:35:30.997Z</time></trkpt><trkpt lat="41.893901696918725" lon="12.433139337211527"><ele>76.0</ele><time>2026-04-17T15:35:31.997Z</time></trkpt><trkpt lat="41.893928266128654" lon="12.433054149764944"><ele>76.0</ele><time>2026-04-17T15:35:32.997Z</time></trkpt><trkpt lat="41.89395606014774" lon="12.432970787252806"><ele>76.0</ele><time>2026-04-17T15:35:33.997Z</time></trkpt><trkpt lat="41.8939881370386" lon="12.432880608970134"><ele>76.0</ele><time>2026-04-17T15:35:34.997Z</time></trkpt><trkpt lat="41.894024419168815" lon="12.432788196318755"><ele>76.0</ele><time>2026-04-17T15:35:35.997Z</time></trkpt><trkpt lat="41.89405348880774" lon="12.432696638668538"><ele>76.0</ele><time>2026-04-17T15:35:36.997Z</time></trkpt><trkpt lat="41.894083515697425" lon="12.432609341558512"><ele>77.4</ele><time>2026-04-17T15:35:37.997Z</time></trkpt><trkpt lat="41.89411624475479" lon="12.43251131176239"><ele>78.8</ele><time>2026-04-17T15:35:38.997Z</time></trkpt><trkpt lat="41.89415469744239" lon="12.432371683727657"><ele>80.2</ele><time>2026-04-17T15:35:40.997Z</time></trkpt><trkpt lat="41.89420244829008" lon="12.43221713490856"><ele>81.60000000000001</ele><time>2026-04-17T15:35:42.997Z</time></trkpt><trkpt lat="41.89422234757955" lon="12.432113701445322"><ele>83.0</ele><time>2026-04-17T15:35:43.997Z</time></trkpt><trkpt lat="41.894242863521" lon="12.431999254202683"><ele>83.75</ele><time>2026-04-17T15:35:44.997Z</time></trkpt><trkpt lat="41.89427697975124" lon="12.431866293503472"><ele>84.5</ele><time>2026-04-17T15:35:45.997Z</time></trkpt><trkpt lat="41.894321429640826" lon="12.431729404207053"><ele>85.25</ele><time>2026-04-17T15:35:46.997Z</time></trkpt><trkpt lat="41.894365388377366" lon="12.431568261302177"><ele>86.0</ele><time>2026-04-17T15:35:47.997Z</time></trkpt><trkpt lat="41.89440352983327" lon="12.43142153347364"><ele>86.4</ele><time>2026-04-17T15:35:48.997Z</time></trkpt><trkpt lat="41.89444210912767" lon="12.431303670406614"><ele>86.8</ele><time>2026-04-17T15:35:49.997Z</time></trkpt><trkpt lat="41.89448075235202" lon="12.431184638848842"><ele>87.2</ele><time>2026-04-17T15:35:50.997Z</time></trkpt><trkpt lat="41.89452063273402" lon="12.431066262254122"><ele>87.60000000000001</ele><time>2026-04-17T15:35:51.999Z</time></trkpt><trkpt lat="41.89456469539334" lon="12.430954568050234"><ele>88.0</ele><time>2026-04-17T15:35:52.999Z</time></trkpt><trkpt lat="41.894605567774434" lon="12.43084304165331"><ele>88.0</ele><time>2026-04-17T15:35:53.999Z</time></trkpt><trkpt lat="41.89464102766871" lon="12.43072637818236"><ele>88.0</ele><time>2026-04-17T15:35:54.999Z</time></trkpt><trkpt lat="41.894676186558534" lon="12.430630481909956"><ele>88.0</ele><time>2026-04-17T15:35:55.999Z</time></trkpt><trkpt lat="41.894708995619396" lon="12.430546577426382"><ele>88.0</ele><time>2026-04-17T15:35:56.999Z</time></trkpt><trkpt lat="41.89474262963782" lon="12.430468311858696"><ele>88.0</ele><time>2026-04-17T15:35:57.999Z</time></trkpt><trkpt lat="41.89477382692216" lon="12.430393409582008"><ele>88.0</ele><time>2026-04-17T15:35:58.999Z</time></trkpt><trkpt lat="41.894828389314505" lon="12.430248387596343"><ele>88.5</ele><time>2026-04-17T15:36:00.999Z</time></trkpt><trkpt lat="41.894863528307425" lon="12.43012026455269"><ele>89.0</ele><time>2026-04-17T15:36:02.999Z</time></trkpt><trkpt lat="41.89489898933942" lon="12.43003795569372"><ele>89.5</ele><time>2026-04-17T15:36:49.999Z</time></trkpt><trkpt lat="41.894966614901726" lon="12.429951225230417"><ele>90.0</ele><time>2026-04-17T15:36:51.999Z</time></trkpt><trkpt lat="41.89504142037978" lon="12.429925193423578"><ele>90.5</ele><time>2026-04-17T15:36:52.999Z</time></trkpt><trkpt lat="41.895113935809384" lon="12.429866166682002"><ele>91.0</ele><time>2026-04-17T15:36:53.999Z</time></trkpt><trkpt lat="41.89519478385379" lon="12.429821264065719"><ele>91.33333333333333</ele><time>2026-04-17T15:36:54.999Z</time></trkpt><trkpt lat="41.89526350615343" lon="12.429785345814784"><ele>91.66666666666666</ele><time>2026-04-17T15:36:55.999Z</time></trkpt><trkpt lat="41.89535991647748" lon="12.429724865449625"><ele>92.0</ele><time>2026-04-17T15:36:57.999Z</time></trkpt><trkpt lat="41.89542173393185" lon="12.4296842107329"><ele>92.33333333333333</ele><time>2026-04-17T15:37:00.999Z</time></trkpt><trkpt lat="41.89547631818031" lon="12.429583574392536"><ele>92.66666666666667</ele><time>2026-04-17T15:37:03.999Z</time></trkpt><trkpt lat="41.89552553433349" lon="12.42949441433842"><ele>93.0</ele><time>2026-04-17T15:37:05.999Z</time></trkpt><trkpt lat="41.89557862899956" lon="12.429406123084917"><ele>93.4</ele><time>2026-04-17T15:37:07.999Z</time></trkpt><trkpt lat="41.89563073029177" lon="12.429322844450859"><ele>93.80000000000001</ele><time>2026-04-17T15:37:10.999Z</time></trkpt><trkpt lat="41.8957056766349" lon="12.42925674842477"><ele>94.2</ele><time>2026-04-17T15:37:13.999Z</time></trkpt><trkpt lat="41.8957835039161" lon="12.429187762780112"><ele>94.6</ele><time>2026-04-17T15:37:15.999Z</time></trkpt><trkpt lat="41.89588271651651" lon="12.429154491992636"><ele>95.0</ele><time>2026-04-17T15:37:17.999Z</time></trkpt><trkpt lat="41.89597261936757" lon="12.429106179689215"><ele>95.0</ele><time>2026-04-17T15:37:19.999Z</time></trkpt><trkpt lat="41.8960431287076" lon="12.429067314398866"><ele>95.0</ele><time>2026-04-17T15:37:21.999Z</time></trkpt><trkpt lat="41.89611459032623" lon="12.429023534125108"><ele>95.0</ele><time>2026-04-17T15:37:24.999Z</time></trkpt><trkpt lat="41.89620964995416" lon="12.428955459954963"><ele>95.0</ele><time>2026-04-17T15:37:27.999Z</time></trkpt><trkpt lat="41.89626711554034" lon="12.428913122519422"><ele>95.0</ele><time>2026-04-17T15:37:28.999Z</time></trkpt><trkpt lat="41.89636055938996" lon="12.428848739517212"><ele>95.0</ele><time>2026-04-17T15:37:30.999Z</time></trkpt><trkpt lat="41.89641930741175" lon="12.428806617892906"><ele>94.16666666666667</ele><time>2026-04-17T15:37:31.999Z</time></trkpt><trkpt lat="41.89649080229823" lon="12.428770051783065"><ele>93.33333333333334</ele><time>2026-04-17T15:37:32.999Z</time></trkpt><trkpt lat="41.89657389126747" lon="12.428730786261891"><ele>92.5</ele><time>2026-04-17T15:37:33.999Z</time></trkpt><trkpt lat="41.896665282203024" lon="12.428713866323562"><ele>91.66666666666667</ele><time>2026-04-17T15:37:34.999Z</time></trkpt><trkpt lat="41.89673901722824" lon="12.428676211634466"><ele>90.83333333333333</ele><time>2026-04-17T15:37:35.999Z</time></trkpt><trkpt lat="41.89681233970889" lon="12.428640028724292"><ele>90.0</ele><time>2026-04-17T15:37:36.999Z</time></trkpt><trkpt lat="41.896875418619224" lon="12.428604047278824"><ele>90.0</ele><time>2026-04-17T15:37:37.999Z</time></trkpt><trkpt lat="41.896978495803516" lon="12.428548045478705"><ele>90.0</ele><time>2026-04-17T15:37:39.998Z</time></trkpt><trkpt lat="41.89705447264637" lon="12.428505324435234"><ele>90.0</ele><time>2026-04-17T15:37:41.998Z</time></trkpt><trkpt lat="41.89712956125046" lon="12.428465959882162"><ele>90.0</ele><time>2026-04-17T15:37:43.998Z</time></trkpt><trkpt lat="41.897207720118914" lon="12.428431267983814"><ele>90.0</ele><time>2026-04-17T15:37:45.998Z</time></trkpt><trkpt lat="41.897274971202364" lon="12.428396121621027"><ele>90.0</ele><time>2026-04-17T15:37:47.998Z</time></trkpt><trkpt lat="41.897339975181296" lon="12.42836111357261"><ele>90.0</ele><time>2026-04-17T15:37:51.998Z</time></trkpt><trkpt lat="41.89740974407647" lon="12.428322757057815"><ele>90.0</ele><time>2026-04-17T15:37:54.998Z</time></trkpt><trkpt lat="41.89747715911237" lon="12.428271706632898"><ele>90.0</ele><time>2026-04-17T15:37:57Z</time></trkpt><trkpt lat="41.89754623886118" lon="12.42824126366022"><ele>90.0</ele><time>2026-04-17T15:37:59Z</time></trkpt><trkpt lat="41.89761278499859" lon="12.428201443205783"><ele>90.0</ele><time>2026-04-17T15:38:01Z</time></trkpt><trkpt lat="41.89768023250775" lon="12.428166693191374"><ele>90.0</ele><time>2026-04-17T15:38:03Z</time></trkpt><trkpt lat="41.89775954051023" lon="12.428154645768618"><ele>89.66666666666667</ele><time>2026-04-17T15:38:05Z</time></trkpt><trkpt lat="41.89781784621514" lon="12.428086568375202"><ele>89.33333333333333</ele><time>2026-04-17T15:38:07Z</time></trkpt><trkpt lat="41.897893464611165" lon="12.428051093509296"><ele>89.0</ele><time>2026-04-17T15:38:10Z</time></trkpt><trkpt lat="41.89796781058794" lon="12.428014059963186"><ele>88.66666666666666</ele><time>2026-04-17T15:38:14Z</time></trkpt><trkpt lat="41.8980450524433" lon="12.427975548795745"><ele>88.33333333333333</ele><time>2026-04-17T15:38:19Z</time></trkpt><trkpt lat="41.898115095415974" lon="12.427939996719061"><ele>88.0</ele><time>2026-04-17T15:38:22Z</time></trkpt><trkpt lat="41.8981782475025" lon="12.427908006121601"><ele>88.0</ele><time>2026-04-17T15:38:25Z</time></trkpt><trkpt lat="41.89825263351693" lon="12.42787051008862"><ele>88.0</ele><time>2026-04-17T15:38:27Z</time></trkpt><trkpt lat="41.89833967581199" lon="12.427826652382318"><ele>88.0</ele><time>2026-04-17T15:38:29Z</time></trkpt><trkpt lat="41.898445059535" lon="12.427773572146164"><ele>88.0</ele><time>2026-04-17T15:38:31Z</time></trkpt><trkpt lat="41.89850406856683" lon="12.427743849180995"><ele>88.0</ele><time>2026-04-17T15:38:32Z</time></trkpt><trkpt lat="41.89855343337331" lon="12.42766901412232"><ele>88.0</ele><time>2026-04-17T15:38:33Z</time></trkpt><trkpt lat="41.898592110404934" lon="12.42737492972011"><ele>88.0</ele><time>2026-04-17T15:38:35Z</time></trkpt><trkpt lat="41.89861062520139" lon="12.42727029823921"><ele>88.0</ele><time>2026-04-17T15:38:36Z</time></trkpt><trkpt lat="41.8986255177384" lon="12.427158281526117"><ele>88.0</ele><time>2026-04-17T15:38:37Z</time></trkpt><trkpt lat="41.89863552657491" lon="12.427042742532755"><ele>88.0</ele><time>2026-04-17T15:38:38Z</time></trkpt><trkpt lat="41.89863156478309" lon="12.426917192544543"><ele>88.0</ele><time>2026-04-17T15:38:39Z</time></trkpt><trkpt lat="41.89862108954147" lon="12.42678821112869"><ele>88.0</ele><time>2026-04-17T15:38:40Z</time></trkpt><trkpt lat="41.898663652608036" lon="12.426674797634632"><ele>88.5</ele><time>2026-04-17T15:38:41Z</time></trkpt><trkpt lat="41.898661496505866" lon="12.426542048620682"><ele>89.0</ele><time>2026-04-17T15:38:42Z</time></trkpt><trkpt lat="41.89865821551186" lon="12.42642913036639"><ele>89.5</ele><time>2026-04-17T15:38:43Z</time></trkpt><trkpt lat="41.89865555928844" lon="12.426327934941018"><ele>90.0</ele><time>2026-04-17T15:38:44Z</time></trkpt><trkpt lat="41.89865564639107" lon="12.426218397109066"><ele>90.5</ele><time>2026-04-17T15:38:45Z</time></trkpt><trkpt lat="41.8986493759293" lon="12.426106087662754"><ele>91.0</ele><time>2026-04-17T15:38:46Z</time></trkpt><trkpt lat="41.89864113349833" lon="12.425990609952569"><ele>91.16666666666666</ele><time>2026-04-17T15:38:47Z</time></trkpt><trkpt lat="41.898636167170054" lon="12.425882969546494"><ele>91.33333333333333</ele><time>2026-04-17T15:38:48Z</time></trkpt><trkpt lat="41.89862586656233" lon="12.425787559043432"><ele>91.5</ele><time>2026-04-17T15:38:49Z</time></trkpt><trkpt lat="41.898615707409036" lon="12.425685358238631"><ele>91.66666666666667</ele><time>2026-04-17T15:38:50Z</time></trkpt><trkpt lat="41.898601463333485" lon="12.425575646245091"><ele>91.83333333333334</ele><time>2026-04-17T15:38:51Z</time></trkpt><trkpt lat="41.89858349759268" lon="12.425462273277631"><ele>92.0</ele><time>2026-04-17T15:38:52Z</time></trkpt><trkpt lat="41.898568947270334" lon="12.42535184408613"><ele>91.66666666666667</ele><time>2026-04-17T15:38:53Z</time></trkpt><trkpt lat="41.89855117117856" lon="12.42524570570282"><ele>91.33333333333334</ele><time>2026-04-17T15:38:53.999Z</time></trkpt><trkpt lat="41.898524101419504" lon="12.425132354109218"><ele>91.0</ele><time>2026-04-17T15:38:54.999Z</time></trkpt><trkpt lat="41.89849733138272" lon="12.42499767596244"><ele>90.66666666666667</ele><time>2026-04-17T15:38:55.999Z</time></trkpt><trkpt lat="41.89847706460359" lon="12.424886862380674"><ele>90.33333333333333</ele><time>2026-04-17T15:38:56.999Z</time></trkpt><trkpt lat="41.898448946175364" lon="12.42477147680062"><ele>90.0</ele><time>2026-04-17T15:38:57.999Z</time></trkpt><trkpt lat="41.89841869980567" lon="12.424642050412174"><ele>88.5</ele><time>2026-04-17T15:38:58.999Z</time></trkpt><trkpt lat="41.89839136597611" lon="12.4245020141278"><ele>87.0</ele><time>2026-04-17T15:38:59.999Z</time></trkpt><trkpt lat="41.89836336000571" lon="12.424342765461445"><ele>85.5</ele><time>2026-04-17T15:39:00.999Z</time></trkpt><trkpt lat="41.8983347309806" lon="12.424181147095105"><ele>84.0</ele><time>2026-04-17T15:39:01.999Z</time></trkpt><trkpt lat="41.898308445769246" lon="12.424009162931876"><ele>84.0</ele><time>2026-04-17T15:39:02.999Z</time></trkpt><trkpt lat="41.898265214746246" lon="12.423851366723218"><ele>84.0</ele><time>2026-04-17T15:39:03.999Z</time></trkpt><trkpt lat="41.89821521719454" lon="12.423690927826359"><ele>84.0</ele><time>2026-04-17T15:39:04.999Z</time></trkpt><trkpt lat="41.89816454167698" lon="12.423516621334599"><ele>84.0</ele><time>2026-04-17T15:39:05.999Z</time></trkpt><trkpt lat="41.89811173410196" lon="12.423339942973945"><ele>86.33333333333333</ele><time>2026-04-17T15:39:06.999Z</time></trkpt><trkpt lat="41.89804890593125" lon="12.423151655164425"><ele>88.66666666666666</ele><time>2026-04-17T15:39:07.999Z</time></trkpt><trkpt lat="41.897976845493986" lon="12.422962381533523"><ele>91.0</ele><time>2026-04-17T15:39:08.999Z</time></trkpt><trkpt lat="41.897898776146505" lon="12.422762168511092"><ele>91.5</ele><time>2026-04-17T15:39:09.999Z</time></trkpt><trkpt lat="41.897824367619634" lon="12.422570422912761"><ele>92.0</ele><time>2026-04-17T15:39:10.999Z</time></trkpt><trkpt lat="41.897748660745535" lon="12.42239577168699"><ele>92.5</ele><time>2026-04-17T15:39:11.999Z</time></trkpt><trkpt lat="41.89768289303842" lon="12.422243246085626"><ele>93.0</ele><time>2026-04-17T15:39:12.999Z</time></trkpt><trkpt lat="41.89761226376916" lon="12.422083144166768"><ele>92.75</ele><time>2026-04-17T15:39:13.999Z</time></trkpt><trkpt lat="41.897541093585055" lon="12.421922663625027"><ele>92.5</ele><time>2026-04-17T15:39:14.999Z</time></trkpt><trkpt lat="41.8974721658206" lon="12.421775972740457"><ele>92.25</ele><time>2026-04-17T15:39:15.999Z</time></trkpt><trkpt lat="41.89739370649335" lon="12.421620819759466"><ele>92.0</ele><time>2026-04-17T15:39:16.999Z</time></trkpt><trkpt lat="41.89731350191787" lon="12.421453711349516"><ele>92.0</ele><time>2026-04-17T15:39:17.999Z</time></trkpt><trkpt lat="41.89723269435346" lon="12.421287753291011"><ele>92.0</ele><time>2026-04-17T15:39:18.999Z</time></trkpt><trkpt lat="41.89714131283951" lon="12.421112261321143"><ele>92.0</ele><time>2026-04-17T15:39:19.999Z</time></trkpt><trkpt lat="41.89706130122647" lon="12.420950700207742"><ele>92.0</ele><time>2026-04-17T15:39:20.999Z</time></trkpt><trkpt lat="41.89698864200457" lon="12.420791726602944"><ele>92.0</ele><time>2026-04-17T15:39:21.999Z</time></trkpt><trkpt lat="41.896911833362694" lon="12.420641148100568"><ele>92.0</ele><time>2026-04-17T15:39:22.999Z</time></trkpt><trkpt lat="41.896845343856356" lon="12.420495457460708"><ele>92.0</ele><time>2026-04-17T15:39:23.999Z</time></trkpt><trkpt lat="41.89676794568325" lon="12.420353314093308"><ele>90.5</ele><time>2026-04-17T15:39:24.999Z</time></trkpt><trkpt lat="41.89670092429625" lon="12.4202200732988"><ele>89.0</ele><time>2026-04-17T15:39:25.999Z</time></trkpt><trkpt lat="41.896628981539656" lon="12.420085153658594"><ele>87.5</ele><time>2026-04-17T15:39:26.999Z</time></trkpt><trkpt lat="41.896564403191576" lon="12.419963360644742"><ele>86.0</ele><time>2026-04-17T15:39:27.999Z</time></trkpt><trkpt lat="41.89649638973323" lon="12.41984070042326"><ele>86.0</ele><time>2026-04-17T15:39:28.999Z</time></trkpt><trkpt lat="41.896442836934675" lon="12.41973531763591"><ele>86.0</ele><time>2026-04-17T15:39:29.999Z</time></trkpt><trkpt lat="41.89638914987503" lon="12.41963431206086"><ele>86.0</ele><time>2026-04-17T15:39:30.999Z</time></trkpt><trkpt lat="41.89633949974728" lon="12.41953233246211"><ele>86.0</ele><time>2026-04-17T15:39:31.999Z</time></trkpt><trkpt lat="41.896284171332816" lon="12.419429352338279"><ele>86.0</ele><time>2026-04-17T15:39:32.999Z</time></trkpt><trkpt lat="41.89623013392357" lon="12.419325431654466"><ele>85.83333333333334</ele><time>2026-04-17T15:39:33.999Z</time></trkpt><trkpt lat="41.89617674961697" lon="12.419227115373094"><ele>85.66666666666667</ele><time>2026-04-17T15:39:34.999Z</time></trkpt><trkpt lat="41.89612360568649" lon="12.419124290220525"><ele>85.5</ele><time>2026-04-17T15:39:35.999Z</time></trkpt><trkpt lat="41.896071542499705" lon="12.419029622425578"><ele>85.33333333333333</ele><time>2026-04-17T15:39:36.999Z</time></trkpt><trkpt lat="41.8960277055632" lon="12.41894669587316"><ele>85.16666666666666</ele><time>2026-04-17T15:39:37.999Z</time></trkpt><trkpt lat="41.89598577937693" lon="12.418869948379108"><ele>85.0</ele><time>2026-04-17T15:39:38.999Z</time></trkpt><trkpt lat="41.89594534847848" lon="12.418799015285499"><ele>85.2</ele><time>2026-04-17T15:39:39.999Z</time></trkpt><trkpt lat="41.89590728246282" lon="12.41872995064634"><ele>85.4</ele><time>2026-04-17T15:39:40.999Z</time></trkpt><trkpt lat="41.895843315907655" lon="12.418616914106979"><ele>85.6</ele><time>2026-04-17T15:39:42.999Z</time></trkpt><trkpt lat="41.89578907742596" lon="12.418522428639658"><ele>85.8</ele><time>2026-04-17T15:39:44.998Z</time></trkpt><trkpt lat="41.895712041446316" lon="12.418389445852823"><ele>86.0</ele><time>2026-04-17T15:39:46.998Z</time></trkpt><trkpt lat="41.8956654579662" lon="12.418302828331106"><ele>86.0</ele><time>2026-04-17T15:39:47.998Z</time></trkpt><trkpt lat="41.89560930694029" lon="12.418202321122466"><ele>86.0</ele><time>2026-04-17T15:39:48.998Z</time></trkpt><trkpt lat="41.89554166923326" lon="12.4180946642656"><ele>86.0</ele><time>2026-04-17T15:39:49.998Z</time></trkpt><trkpt lat="41.895486334656475" lon="12.417993780343943"><ele>86.0</ele><time>2026-04-17T15:39:50.998Z</time></trkpt><trkpt lat="41.895427471534724" lon="12.417889523948833"><ele>86.0</ele><time>2026-04-17T15:39:51.998Z</time></trkpt><trkpt lat="41.89537230270005" lon="12.417785061853564"><ele>86.0</ele><time>2026-04-17T15:39:52.998Z</time></trkpt><trkpt lat="41.89531276333071" lon="12.417683144518822"><ele>86.0</ele><time>2026-04-17T15:39:53.998Z</time></trkpt><trkpt lat="41.89524789604911" lon="12.41758393578612"><ele>86.0</ele><time>2026-04-17T15:39:54.998Z</time></trkpt><trkpt lat="41.895180914167675" lon="12.417483542631784"><ele>86.0</ele><time>2026-04-17T15:39:55.998Z</time></trkpt><trkpt lat="41.895111379969805" lon="12.417382941764258"><ele>86.0</ele><time>2026-04-17T15:39:56.998Z</time></trkpt><trkpt lat="41.89503837434707" lon="12.417284207438954"><ele>86.0</ele><time>2026-04-17T15:39:57.998Z</time></trkpt><trkpt lat="41.89496517118587" lon="12.417180552522833"><ele>86.0</ele><time>2026-04-17T15:39:58.998Z</time></trkpt><trkpt lat="41.89489640939773" lon="12.417085193955776"><ele>86.0</ele><time>2026-04-17T15:39:59.998Z</time></trkpt><trkpt lat="41.8948190960874" lon="12.416983266459646"><ele>86.0</ele><time>2026-04-17T15:40:00.998Z</time></trkpt><trkpt lat="41.89474067233285" lon="12.416880680659485"><ele>86.0</ele><time>2026-04-17T15:40:01.998Z</time></trkpt><trkpt lat="41.894678174262445" lon="12.41677852889764"><ele>85.8</ele><time>2026-04-17T15:40:03Z</time></trkpt><trkpt lat="41.89460520126947" lon="12.416677674992625"><ele>85.6</ele><time>2026-04-17T15:40:04Z</time></trkpt><trkpt lat="41.89453202664711" lon="12.416580932461555"><ele>85.4</ele><time>2026-04-17T15:40:05Z</time></trkpt><trkpt lat="41.89447245056081" lon="12.416495697443903"><ele>85.2</ele><time>2026-04-17T15:40:06Z</time></trkpt><trkpt lat="41.894405835178645" lon="12.416404121151494"><ele>85.0</ele><time>2026-04-17T15:40:07Z</time></trkpt><trkpt lat="41.89433936314672" lon="12.416312029115351"><ele>85.0</ele><time>2026-04-17T15:40:08Z</time></trkpt><trkpt lat="41.89426857850006" lon="12.416214155814737"><ele>85.0</ele><time>2026-04-17T15:40:09Z</time></trkpt><trkpt lat="41.89419868821289" lon="12.416116731340049"><ele>85.0</ele><time>2026-04-17T15:40:10Z</time></trkpt><trkpt lat="41.89411828995116" lon="12.416017759117274"><ele>85.0</ele><time>2026-04-17T15:40:11Z</time></trkpt><trkpt lat="41.89402848166" lon="12.415906918870641"><ele>85.0</ele><time>2026-04-17T15:40:12Z</time></trkpt><trkpt lat="41.89394065190754" lon="12.415797103361738"><ele>85.0</ele><time>2026-04-17T15:40:13Z</time></trkpt><trkpt lat="41.89386384618081" lon="12.41569051144891"><ele>85.0</ele><time>2026-04-17T15:40:14Z</time></trkpt><trkpt lat="41.8937835076686" lon="12.415587445318302"><ele>85.0</ele><time>2026-04-17T15:40:15Z</time></trkpt><trkpt lat="41.8937048932559" lon="12.415491016642495"><ele>85.0</ele><time>2026-04-17T15:40:16Z</time></trkpt><trkpt lat="41.893628243652756" lon="12.41540832552798"><ele>85.0</ele><time>2026-04-17T15:40:17Z</time></trkpt><trkpt lat="41.89348330538834" lon="12.415241100373622"><ele>84.33333333333333</ele><time>2026-04-17T15:40:19Z</time></trkpt><trkpt lat="41.89341846758687" lon="12.415161413879476"><ele>83.66666666666666</ele><time>2026-04-17T15:40:20Z</time></trkpt><trkpt lat="41.89335516902431" lon="12.415080551398972"><ele>83.0</ele><time>2026-04-17T15:40:21Z</time></trkpt><trkpt lat="41.89329464978874" lon="12.41500478358211"><ele>82.33333333333333</ele><time>2026-04-17T15:40:22Z</time></trkpt><trkpt lat="41.893238284224395" lon="12.414934118455136"><ele>81.66666666666667</ele><time>2026-04-17T15:40:23Z</time></trkpt><trkpt lat="41.893188373040644" lon="12.414874504632936"><ele>81.0</ele><time>2026-04-17T15:40:24Z</time></trkpt><trkpt lat="41.893108299690645" lon="12.414774002116053"><ele>81.0</ele><time>2026-04-17T15:40:26Z</time></trkpt><trkpt lat="41.89303877649906" lon="12.414681569414824"><ele>81.0</ele><time>2026-04-17T15:40:28Z</time></trkpt><trkpt lat="41.89296216321206" lon="12.414602538864774"><ele>81.0</ele><time>2026-04-17T15:40:30Z</time></trkpt><trkpt lat="41.89288668073126" lon="12.414538364039524"><ele>81.0</ele><time>2026-04-17T15:40:32Z</time></trkpt><trkpt lat="41.892818656650896" lon="12.414459575494343"><ele>81.0</ele><time>2026-04-17T15:40:34Z</time></trkpt><trkpt lat="41.89275737032113" lon="12.414382908079682"><ele>81.0</ele><time>2026-04-17T15:40:36Z</time></trkpt><trkpt lat="41.892696833831785" lon="12.414311603168239"><ele>81.0</ele><time>2026-04-17T15:40:38Z</time></trkpt><trkpt lat="41.89264475667325" lon="12.414250477069574"><ele>81.0</ele><time>2026-04-17T15:40:40Z</time></trkpt><trkpt lat="41.89259470079893" lon="12.414191500604998"><ele>81.0</ele><time>2026-04-17T15:40:42Z</time></trkpt><trkpt lat="41.89252693617254" lon="12.414127730701695"><ele>81.0</ele><time>2026-04-17T15:40:45Z</time></trkpt><trkpt lat="41.89246864038548" lon="12.414062663483893"><ele>81.0</ele><time>2026-04-17T15:40:57Z</time></trkpt><trkpt lat="41.89239926755133" lon="12.413991134912484"><ele>81.0</ele><time>2026-04-17T15:40:58Z</time></trkpt><trkpt lat="41.892314846169455" lon="12.413912213187661"><ele>81.0</ele><time>2026-04-17T15:40:59Z</time></trkpt><trkpt lat="41.89222070542799" lon="12.413835567722248"><ele>81.0</ele><time>2026-04-17T15:41:00Z</time></trkpt><trkpt lat="41.892105397268935" lon="12.413754663389941"><ele>81.0</ele><time>2026-04-17T15:41:00.999Z</time></trkpt><trkpt lat="41.891973943996746" lon="12.413667068565717"><ele>81.33333333333333</ele><time>2026-04-17T15:41:01.999Z</time></trkpt><trkpt lat="41.89183336414822" lon="12.413572322276636"><ele>81.66666666666666</ele><time>2026-04-17T15:41:02.999Z</time></trkpt><trkpt lat="41.89169421317667" lon="12.413477790696824"><ele>82.0</ele><time>2026-04-17T15:41:03.999Z</time></trkpt><trkpt lat="41.89154674875716" lon="12.413385642991765"><ele>81.0</ele><time>2026-04-17T15:41:04.999Z</time></trkpt><trkpt lat="41.89140520618321" lon="12.413283698838367"><ele>80.0</ele><time>2026-04-17T15:41:05.999Z</time></trkpt><trkpt lat="41.8912768237609" lon="12.413190604864026"><ele>79.0</ele><time>2026-04-17T15:41:06.999Z</time></trkpt><trkpt lat="41.8911503531742" lon="12.413093184767455"><ele>79.0</ele><time>2026-04-17T15:41:07.999Z</time></trkpt><trkpt lat="41.891021165446034" lon="12.412992713288013"><ele>79.0</ele><time>2026-04-17T15:41:08.999Z</time></trkpt><trkpt lat="41.89090555664833" lon="12.412900624091993"><ele>79.0</ele><time>2026-04-17T15:41:09.999Z</time></trkpt><trkpt lat="41.89080462334339" lon="12.412812639044663"><ele>79.0</ele><time>2026-04-17T15:41:10.999Z</time></trkpt><trkpt lat="41.89070811431842" lon="12.412726371991768"><ele>78.8</ele><time>2026-04-17T15:41:11.999Z</time></trkpt><trkpt lat="41.89062066208238" lon="12.412639090461598"><ele>78.60000000000001</ele><time>2026-04-17T15:41:12.999Z</time></trkpt><trkpt lat="41.89054181512341" lon="12.412556024239208"><ele>78.4</ele><time>2026-04-17T15:41:13.999Z</time></trkpt><trkpt lat="41.890461097062136" lon="12.41247680913822"><ele>78.2</ele><time>2026-04-17T15:41:14.999Z</time></trkpt><trkpt lat="41.8903914791447" lon="12.412392515970051"><ele>78.0</ele><time>2026-04-17T15:41:15.999Z</time></trkpt><trkpt lat="41.89032620245984" lon="12.412312186852866"><ele>78.0</ele><time>2026-04-17T15:41:16.999Z</time></trkpt><trkpt lat="41.89027573475828" lon="12.412245047286012"><ele>78.0</ele><time>2026-04-17T15:41:17.999Z</time></trkpt><trkpt lat="41.890219471780966" lon="12.412171679226844"><ele>78.0</ele><time>2026-04-17T15:41:18.999Z</time></trkpt><trkpt lat="41.89014901717251" lon="12.412101601958842"><ele>78.0</ele><time>2026-04-17T15:41:19.999Z</time></trkpt><trkpt lat="41.89010429809844" lon="12.412009133573068"><ele>78.0</ele><time>2026-04-17T15:41:20.999Z</time></trkpt><trkpt lat="41.890061458370766" lon="12.411913312450467"><ele>78.0</ele><time>2026-04-17T15:41:21.999Z</time></trkpt><trkpt lat="41.89002003292192" lon="12.411809050298642"><ele>77.8</ele><time>2026-04-17T15:41:22.999Z</time></trkpt><trkpt lat="41.889980175414415" lon="12.411704136917201"><ele>77.6</ele><time>2026-04-17T15:41:23.999Z</time></trkpt><trkpt lat="41.88994217128315" lon="12.41159698682904"><ele>77.4</ele><time>2026-04-17T15:41:24.999Z</time></trkpt><trkpt lat="41.88990587614633" lon="12.411492283670425"><ele>77.2</ele><time>2026-04-17T15:41:25.999Z</time></trkpt><trkpt lat="41.889870744354944" lon="12.411382585575327"><ele>77.0</ele><time>2026-04-17T15:41:26.999Z</time></trkpt><trkpt lat="41.889832252311045" lon="12.411260065134826"><ele>77.0</ele><time>2026-04-17T15:41:27.999Z</time></trkpt><trkpt lat="41.88979387970689" lon="12.411122038698416"><ele>77.0</ele><time>2026-04-17T15:41:28.999Z</time></trkpt><trkpt lat="41.88975731328226" lon="12.410968109371396"><ele>77.0</ele><time>2026-04-17T15:41:29.999Z</time></trkpt><trkpt lat="41.88972702406743" lon="12.41081612126579"><ele>77.0</ele><time>2026-04-17T15:41:30.999Z</time></trkpt><trkpt lat="41.88969490256432" lon="12.410656558075885"><ele>77.0</ele><time>2026-04-17T15:41:31.999Z</time></trkpt><trkpt lat="41.88967140610257" lon="12.410502823580865"><ele>77.0</ele><time>2026-04-17T15:41:32.999Z</time></trkpt><trkpt lat="41.88965054567019" lon="12.410354744686808"><ele>77.0</ele><time>2026-04-17T15:41:33.999Z</time></trkpt><trkpt lat="41.88962642059195" lon="12.410214791025046"><ele>77.0</ele><time>2026-04-17T15:41:34.999Z</time></trkpt><trkpt lat="41.8896061361136" lon="12.410077016723747"><ele>77.0</ele><time>2026-04-17T15:41:35.999Z</time></trkpt><trkpt lat="41.88958669743085" lon="12.40994437258302"><ele>77.5</ele><time>2026-04-17T15:41:36.999Z</time></trkpt><trkpt lat="41.88956574304603" lon="12.40981522443737"><ele>78.0</ele><time>2026-04-17T15:41:37.999Z</time></trkpt><trkpt lat="41.88954854882439" lon="12.409695758746725"><ele>78.5</ele><time>2026-04-17T15:41:38.999Z</time></trkpt><trkpt lat="41.889534187186335" lon="12.40958882377961"><ele>79.0</ele><time>2026-04-17T15:41:39.999Z</time></trkpt><trkpt lat="41.88951866223048" lon="12.409484826064853"><ele>79.5</ele><time>2026-04-17T15:41:40.999Z</time></trkpt><trkpt lat="41.88950306975592" lon="12.409390312482827"><ele>80.0</ele><time>2026-04-17T15:41:41.999Z</time></trkpt><trkpt lat="41.88948572560867" lon="12.4092914038687"><ele>79.83333333333334</ele><time>2026-04-17T15:41:42.999Z</time></trkpt><trkpt lat="41.889465621921914" lon="12.409188631901683"><ele>79.66666666666667</ele><time>2026-04-17T15:41:43.999Z</time></trkpt><trkpt lat="41.88944140440877" lon="12.409082824790021"><ele>79.5</ele><time>2026-04-17T15:41:44.999Z</time></trkpt><trkpt lat="41.8894059348471" lon="12.40897545291207"><ele>79.33333333333333</ele><time>2026-04-17T15:41:45.999Z</time></trkpt><trkpt lat="41.88936684550283" lon="12.408870757140361"><ele>79.16666666666666</ele><time>2026-04-17T15:41:46.999Z</time></trkpt><trkpt lat="41.889322838567246" lon="12.408758018880674"><ele>79.0</ele><time>2026-04-17T15:41:47.999Z</time></trkpt><trkpt lat="41.88927890035429" lon="12.408642161433093"><ele>78.66666666666666</ele><time>2026-04-17T15:41:48.999Z</time></trkpt><trkpt lat="41.88924088160754" lon="12.40853244800176"><ele>78.33333333333333</ele><time>2026-04-17T15:41:49.999Z</time></trkpt><trkpt lat="41.889200672677916" lon="12.408424644430015"><ele>78.0</ele><time>2026-04-17T15:41:50.999Z</time></trkpt><trkpt lat="41.88916055893156" lon="12.408322306660352"><ele>77.66666666666667</ele><time>2026-04-17T15:41:51.999Z</time></trkpt><trkpt lat="41.88912322303597" lon="12.408218614656038"><ele>77.33333333333334</ele><time>2026-04-17T15:41:52.998Z</time></trkpt><trkpt lat="41.889088161732985" lon="12.408125689015455"><ele>77.0</ele><time>2026-04-17T15:41:53.998Z</time></trkpt><trkpt lat="41.88905249085977" lon="12.408030124439959"><ele>77.16666666666667</ele><time>2026-04-17T15:41:54.998Z</time></trkpt><trkpt lat="41.88902300055176" lon="12.407946849392749"><ele>77.33333333333334</ele><time>2026-04-17T15:41:55.998Z</time></trkpt><trkpt lat="41.88899530724751" lon="12.40785688478839"><ele>77.5</ele><time>2026-04-17T15:41:56.998Z</time></trkpt><trkpt lat="41.888971219671575" lon="12.407763657252897"><ele>77.66666666666667</ele><time>2026-04-17T15:41:57.998Z</time></trkpt><trkpt lat="41.88894512725982" lon="12.40766124422314"><ele>77.83333333333333</ele><time>2026-04-17T15:41:58.998Z</time></trkpt><trkpt lat="41.8889151576631" lon="12.407551441205115"><ele>78.0</ele><time>2026-04-17T15:41:59.998Z</time></trkpt><trkpt lat="41.88888414490058" lon="12.407433432154141"><ele>78.0</ele><time>2026-04-17T15:42:00.998Z</time></trkpt><trkpt lat="41.88885156199985" lon="12.40731559261463"><ele>78.0</ele><time>2026-04-17T15:42:01.998Z</time></trkpt><trkpt lat="41.888823050907966" lon="12.407213500024413"><ele>78.0</ele><time>2026-04-17T15:42:02.998Z</time></trkpt><trkpt lat="41.88879671778874" lon="12.40711888483711"><ele>78.0</ele><time>2026-04-17T15:42:03.998Z</time></trkpt><trkpt lat="41.88875834426835" lon="12.407020095200277"><ele>78.0</ele><time>2026-04-17T15:42:04.998Z</time></trkpt><trkpt lat="41.88871054944901" lon="12.406921022907563"><ele>78.0</ele><time>2026-04-17T15:42:05.998Z</time></trkpt><trkpt lat="41.88865285323073" lon="12.406817404568072"><ele>77.75</ele><time>2026-04-17T15:42:06.998Z</time></trkpt><trkpt lat="41.88861465942841" lon="12.406702711311448"><ele>77.5</ele><time>2026-04-17T15:42:07.998Z</time></trkpt><trkpt lat="41.888572455878396" lon="12.406571097633243"><ele>77.25</ele><time>2026-04-17T15:42:09Z</time></trkpt><trkpt lat="41.888534463801996" lon="12.406433411344924"><ele>77.0</ele><time>2026-04-17T15:42:10Z</time></trkpt><trkpt lat="41.88850983707025" lon="12.406234990678078"><ele>75.75</ele><time>2026-04-17T15:42:12Z</time></trkpt><trkpt lat="41.888478861991075" lon="12.40609911168209"><ele>74.5</ele><time>2026-04-17T15:42:13Z</time></trkpt><trkpt lat="41.888438979509644" lon="12.405943778297658"><ele>73.25</ele><time>2026-04-17T15:42:14Z</time></trkpt><trkpt lat="41.888404309479625" lon="12.405785511895301"><ele>72.0</ele><time>2026-04-17T15:42:15Z</time></trkpt><trkpt lat="41.888369263529256" lon="12.40561693504592"><ele>70.0</ele><time>2026-04-17T15:42:16Z</time></trkpt><trkpt lat="41.88833344441832" lon="12.405440255984306"><ele>68.0</ele><time>2026-04-17T15:42:17Z</time></trkpt><trkpt lat="41.88830151351566" lon="12.405265165181873"><ele>66.0</ele><time>2026-04-17T15:42:18Z</time></trkpt><trkpt lat="41.88827001673837" lon="12.405086304285733"><ele>64.0</ele><time>2026-04-17T15:42:19Z</time></trkpt><trkpt lat="41.88817496433493" lon="12.404994244427744"><ele>64.0</ele><time>2026-04-17T15:42:20Z</time></trkpt><trkpt lat="41.88811119317683" lon="12.404854595356888"><ele>64.0</ele><time>2026-04-17T15:42:21Z</time></trkpt><trkpt lat="41.88803519043453" lon="12.404719667526669"><ele>64.0</ele><time>2026-04-17T15:42:22Z</time></trkpt><trkpt lat="41.88794199998347" lon="12.404574334294022"><ele>64.0</ele><time>2026-04-17T15:42:23Z</time></trkpt><trkpt lat="41.88785035266287" lon="12.404423050717057"><ele>63.5</ele><time>2026-04-17T15:42:24Z</time></trkpt><trkpt lat="41.88775747361555" lon="12.404269700389488"><ele>63.0</ele><time>2026-04-17T15:42:25Z</time></trkpt><trkpt lat="41.88766700384332" lon="12.404120368916958"><ele>62.5</ele><time>2026-04-17T15:42:26Z</time></trkpt><trkpt lat="41.88757429778551" lon="12.403970050535756"><ele>62.0</ele><time>2026-04-17T15:42:27Z</time></trkpt><trkpt lat="41.88748245686374" lon="12.403825745253863"><ele>61.25</ele><time>2026-04-17T15:42:28Z</time></trkpt><trkpt lat="41.88739523762908" lon="12.403694895109213"><ele>60.5</ele><time>2026-04-17T15:42:29Z</time></trkpt><trkpt lat="41.887309924422105" lon="12.403566210294953"><ele>59.75</ele><time>2026-04-17T15:42:30Z</time></trkpt><trkpt lat="41.88722240756939" lon="12.403432606525937"><ele>59.0</ele><time>2026-04-17T15:42:31Z</time></trkpt><trkpt lat="41.88713613597559" lon="12.403296714074258"><ele>59.0</ele><time>2026-04-17T15:42:32Z</time></trkpt><trkpt lat="41.88705206649193" lon="12.403161822675274"><ele>59.0</ele><time>2026-04-17T15:42:33Z</time></trkpt><trkpt lat="41.88697091738191" lon="12.403031630376466"><ele>59.0</ele><time>2026-04-17T15:42:34Z</time></trkpt><trkpt lat="41.88689888437173" lon="12.402906568116974"><ele>59.0</ele><time>2026-04-17T15:42:35Z</time></trkpt><trkpt lat="41.886823737848935" lon="12.402784182938513"><ele>58.0</ele><time>2026-04-17T15:42:36Z</time></trkpt><trkpt lat="41.88675591081506" lon="12.402669127476189"><ele>57.00000000000001</ele><time>2026-04-17T15:42:37Z</time></trkpt><trkpt lat="41.88669239487479" lon="12.402549248977925"><ele>56.00000000000001</ele><time>2026-04-17T15:42:38Z</time></trkpt><trkpt lat="41.88663256916046" lon="12.402437007448613"><ele>55.0</ele><time>2026-04-17T15:42:39Z</time></trkpt><trkpt lat="41.886569833113306" lon="12.402325351194975"><ele>54.0</ele><time>2026-04-17T15:42:40Z</time></trkpt><trkpt lat="41.88650818530302" lon="12.402208176179483"><ele>53.800000000000004</ele><time>2026-04-17T15:42:41Z</time></trkpt><trkpt lat="41.88645760408359" lon="12.402090611521333"><ele>53.60000000000001</ele><time>2026-04-17T15:42:42Z</time></trkpt><trkpt lat="41.886404973421804" lon="12.401964163622619"><ele>53.4</ele><time>2026-04-17T15:42:43Z</time></trkpt><trkpt lat="41.88635195420364" lon="12.401825709283225"><ele>53.2</ele><time>2026-04-17T15:42:44Z</time></trkpt><trkpt lat="41.88629289186816" lon="12.401683572862103"><ele>53.0</ele><time>2026-04-17T15:42:45Z</time></trkpt><trkpt lat="41.886238800656976" lon="12.401547597579274"><ele>53.00000000000001</ele><time>2026-04-17T15:42:46Z</time></trkpt><trkpt lat="41.88618606617436" lon="12.401423584662687"><ele>53.0</ele><time>2026-04-17T15:42:47Z</time></trkpt><trkpt lat="41.886140295618254" lon="12.401314700943475"><ele>53.0</ele><time>2026-04-17T15:42:48Z</time></trkpt><trkpt lat="41.886096989414966" lon="12.4012144712442"><ele>53.0</ele><time>2026-04-17T15:42:49Z</time></trkpt><trkpt lat="41.886060905289916" lon="12.401124685230224"><ele>53.00000000000001</ele><time>2026-04-17T15:42:50Z</time></trkpt><trkpt lat="41.88602629833074" lon="12.401029761897684"><ele>53.0</ele><time>2026-04-17T15:42:51Z</time></trkpt><trkpt lat="41.88598907500218" lon="12.40093103364209"><ele>53.00000000000001</ele><time>2026-04-17T15:42:52Z</time></trkpt><trkpt lat="41.88594833510567" lon="12.40082736039821"><ele>53.0</ele><time>2026-04-17T15:42:53Z</time></trkpt><trkpt lat="41.885911002547736" lon="12.400727847764557"><ele>53.0</ele><time>2026-04-17T15:42:54Z</time></trkpt><trkpt lat="41.8858738060221" lon="12.40063092637092"><ele>53.0</ele><time>2026-04-17T15:42:55Z</time></trkpt><trkpt lat="41.88582784897247" lon="12.400533002849494"><ele>53.00000000000001</ele><time>2026-04-17T15:42:56Z</time></trkpt><trkpt lat="41.885793149453384" lon="12.400426921134947"><ele>53.0</ele><time>2026-04-17T15:42:57Z</time></trkpt><trkpt lat="41.88575735267467" lon="12.400324021751857"><ele>53.0</ele><time>2026-04-17T15:42:58Z</time></trkpt><trkpt lat="41.88571606315337" lon="12.400221513367532"><ele>53.0</ele><time>2026-04-17T15:42:59Z</time></trkpt><trkpt lat="41.885675564786375" lon="12.400110720912263"><ele>53.0</ele><time>2026-04-17T15:43:00Z</time></trkpt><trkpt lat="41.88563167158436" lon="12.400003970118563"><ele>53.0</ele><time>2026-04-17T15:43:01Z</time></trkpt><trkpt lat="41.88559129421929" lon="12.39989702406465"><ele>53.0</ele><time>2026-04-17T15:43:02Z</time></trkpt><trkpt lat="41.88554873462467" lon="12.399778520623542"><ele>53.0</ele><time>2026-04-17T15:43:03Z</time></trkpt><trkpt lat="41.885501734836936" lon="12.39965184154858"><ele>53.0</ele><time>2026-04-17T15:43:04Z</time></trkpt><trkpt lat="41.885451488758335" lon="12.399529549626614"><ele>53.0</ele><time>2026-04-17T15:43:05Z</time></trkpt><trkpt lat="41.88540113870355" lon="12.399403693389623"><ele>53.0</ele><time>2026-04-17T15:43:06Z</time></trkpt><trkpt lat="41.885349015231114" lon="12.399281624967227"><ele>53.0</ele><time>2026-04-17T15:43:07Z</time></trkpt><trkpt lat="41.88530553766055" lon="12.399183645327762"><ele>53.0</ele><time>2026-04-17T15:43:08Z</time></trkpt><trkpt lat="41.88525769685255" lon="12.399057965778393"><ele>53.0</ele><time>2026-04-17T15:43:09Z</time></trkpt><trkpt lat="41.885209608691234" lon="12.39892109421728"><ele>53.0</ele><time>2026-04-17T15:43:10Z</time></trkpt><trkpt lat="41.88515156209391" lon="12.398773129948962"><ele>53.0</ele><time>2026-04-17T15:43:10.999Z</time></trkpt><trkpt lat="41.88508741768009" lon="12.39862354771573"><ele>51.75</ele><time>2026-04-17T15:43:11.999Z</time></trkpt><trkpt lat="41.885024689646364" lon="12.398464539082374"><ele>50.5</ele><time>2026-04-17T15:43:12.999Z</time></trkpt><trkpt lat="41.884961492057585" lon="12.398300764752396"><ele>49.25</ele><time>2026-04-17T15:43:13.999Z</time></trkpt><trkpt lat="41.88489918955132" lon="12.398130391983337"><ele>48.0</ele><time>2026-04-17T15:43:14.999Z</time></trkpt><trkpt lat="41.88483770462135" lon="12.39795441594775"><ele>48.0</ele><time>2026-04-17T15:43:15.999Z</time></trkpt><trkpt lat="41.884769746343416" lon="12.397781103019636"><ele>48.0</ele><time>2026-04-17T15:43:16.999Z</time></trkpt><trkpt lat="41.88470216472413" lon="12.397608408976243"><ele>48.0</ele><time>2026-04-17T15:43:17.999Z</time></trkpt><trkpt lat="41.88464204110697" lon="12.397446093346081"><ele>48.0</ele><time>2026-04-17T15:43:18.999Z</time></trkpt><trkpt lat="41.88457900997778" lon="12.39727880933875"><ele>50.5</ele><time>2026-04-17T15:43:19.999Z</time></trkpt><trkpt lat="41.88451647961732" lon="12.397118510769507"><ele>53.0</ele><time>2026-04-17T15:43:20.999Z</time></trkpt><trkpt lat="41.88445662857206" lon="12.396954931429857"><ele>55.5</ele><time>2026-04-17T15:43:21.999Z</time></trkpt><trkpt lat="41.88440563968533" lon="12.396800404717403"><ele>58.0</ele><time>2026-04-17T15:43:22.999Z</time></trkpt><trkpt lat="41.88435819480082" lon="12.396640533059186"><ele>58.0</ele><time>2026-04-17T15:43:23.999Z</time></trkpt><trkpt lat="41.88431704922996" lon="12.39648367300404"><ele>58.0</ele><time>2026-04-17T15:43:24.999Z</time></trkpt><trkpt lat="41.88427753467396" lon="12.396328766838643"><ele>58.0</ele><time>2026-04-17T15:43:25.999Z</time></trkpt><trkpt lat="41.884242660819325" lon="12.396169013843634"><ele>58.0</ele><time>2026-04-17T15:43:26.999Z</time></trkpt><trkpt lat="41.884216645815584" lon="12.39599944613504"><ele>55.5</ele><time>2026-04-17T15:43:27.999Z</time></trkpt><trkpt lat="41.88419426360831" lon="12.395843996795115"><ele>53.0</ele><time>2026-04-17T15:43:28.999Z</time></trkpt><trkpt lat="41.884173664139084" lon="12.395698177416444"><ele>50.5</ele><time>2026-04-17T15:43:29.999Z</time></trkpt><trkpt lat="41.884150709987196" lon="12.395555626813925"><ele>48.0</ele><time>2026-04-17T15:43:30.999Z</time></trkpt><trkpt lat="41.88413207925252" lon="12.395405075567867"><ele>48.0</ele><time>2026-04-17T15:43:31.999Z</time></trkpt><trkpt lat="41.884116599232115" lon="12.39525928106132"><ele>48.0</ele><time>2026-04-17T15:43:32.999Z</time></trkpt><trkpt lat="41.884106732481065" lon="12.395117793758969"><ele>48.0</ele><time>2026-04-17T15:43:33.999Z</time></trkpt><trkpt lat="41.88409925925122" lon="12.39498877630625"><ele>48.0</ele><time>2026-04-17T15:43:34.999Z</time></trkpt><trkpt lat="41.8840895353124" lon="12.394857259222562"><ele>48.0</ele><time>2026-04-17T15:43:35.999Z</time></trkpt><trkpt lat="41.88408604073896" lon="12.394730950727574"><ele>47.599999999999994</ele><time>2026-04-17T15:43:36.999Z</time></trkpt><trkpt lat="41.88408628641784" lon="12.394601148312407"><ele>47.199999999999996</ele><time>2026-04-17T15:43:37.999Z</time></trkpt><trkpt lat="41.88409052700081" lon="12.394467185575325"><ele>46.8</ele><time>2026-04-17T15:43:38.999Z</time></trkpt><trkpt lat="41.884093584235735" lon="12.394320749894755"><ele>46.4</ele><time>2026-04-17T15:43:39.999Z</time></trkpt><trkpt lat="41.88409343477974" lon="12.394175553929381"><ele>46.0</ele><time>2026-04-17T15:43:40.999Z</time></trkpt><trkpt lat="41.884104900902365" lon="12.394024145814978"><ele>46.0</ele><time>2026-04-17T15:43:41.999Z</time></trkpt><trkpt lat="41.88411671235466" lon="12.393888147395115"><ele>46.0</ele><time>2026-04-17T15:43:42.999Z</time></trkpt><trkpt lat="41.88412769805199" lon="12.393758506653246"><ele>46.0</ele><time>2026-04-17T15:43:43.999Z</time></trkpt><trkpt lat="41.88414040083167" lon="12.393621626068347"><ele>46.0</ele><time>2026-04-17T15:43:44.999Z</time></trkpt><trkpt lat="41.884155226120434" lon="12.393484790933764"><ele>46.0</ele><time>2026-04-17T15:43:45.999Z</time></trkpt><trkpt lat="41.884174570990346" lon="12.393343133343285"><ele>45.8</ele><time>2026-04-17T15:43:46.999Z</time></trkpt><trkpt lat="41.884196102607405" lon="12.393198407704688"><ele>45.599999999999994</ele><time>2026-04-17T15:43:47.999Z</time></trkpt><trkpt lat="41.88422057888352" lon="12.393053863494695"><ele>45.4</ele><time>2026-04-17T15:43:48.999Z</time></trkpt><trkpt lat="41.88424920733077" lon="12.39291726279047"><ele>45.2</ele><time>2026-04-17T15:43:49.999Z</time></trkpt><trkpt lat="41.884272559971976" lon="12.392810626890153"><ele>45.0</ele><time>2026-04-17T15:43:50.999Z</time></trkpt><trkpt lat="41.88429332280114" lon="12.392719446727043"><ele>44.6</ele><time>2026-04-17T15:43:51.999Z</time></trkpt><trkpt lat="41.88432464403574" lon="12.392578211348125"><ele>44.2</ele><time>2026-04-17T15:43:53.999Z</time></trkpt><trkpt lat="41.884360912722144" lon="12.392417158377517"><ele>43.8</ele><time>2026-04-17T15:43:55.999Z</time></trkpt><trkpt lat="41.88439575921443" lon="12.392304622398196"><ele>43.4</ele><time>2026-04-17T15:43:56.999Z</time></trkpt><trkpt lat="41.884436053913625" lon="12.392189892898354"><ele>43.0</ele><time>2026-04-17T15:43:57.999Z</time></trkpt><trkpt lat="41.884467427600725" lon="12.392107786988174"><ele>44.2</ele><time>2026-04-17T15:43:58.999Z</time></trkpt><trkpt lat="41.88449576039451" lon="12.392015157655724"><ele>45.4</ele><time>2026-04-17T15:43:59.999Z</time></trkpt><trkpt lat="41.88452640467237" lon="12.391914463024353"><ele>46.6</ele><time>2026-04-17T15:44:00.999Z</time></trkpt><trkpt lat="41.884575053101685" lon="12.391792421121387"><ele>47.800000000000004</ele><time>2026-04-17T15:44:01.999Z</time></trkpt><trkpt lat="41.884623334049834" lon="12.391666718246135"><ele>49.0</ele><time>2026-04-17T15:44:02.998Z</time></trkpt><trkpt lat="41.884675467258226" lon="12.39154338113041"><ele>48.99999999999999</ele><time>2026-04-17T15:44:03.998Z</time></trkpt><trkpt lat="41.884719653943456" lon="12.391433452283712"><ele>49.0</ele><time>2026-04-17T15:44:04.998Z</time></trkpt><trkpt lat="41.88476241508137" lon="12.39132716726327"><ele>49.0</ele><time>2026-04-17T15:44:05.998Z</time></trkpt><trkpt lat="41.88479566159033" lon="12.391245880900858"><ele>49.0</ele><time>2026-04-17T15:44:06.998Z</time></trkpt><trkpt lat="41.88485127232229" lon="12.391133632175046"><ele>48.99999999999999</ele><time>2026-04-17T15:44:08.998Z</time></trkpt><trkpt lat="41.884896045442346" lon="12.391041415755744"><ele>49.0</ele><time>2026-04-17T15:44:10.998Z</time></trkpt><trkpt lat="41.88494751445703" lon="12.39092397047393"><ele>49.800000000000004</ele><time>2026-04-17T15:44:12.998Z</time></trkpt><trkpt lat="41.88501061757747" lon="12.390774845165428"><ele>50.6</ele><time>2026-04-17T15:44:15Z</time></trkpt><trkpt lat="41.88504209991439" lon="12.3906968429168"><ele>51.4</ele><time>2026-04-17T15:44:16Z</time></trkpt><trkpt lat="41.88507618321265" lon="12.390607342657267"><ele>52.2</ele><time>2026-04-17T15:44:17Z</time></trkpt><trkpt lat="41.885124009501006" lon="12.390487688875082"><ele>53.0</ele><time>2026-04-17T15:44:18Z</time></trkpt><trkpt lat="41.885192972480866" lon="12.390339352259558"><ele>53.8</ele><time>2026-04-17T15:44:19Z</time></trkpt><trkpt lat="41.88525925189574" lon="12.39020299354954"><ele>54.599999999999994</ele><time>2026-04-17T15:44:20Z</time></trkpt><trkpt lat="41.88531668926427" lon="12.390084927940975"><ele>55.400000000000006</ele><time>2026-04-17T15:44:21Z</time></trkpt><trkpt lat="41.885372130882466" lon="12.389966743147564"><ele>56.2</ele><time>2026-04-17T15:44:22Z</time></trkpt><trkpt lat="41.885420556734864" lon="12.389866098489126"><ele>57.0</ele><time>2026-04-17T15:44:23Z</time></trkpt><trkpt lat="41.88547457016261" lon="12.38976249963088"><ele>58.2</ele><time>2026-04-17T15:44:24Z</time></trkpt><trkpt lat="41.88553370200644" lon="12.389649427041515"><ele>59.400000000000006</ele><time>2026-04-17T15:44:25Z</time></trkpt><trkpt lat="41.88558811729698" lon="12.389549316675705"><ele>60.599999999999994</ele><time>2026-04-17T15:44:26Z</time></trkpt><trkpt lat="41.88564602713829" lon="12.38943900563313"><ele>61.8</ele><time>2026-04-17T15:44:27Z</time></trkpt><trkpt lat="41.88570047753982" lon="12.389326473103806"><ele>63.0</ele><time>2026-04-17T15:44:28Z</time></trkpt><trkpt lat="41.885763722962984" lon="12.38922896831024"><ele>63.0</ele><time>2026-04-17T15:44:29Z</time></trkpt><trkpt lat="41.88584215895656" lon="12.38913745583"><ele>63.0</ele><time>2026-04-17T15:44:30Z</time></trkpt><trkpt lat="41.885926468682484" lon="12.389058045136833"><ele>63.0</ele><time>2026-04-17T15:44:31Z</time></trkpt><trkpt lat="41.886018521659764" lon="12.388979974307816"><ele>63.0</ele><time>2026-04-17T15:44:32Z</time></trkpt><trkpt lat="41.88612097742562" lon="12.38892045095086"><ele>63.0</ele><time>2026-04-17T15:44:33Z</time></trkpt><trkpt lat="41.88623524691784" lon="12.388881862555671"><ele>63.5</ele><time>2026-04-17T15:44:34Z</time></trkpt><trkpt lat="41.886356364758846" lon="12.388867281875935"><ele>64.0</ele><time>2026-04-17T15:44:35Z</time></trkpt><trkpt lat="41.88649529517975" lon="12.388868312461371"><ele>64.5</ele><time>2026-04-17T15:44:36Z</time></trkpt><trkpt lat="41.88662046157697" lon="12.38886073619198"><ele>65.0</ele><time>2026-04-17T15:44:37Z</time></trkpt><trkpt lat="41.88673620157318" lon="12.388849630810071"><ele>65.0</ele><time>2026-04-17T15:44:38Z</time></trkpt><trkpt lat="41.88685998122865" lon="12.388846893064432"><ele>65.0</ele><time>2026-04-17T15:44:39Z</time></trkpt><trkpt lat="41.886965646042654" lon="12.388841455728018"><ele>65.0</ele><time>2026-04-17T15:44:40Z</time></trkpt><trkpt lat="41.887059706594215" lon="12.388835339963018"><ele>65.0</ele><time>2026-04-17T15:44:41Z</time></trkpt><trkpt lat="41.88715096395142" lon="12.3888295710272"><ele>65.0</ele><time>2026-04-17T15:44:42Z</time></trkpt><trkpt lat="41.8872380266124" lon="12.388814294340934"><ele>65.2</ele><time>2026-04-17T15:44:43Z</time></trkpt><trkpt lat="41.887317173632475" lon="12.388798580781373"><ele>65.4</ele><time>2026-04-17T15:44:44Z</time></trkpt><trkpt lat="41.887408780632526" lon="12.388782789808152"><ele>65.6</ele><time>2026-04-17T15:44:45Z</time></trkpt><trkpt lat="41.887471838804046" lon="12.388735499816496"><ele>65.8</ele><time>2026-04-17T15:44:46Z</time></trkpt><trkpt lat="41.88757146048724" lon="12.388771617122131"><ele>66.0</ele><time>2026-04-17T15:44:47Z</time></trkpt><trkpt lat="41.88767831584115" lon="12.388772774529055"><ele>66.2</ele><time>2026-04-17T15:44:48Z</time></trkpt><trkpt lat="41.887801910315716" lon="12.388780798231865"><ele>66.39999999999999</ele><time>2026-04-17T15:44:49Z</time></trkpt><trkpt lat="41.88790691459175" lon="12.388820431458477"><ele>66.6</ele><time>2026-04-17T15:44:50Z</time></trkpt><trkpt lat="41.88799117941898" lon="12.38884254088501"><ele>66.8</ele><time>2026-04-17T15:44:51Z</time></trkpt><trkpt lat="41.88805928116846" lon="12.388870778813954"><ele>67.0</ele><time>2026-04-17T15:44:52Z</time></trkpt><trkpt lat="41.88813563162548" lon="12.38890627846719"><ele>67.5</ele><time>2026-04-17T15:44:53Z</time></trkpt><trkpt lat="41.88823281391377" lon="12.388959526530572"><ele>68.0</ele><time>2026-04-17T15:44:54Z</time></trkpt><trkpt lat="41.88834034707268" lon="12.389017399853625"><ele>68.5</ele><time>2026-04-17T15:44:55Z</time></trkpt><trkpt lat="41.88844274631267" lon="12.389101041607262"><ele>69.0</ele><time>2026-04-17T15:44:56Z</time></trkpt><trkpt lat="41.88855296303015" lon="12.389185422461304"><ele>69.0</ele><time>2026-04-17T15:44:57Z</time></trkpt><trkpt lat="41.88866322445376" lon="12.389293362022348"><ele>69.0</ele><time>2026-04-17T15:44:58Z</time></trkpt><trkpt lat="41.88877148810595" lon="12.389416586666197"><ele>69.0</ele><time>2026-04-17T15:44:59Z</time></trkpt><trkpt lat="41.888875549280364" lon="12.389559493984335"><ele>69.0</ele><time>2026-04-17T15:45:00Z</time></trkpt><trkpt lat="41.88896968064616" lon="12.389720801352851"><ele>70.33333333333333</ele><time>2026-04-17T15:45:01Z</time></trkpt><trkpt lat="41.88905197204604" lon="12.389901923312998"><ele>71.66666666666666</ele><time>2026-04-17T15:45:02Z</time></trkpt><trkpt lat="41.88913394270602" lon="12.390086048323177"><ele>73.0</ele><time>2026-04-17T15:45:03Z</time></trkpt><trkpt lat="41.88921104618298" lon="12.390291114529646"><ele>73.0</ele><time>2026-04-17T15:45:04Z</time></trkpt><trkpt lat="41.88927660201437" lon="12.390484065271364"><ele>73.0</ele><time>2026-04-17T15:45:05Z</time></trkpt><trkpt lat="41.88933591754665" lon="12.390669002718449"><ele>73.0</ele><time>2026-04-17T15:45:06Z</time></trkpt><trkpt lat="41.88939621767436" lon="12.390858361696022"><ele>71.66666666666666</ele><time>2026-04-17T15:45:07Z</time></trkpt><trkpt lat="41.88945351029995" lon="12.391045966231841"><ele>70.33333333333333</ele><time>2026-04-17T15:45:08Z</time></trkpt><trkpt lat="41.889519106538096" lon="12.391239029245922"><ele>69.0</ele><time>2026-04-17T15:45:09Z</time></trkpt><trkpt lat="41.88958656618343" lon="12.391435316913864"><ele>69.0</ele><time>2026-04-17T15:45:10Z</time></trkpt><trkpt lat="41.88965010226861" lon="12.391637143496975"><ele>69.0</ele><time>2026-04-17T15:45:11Z</time></trkpt><trkpt lat="41.88971497539821" lon="12.391838723181834"><ele>69.0</ele><time>2026-04-17T15:45:12Z</time></trkpt><trkpt lat="41.88978069141479" lon="12.392015925303323"><ele>69.75</ele><time>2026-04-17T15:45:13Z</time></trkpt><trkpt lat="41.88983709662239" lon="12.392191808517499"><ele>70.5</ele><time>2026-04-17T15:45:14Z</time></trkpt><trkpt lat="41.889913630359885" lon="12.392351187156452"><ele>71.25</ele><time>2026-04-17T15:45:15Z</time></trkpt><trkpt lat="41.88998832422621" lon="12.392498292480287"><ele>72.0</ele><time>2026-04-17T15:45:16Z</time></trkpt><trkpt lat="41.89006676326928" lon="12.392632563456289"><ele>72.0</ele><time>2026-04-17T15:45:17Z</time></trkpt><trkpt lat="41.89014136946591" lon="12.392767759830548"><ele>72.0</ele><time>2026-04-17T15:45:17.999Z</time></trkpt><trkpt lat="41.89022250616338" lon="12.3928950961445"><ele>72.0</ele><time>2026-04-17T15:45:18.999Z</time></trkpt><trkpt lat="41.89030400237339" lon="12.39302337705205"><ele>72.0</ele><time>2026-04-17T15:45:19.999Z</time></trkpt><trkpt lat="41.8903834935302" lon="12.393154091684716"><ele>72.0</ele><time>2026-04-17T15:45:20.999Z</time></trkpt><trkpt lat="41.89046413309651" lon="12.393281092679896"><ele>72.0</ele><time>2026-04-17T15:45:21.999Z</time></trkpt><trkpt lat="41.8905444325581" lon="12.39340746349379"><ele>72.0</ele><time>2026-04-17T15:45:22.999Z</time></trkpt><trkpt lat="41.89062249230697" lon="12.393534563918038"><ele>72.0</ele><time>2026-04-17T15:45:23.999Z</time></trkpt><trkpt lat="41.89069866088642" lon="12.393658274874095"><ele>72.0</ele><time>2026-04-17T15:45:24.999Z</time></trkpt><trkpt lat="41.89077886364648" lon="12.393785536603152"><ele>72.0</ele><time>2026-04-17T15:45:25.999Z</time></trkpt><trkpt lat="41.890856200356104" lon="12.393908172251308"><ele>72.0</ele><time>2026-04-17T15:45:26.999Z</time></trkpt><trkpt lat="41.890928986141446" lon="12.394021217076077"><ele>72.0</ele><time>2026-04-17T15:45:27.999Z</time></trkpt><trkpt lat="41.89099473910915" lon="12.39412610654151"><ele>71.8</ele><time>2026-04-17T15:45:28.999Z</time></trkpt><trkpt lat="41.891052699424115" lon="12.394221213837486"><ele>71.6</ele><time>2026-04-17T15:45:29.999Z</time></trkpt><trkpt lat="41.89111009916806" lon="12.394313398363238"><ele>71.39999999999999</ele><time>2026-04-17T15:45:30.999Z</time></trkpt><trkpt lat="41.8911685900743" lon="12.394409078270144"><ele>71.2</ele><time>2026-04-17T15:45:31.999Z</time></trkpt><trkpt lat="41.89123355381364" lon="12.394512674553607"><ele>71.0</ele><time>2026-04-17T15:45:32.999Z</time></trkpt><trkpt lat="41.89130427262161" lon="12.394618661026112"><ele>71.25</ele><time>2026-04-17T15:45:33.999Z</time></trkpt><trkpt lat="41.89137042391283" lon="12.394726893744146"><ele>71.5</ele><time>2026-04-17T15:45:34.999Z</time></trkpt><trkpt lat="41.89144332899757" lon="12.394841633904653"><ele>71.75</ele><time>2026-04-17T15:45:35.999Z</time></trkpt><trkpt lat="41.89152059251211" lon="12.394966968242684"><ele>72.0</ele><time>2026-04-17T15:45:36.999Z</time></trkpt><trkpt lat="41.89159438645515" lon="12.395090734825356"><ele>72.0</ele><time>2026-04-17T15:45:37.999Z</time></trkpt><trkpt lat="41.89167392775361" lon="12.395219025810338"><ele>72.0</ele><time>2026-04-17T15:45:38.999Z</time></trkpt><trkpt lat="41.891744104690964" lon="12.395332679677269"><ele>72.0</ele><time>2026-04-17T15:45:39.999Z</time></trkpt><trkpt lat="41.891811390026916" lon="12.395445190393513"><ele>72.0</ele><time>2026-04-17T15:45:40.999Z</time></trkpt><trkpt lat="41.891870709978896" lon="12.395540317287793"><ele>72.0</ele><time>2026-04-17T15:45:41.999Z</time></trkpt><trkpt lat="41.89192781924535" lon="12.395632349533464"><ele>72.00000000000001</ele><time>2026-04-17T15:45:42.999Z</time></trkpt><trkpt lat="41.89198077494478" lon="12.395707178658245"><ele>72.0</ele><time>2026-04-17T15:45:43.999Z</time></trkpt><trkpt lat="41.89202935210226" lon="12.395775669677564"><ele>72.0</ele><time>2026-04-17T15:45:44.999Z</time></trkpt><trkpt lat="41.892078168138205" lon="12.39583557715557"><ele>72.0</ele><time>2026-04-17T15:45:45.999Z</time></trkpt><trkpt lat="41.892128819783935" lon="12.395893395309534"><ele>72.0</ele><time>2026-04-17T15:45:46.999Z</time></trkpt><trkpt lat="41.89218951092184" lon="12.395947136498936"><ele>72.00000000000001</ele><time>2026-04-17T15:45:47.999Z</time></trkpt><trkpt lat="41.89225344750841" lon="12.396002052096522"><ele>72.0</ele><time>2026-04-17T15:45:48.999Z</time></trkpt><trkpt lat="41.89232071302899" lon="12.39603527257207"><ele>72.0</ele><time>2026-04-17T15:45:49.999Z</time></trkpt><trkpt lat="41.89243111407199" lon="12.396097458181801"><ele>72.0</ele><time>2026-04-17T15:45:51.999Z</time></trkpt><trkpt lat="41.89254251456461" lon="12.396118866945686"><ele>72.0</ele><time>2026-04-17T15:45:53.999Z</time></trkpt><trkpt lat="41.892608938495265" lon="12.396119781259419"><ele>72.0</ele><time>2026-04-17T15:45:54.999Z</time></trkpt><trkpt lat="41.89267412249075" lon="12.396112722537396"><ele>72.0</ele><time>2026-04-17T15:45:55.999Z</time></trkpt><trkpt lat="41.89273616917485" lon="12.39609664798616"><ele>72.0</ele><time>2026-04-17T15:45:56.999Z</time></trkpt><trkpt lat="41.89280563963192" lon="12.396077307657599"><ele>72.00000000000001</ele><time>2026-04-17T15:45:57.999Z</time></trkpt><trkpt lat="41.89288486534728" lon="12.396053091284287"><ele>72.0</ele><time>2026-04-17T15:45:58.999Z</time></trkpt><trkpt lat="41.89296359929142" lon="12.396024900788188"><ele>72.0</ele><time>2026-04-17T15:45:59.999Z</time></trkpt><trkpt lat="41.89303465427113" lon="12.395998443750992"><ele>72.0</ele><time>2026-04-17T15:46:00.999Z</time></trkpt><trkpt lat="41.893099787590636" lon="12.39597419164426"><ele>72.0</ele><time>2026-04-17T15:46:01.999Z</time></trkpt><trkpt lat="41.893169044329824" lon="12.395948405758212"><ele>72.00000000000001</ele><time>2026-04-17T15:46:02.999Z</time></trkpt><trkpt lat="41.893238532732006" lon="12.395922532078854"><ele>72.0</ele><time>2026-04-17T15:46:03.999Z</time></trkpt><trkpt lat="41.89331186249155" lon="12.395895227996052"><ele>72.0</ele><time>2026-04-17T15:46:04.999Z</time></trkpt><trkpt lat="41.89338619715932" lon="12.395867520154633"><ele>72.0</ele><time>2026-04-17T15:46:05.999Z</time></trkpt><trkpt lat="41.89344895117824" lon="12.395844120647142"><ele>72.0</ele><time>2026-04-17T15:46:06.999Z</time></trkpt><trkpt lat="41.89357157556596" lon="12.395798396762371"><ele>72.0</ele><time>2026-04-17T15:46:08.999Z</time></trkpt><trkpt lat="41.89363247186296" lon="12.395775689931932"><ele>72.0</ele><time>2026-04-17T15:46:09.998Z</time></trkpt><trkpt lat="41.89373110291828" lon="12.395738912653954"><ele>72.0</ele><time>2026-04-17T15:46:11.998Z</time></trkpt><trkpt lat="41.89382704185983" lon="12.395703137985167"><ele>72.16666666666667</ele><time>2026-04-17T15:46:13.998Z</time></trkpt><trkpt lat="41.89392317304805" lon="12.395667337752354"><ele>72.33333333333333</ele><time>2026-04-17T15:46:15.998Z</time></trkpt><trkpt lat="41.89402699467736" lon="12.395630226353212"><ele>72.5</ele><time>2026-04-17T15:46:17.998Z</time></trkpt><trkpt lat="41.89409236739915" lon="12.395606858554059"><ele>72.66666666666666</ele><time>2026-04-17T15:46:18.998Z</time></trkpt><trkpt lat="41.89416837497434" lon="12.39557931486536"><ele>72.83333333333333</ele><time>2026-04-17T15:46:19.998Z</time></trkpt><trkpt lat="41.894253368204524" lon="12.395548439810629"><ele>73.0</ele><time>2026-04-17T15:46:21Z</time></trkpt><trkpt lat="41.89434455591028" lon="12.395515314434919"><ele>73.2</ele><time>2026-04-17T15:46:22Z</time></trkpt><trkpt lat="41.894440106251814" lon="12.395480212067966"><ele>73.4</ele><time>2026-04-17T15:46:23Z</time></trkpt><trkpt lat="41.8945378965299" lon="12.395444112322021"><ele>73.60000000000001</ele><time>2026-04-17T15:46:24Z</time></trkpt><trkpt lat="41.89463610155507" lon="12.395407859553417"><ele>73.8</ele><time>2026-04-17T15:46:25Z</time></trkpt><trkpt lat="41.894739458789026" lon="12.395369331514322"><ele>74.0</ele><time>2026-04-17T15:46:26Z</time></trkpt><trkpt lat="41.894847876798075" lon="12.395328680101914"><ele>74.0</ele><time>2026-04-17T15:46:27Z</time></trkpt><trkpt lat="41.8949585622302" lon="12.39528717853504"><ele>74.0</ele><time>2026-04-17T15:46:28Z</time></trkpt><trkpt lat="41.89507821970204" lon="12.395242312899173"><ele>74.0</ele><time>2026-04-17T15:46:29Z</time></trkpt><trkpt lat="41.895200337126944" lon="12.3951965249005"><ele>74.0</ele><time>2026-04-17T15:46:30Z</time></trkpt><trkpt lat="41.895325144735956" lon="12.395149728229722"><ele>74.2</ele><time>2026-04-17T15:46:31Z</time></trkpt><trkpt lat="41.89543494331958" lon="12.39510855914435"><ele>74.4</ele><time>2026-04-17T15:46:32Z</time></trkpt><trkpt lat="41.895529374309376" lon="12.395073152175783"><ele>74.6</ele><time>2026-04-17T15:46:33Z</time></trkpt><trkpt lat="41.89562252825773" lon="12.395038224040292"><ele>74.8</ele><time>2026-04-17T15:46:34Z</time></trkpt><trkpt lat="41.89571411338709" lon="12.395004441453494"><ele>75.0</ele><time>2026-04-17T15:46:35Z</time></trkpt><trkpt lat="41.89580267727776" lon="12.394973326058507"><ele>75.0</ele><time>2026-04-17T15:46:36Z</time></trkpt><trkpt lat="41.89588271542948" lon="12.394947019938744"><ele>75.0</ele><time>2026-04-17T15:46:37Z</time></trkpt><trkpt lat="41.89595586221609" lon="12.394927622305456"><ele>75.0</ele><time>2026-04-17T15:46:38Z</time></trkpt><trkpt lat="41.89601993324123" lon="12.394918106801802"><ele>75.0</ele><time>2026-04-17T15:46:39Z</time></trkpt><trkpt lat="41.89608399326433" lon="12.394913352361616"><ele>75.0</ele><time>2026-04-17T15:46:40Z</time></trkpt><trkpt lat="41.89618921495826" lon="12.394923129805791"><ele>75.0</ele><time>2026-04-17T15:46:42Z</time></trkpt><trkpt lat="41.89627374697627" lon="12.394944480446636"><ele>75.75</ele><time>2026-04-17T15:46:44Z</time></trkpt><trkpt lat="41.89637796747232" lon="12.394993853179095"><ele>76.5</ele><time>2026-04-17T15:46:46Z</time></trkpt><trkpt lat="41.89648105908554" lon="12.395067963917782"><ele>77.25</ele><time>2026-04-17T15:46:48Z</time></trkpt><trkpt lat="41.896586828530516" lon="12.395145656764049"><ele>78.0</ele><time>2026-04-17T15:46:50Z</time></trkpt><trkpt lat="41.89668259818273" lon="12.395217600025168"><ele>77.66666666666667</ele><time>2026-04-17T15:46:52Z</time></trkpt><trkpt lat="41.8967785569987" lon="12.395289237060975"><ele>77.33333333333333</ele><time>2026-04-17T15:46:54Z</time></trkpt><trkpt lat="41.89685789928855" lon="12.395335190241456"><ele>77.0</ele><time>2026-04-17T15:46:56Z</time></trkpt><trkpt lat="41.896929569646396" lon="12.395400586824227"><ele>76.66666666666666</ele><time>2026-04-17T15:46:58Z</time></trkpt><trkpt lat="41.89701661035624" lon="12.395464569605778"><ele>76.33333333333333</ele><time>2026-04-17T15:47:01Z</time></trkpt><trkpt lat="41.8970743145395" lon="12.395506942712167"><ele>76.0</ele><time>2026-04-17T15:47:02Z</time></trkpt><trkpt lat="41.89714930692821" lon="12.395539260477996"><ele>76.0</ele><time>2026-04-17T15:47:03Z</time></trkpt><trkpt lat="41.89721009220378" lon="12.395605824262022"><ele>76.0</ele><time>2026-04-17T15:47:04Z</time></trkpt><trkpt lat="41.897280839715975" lon="12.395657396898281"><ele>76.0</ele><time>2026-04-17T15:47:05Z</time></trkpt><trkpt lat="41.89735299072518" lon="12.395711909020358"><ele>76.0</ele><time>2026-04-17T15:47:06Z</time></trkpt><trkpt lat="41.89743106414444" lon="12.395748421978361"><ele>76.0</ele><time>2026-04-17T15:47:07Z</time></trkpt><trkpt lat="41.89750942043064" lon="12.395804590043333"><ele>76.0</ele><time>2026-04-17T15:47:08Z</time></trkpt><trkpt lat="41.89759122112095" lon="12.395870527410539"><ele>75.0</ele><time>2026-04-17T15:47:09Z</time></trkpt><trkpt lat="41.89767766188556" lon="12.3959311091816"><ele>74.0</ele><time>2026-04-17T15:47:10Z</time></trkpt><trkpt lat="41.89776500286836" lon="12.395993242233132"><ele>73.0</ele><time>2026-04-17T15:47:11Z</time></trkpt><trkpt lat="41.897849550722306" lon="12.396060092933526"><ele>72.0</ele><time>2026-04-17T15:47:12Z</time></trkpt><trkpt lat="41.897929518801305" lon="12.396119253150546"><ele>71.0</ele><time>2026-04-17T15:47:13Z</time></trkpt><trkpt lat="41.898003863787004" lon="12.396176214132122"><ele>71.0</ele><time>2026-04-17T15:47:14Z</time></trkpt><trkpt lat="41.89807974647033" lon="12.396229214053225"><ele>71.0</ele><time>2026-04-17T15:47:15Z</time></trkpt><trkpt lat="41.898157027330605" lon="12.39628505484925"><ele>71.0</ele><time>2026-04-17T15:47:16Z</time></trkpt><trkpt lat="41.89823360616817" lon="12.396341478887626"><ele>71.0</ele><time>2026-04-17T15:47:17Z</time></trkpt><trkpt lat="41.89830355160471" lon="12.396396034810259"><ele>71.0</ele><time>2026-04-17T15:47:18Z</time></trkpt><trkpt lat="41.89837030864724" lon="12.39643893218852"><ele>71.0</ele><time>2026-04-17T15:47:19Z</time></trkpt><trkpt lat="41.89842761685412" lon="12.39650503173272"><ele>71.57142857142857</ele><time>2026-04-17T15:47:20Z</time></trkpt><trkpt lat="41.89850350011986" lon="12.396535018857321"><ele>72.14285714285714</ele><time>2026-04-17T15:47:21Z</time></trkpt><trkpt lat="41.8985713726762" lon="12.396584519569291"><ele>72.71428571428571</ele><time>2026-04-17T15:47:22Z</time></trkpt><trkpt lat="41.89863744909749" lon="12.396636720363654"><ele>73.28571428571428</ele><time>2026-04-17T15:47:23Z</time></trkpt><trkpt lat="41.898696366343614" lon="12.396680342488159"><ele>73.85714285714286</ele><time>2026-04-17T15:47:24Z</time></trkpt><trkpt lat="41.898751518192945" lon="12.39672348925324"><ele>74.42857142857142</ele><time>2026-04-17T15:47:24.999Z</time></trkpt><trkpt lat="41.89881222457692" lon="12.396763314087158"><ele>75.0</ele><time>2026-04-17T15:47:25.999Z</time></trkpt><trkpt lat="41.89886764359746" lon="12.39681182112624"><ele>75.0</ele><time>2026-04-17T15:47:26.999Z</time></trkpt><trkpt lat="41.898930113193266" lon="12.3968574145349"><ele>75.0</ele><time>2026-04-17T15:47:27.999Z</time></trkpt><trkpt lat="41.89902131028025" lon="12.396944148131679"><ele>75.0</ele><time>2026-04-17T15:47:29.999Z</time></trkpt><trkpt lat="41.899082051753545" lon="12.396989033083567"><ele>75.0</ele><time>2026-04-17T15:47:32.999Z</time></trkpt><trkpt lat="41.8991457503411" lon="12.397013903772162"><ele>75.0</ele><time>2026-04-17T15:47:34.999Z</time></trkpt><trkpt lat="41.89925297607296" lon="12.397094257101552"><ele>75.0</ele><time>2026-04-17T15:47:36.999Z</time></trkpt><trkpt lat="41.89930907262118" lon="12.397156791028802"><ele>75.0</ele><time>2026-04-17T15:47:37.999Z</time></trkpt><trkpt lat="41.89937032626064" lon="12.397202041260881"><ele>75.0</ele><time>2026-04-17T15:47:38.999Z</time></trkpt><trkpt lat="41.89944710800236" lon="12.397234169413238"><ele>75.0</ele><time>2026-04-17T15:47:39.999Z</time></trkpt><trkpt lat="41.899517955400896" lon="12.397288201819466"><ele>75.0</ele><time>2026-04-17T15:47:40.999Z</time></trkpt><trkpt lat="41.89958449156733" lon="12.397337373133253"><ele>75.0</ele><time>2026-04-17T15:47:41.999Z</time></trkpt><trkpt lat="41.89964689578741" lon="12.397382341278728"><ele>75.0</ele><time>2026-04-17T15:47:42.999Z</time></trkpt><trkpt lat="41.89970476731681" lon="12.397449126206396"><ele>75.0</ele><time>2026-04-17T15:47:43.999Z</time></trkpt><trkpt lat="41.899783745145996" lon="12.397483527520052"><ele>75.0</ele><time>2026-04-17T15:47:44.999Z</time></trkpt><trkpt lat="41.89985557261224" lon="12.397541005358201"><ele>75.0</ele><time>2026-04-17T15:47:45.999Z</time></trkpt><trkpt lat="41.89992107394163" lon="12.397589005018737"><ele>75.0</ele><time>2026-04-17T15:47:46.999Z</time></trkpt><trkpt lat="41.899986541802086" lon="12.397638655152868"><ele>75.0</ele><time>2026-04-17T15:47:47.999Z</time></trkpt><trkpt lat="41.90005008475228" lon="12.397703753827162"><ele>75.0</ele><time>2026-04-17T15:47:48.999Z</time></trkpt><trkpt lat="41.900127140948385" lon="12.397734841743919"><ele>75.25</ele><time>2026-04-17T15:47:49.999Z</time></trkpt><trkpt lat="41.900213548031545" lon="12.397823006278236"><ele>75.5</ele><time>2026-04-17T15:47:50.999Z</time></trkpt><trkpt lat="41.9003128490462" lon="12.397895449967937"><ele>75.75</ele><time>2026-04-17T15:47:51.999Z</time></trkpt><trkpt lat="41.900436606096044" lon="12.397963068025037"><ele>76.0</ele><time>2026-04-17T15:47:52.999Z</time></trkpt><trkpt lat="41.90054169022935" lon="12.398044657654978"><ele>76.33333333333333</ele><time>2026-04-17T15:47:53.999Z</time></trkpt><trkpt lat="41.900633124268154" lon="12.39811276142232"><ele>76.66666666666666</ele><time>2026-04-17T15:47:54.999Z</time></trkpt><trkpt lat="41.900713011446896" lon="12.398169251260336"><ele>77.0</ele><time>2026-04-17T15:47:55.999Z</time></trkpt><trkpt lat="41.90078469196248" lon="12.398226332107061"><ele>77.33333333333333</ele><time>2026-04-17T15:47:56.999Z</time></trkpt><trkpt lat="41.90084736128617" lon="12.3982782161943"><ele>77.66666666666667</ele><time>2026-04-17T15:47:57.999Z</time></trkpt><trkpt lat="41.90089873556121" lon="12.3983463127984"><ele>78.0</ele><time>2026-04-17T15:47:58.999Z</time></trkpt><trkpt lat="41.90099169830952" lon="12.398460930297231"><ele>78.14285714285715</ele><time>2026-04-17T15:48:00.999Z</time></trkpt><trkpt lat="41.901050053057226" lon="12.398514671707456"><ele>78.28571428571428</ele><time>2026-04-17T15:48:01.999Z</time></trkpt><trkpt lat="41.90109446414374" lon="12.398593444049848"><ele>78.42857142857143</ele><time>2026-04-17T15:48:02.999Z</time></trkpt><trkpt lat="41.9011190995606" lon="12.398681936265218"><ele>78.57142857142858</ele><time>2026-04-17T15:48:03.999Z</time></trkpt><trkpt lat="41.90115313238816" lon="12.398763580520159"><ele>78.71428571428572</ele><time>2026-04-17T15:48:04.999Z</time></trkpt><trkpt lat="41.901199457337185" lon="12.39884318690567"><ele>78.85714285714286</ele><time>2026-04-17T15:48:05.999Z</time></trkpt><trkpt lat="41.90121770520027" lon="12.398945573799441"><ele>79.0</ele><time>2026-04-17T15:48:06.999Z</time></trkpt><trkpt lat="41.90125233347672" lon="12.399048345611787"><ele>79.2</ele><time>2026-04-17T15:48:07.999Z</time></trkpt><trkpt lat="41.901287851911235" lon="12.399153759052814"><ele>79.4</ele><time>2026-04-17T15:48:08.999Z</time></trkpt><trkpt lat="41.90132823815105" lon="12.399272674204436"><ele>79.6</ele><time>2026-04-17T15:48:09.999Z</time></trkpt><trkpt lat="41.90138770235738" lon="12.399386029141255"><ele>79.8</ele><time>2026-04-17T15:48:10.999Z</time></trkpt><trkpt lat="41.9014310482652" lon="12.399512574552151"><ele>80.0</ele><time>2026-04-17T15:48:11.999Z</time></trkpt><trkpt lat="41.90147922986756" lon="12.399652437936371"><ele>79.4</ele><time>2026-04-17T15:48:12.999Z</time></trkpt><trkpt lat="41.901532067406634" lon="12.399799261287082"><ele>78.8</ele><time>2026-04-17T15:48:13.999Z</time></trkpt><trkpt lat="41.901583021394245" lon="12.399949502560563"><ele>78.2</ele><time>2026-04-17T15:48:14.999Z</time></trkpt><trkpt lat="41.90161956356346" lon="12.400072727903341"><ele>77.6</ele><time>2026-04-17T15:48:15.999Z</time></trkpt><trkpt lat="41.90165901656893" lon="12.400185961504521"><ele>77.0</ele><time>2026-04-17T15:48:16.998Z</time></trkpt><trkpt lat="41.90169079158003" lon="12.400287880028266"><ele>77.0</ele><time>2026-04-17T15:48:17.998Z</time></trkpt><trkpt lat="41.901721100977944" lon="12.400376721271401"><ele>77.0</ele><time>2026-04-17T15:48:18.998Z</time></trkpt><trkpt lat="41.901743537140526" lon="12.40052047197225"><ele>77.0</ele><time>2026-04-17T15:48:20.998Z</time></trkpt><trkpt lat="41.901785178664" lon="12.400645675044757"><ele>77.0</ele><time>2026-04-17T15:48:22.998Z</time></trkpt><trkpt lat="41.90182001011932" lon="12.400750402673241"><ele>77.0</ele><time>2026-04-17T15:48:23.998Z</time></trkpt><trkpt lat="41.90187007863465" lon="12.400852706138199"><ele>77.33333333333334</ele><time>2026-04-17T15:48:24.998Z</time></trkpt><trkpt lat="41.90190296499128" lon="12.400963006705274"><ele>77.66666666666667</ele><time>2026-04-17T15:48:25.998Z</time></trkpt><trkpt lat="41.901943264497575" lon="12.40106916906096"><ele>78.0</ele><time>2026-04-17T15:48:27.001Z</time></trkpt><trkpt lat="41.90197583226177" lon="12.40117534626516"><ele>78.33333333333333</ele><time>2026-04-17T15:48:28.001Z</time></trkpt><trkpt lat="41.90200489395852" lon="12.40126884075541"><ele>78.66666666666666</ele><time>2026-04-17T15:48:29.001Z</time></trkpt><trkpt lat="41.90202974405415" lon="12.401351873206629"><ele>79.0</ele><time>2026-04-17T15:48:30.001Z</time></trkpt><trkpt lat="41.902061307096574" lon="12.401427782869096"><ele>79.28571428571429</ele><time>2026-04-17T15:48:31.001Z</time></trkpt><trkpt lat="41.90208527256484" lon="12.401510129683103"><ele>79.57142857142857</ele><time>2026-04-17T15:48:32.001Z</time></trkpt><trkpt lat="41.90211579546924" lon="12.401594642205504"><ele>79.85714285714286</ele><time>2026-04-17T15:48:33.001Z</time></trkpt><trkpt lat="41.90214602194018" lon="12.40168123975604"><ele>80.14285714285714</ele><time>2026-04-17T15:48:34.001Z</time></trkpt><trkpt lat="41.90217564311465" lon="12.401769200008358"><ele>80.42857142857143</ele><time>2026-04-17T15:48:35.001Z</time></trkpt><trkpt lat="41.902203200053734" lon="12.401858596760121"><ele>80.71428571428572</ele><time>2026-04-17T15:48:36.001Z</time></trkpt><trkpt lat="41.9022310668345" lon="12.40195002979573"><ele>81.0</ele><time>2026-04-17T15:48:37.001Z</time></trkpt><trkpt lat="41.902262355430665" lon="12.402037232300366"><ele>81.0</ele><time>2026-04-17T15:48:38.001Z</time></trkpt><trkpt lat="41.902291558980906" lon="12.402127839601768"><ele>81.0</ele><time>2026-04-17T15:48:39.001Z</time></trkpt><trkpt lat="41.90232430912302" lon="12.402210179831288"><ele>81.0</ele><time>2026-04-17T15:48:40.001Z</time></trkpt><trkpt lat="41.90235840132932" lon="12.402292896657295"><ele>81.0</ele><time>2026-04-17T15:48:41.001Z</time></trkpt><trkpt lat="41.90239614607014" lon="12.40237182289907"><ele>81.0</ele><time>2026-04-17T15:48:42.001Z</time></trkpt><trkpt lat="41.902441787983115" lon="12.402443102934049"><ele>81.0</ele><time>2026-04-17T15:48:43.001Z</time></trkpt><trkpt lat="41.90249393222688" lon="12.40250934095264"><ele>81.0</ele><time>2026-04-17T15:48:44Z</time></trkpt><trkpt lat="41.9025508408477" lon="12.402568145009631"><ele>81.0</ele><time>2026-04-17T15:48:45Z</time></trkpt><trkpt lat="41.9026463309191" lon="12.402650097530932"><ele>81.0</ele><time>2026-04-17T15:48:47Z</time></trkpt><trkpt lat="41.90272290118489" lon="12.402695713898481"><ele>81.0</ele><time>2026-04-17T15:48:49Z</time></trkpt><trkpt lat="41.90280288930107" lon="12.402743386432766"><ele>81.0</ele><time>2026-04-17T15:48:51Z</time></trkpt><trkpt lat="41.902894543194925" lon="12.402795376678935"><ele>81.0</ele><time>2026-04-17T15:48:53Z</time></trkpt><trkpt lat="41.90300188478164" lon="12.402844545953727"><ele>81.0</ele><time>2026-04-17T15:48:55Z</time></trkpt><trkpt lat="41.90313026752091" lon="12.402894033942744"><ele>81.0</ele><time>2026-04-17T15:48:57Z</time></trkpt><trkpt lat="41.90320378553392" lon="12.402923126797113"><ele>81.0</ele><time>2026-04-17T15:48:58Z</time></trkpt><trkpt lat="41.903278355271034" lon="12.402949074675368"><ele>81.0</ele><time>2026-04-17T15:48:59Z</time></trkpt><trkpt lat="41.90335812989715" lon="12.402953865302585"><ele>81.0</ele><time>2026-04-17T15:49:00Z</time></trkpt><trkpt lat="41.90344309035393" lon="12.402955114793063"><ele>81.19999999999999</ele><time>2026-04-17T15:49:01Z</time></trkpt><trkpt lat="41.90353410257982" lon="12.402942795244728"><ele>81.39999999999999</ele><time>2026-04-17T15:49:02Z</time></trkpt><trkpt lat="41.9036202119241" lon="12.402936877247894"><ele>81.6</ele><time>2026-04-17T15:49:03Z</time></trkpt><trkpt lat="41.90369100409683" lon="12.402924444165587"><ele>81.8</ele><time>2026-04-17T15:49:04Z</time></trkpt><trkpt lat="41.90380473551797" lon="12.40289462055258"><ele>82.0</ele><time>2026-04-17T15:49:06Z</time></trkpt><trkpt lat="41.903923967756846" lon="12.402892845166717"><ele>82.0</ele><time>2026-04-17T15:49:08Z</time></trkpt><trkpt lat="41.90404761181771" lon="12.402868026700077"><ele>82.0</ele><time>2026-04-17T15:49:10Z</time></trkpt><trkpt lat="41.90411170124796" lon="12.402855462519788"><ele>82.0</ele><time>2026-04-17T15:49:11Z</time></trkpt><trkpt lat="41.90417929886052" lon="12.402842261143299"><ele>82.0</ele><time>2026-04-17T15:49:12Z</time></trkpt><trkpt lat="41.90424849627047" lon="12.402828747330425"><ele>82.0</ele><time>2026-04-17T15:49:13Z</time></trkpt><trkpt lat="41.904313195918256" lon="12.402816111899165"><ele>82.0</ele><time>2026-04-17T15:49:14Z</time></trkpt><trkpt lat="41.90441791372793" lon="12.402795661210638"><ele>82.5</ele><time>2026-04-17T15:49:16Z</time></trkpt><trkpt lat="41.904534252030736" lon="12.402772953287576"><ele>83.0</ele><time>2026-04-17T15:49:18Z</time></trkpt><trkpt lat="41.90459909656221" lon="12.402760301606698"><ele>83.5</ele><time>2026-04-17T15:49:19Z</time></trkpt><trkpt lat="41.904667045882704" lon="12.40274704397115"><ele>84.0</ele><time>2026-04-17T15:49:20Z</time></trkpt><trkpt lat="41.90473704882645" lon="12.402734366799443"><ele>84.5</ele><time>2026-04-17T15:49:21Z</time></trkpt><trkpt lat="41.90481165226071" lon="12.402720566870524"><ele>85.0</ele><time>2026-04-17T15:49:22Z</time></trkpt><trkpt lat="41.90489297986245" lon="12.402707475921654"><ele>85.0</ele><time>2026-04-17T15:49:23Z</time></trkpt><trkpt lat="41.90497566904374" lon="12.402698825078597"><ele>85.0</ele><time>2026-04-17T15:49:24Z</time></trkpt><trkpt lat="41.90506467096219" lon="12.40269487101751"><ele>85.0</ele><time>2026-04-17T15:49:25Z</time></trkpt><trkpt lat="41.905145740806915" lon="12.402679687155974"><ele>85.0</ele><time>2026-04-17T15:49:26Z</time></trkpt><trkpt lat="41.90522625507783" lon="12.40272202178581"><ele>85.0</ele><time>2026-04-17T15:49:27Z</time></trkpt><trkpt lat="41.90534662834809" lon="12.4027519817434"><ele>84.33333333333333</ele><time>2026-04-17T15:49:29Z</time></trkpt><trkpt lat="41.905411651329686" lon="12.402788088111308"><ele>83.66666666666666</ele><time>2026-04-17T15:49:30Z</time></trkpt><trkpt lat="41.905475734689176" lon="12.402836928076772"><ele>83.0</ele><time>2026-04-17T15:49:31Z</time></trkpt><trkpt lat="41.90553826695896" lon="12.402897711932496"><ele>82.33333333333333</ele><time>2026-04-17T15:49:31.999Z</time></trkpt><trkpt lat="41.905594405473465" lon="12.402965430978176"><ele>81.66666666666667</ele><time>2026-04-17T15:49:32.999Z</time></trkpt><trkpt lat="41.9056463948161" lon="12.403041253105147"><ele>81.0</ele><time>2026-04-17T15:49:33.999Z</time></trkpt><trkpt lat="41.905701282914016" lon="12.403132614150184"><ele>80.83333333333333</ele><time>2026-04-17T15:49:34.999Z</time></trkpt><trkpt lat="41.905748119986846" lon="12.403228254229454"><ele>80.66666666666667</ele><time>2026-04-17T15:49:35.999Z</time></trkpt><trkpt lat="41.90578881541535" lon="12.403315427588154"><ele>80.5</ele><time>2026-04-17T15:49:36.999Z</time></trkpt><trkpt lat="41.90583527403042" lon="12.403378019996342"><ele>80.33333333333334</ele><time>2026-04-17T15:49:37.999Z</time></trkpt><trkpt lat="41.90585361719458" lon="12.403459470971951"><ele>80.16666666666667</ele><time>2026-04-17T15:49:38.999Z</time></trkpt><trkpt lat="41.90591503288956" lon="12.40359798834916"><ele>80.0</ele><time>2026-04-17T15:49:40.999Z</time></trkpt><trkpt lat="41.90596154662162" lon="12.403675330670605"><ele>80.5</ele><time>2026-04-17T15:49:41.999Z</time></trkpt><trkpt lat="41.90600988932498" lon="12.403777004864306"><ele>81.0</ele><time>2026-04-17T15:49:42.999Z</time></trkpt><trkpt lat="41.90604364356092" lon="12.403867850058791"><ele>81.5</ele><time>2026-04-17T15:49:43.999Z</time></trkpt><trkpt lat="41.90611250034273" lon="12.403989095951314"><ele>82.0</ele><time>2026-04-17T15:49:45.999Z</time></trkpt><trkpt lat="41.90614061193767" lon="12.404079373815403"><ele>82.5</ele><time>2026-04-17T15:49:46.999Z</time></trkpt><trkpt lat="41.90618743039502" lon="12.404169303631804"><ele>83.0</ele><time>2026-04-17T15:49:47.999Z</time></trkpt><trkpt lat="41.9062453238891" lon="12.40424603548571"><ele>83.0</ele><time>2026-04-17T15:49:48.999Z</time></trkpt><trkpt lat="41.90628460258467" lon="12.404314247371634"><ele>83.0</ele><time>2026-04-17T15:49:49.999Z</time></trkpt><trkpt lat="41.90632720390601" lon="12.404378221977245"><ele>83.0</ele><time>2026-04-17T15:49:50.999Z</time></trkpt><trkpt lat="41.90637851571884" lon="12.404443477314357"><ele>83.0</ele><time>2026-04-17T15:49:51.999Z</time></trkpt><trkpt lat="41.90646898496824" lon="12.404562766989807"><ele>83.0</ele><time>2026-04-17T15:49:53.999Z</time></trkpt><trkpt lat="41.9065625143459" lon="12.404655759894354"><ele>83.0</ele><time>2026-04-17T15:49:55.999Z</time></trkpt><trkpt lat="41.906607183308296" lon="12.404728506473365"><ele>82.83333333333334</ele><time>2026-04-17T15:49:56.999Z</time></trkpt><trkpt lat="41.90667721689957" lon="12.404768826144757"><ele>82.66666666666667</ele><time>2026-04-17T15:49:57.999Z</time></trkpt><trkpt lat="41.90674254351834" lon="12.404828314232596"><ele>82.5</ele><time>2026-04-17T15:49:58.999Z</time></trkpt><trkpt lat="41.90679990995368" lon="12.404908366087314"><ele>82.33333333333333</ele><time>2026-04-17T15:49:59.999Z</time></trkpt><trkpt lat="41.90687197782031" lon="12.404974907551638"><ele>82.16666666666666</ele><time>2026-04-17T15:50:00.999Z</time></trkpt><trkpt lat="41.90694616769045" lon="12.40501727611659"><ele>82.0</ele><time>2026-04-17T15:50:01.999Z</time></trkpt><trkpt lat="41.90699193328852" lon="12.405084852890779"><ele>81.0</ele><time>2026-04-17T15:50:02.999Z</time></trkpt><trkpt lat="41.907057565134195" lon="12.405145002035356"><ele>80.0</ele><time>2026-04-17T15:50:04.999Z</time></trkpt><trkpt lat="41.90714209553447" lon="12.405222470611045"><ele>79.0</ele><time>2026-04-17T15:50:07.999Z</time></trkpt><trkpt lat="41.907244240590984" lon="12.405286598096936"><ele>78.0</ele><time>2026-04-17T15:50:09.999Z</time></trkpt><trkpt lat="41.90729805041852" lon="12.405339013961973"><ele>77.0</ele><time>2026-04-17T15:50:10.999Z</time></trkpt><trkpt lat="41.90735539728756" lon="12.405391007518228"><ele>76.0</ele><time>2026-04-17T15:50:11.999Z</time></trkpt><trkpt lat="41.907410982097645" lon="12.405446985012818"><ele>77.0</ele><time>2026-04-17T15:50:12.999Z</time></trkpt><trkpt lat="41.907458503308675" lon="12.405508383588876"><ele>78.0</ele><time>2026-04-17T15:50:13.999Z</time></trkpt><trkpt lat="41.907537898674896" lon="12.405637619957414"><ele>79.0</ele><time>2026-04-17T15:50:15.999Z</time></trkpt><trkpt lat="41.907590993773546" lon="12.405776267841475"><ele>80.0</ele><time>2026-04-17T15:50:17.999Z</time></trkpt><trkpt lat="41.9075981129109" lon="12.405912494149545"><ele>81.0</ele><time>2026-04-17T15:50:19.999Z</time></trkpt><trkpt lat="41.9076077810683" lon="12.406005042130374"><ele>79.5</ele><time>2026-04-17T15:50:20.999Z</time></trkpt><trkpt lat="41.90761486215781" lon="12.40611675586325"><ele>78.0</ele><time>2026-04-17T15:50:21.999Z</time></trkpt><trkpt lat="41.90761907531047" lon="12.406226136610258"><ele>76.5</ele><time>2026-04-17T15:50:22.998Z</time></trkpt><trkpt lat="41.90762278051306" lon="12.406342912237957"><ele>75.0</ele><time>2026-04-17T15:50:23.998Z</time></trkpt><trkpt lat="41.90764167330487" lon="12.406466525488433"><ele>73.5</ele><time>2026-04-17T15:50:24.998Z</time></trkpt><trkpt lat="41.90763861799393" lon="12.406591857269856"><ele>72.0</ele><time>2026-04-17T15:50:25.998Z</time></trkpt><trkpt lat="41.90763622735882" lon="12.40670139023941"><ele>72.0</ele><time>2026-04-17T15:50:26.998Z</time></trkpt><trkpt lat="41.907626984651436" lon="12.406795594546923"><ele>72.0</ele><time>2026-04-17T15:50:27.998Z</time></trkpt><trkpt lat="41.90761001978666" lon="12.406894440869802"><ele>72.0</ele><time>2026-04-17T15:50:28.998Z</time></trkpt><trkpt lat="41.90758498116721" lon="12.406990433596853"><ele>72.0</ele><time>2026-04-17T15:50:29.998Z</time></trkpt><trkpt lat="41.907553048178514" lon="12.407086780273039"><ele>72.0</ele><time>2026-04-17T15:50:30.998Z</time></trkpt><trkpt lat="41.90750764315779" lon="12.407172995768024"><ele>72.0</ele><time>2026-04-17T15:50:32.001Z</time></trkpt><trkpt lat="41.90746440340279" lon="12.40724814707946"><ele>73.16666666666667</ele><time>2026-04-17T15:50:33.001Z</time></trkpt><trkpt lat="41.90741449871273" lon="12.407312510838846"><ele>74.33333333333333</ele><time>2026-04-17T15:50:34Z</time></trkpt><trkpt lat="41.9073270085132" lon="12.407411040836372"><ele>75.5</ele><time>2026-04-17T15:50:36.001Z</time></trkpt><trkpt lat="41.907270945268934" lon="12.40750907634522"><ele>76.66666666666666</ele><time>2026-04-17T15:50:38Z</time></trkpt><trkpt lat="41.90720854420242" lon="12.407587114986208"><ele>77.83333333333333</ele><time>2026-04-17T15:50:40Z</time></trkpt><trkpt lat="41.907144224093976" lon="12.407664896639167"><ele>79.0</ele><time>2026-04-17T15:50:42Z</time></trkpt><trkpt lat="41.907077779977904" lon="12.407741465178367"><ele>79.0</ele><time>2026-04-17T15:51:20Z</time></trkpt><trkpt lat="41.90700780699682" lon="12.407864387709783"><ele>79.0</ele><time>2026-04-17T15:51:22Z</time></trkpt><trkpt lat="41.90694717283678" lon="12.40793681864167"><ele>79.0</ele><time>2026-04-17T15:51:23Z</time></trkpt><trkpt lat="41.90686576685402" lon="12.408013274376586"><ele>79.0</ele><time>2026-04-17T15:51:24Z</time></trkpt><trkpt lat="41.90677886470653" lon="12.408084076157374"><ele>79.0</ele><time>2026-04-17T15:51:25Z</time></trkpt><trkpt lat="41.906674644835384" lon="12.4081546301717"><ele>79.25</ele><time>2026-04-17T15:51:26Z</time></trkpt><trkpt lat="41.906551989032174" lon="12.408228992060648"><ele>79.5</ele><time>2026-04-17T15:51:27Z</time></trkpt><trkpt lat="41.90642756733647" lon="12.408302680411104"><ele>79.75</ele><time>2026-04-17T15:51:28Z</time></trkpt><trkpt lat="41.90631389607438" lon="12.408372678942406"><ele>80.0</ele><time>2026-04-17T15:51:29Z</time></trkpt><trkpt lat="41.9062046702423" lon="12.40843691904964"><ele>80.0</ele><time>2026-04-17T15:51:30Z</time></trkpt><trkpt lat="41.906103705764785" lon="12.408486615378365"><ele>80.0</ele><time>2026-04-17T15:51:31Z</time></trkpt><trkpt lat="41.90600826651479" lon="12.408523277439441"><ele>80.0</ele><time>2026-04-17T15:51:32Z</time></trkpt><trkpt lat="41.90592821641076" lon="12.408539679097233"><ele>80.0</ele><time>2026-04-17T15:51:32.999Z</time></trkpt><trkpt lat="41.905843704334565" lon="12.408550936142317"><ele>80.0</ele><time>2026-04-17T15:51:33.999Z</time></trkpt><trkpt lat="41.905771706542986" lon="12.408549038176144"><ele>80.0</ele><time>2026-04-17T15:51:34.999Z</time></trkpt><trkpt lat="41.905700805841064" lon="12.4085419816517"><ele>79.5</ele><time>2026-04-17T15:51:35.999Z</time></trkpt><trkpt lat="41.905632660241515" lon="12.408539227908431"><ele>79.0</ele><time>2026-04-17T15:51:36.999Z</time></trkpt><trkpt lat="41.90555501999666" lon="12.408541130181662"><ele>78.5</ele><time>2026-04-17T15:51:37.999Z</time></trkpt><trkpt lat="41.905486533166865" lon="12.40853629730146"><ele>78.0</ele><time>2026-04-17T15:51:38.999Z</time></trkpt><trkpt lat="41.90542020901624" lon="12.408535274873508"><ele>77.5</ele><time>2026-04-17T15:51:39.999Z</time></trkpt><trkpt lat="41.90531599286636" lon="12.408549470813558"><ele>77.0</ele><time>2026-04-17T15:51:41.999Z</time></trkpt><trkpt lat="41.90522381247257" lon="12.40858948805416"><ele>77.0</ele><time>2026-04-17T15:51:43.999Z</time></trkpt><trkpt lat="41.90511972825103" lon="12.408648810607017"><ele>77.0</ele><time>2026-04-17T15:51:45.999Z</time></trkpt><trkpt lat="41.90505490162746" lon="12.408694132288826"><ele>77.0</ele><time>2026-04-17T15:51:46.999Z</time></trkpt><trkpt lat="41.904985069890046" lon="12.408755394703109"><ele>77.0</ele><time>2026-04-17T15:51:47.999Z</time></trkpt><trkpt lat="41.904930456361804" lon="12.408819157192116"><ele>77.0</ele><time>2026-04-17T15:51:48.999Z</time></trkpt><trkpt lat="41.90488245489858" lon="12.408897949609864"><ele>77.0</ele><time>2026-04-17T15:51:49.999Z</time></trkpt><trkpt lat="41.90484510499473" lon="12.408984450517195"><ele>75.28571428571429</ele><time>2026-04-17T15:51:50.999Z</time></trkpt><trkpt lat="41.904810083438825" lon="12.409071022769126"><ele>73.57142857142857</ele><time>2026-04-17T15:51:51.999Z</time></trkpt><trkpt lat="41.904775652295974" lon="12.409159578531423"><ele>71.85714285714286</ele><time>2026-04-17T15:51:52.999Z</time></trkpt><trkpt lat="41.904727099487175" lon="12.409239541941359"><ele>70.14285714285714</ele><time>2026-04-17T15:51:53.999Z</time></trkpt><trkpt lat="41.90468676630566" lon="12.409322409069695"><ele>68.42857142857143</ele><time>2026-04-17T15:51:54.999Z</time></trkpt><trkpt lat="41.904642117630964" lon="12.40939894794531"><ele>66.71428571428572</ele><time>2026-04-17T15:51:55.999Z</time></trkpt><trkpt lat="41.904589911799015" lon="12.409474289961915"><ele>65.0</ele><time>2026-04-17T15:51:56.999Z</time></trkpt><trkpt lat="41.904545280428884" lon="12.409535132633978"><ele>65.0</ele><time>2026-04-17T15:51:57.999Z</time></trkpt><trkpt lat="41.90446389248351" lon="12.40963696803098"><ele>65.0</ele><time>2026-04-17T15:51:59.999Z</time></trkpt><trkpt lat="41.90440587699821" lon="12.409709187909279"><ele>65.0</ele><time>2026-04-17T15:52:01.999Z</time></trkpt><trkpt lat="41.90443467569376" lon="12.40985413189819"><ele>65.0</ele><time>2026-04-17T15:52:03.999Z</time></trkpt><trkpt lat="41.90442053081542" lon="12.409952955398653"><ele>65.0</ele><time>2026-04-17T15:52:07.999Z</time></trkpt><trkpt lat="41.904493422656564" lon="12.410031941844851"><ele>65.0</ele><time>2026-04-17T15:52:44Z</time></trkpt><trkpt lat="41.90461290317648" lon="12.409890764575382"><ele>65.0</ele><time>2026-04-17T15:52:46Z</time></trkpt><trkpt lat="41.90465443775079" lon="12.409767442612603"><ele>65.0</ele><time>2026-04-17T15:52:47Z</time></trkpt><trkpt lat="41.90471333519208" lon="12.409645782130658"><ele>65.0</ele><time>2026-04-17T15:52:48Z</time></trkpt><trkpt lat="41.904787087330575" lon="12.409525243645955"><ele>65.0</ele><time>2026-04-17T15:52:49Z</time></trkpt><trkpt lat="41.9048665388665" lon="12.409395688768655"><ele>65.0</ele><time>2026-04-17T15:52:50Z</time></trkpt><trkpt lat="41.90495923271165" lon="12.409251946456159"><ele>65.0</ele><time>2026-04-17T15:52:51Z</time></trkpt><trkpt lat="41.90505678575124" lon="12.409100908308679"><ele>65.0</ele><time>2026-04-17T15:52:52Z</time></trkpt><trkpt lat="41.90514851477689" lon="12.408951907785193"><ele>68.0</ele><time>2026-04-17T15:52:53Z</time></trkpt><trkpt lat="41.9052541816922" lon="12.408813849214141"><ele>71.0</ele><time>2026-04-17T15:52:54Z</time></trkpt><trkpt lat="41.90536282688001" lon="12.408710169891501"><ele>74.0</ele><time>2026-04-17T15:52:55Z</time></trkpt><trkpt lat="41.90547972739391" lon="12.408695391725288"><ele>77.0</ele><time>2026-04-17T15:52:56Z</time></trkpt><trkpt lat="41.90560589688083" lon="12.408680799141676"><ele>77.0</ele><time>2026-04-17T15:52:57Z</time></trkpt><trkpt lat="41.905745040356734" lon="12.408650577549873"><ele>77.0</ele><time>2026-04-17T15:52:58Z</time></trkpt><trkpt lat="41.90588632800373" lon="12.408623100556333"><ele>77.0</ele><time>2026-04-17T15:52:59Z</time></trkpt><trkpt lat="41.90604237936177" lon="12.408596203421382"><ele>77.0</ele><time>2026-04-17T15:53:00Z</time></trkpt><trkpt lat="41.90620000170289" lon="12.408510777984265"><ele>78.0</ele><time>2026-04-17T15:53:01Z</time></trkpt><trkpt lat="41.90635318043164" lon="12.408433743073449"><ele>79.0</ele><time>2026-04-17T15:53:02Z</time></trkpt><trkpt lat="41.90649493481651" lon="12.408360859215069"><ele>80.0</ele><time>2026-04-17T15:53:03Z</time></trkpt><trkpt lat="41.90662945646354" lon="12.408295110337345"><ele>81.25</ele><time>2026-04-17T15:53:04Z</time></trkpt><trkpt lat="41.90676098119203" lon="12.40823024951701"><ele>82.5</ele><time>2026-04-17T15:53:05Z</time></trkpt><trkpt lat="41.90689237364267" lon="12.40816234542877"><ele>83.75</ele><time>2026-04-17T15:53:06Z</time></trkpt><trkpt lat="41.90702584705486" lon="12.408087039166215"><ele>85.0</ele><time>2026-04-17T15:53:07Z</time></trkpt><trkpt lat="41.907164296158854" lon="12.40801041926659"><ele>84.33333333333333</ele><time>2026-04-17T15:53:08Z</time></trkpt><trkpt lat="41.907311300322675" lon="12.40791151620115"><ele>83.66666666666667</ele><time>2026-04-17T15:53:09Z</time></trkpt><trkpt lat="41.90745833694038" lon="12.407792485083252"><ele>83.0</ele><time>2026-04-17T15:53:10Z</time></trkpt><trkpt lat="41.90761328529832" lon="12.407656592644075"><ele>83.0</ele><time>2026-04-17T15:53:11Z</time></trkpt><trkpt lat="41.90775457306203" lon="12.407510875824954"><ele>83.0</ele><time>2026-04-17T15:53:12Z</time></trkpt><trkpt lat="41.90789049035352" lon="12.407402450004712"><ele>83.0</ele><time>2026-04-17T15:53:13Z</time></trkpt><trkpt lat="41.908034637294726" lon="12.407252807381306"><ele>80.25</ele><time>2026-04-17T15:53:14Z</time></trkpt><trkpt lat="41.90816908910063" lon="12.407064153268333"><ele>77.5</ele><time>2026-04-17T15:53:15Z</time></trkpt><trkpt lat="41.908255835637135" lon="12.406955905796732"><ele>74.75</ele><time>2026-04-17T15:53:16Z</time></trkpt><trkpt lat="41.908317936725034" lon="12.406853327017984"><ele>72.0</ele><time>2026-04-17T15:53:17Z</time></trkpt><trkpt lat="41.908402096570256" lon="12.406711486833313"><ele>70.25</ele><time>2026-04-17T15:53:18Z</time></trkpt><trkpt lat="41.90847970984031" lon="12.406580711333692"><ele>68.5</ele><time>2026-04-17T15:53:19Z</time></trkpt><trkpt lat="41.9085532224759" lon="12.40644612462538"><ele>66.75</ele><time>2026-04-17T15:53:20Z</time></trkpt><trkpt lat="41.908616172689186" lon="12.406282371788379"><ele>65.0</ele><time>2026-04-17T15:53:21Z</time></trkpt><trkpt lat="41.90866122526182" lon="12.406105112403514"><ele>64.75</ele><time>2026-04-17T15:53:22Z</time></trkpt><trkpt lat="41.90869202272556" lon="12.405935878478871"><ele>64.5</ele><time>2026-04-17T15:53:23Z</time></trkpt><trkpt lat="41.908717345969656" lon="12.405756469473634"><ele>64.25</ele><time>2026-04-17T15:53:24Z</time></trkpt><trkpt lat="41.90873004040666" lon="12.405555928384358"><ele>64.0</ele><time>2026-04-17T15:53:25Z</time></trkpt><trkpt lat="41.90873568817905" lon="12.405373100462231"><ele>65.5</ele><time>2026-04-17T15:53:26Z</time></trkpt><trkpt lat="41.90873648636389" lon="12.405203751995604"><ele>67.0</ele><time>2026-04-17T15:53:27Z</time></trkpt><trkpt lat="41.90873708381515" lon="12.405034013288626"><ele>68.5</ele><time>2026-04-17T15:53:28Z</time></trkpt><trkpt lat="41.908744521313" lon="12.404858294828898"><ele>70.0</ele><time>2026-04-17T15:53:29Z</time></trkpt><trkpt lat="41.90875445806342" lon="12.404677637879917"><ele>71.25</ele><time>2026-04-17T15:53:30Z</time></trkpt><trkpt lat="41.908746766532715" lon="12.404486506002575"><ele>72.5</ele><time>2026-04-17T15:53:31Z</time></trkpt><trkpt lat="41.90876187066127" lon="12.404285234026112"><ele>73.75</ele><time>2026-04-17T15:53:32Z</time></trkpt><trkpt lat="41.90878545977417" lon="12.404079508616075"><ele>75.0</ele><time>2026-04-17T15:53:33Z</time></trkpt><trkpt lat="41.908812974732605" lon="12.403872478067262"><ele>73.0</ele><time>2026-04-17T15:53:34Z</time></trkpt><trkpt lat="41.908849157012995" lon="12.403662607895365"><ele>71.0</ele><time>2026-04-17T15:53:35Z</time></trkpt><trkpt lat="41.908892510096685" lon="12.403450863212845"><ele>69.0</ele><time>2026-04-17T15:53:35.999Z</time></trkpt><trkpt lat="41.908938320310135" lon="12.403236943723027"><ele>69.0</ele><time>2026-04-17T15:53:36.999Z</time></trkpt><trkpt lat="41.908992751795275" lon="12.403017275999776"><ele>69.0</ele><time>2026-04-17T15:53:37.999Z</time></trkpt><trkpt lat="41.909054479926" lon="12.402793889435092"><ele>69.0</ele><time>2026-04-17T15:53:38.999Z</time></trkpt><trkpt lat="41.90911914969044" lon="12.402561189309669"><ele>68.66666666666667</ele><time>2026-04-17T15:53:39.999Z</time></trkpt><trkpt lat="41.90918698132945" lon="12.40232664483749"><ele>68.33333333333334</ele><time>2026-04-17T15:53:40.999Z</time></trkpt><trkpt lat="41.90927252073269" lon="12.402092855704963"><ele>68.0</ele><time>2026-04-17T15:53:41.999Z</time></trkpt><trkpt lat="41.90937260478119" lon="12.40187271485314"><ele>71.66666666666667</ele><time>2026-04-17T15:53:42.999Z</time></trkpt><trkpt lat="41.9094849224196" lon="12.401671953925948"><ele>75.33333333333333</ele><time>2026-04-17T15:53:43.999Z</time></trkpt><trkpt lat="41.90960721765027" lon="12.401488177807892"><ele>79.0</ele><time>2026-04-17T15:53:44.999Z</time></trkpt><trkpt lat="41.90969263706174" lon="12.401277121592374"><ele>81.0</ele><time>2026-04-17T15:53:45.999Z</time></trkpt><trkpt lat="41.909775372156346" lon="12.401047410573698"><ele>83.0</ele><time>2026-04-17T15:53:46.999Z</time></trkpt><trkpt lat="41.9098612667297" lon="12.400863299378994"><ele>85.0</ele><time>2026-04-17T15:53:47.999Z</time></trkpt><trkpt lat="41.909944039330796" lon="12.40068037952338"><ele>85.0</ele><time>2026-04-17T15:53:48.999Z</time></trkpt><trkpt lat="41.91002128670006" lon="12.40050050638977"><ele>85.0</ele><time>2026-04-17T15:53:49.999Z</time></trkpt><trkpt lat="41.910101336166264" lon="12.400335714442667"><ele>85.0</ele><time>2026-04-17T15:53:50.999Z</time></trkpt><trkpt lat="41.910186541935836" lon="12.400206456191034"><ele>85.0</ele><time>2026-04-17T15:53:51.999Z</time></trkpt><trkpt lat="41.910258804569274" lon="12.400070560801886"><ele>85.0</ele><time>2026-04-17T15:53:52.999Z</time></trkpt><trkpt lat="41.91033036891361" lon="12.399939884077826"><ele>85.0</ele><time>2026-04-17T15:53:53.999Z</time></trkpt><trkpt lat="41.91040477257225" lon="12.399816411763151"><ele>85.0</ele><time>2026-04-17T15:53:54.999Z</time></trkpt><trkpt lat="41.91047480408483" lon="12.399708916300073"><ele>85.0</ele><time>2026-04-17T15:53:55.999Z</time></trkpt><trkpt lat="41.910556609162725" lon="12.39959274478715"><ele>85.0</ele><time>2026-04-17T15:53:56.999Z</time></trkpt><trkpt lat="41.91064183718095" lon="12.399485353489478"><ele>85.0</ele><time>2026-04-17T15:53:57.999Z</time></trkpt><trkpt lat="41.91072951973394" lon="12.399384393874044"><ele>85.0</ele><time>2026-04-17T15:53:58.999Z</time></trkpt><trkpt lat="41.91081426165626" lon="12.399259512884955"><ele>85.0</ele><time>2026-04-17T15:53:59.999Z</time></trkpt><trkpt lat="41.91091577937493" lon="12.399142341443381"><ele>85.25</ele><time>2026-04-17T15:54:00.999Z</time></trkpt><trkpt lat="41.91101515863312" lon="12.399021992738106"><ele>85.5</ele><time>2026-04-17T15:54:01.999Z</time></trkpt><trkpt lat="41.91109973045841" lon="12.3988903984656"><ele>85.75</ele><time>2026-04-17T15:54:02.999Z</time></trkpt><trkpt lat="41.91116698612325" lon="12.398760540057081"><ele>86.0</ele><time>2026-04-17T15:54:03.999Z</time></trkpt><trkpt lat="41.91122484426542" lon="12.398616474773672"><ele>85.5</ele><time>2026-04-17T15:54:04.999Z</time></trkpt><trkpt lat="41.911266227322294" lon="12.398465161693682"><ele>85.0</ele><time>2026-04-17T15:54:05.999Z</time></trkpt><trkpt lat="41.911297633760796" lon="12.398311749509704"><ele>84.5</ele><time>2026-04-17T15:54:06.999Z</time></trkpt><trkpt lat="41.91132164122085" lon="12.39814855596535"><ele>84.0</ele><time>2026-04-17T15:54:07.999Z</time></trkpt><trkpt lat="41.911314224771665" lon="12.397953210830506"><ele>84.0</ele><time>2026-04-17T15:54:08.999Z</time></trkpt><trkpt lat="41.91131396943763" lon="12.397788395197091"><ele>84.0</ele><time>2026-04-17T15:54:09.999Z</time></trkpt><trkpt lat="41.91131215395339" lon="12.397621836484795"><ele>84.0</ele><time>2026-04-17T15:54:10.999Z</time></trkpt><trkpt lat="41.91130448997915" lon="12.397471636214204"><ele>84.0</ele><time>2026-04-17T15:54:11.999Z</time></trkpt><trkpt lat="41.911291251134124" lon="12.397315759288285"><ele>84.25</ele><time>2026-04-17T15:54:12.999Z</time></trkpt><trkpt lat="41.91126644544134" lon="12.39714660465127"><ele>84.5</ele><time>2026-04-17T15:54:13.999Z</time></trkpt><trkpt lat="41.91123345104473" lon="12.396972159253384"><ele>84.75</ele><time>2026-04-17T15:54:14.999Z</time></trkpt><trkpt lat="41.911197457922995" lon="12.396786039642466"><ele>85.0</ele><time>2026-04-17T15:54:15.999Z</time></trkpt><trkpt lat="41.911147887439135" lon="12.396601528288762"><ele>85.0</ele><time>2026-04-17T15:54:16.999Z</time></trkpt><trkpt lat="41.91110067959137" lon="12.396428553428025"><ele>85.0</ele><time>2026-04-17T15:54:17.999Z</time></trkpt><trkpt lat="41.91105038726639" lon="12.396266293190013"><ele>85.0</ele><time>2026-04-17T15:54:18.999Z</time></trkpt><trkpt lat="41.91100067457045" lon="12.396110089856458"><ele>85.0</ele><time>2026-04-17T15:54:19.999Z</time></trkpt><trkpt lat="41.910963804492084" lon="12.395966565053259"><ele>84.25</ele><time>2026-04-17T15:54:20.999Z</time></trkpt><trkpt lat="41.910929280735196" lon="12.395826758014284"><ele>83.5</ele><time>2026-04-17T15:54:21.999Z</time></trkpt><trkpt lat="41.910886336565795" lon="12.395665398108191"><ele>82.75</ele><time>2026-04-17T15:54:22.999Z</time></trkpt><trkpt lat="41.91085045298553" lon="12.395519850109162"><ele>82.0</ele><time>2026-04-17T15:54:23.999Z</time></trkpt><trkpt lat="41.91081765316297" lon="12.39538858093875"><ele>81.19999999999999</ele><time>2026-04-17T15:54:24.999Z</time></trkpt><trkpt lat="41.91079253253191" lon="12.395266753893925"><ele>80.39999999999999</ele><time>2026-04-17T15:54:25.999Z</time></trkpt><trkpt lat="41.910771165934236" lon="12.395145460263524"><ele>79.6</ele><time>2026-04-17T15:54:26.998Z</time></trkpt><trkpt lat="41.9107581715598" lon="12.395049168874037"><ele>78.8</ele><time>2026-04-17T15:54:27.998Z</time></trkpt><trkpt lat="41.91073241334645" lon="12.394838667256598"><ele>78.0</ele><time>2026-04-17T15:54:30.998Z</time></trkpt><trkpt lat="41.91072719999752" lon="12.394699849381611"><ele>76.83333333333333</ele><time>2026-04-17T15:54:32.998Z</time></trkpt><trkpt lat="41.91073659304236" lon="12.394574075176072"><ele>75.66666666666667</ele><time>2026-04-17T15:54:34.998Z</time></trkpt><trkpt lat="41.910741274098655" lon="12.394455389814073"><ele>74.5</ele><time>2026-04-17T15:54:36.998Z</time></trkpt><trkpt lat="41.91076202174086" lon="12.394356379012097"><ele>73.33333333333334</ele><time>2026-04-17T15:54:39.998Z</time></trkpt><trkpt lat="41.910761390534546" lon="12.394244972382184"><ele>72.16666666666667</ele><time>2026-04-17T15:54:43Z</time></trkpt><trkpt lat="41.910764931696605" lon="12.394154418506226"><ele>71.0</ele><time>2026-04-17T15:54:45Z</time></trkpt><trkpt lat="41.91077559896539" lon="12.394014661950333"><ele>71.0</ele><time>2026-04-17T15:54:47Z</time></trkpt><trkpt lat="41.91078706450058" lon="12.393843575632241"><ele>71.0</ele><time>2026-04-17T15:54:49Z</time></trkpt><trkpt lat="41.910800628586586" lon="12.393740260794466"><ele>71.0</ele><time>2026-04-17T15:54:50Z</time></trkpt><trkpt lat="41.910814325029975" lon="12.393626498415328"><ele>71.0</ele><time>2026-04-17T15:54:51Z</time></trkpt><trkpt lat="41.910827684963806" lon="12.393515519500221"><ele>71.0</ele><time>2026-04-17T15:54:52Z</time></trkpt><trkpt lat="41.9108420681244" lon="12.393404613700849"><ele>70.8</ele><time>2026-04-17T15:54:53Z</time></trkpt><trkpt lat="41.91085484174966" lon="12.393291140508296"><ele>70.6</ele><time>2026-04-17T15:54:54Z</time></trkpt><trkpt lat="41.91086753005592" lon="12.393164989177247"><ele>70.4</ele><time>2026-04-17T15:54:55Z</time></trkpt><trkpt lat="41.910883593250475" lon="12.393036715179099"><ele>70.2</ele><time>2026-04-17T15:54:56Z</time></trkpt><trkpt lat="41.91091136578711" lon="12.392910482131064"><ele>70.0</ele><time>2026-04-17T15:54:57Z</time></trkpt><trkpt lat="41.91095020725463" lon="12.39279640274784"><ele>71.4</ele><time>2026-04-17T15:54:58Z</time></trkpt><trkpt lat="41.911003348569935" lon="12.392692184709862"><ele>72.8</ele><time>2026-04-17T15:54:59Z</time></trkpt><trkpt lat="41.911064548784175" lon="12.392582916128724"><ele>74.2</ele><time>2026-04-17T15:55:00Z</time></trkpt><trkpt lat="41.911139765765505" lon="12.39247357196316"><ele>75.6</ele><time>2026-04-17T15:55:01Z</time></trkpt><trkpt lat="41.911233074197206" lon="12.39237395062825"><ele>77.0</ele><time>2026-04-17T15:55:02Z</time></trkpt><trkpt lat="41.91132281500464" lon="12.392291705589633"><ele>77.0</ele><time>2026-04-17T15:55:03Z</time></trkpt><trkpt lat="41.91140954212574" lon="12.392218467744302"><ele>77.0</ele><time>2026-04-17T15:55:04Z</time></trkpt><trkpt lat="41.911501493502115" lon="12.392145747754851"><ele>77.0</ele><time>2026-04-17T15:55:05Z</time></trkpt><trkpt lat="41.91160390563286" lon="12.392064524016982"><ele>77.0</ele><time>2026-04-17T15:55:06Z</time></trkpt><trkpt lat="41.91169647038789" lon="12.39197993362704"><ele>77.0</ele><time>2026-04-17T15:55:07Z</time></trkpt><trkpt lat="41.911778376995144" lon="12.391899213746282"><ele>78.2</ele><time>2026-04-17T15:55:08Z</time></trkpt><trkpt lat="41.91185760883953" lon="12.391818245532003"><ele>79.4</ele><time>2026-04-17T15:55:09Z</time></trkpt><trkpt lat="41.911936692940586" lon="12.391729116497983"><ele>80.60000000000001</ele><time>2026-04-17T15:55:10Z</time></trkpt><trkpt lat="41.91201763459882" lon="12.39162927757114"><ele>81.80000000000001</ele><time>2026-04-17T15:55:11Z</time></trkpt><trkpt lat="41.91210456426316" lon="12.391520032725285"><ele>83.0</ele><time>2026-04-17T15:55:12Z</time></trkpt><trkpt lat="41.91220363293095" lon="12.391399427837982"><ele>82.5</ele><time>2026-04-17T15:55:13Z</time></trkpt><trkpt lat="41.91230772958919" lon="12.39127239602834"><ele>82.0</ele><time>2026-04-17T15:55:14Z</time></trkpt><trkpt lat="41.91241541729293" lon="12.391146442949017"><ele>81.5</ele><time>2026-04-17T15:55:15Z</time></trkpt><trkpt lat="41.91250501101406" lon="12.391037454106856"><ele>81.0</ele><time>2026-04-17T15:55:16Z</time></trkpt><trkpt lat="41.912584951188755" lon="12.390933959513642"><ele>80.6</ele><time>2026-04-17T15:55:17Z</time></trkpt><trkpt lat="41.91265364230844" lon="12.390838350354006"><ele>80.19999999999999</ele><time>2026-04-17T15:55:18Z</time></trkpt><trkpt lat="41.91271438999838" lon="12.390744826303234"><ele>79.80000000000001</ele><time>2026-04-17T15:55:19Z</time></trkpt><trkpt lat="41.912772596193264" lon="12.390657438695786"><ele>79.4</ele><time>2026-04-17T15:55:20Z</time></trkpt><trkpt lat="41.912833091098236" lon="12.390562643690805"><ele>79.0</ele><time>2026-04-17T15:55:21Z</time></trkpt><trkpt lat="41.91289622935274" lon="12.390460957160455"><ele>78.0</ele><time>2026-04-17T15:55:22Z</time></trkpt><trkpt lat="41.9129552502683" lon="12.390367788445504"><ele>77.0</ele><time>2026-04-17T15:55:23Z</time></trkpt><trkpt lat="41.91300429064719" lon="12.390295093610728"><ele>76.0</ele><time>2026-04-17T15:55:24Z</time></trkpt><trkpt lat="41.91306328533707" lon="12.390212000379766"><ele>75.0</ele><time>2026-04-17T15:55:25Z</time></trkpt><trkpt lat="41.91311495804449" lon="12.390141492335482"><ele>74.0</ele><time>2026-04-17T15:55:26Z</time></trkpt><trkpt lat="41.913194215573995" lon="12.390043554846232"><ele>73.0</ele><time>2026-04-17T15:55:28Z</time></trkpt><trkpt lat="41.91327303396416" lon="12.389965000170767"><ele>73.0</ele><time>2026-04-17T15:55:30Z</time></trkpt><trkpt lat="41.913351690924394" lon="12.389868091247902"><ele>73.0</ele><time>2026-04-17T15:55:32Z</time></trkpt><trkpt lat="41.91341214051507" lon="12.389771609841597"><ele>73.0</ele><time>2026-04-17T15:55:34Z</time></trkpt><trkpt lat="41.913466413800045" lon="12.389704093017599"><ele>73.0</ele><time>2026-04-17T15:55:35.999Z</time></trkpt><trkpt lat="41.9135110378151" lon="12.38964326044887"><ele>73.0</ele><time>2026-04-17T15:55:39.999Z</time></trkpt><trkpt lat="41.91356562241829" lon="12.389567198924416"><ele>73.0</ele><time>2026-04-17T15:55:45.999Z</time></trkpt><trkpt lat="41.913622252033136" lon="12.389495355363174"><ele>70.66666666666666</ele><time>2026-04-17T15:55:52.999Z</time></trkpt><trkpt lat="41.91367117708894" lon="12.389423738867434"><ele>68.33333333333333</ele><time>2026-04-17T15:55:56.999Z</time></trkpt><trkpt lat="41.913711397275144" lon="12.38934985842097"><ele>66.0</ele><time>2026-04-17T15:55:58.999Z</time></trkpt><trkpt lat="41.91377916552624" lon="12.389243165064963"><ele>63.66666666666667</ele><time>2026-04-17T15:56:00.999Z</time></trkpt><trkpt lat="41.91382140979932" lon="12.38915595610857"><ele>61.333333333333336</ele><time>2026-04-17T15:56:01.999Z</time></trkpt><trkpt lat="41.91385299140416" lon="12.389045906354772"><ele>59.0</ele><time>2026-04-17T15:56:02.999Z</time></trkpt><trkpt lat="41.91388539099047" lon="12.38895446804663"><ele>58.5</ele><time>2026-04-17T15:56:03.999Z</time></trkpt><trkpt lat="41.9139082320021" lon="12.388797530519492"><ele>58.0</ele><time>2026-04-17T15:56:05.999Z</time></trkpt><trkpt lat="41.913943914482694" lon="12.388665059089803"><ele>57.5</ele><time>2026-04-17T15:56:07.999Z</time></trkpt><trkpt lat="41.913952142023426" lon="12.388504205233293"><ele>57.0</ele><time>2026-04-17T15:56:09.999Z</time></trkpt><trkpt lat="41.913984499874374" lon="12.388330587560354"><ele>57.0</ele><time>2026-04-17T15:56:11.999Z</time></trkpt><trkpt lat="41.91400319288783" lon="12.388234912179952"><ele>57.0</ele><time>2026-04-17T15:56:12.999Z</time></trkpt><trkpt lat="41.914016340838344" lon="12.388133695613638"><ele>57.0</ele><time>2026-04-17T15:56:13.999Z</time></trkpt><trkpt lat="41.914050875247256" lon="12.388042374617681"><ele>57.0</ele><time>2026-04-17T15:56:14.999Z</time></trkpt><trkpt lat="41.91407382376023" lon="12.38793714220493"><ele>57.0</ele><time>2026-04-17T15:56:15.999Z</time></trkpt><trkpt lat="41.91409539653596" lon="12.387838086823786"><ele>57.0</ele><time>2026-04-17T15:56:16.999Z</time></trkpt><trkpt lat="41.914116187197656" lon="12.387742747940594"><ele>57.0</ele><time>2026-04-17T15:56:17.999Z</time></trkpt><trkpt lat="41.91414546330748" lon="12.387609744076714"><ele>57.0</ele><time>2026-04-17T15:56:19.999Z</time></trkpt><trkpt lat="41.91416641098542" lon="12.387513771691513"><ele>57.0</ele><time>2026-04-17T15:56:21.999Z</time></trkpt><trkpt lat="41.914173926089155" lon="12.38740283555776"><ele>57.0</ele><time>2026-04-17T15:56:23.999Z</time></trkpt><trkpt lat="41.91419970571708" lon="12.38729573523813"><ele>57.0</ele><time>2026-04-17T15:56:25.999Z</time></trkpt><trkpt lat="41.91422337157379" lon="12.387156946009299"><ele>58.5</ele><time>2026-04-17T15:56:27.998Z</time></trkpt><trkpt lat="41.91424872430883" lon="12.387057537474556"><ele>60.0</ele><time>2026-04-17T15:56:29.998Z</time></trkpt><trkpt lat="41.91427548370554" lon="12.386955784561827"><ele>61.5</ele><time>2026-04-17T15:56:32.998Z</time></trkpt><trkpt lat="41.91428600186872" lon="12.386853459080923"><ele>63.0</ele><time>2026-04-17T15:56:34.998Z</time></trkpt><trkpt lat="41.91432131011748" lon="12.386722968441884"><ele>64.5</ele><time>2026-04-17T15:56:36.998Z</time></trkpt><trkpt lat="41.91431224464226" lon="12.386634461719174"><ele>66.0</ele><time>2026-04-17T15:56:37.998Z</time></trkpt><trkpt lat="41.91433870647091" lon="12.386555185144088"><ele>66.0</ele><time>2026-04-17T15:56:38.998Z</time></trkpt><trkpt lat="41.914367307436564" lon="12.386464345695932"><ele>66.0</ele><time>2026-04-17T15:56:39.998Z</time></trkpt><trkpt lat="41.91439538515581" lon="12.38637042432328"><ele>66.0</ele><time>2026-04-17T15:56:40.998Z</time></trkpt><trkpt lat="41.91442375413049" lon="12.38628829437206"><ele>66.0</ele><time>2026-04-17T15:56:41.998Z</time></trkpt><trkpt lat="41.91444886988464" lon="12.386208669366"><ele>66.0</ele><time>2026-04-17T15:56:42.998Z</time></trkpt><trkpt lat="41.91448933689681" lon="12.386064696013218"><ele>66.0</ele><time>2026-04-17T15:56:44.998Z</time></trkpt><trkpt lat="41.91452615107161" lon="12.385951809278152"><ele>65.6</ele><time>2026-04-17T15:56:46.998Z</time></trkpt><trkpt lat="41.914567325731504" lon="12.385801480719847"><ele>65.19999999999999</ele><time>2026-04-17T15:56:49Z</time></trkpt><trkpt lat="41.914580839920916" lon="12.385689904858857"><ele>64.80000000000001</ele><time>2026-04-17T15:56:51Z</time></trkpt><trkpt lat="41.91463023082416" lon="12.385508989188468"><ele>64.4</ele><time>2026-04-17T15:56:53Z</time></trkpt><trkpt lat="41.91466363876274" lon="12.385409268522995"><ele>64.0</ele><time>2026-04-17T15:56:54Z</time></trkpt><trkpt lat="41.91468714217796" lon="12.385328283967223"><ele>62.99999999999999</ele><time>2026-04-17T15:56:55Z</time></trkpt><trkpt lat="41.91471949202574" lon="12.385233809170408"><ele>62.0</ele><time>2026-04-17T15:56:56Z</time></trkpt><trkpt lat="41.91475606201537" lon="12.385132114536502"><ele>61.0</ele><time>2026-04-17T15:56:57Z</time></trkpt><trkpt lat="41.91478504495692" lon="12.385049590708029"><ele>60.0</ele><time>2026-04-17T15:56:58Z</time></trkpt><trkpt lat="41.91481911793868" lon="12.384965027039955"><ele>58.99999999999999</ele><time>2026-04-17T15:56:59Z</time></trkpt><trkpt lat="41.914881279228396" lon="12.384807629083628"><ele>58.0</ele><time>2026-04-17T15:57:01Z</time></trkpt><trkpt lat="41.91491710411448" lon="12.384715128342277"><ele>57.2</ele><time>2026-04-17T15:57:02Z</time></trkpt><trkpt lat="41.91495536014956" lon="12.384619763640904"><ele>56.4</ele><time>2026-04-17T15:57:03Z</time></trkpt><trkpt lat="41.914989385197856" lon="12.38448672419781"><ele>55.60000000000001</ele><time>2026-04-17T15:57:05Z</time></trkpt><trkpt lat="41.91503952944915" lon="12.38431400628696"><ele>54.800000000000004</ele><time>2026-04-17T15:57:07Z</time></trkpt><trkpt lat="41.91503927217857" lon="12.384187500925659"><ele>54.0</ele><time>2026-04-17T15:57:09Z</time></trkpt><trkpt lat="41.91506025232708" lon="12.384061671538195"><ele>54.166666666666664</ele><time>2026-04-17T15:57:11Z</time></trkpt><trkpt lat="41.91507371145643" lon="12.383965761013537"><ele>54.33333333333333</ele><time>2026-04-17T15:57:13Z</time></trkpt><trkpt lat="41.91508969374314" lon="12.383852680234446"><ele>54.5</ele><time>2026-04-17T15:57:15Z</time></trkpt><trkpt lat="41.915112637182965" lon="12.38369649741855"><ele>54.666666666666664</ele><time>2026-04-17T15:57:17Z</time></trkpt><trkpt lat="41.91512477532222" lon="12.383613170898485"><ele>54.83333333333333</ele><time>2026-04-17T15:57:19Z</time></trkpt><trkpt lat="41.91513895223796" lon="12.383515847948678"><ele>55.0</ele><time>2026-04-17T15:57:21Z</time></trkpt><trkpt lat="41.91514917429861" lon="12.383420841563778"><ele>54.99999999999999</ele><time>2026-04-17T15:57:23Z</time></trkpt><trkpt lat="41.91516616280696" lon="12.383290338956195"><ele>55.0</ele><time>2026-04-17T15:57:25Z</time></trkpt><trkpt lat="41.9151793553926" lon="12.383193044845394"><ele>55.0</ele><time>2026-04-17T15:57:26Z</time></trkpt><trkpt lat="41.91519652821016" lon="12.383080569182153"><ele>55.0</ele><time>2026-04-17T15:57:27Z</time></trkpt><trkpt lat="41.91521418862832" lon="12.382978932604374"><ele>54.99999999999999</ele><time>2026-04-17T15:57:28Z</time></trkpt><trkpt lat="41.91521913560843" lon="12.382864300104046"><ele>55.0</ele><time>2026-04-17T15:57:29Z</time></trkpt><trkpt lat="41.915239841924766" lon="12.382763615076346"><ele>55.33333333333333</ele><time>2026-04-17T15:57:30Z</time></trkpt><trkpt lat="41.915259638067376" lon="12.382681913318557"><ele>55.666666666666664</ele><time>2026-04-17T15:57:31Z</time></trkpt><trkpt lat="41.9152826444705" lon="12.382551696509454"><ele>56.0</ele><time>2026-04-17T15:57:33Z</time></trkpt><trkpt lat="41.91530445609943" lon="12.382449650668656"><ele>56.33333333333333</ele><time>2026-04-17T15:57:35Z</time></trkpt><trkpt lat="41.9153265835862" lon="12.382331400846844"><ele>56.666666666666664</ele><time>2026-04-17T15:57:37.999Z</time></trkpt><trkpt lat="41.91535099102204" lon="12.382238877725573"><ele>57.0</ele><time>2026-04-17T15:57:39.999Z</time></trkpt><trkpt lat="41.91536816510716" lon="12.38212311415936"><ele>58.166666666666664</ele><time>2026-04-17T15:57:42.999Z</time></trkpt><trkpt lat="41.915391466834215" lon="12.382016969639947"><ele>59.33333333333333</ele><time>2026-04-17T15:57:45.999Z</time></trkpt><trkpt lat="41.915409422545245" lon="12.381929191081682"><ele>60.5</ele><time>2026-04-17T15:57:47.999Z</time></trkpt><trkpt lat="41.91542429173436" lon="12.381813884377847"><ele>61.666666666666664</ele><time>2026-04-17T15:57:50.999Z</time></trkpt><trkpt lat="41.91544255347303" lon="12.381709965871886"><ele>62.83333333333333</ele><time>2026-04-17T15:57:53.999Z</time></trkpt><trkpt lat="41.91546247169985" lon="12.381622240527138"><ele>64.0</ele><time>2026-04-17T15:57:56.999Z</time></trkpt><trkpt lat="41.91548313297379" lon="12.381494577865022"><ele>63.99999999999999</ele><time>2026-04-17T15:57:58.999Z</time></trkpt><trkpt lat="41.91550587209922" lon="12.381379176447858"><ele>64.0</ele><time>2026-04-17T15:58:00.999Z</time></trkpt><trkpt lat="41.91552756268488" lon="12.38123439569404"><ele>64.0</ele><time>2026-04-17T15:58:02.999Z</time></trkpt><trkpt lat="41.91554534292579" lon="12.381140319482915"><ele>64.0</ele><time>2026-04-17T15:58:03.999Z</time></trkpt><trkpt lat="41.91558282121558" lon="12.381022015838315"><ele>63.99999999999999</ele><time>2026-04-17T15:58:04.999Z</time></trkpt><trkpt lat="41.91560702874461" lon="12.380927023429745"><ele>64.0</ele><time>2026-04-17T15:58:05.999Z</time></trkpt><trkpt lat="41.91563993311596" lon="12.380810326718386"><ele>64.5</ele><time>2026-04-17T15:58:07.999Z</time></trkpt><trkpt lat="41.915619027120805" lon="12.380714702852467"><ele>65.0</ele><time>2026-04-17T15:58:32.998Z</time></trkpt><trkpt lat="41.9156478937156" lon="12.380630609063452"><ele>65.5</ele><time>2026-04-17T15:58:33.998Z</time></trkpt><trkpt lat="41.91565847658909" lon="12.38054212153409"><ele>66.0</ele><time>2026-04-17T15:58:34.998Z</time></trkpt><trkpt lat="41.91571019557966" lon="12.380391168112835"><ele>66.5</ele><time>2026-04-17T15:58:36.998Z</time></trkpt><trkpt lat="41.91573196032603" lon="12.380277741155668"><ele>67.0</ele><time>2026-04-17T15:58:37.998Z</time></trkpt><trkpt lat="41.915750553249325" lon="12.380155531781861"><ele>67.0</ele><time>2026-04-17T15:58:38.998Z</time></trkpt><trkpt lat="41.915774066601934" lon="12.380049014924158"><ele>67.0</ele><time>2026-04-17T15:58:39.998Z</time></trkpt><trkpt lat="41.915816246068786" lon="12.379906604853812"><ele>67.0</ele><time>2026-04-17T15:58:41.998Z</time></trkpt><trkpt lat="41.915850939158815" lon="12.379816185055198"><ele>67.0</ele><time>2026-04-17T15:58:43.998Z</time></trkpt><trkpt lat="41.91588727767979" lon="12.379704379861133"><ele>67.0</ele><time>2026-04-17T15:58:46.998Z</time></trkpt><trkpt lat="41.91597708743201" lon="12.379621644971182"><ele>68.16666666666666</ele><time>2026-04-17T15:58:48.998Z</time></trkpt><trkpt lat="41.916022909262814" lon="12.379519054646426"><ele>69.33333333333333</ele><time>2026-04-17T15:58:50.998Z</time></trkpt><trkpt lat="41.91607178161715" lon="12.379460383899342"><ele>70.5</ele><time>2026-04-17T15:58:52.998Z</time></trkpt><trkpt lat="41.91607997451329" lon="12.379372554457191"><ele>71.66666666666667</ele><time>2026-04-17T15:58:55Z</time></trkpt><trkpt lat="41.9161660513595" lon="12.379360933625033"><ele>72.83333333333334</ele><time>2026-04-17T15:58:56Z</time></trkpt><trkpt lat="41.916262704361195" lon="12.379295453891453"><ele>74.0</ele><time>2026-04-17T15:58:58Z</time></trkpt><trkpt lat="41.91633234774583" lon="12.379214008796447"><ele>74.0</ele><time>2026-04-17T15:58:59Z</time></trkpt><trkpt lat="41.91641992903703" lon="12.379114822119492"><ele>74.0</ele><time>2026-04-17T15:59:00Z</time></trkpt><trkpt lat="41.916514538297236" lon="12.37905109948275"><ele>74.0</ele><time>2026-04-17T15:59:01Z</time></trkpt><trkpt lat="41.916604469157875" lon="12.378980797115473"><ele>74.0</ele><time>2026-04-17T15:59:02Z</time></trkpt><trkpt lat="41.91669035231757" lon="12.378922707873246"><ele>74.0</ele><time>2026-04-17T15:59:03Z</time></trkpt><trkpt lat="41.91678415944863" lon="12.378852140935138"><ele>74.4</ele><time>2026-04-17T15:59:04Z</time></trkpt><trkpt lat="41.91689628315189" lon="12.378809571353427"><ele>74.80000000000001</ele><time>2026-04-17T15:59:05Z</time></trkpt><trkpt lat="41.91698471510053" lon="12.378766346996734"><ele>75.19999999999999</ele><time>2026-04-17T15:59:06Z</time></trkpt><trkpt lat="41.91707307665626" lon="12.378722266920544"><ele>75.6</ele><time>2026-04-17T15:59:07Z</time></trkpt><trkpt lat="41.91715841490733" lon="12.37868165906068"><ele>76.0</ele><time>2026-04-17T15:59:08Z</time></trkpt><trkpt lat="41.91723107857837" lon="12.37864876686926"><ele>76.0</ele><time>2026-04-17T15:59:09Z</time></trkpt><trkpt lat="41.91730262842121" lon="12.3786042835488"><ele>76.0</ele><time>2026-04-17T15:59:10Z</time></trkpt><trkpt lat="41.91738060384412" lon="12.378571861998564"><ele>76.0</ele><time>2026-04-17T15:59:11Z</time></trkpt><trkpt lat="41.91746170810693" lon="12.378529678873663"><ele>76.0</ele><time>2026-04-17T15:59:12Z</time></trkpt><trkpt lat="41.91754215455098" lon="12.378479580814721"><ele>76.0</ele><time>2026-04-17T15:59:13Z</time></trkpt><trkpt lat="41.91763110521923" lon="12.378432499193083"><ele>76.0</ele><time>2026-04-17T15:59:14Z</time></trkpt><trkpt lat="41.917706200797376" lon="12.378381595719985"><ele>76.66666666666666</ele><time>2026-04-17T15:59:15Z</time></trkpt><trkpt lat="41.91776486190844" lon="12.378342840333643"><ele>77.33333333333333</ele><time>2026-04-17T15:59:16Z</time></trkpt><trkpt lat="41.91784811401894" lon="12.378297530041584"><ele>78.0</ele><time>2026-04-17T15:59:18Z</time></trkpt><trkpt lat="41.917914618082605" lon="12.378256086315577"><ele>78.66666666666667</ele><time>2026-04-17T15:59:32Z</time></trkpt><trkpt lat="41.91800996793439" lon="12.378224007446253"><ele>79.33333333333334</ele><time>2026-04-17T15:59:34Z</time></trkpt><trkpt lat="41.91809154705525" lon="12.378164326475142"><ele>80.0</ele><time>2026-04-17T15:59:36Z</time></trkpt><trkpt lat="41.91816041344779" lon="12.37815461914235"><ele>80.0</ele><time>2026-04-17T15:59:37Z</time></trkpt><trkpt lat="41.918223103387454" lon="12.378138642974893"><ele>80.0</ele><time>2026-04-17T15:59:38Z</time></trkpt><trkpt lat="41.918301144957525" lon="12.378087239810165"><ele>80.0</ele><time>2026-04-17T15:59:39.999Z</time></trkpt><trkpt lat="41.91837990811537" lon="12.378040936314244"><ele>80.0</ele><time>2026-04-17T15:59:41.999Z</time></trkpt><trkpt lat="41.9184391005054" lon="12.377965763480123"><ele>80.0</ele><time>2026-04-17T15:59:42.999Z</time></trkpt><trkpt lat="41.91851021621909" lon="12.377931299808717"><ele>80.0</ele><time>2026-04-17T15:59:43.999Z</time></trkpt><trkpt lat="41.918583795386574" lon="12.377855515944445"><ele>80.2</ele><time>2026-04-17T15:59:45.999Z</time></trkpt><trkpt lat="41.91866876694758" lon="12.377772492403924"><ele>80.4</ele><time>2026-04-17T15:59:47.999Z</time></trkpt><trkpt lat="41.91870329799817" lon="12.377698449418956"><ele>80.6</ele><time>2026-04-17T15:59:48.999Z</time></trkpt><trkpt lat="41.91880779229917" lon="12.377638862370565"><ele>80.8</ele><time>2026-04-17T15:59:50.999Z</time></trkpt><trkpt lat="41.91891649005458" lon="12.377596909096425"><ele>81.0</ele><time>2026-04-17T15:59:52.999Z</time></trkpt><trkpt lat="41.91898488001487" lon="12.377590056717052"><ele>81.0</ele><time>2026-04-17T15:59:53.999Z</time></trkpt><trkpt lat="41.91905126234584" lon="12.377638065763072"><ele>81.0</ele><time>2026-04-17T15:59:54.999Z</time></trkpt><trkpt lat="41.91912408982868" lon="12.377646032579076"><ele>81.0</ele><time>2026-04-17T15:59:55.999Z</time></trkpt><trkpt lat="41.91921125597303" lon="12.377618612440052"><ele>81.0</ele><time>2026-04-17T15:59:56.999Z</time></trkpt><trkpt lat="41.919290894816996" lon="12.377585179563871"><ele>81.0</ele><time>2026-04-17T15:59:57.999Z</time></trkpt><trkpt lat="41.91937646854773" lon="12.377509401147963"><ele>81.0</ele><time>2026-04-17T15:59:58.999Z</time></trkpt><trkpt lat="41.91946744936867" lon="12.377409042042569"><ele>81.5</ele><time>2026-04-17T16:00:00.999Z</time></trkpt><trkpt lat="41.919513276040576" lon="12.377310425250997"><ele>82.0</ele><time>2026-04-17T16:00:01.999Z</time></trkpt><trkpt lat="41.91954801893861" lon="12.377174187217616"><ele>82.5</ele><time>2026-04-17T16:00:02.999Z</time></trkpt><trkpt lat="41.91961242791869" lon="12.377037691684029"><ele>83.0</ele><time>2026-04-17T16:00:03.999Z</time></trkpt><trkpt lat="41.919717752317155" lon="12.37690707430495"><ele>83.0</ele><time>2026-04-17T16:00:04.999Z</time></trkpt><trkpt lat="41.919822953685866" lon="12.376798282010972"><ele>83.0</ele><time>2026-04-17T16:00:05.999Z</time></trkpt><trkpt lat="41.91993224024957" lon="12.376697956391956"><ele>83.0</ele><time>2026-04-17T16:00:06.999Z</time></trkpt><trkpt lat="41.920045199283656" lon="12.376648721763862"><ele>83.0</ele><time>2026-04-17T16:00:07.999Z</time></trkpt><trkpt lat="41.92015182020277" lon="12.376547824403001"><ele>82.5</ele><time>2026-04-17T16:00:08.999Z</time></trkpt><trkpt lat="41.920276480777666" lon="12.376481208541607"><ele>82.0</ele><time>2026-04-17T16:00:09.999Z</time></trkpt><trkpt lat="41.92039229131355" lon="12.376399572140647"><ele>81.5</ele><time>2026-04-17T16:00:10.999Z</time></trkpt><trkpt lat="41.920498697391174" lon="12.376324904155027"><ele>81.0</ele><time>2026-04-17T16:00:11.999Z</time></trkpt><trkpt lat="41.920612414333064" lon="12.376251054508332"><ele>80.8</ele><time>2026-04-17T16:00:12.999Z</time></trkpt><trkpt lat="41.92072394485395" lon="12.376183502156609"><ele>80.6</ele><time>2026-04-17T16:00:13.999Z</time></trkpt><trkpt lat="41.92081262001126" lon="12.376106179777679"><ele>80.4</ele><time>2026-04-17T16:00:14.999Z</time></trkpt><trkpt lat="41.920907033321605" lon="12.37605580132838"><ele>80.2</ele><time>2026-04-17T16:00:15.999Z</time></trkpt><trkpt lat="41.92099197323439" lon="12.376010571400688"><ele>80.0</ele><time>2026-04-17T16:00:16.999Z</time></trkpt><trkpt lat="41.92107848804381" lon="12.375962950362965"><ele>80.0</ele><time>2026-04-17T16:00:17.999Z</time></trkpt><trkpt lat="41.921165984586196" lon="12.375914163233"><ele>80.0</ele><time>2026-04-17T16:00:18.999Z</time></trkpt><trkpt lat="41.921253286734405" lon="12.375860617540486"><ele>80.0</ele><time>2026-04-17T16:00:19.999Z</time></trkpt><trkpt lat="41.92133861756294" lon="12.375801780358923"><ele>80.0</ele><time>2026-04-17T16:00:20.999Z</time></trkpt><trkpt lat="41.92141626614194" lon="12.375738875286197"><ele>80.0</ele><time>2026-04-17T16:00:21.999Z</time></trkpt><trkpt lat="41.92149897661848" lon="12.37568868292408"><ele>80.0</ele><time>2026-04-17T16:00:22.999Z</time></trkpt><trkpt lat="41.92156223151285" lon="12.37559136661228"><ele>80.0</ele><time>2026-04-17T16:00:23.999Z</time></trkpt><trkpt lat="41.92162882865448" lon="12.375507519578237"><ele>80.0</ele><time>2026-04-17T16:00:24.999Z</time></trkpt><trkpt lat="41.92169115682129" lon="12.375410786795523"><ele>80.0</ele><time>2026-04-17T16:00:25.999Z</time></trkpt><trkpt lat="41.921747140718665" lon="12.375296432261669"><ele>80.0</ele><time>2026-04-17T16:00:26.999Z</time></trkpt><trkpt lat="41.92180426412448" lon="12.375177429461548"><ele>81.0</ele><time>2026-04-17T16:00:27.999Z</time></trkpt><trkpt lat="41.9218555332937" lon="12.37504345731569"><ele>82.0</ele><time>2026-04-17T16:00:28.999Z</time></trkpt><trkpt lat="41.92189311424902" lon="12.37492719393752"><ele>83.0</ele><time>2026-04-17T16:00:29.999Z</time></trkpt><trkpt lat="41.92194348812461" lon="12.374816253227156"><ele>84.0</ele><time>2026-04-17T16:00:30.999Z</time></trkpt><trkpt lat="41.921994943975974" lon="12.374702460548535"><ele>85.0</ele><time>2026-04-17T16:00:31.999Z</time></trkpt><trkpt lat="41.922038267215356" lon="12.374588420413122"><ele>85.2</ele><time>2026-04-17T16:00:32.999Z</time></trkpt><trkpt lat="41.92207247705651" lon="12.374479679586305"><ele>85.4</ele><time>2026-04-17T16:00:33.999Z</time></trkpt><trkpt lat="41.92210394928915" lon="12.374362434375202"><ele>85.6</ele><time>2026-04-17T16:00:34.999Z</time></trkpt><trkpt lat="41.92214889149663" lon="12.374246674070774"><ele>85.8</ele><time>2026-04-17T16:00:35.999Z</time></trkpt><trkpt lat="41.92214921735637" lon="12.374113984385442"><ele>86.0</ele><time>2026-04-17T16:00:36.999Z</time></trkpt><trkpt lat="41.92216639016872" lon="12.374014619132867"><ele>86.00000000000001</ele><time>2026-04-17T16:00:37.999Z</time></trkpt><trkpt lat="41.92217664997958" lon="12.373915502519074"><ele>86.0</ele><time>2026-04-17T16:00:38.998Z</time></trkpt><trkpt lat="41.92218260315149" lon="12.373816990099911"><ele>86.0</ele><time>2026-04-17T16:00:39.998Z</time></trkpt><trkpt lat="41.9221843641454" lon="12.373707562940695"><ele>86.0</ele><time>2026-04-17T16:00:40.998Z</time></trkpt><trkpt lat="41.922184914174416" lon="12.373605677814085"><ele>86.0</ele><time>2026-04-17T16:00:41.998Z</time></trkpt><trkpt lat="41.92218476692057" lon="12.373520026476012"><ele>86.00000000000001</ele><time>2026-04-17T16:00:42.998Z</time></trkpt><trkpt lat="41.92217796241319" lon="12.373435911197742"><ele>86.0</ele><time>2026-04-17T16:00:43.998Z</time></trkpt><trkpt lat="41.92216930042582" lon="12.373348161709353"><ele>85.66666666666667</ele><time>2026-04-17T16:00:44.998Z</time></trkpt><trkpt lat="41.92215633913798" lon="12.373263130087116"><ele>85.33333333333334</ele><time>2026-04-17T16:00:45.998Z</time></trkpt><trkpt lat="41.92213676948869" lon="12.373179088657228"><ele>85.0</ele><time>2026-04-17T16:00:46.998Z</time></trkpt><trkpt lat="41.92209523957782" lon="12.37302827973883"><ele>84.66666666666667</ele><time>2026-04-17T16:00:48.998Z</time></trkpt><trkpt lat="41.92205226428596" lon="12.372938116333485"><ele>84.33333333333333</ele><time>2026-04-17T16:00:49.998Z</time></trkpt><trkpt lat="41.921996730433904" lon="12.37284529844974"><ele>84.0</ele><time>2026-04-17T16:00:50.998Z</time></trkpt><trkpt lat="41.92195042674527" lon="12.372770208001262"><ele>82.8</ele><time>2026-04-17T16:00:51.998Z</time></trkpt><trkpt lat="41.92190805731868" lon="12.3727018145338"><ele>81.60000000000001</ele><time>2026-04-17T16:00:52.998Z</time></trkpt><trkpt lat="41.9218681984479" lon="12.372632670586441"><ele>80.4</ele><time>2026-04-17T16:00:53.998Z</time></trkpt><trkpt lat="41.9218137797746" lon="12.372496746200273"><ele>79.2</ele><time>2026-04-17T16:00:55.998Z</time></trkpt><trkpt lat="41.921782450447836" lon="12.37235915587989"><ele>78.0</ele><time>2026-04-17T16:00:57.998Z</time></trkpt><trkpt lat="41.92177925570969" lon="12.372221214418612"><ele>77.16666666666667</ele><time>2026-04-17T16:01:00Z</time></trkpt><trkpt lat="41.92180178650668" lon="12.372122477447226"><ele>76.33333333333333</ele><time>2026-04-17T16:01:02Z</time></trkpt><trkpt lat="41.9218369944381" lon="12.372017613201848"><ele>75.5</ele><time>2026-04-17T16:01:04Z</time></trkpt><trkpt lat="41.921874221514685" lon="12.371928541768915"><ele>74.66666666666666</ele><time>2026-04-17T16:01:06Z</time></trkpt><trkpt lat="41.92191245783121" lon="12.371850318213768"><ele>73.83333333333333</ele><time>2026-04-17T16:01:09Z</time></trkpt><trkpt lat="41.92195900971315" lon="12.37175777526053"><ele>73.0</ele><time>2026-04-17T16:01:12Z</time></trkpt><trkpt lat="41.921963291441074" lon="12.371634589292755"><ele>73.0</ele><time>2026-04-17T16:01:13Z</time></trkpt><trkpt lat="41.92201855759763" lon="12.371527512459744"><ele>73.0</ele><time>2026-04-17T16:01:14Z</time></trkpt><trkpt lat="41.92208941478093" lon="12.371427182862279"><ele>73.0</ele><time>2026-04-17T16:01:15Z</time></trkpt><trkpt lat="41.92214771870132" lon="12.371336507127012"><ele>73.0</ele><time>2026-04-17T16:01:16Z</time></trkpt><trkpt lat="41.92219304535031" lon="12.371256112635422"><ele>73.0</ele><time>2026-04-17T16:01:17Z</time></trkpt><trkpt lat="41.92226195678664" lon="12.371122582959682"><ele>72.6</ele><time>2026-04-17T16:01:19Z</time></trkpt><trkpt lat="41.92231493599999" lon="12.370996721525158"><ele>72.19999999999999</ele><time>2026-04-17T16:01:21Z</time></trkpt><trkpt lat="41.92234409764183" lon="12.37083643618249"><ele>71.8</ele><time>2026-04-17T16:01:22.999Z</time></trkpt><trkpt lat="41.92237007454005" lon="12.370754766423522"><ele>71.39999999999999</ele><time>2026-04-17T16:01:24.999Z</time></trkpt><trkpt lat="41.922381270899955" lon="12.370647242521123"><ele>71.0</ele><time>2026-04-17T16:01:27.999Z</time></trkpt><trkpt lat="41.92239653289768" lon="12.370507013985812"><ele>71.0</ele><time>2026-04-17T16:01:29.999Z</time></trkpt><trkpt lat="41.922420597856835" lon="12.370428128842319"><ele>71.0</ele><time>2026-04-17T16:01:30.999Z</time></trkpt><trkpt lat="41.92242805251127" lon="12.370274132048415"><ele>71.0</ele><time>2026-04-17T16:01:32.999Z</time></trkpt><trkpt lat="41.922443601918154" lon="12.370139181324163"><ele>71.0</ele><time>2026-04-17T16:01:34.999Z</time></trkpt><trkpt lat="41.92247990412514" lon="12.370012598341368"><ele>71.0</ele><time>2026-04-17T16:01:36.999Z</time></trkpt><trkpt lat="41.9225106112655" lon="12.369850486497834"><ele>71.0</ele><time>2026-04-17T16:01:38.999Z</time></trkpt><trkpt lat="41.92253038951725" lon="12.369765979440306"><ele>71.0</ele><time>2026-04-17T16:01:39.999Z</time></trkpt><trkpt lat="41.92255184670721" lon="12.369680289273159"><ele>71.0</ele><time>2026-04-17T16:01:40.999Z</time></trkpt><trkpt lat="41.922597997687646" lon="12.369516100263974"><ele>71.0</ele><time>2026-04-17T16:01:42.999Z</time></trkpt><trkpt lat="41.922626647884385" lon="12.369422319379833"><ele>71.0</ele><time>2026-04-17T16:01:43.999Z</time></trkpt><trkpt lat="41.922658865818875" lon="12.369317379261142"><ele>71.0</ele><time>2026-04-17T16:01:44.999Z</time></trkpt><trkpt lat="41.922692274989586" lon="12.36922047651256"><ele>70.2</ele><time>2026-04-17T16:01:45.999Z</time></trkpt><trkpt lat="41.92272050138701" lon="12.36913433262693"><ele>69.39999999999999</ele><time>2026-04-17T16:01:46.999Z</time></trkpt><trkpt lat="41.92277256067316" lon="12.368981488828675"><ele>68.6</ele><time>2026-04-17T16:01:48.998Z</time></trkpt><trkpt lat="41.92282715000561" lon="12.368825887146794"><ele>67.8</ele><time>2026-04-17T16:01:50.998Z</time></trkpt><trkpt lat="41.922853926140895" lon="12.36874622954387"><ele>67.0</ele><time>2026-04-17T16:01:51.998Z</time></trkpt><trkpt lat="41.92287983069083" lon="12.368662815229797"><ele>66.16666666666666</ele><time>2026-04-17T16:01:52.998Z</time></trkpt><trkpt lat="41.92291301930673" lon="12.368584268590531"><ele>65.33333333333333</ele><time>2026-04-17T16:01:53.998Z</time></trkpt><trkpt lat="41.92294385138771" lon="12.368504657788954"><ele>64.5</ele><time>2026-04-17T16:01:54.998Z</time></trkpt><trkpt lat="41.92300537236277" lon="12.368357076757661"><ele>63.66666666666667</ele><time>2026-04-17T16:01:56.998Z</time></trkpt><trkpt lat="41.92304013950453" lon="12.368276212840026"><ele>62.833333333333336</ele><time>2026-04-17T16:01:57.998Z</time></trkpt><trkpt lat="41.923077542406745" lon="12.368195874595509"><ele>62.0</ele><time>2026-04-17T16:01:58.998Z</time></trkpt><trkpt lat="41.923125813609964" lon="12.368091703416393"><ele>62.50000000000001</ele><time>2026-04-17T16:02:00.998Z</time></trkpt><trkpt lat="41.923190619362614" lon="12.367955047927206"><ele>63.0</ele><time>2026-04-17T16:02:02.998Z</time></trkpt><trkpt lat="41.92323035829477" lon="12.367874711523372"><ele>63.5</ele><time>2026-04-17T16:02:03.998Z</time></trkpt><trkpt lat="41.923266955738455" lon="12.367803829158571"><ele>64.0</ele><time>2026-04-17T16:02:04.998Z</time></trkpt><trkpt lat="41.923307175387606" lon="12.367710949127618"><ele>64.5</ele><time>2026-04-17T16:02:06.998Z</time></trkpt><trkpt lat="41.923374087382946" lon="12.367619495357815"><ele>65.0</ele><time>2026-04-17T16:02:35.998Z</time></trkpt><trkpt lat="41.923436552593664" lon="12.367535261865427"><ele>65.5</ele><time>2026-04-17T16:02:36.998Z</time></trkpt><trkpt lat="41.923506429452" lon="12.367421704531326"><ele>66.0</ele><time>2026-04-17T16:02:37.998Z</time></trkpt><trkpt lat="41.92358367389309" lon="12.367310535414534"><ele>66.5</ele><time>2026-04-17T16:02:38.998Z</time></trkpt><trkpt lat="41.9236794494303" lon="12.367187882949146"><ele>67.0</ele><time>2026-04-17T16:02:39.998Z</time></trkpt><trkpt lat="41.9237813350542" lon="12.367058131477885"><ele>67.0</ele><time>2026-04-17T16:02:40.997Z</time></trkpt><trkpt lat="41.923889430269035" lon="12.36691666269133"><ele>67.0</ele><time>2026-04-17T16:02:41.997Z</time></trkpt><trkpt lat="41.92398893419278" lon="12.36676553651011"><ele>67.0</ele><time>2026-04-17T16:02:42.997Z</time></trkpt><trkpt lat="41.924083808737144" lon="12.3665966027782"><ele>67.0</ele><time>2026-04-17T16:02:43.997Z</time></trkpt><trkpt lat="41.92417883753531" lon="12.366430211013135"><ele>67.0</ele><time>2026-04-17T16:02:44.997Z</time></trkpt><trkpt lat="41.924267351098536" lon="12.36625466570564"><ele>67.0</ele><time>2026-04-17T16:02:45.997Z</time></trkpt><trkpt lat="41.924334622503146" lon="12.366085251401365"><ele>68.0</ele><time>2026-04-17T16:02:46.997Z</time></trkpt><trkpt lat="41.924380104021594" lon="12.365921822825555"><ele>69.0</ele><time>2026-04-17T16:02:47.997Z</time></trkpt><trkpt lat="41.924407298616785" lon="12.365759702876169"><ele>70.0</ele><time>2026-04-17T16:02:48.997Z</time></trkpt><trkpt lat="41.924424067709076" lon="12.365604431891436"><ele>71.0</ele><time>2026-04-17T16:02:49.997Z</time></trkpt><trkpt lat="41.92442918003256" lon="12.365462936091525"><ele>71.0</ele><time>2026-04-17T16:02:50.997Z</time></trkpt><trkpt lat="41.92442731971744" lon="12.365341404953359"><ele>71.0</ele><time>2026-04-17T16:02:51.997Z</time></trkpt><trkpt lat="41.924424806027886" lon="12.365241765004413"><ele>71.0</ele><time>2026-04-17T16:02:52.997Z</time></trkpt><trkpt lat="41.924432295318326" lon="12.365155269283797"><ele>71.0</ele><time>2026-04-17T16:02:53.997Z</time></trkpt><trkpt lat="41.92444938624321" lon="12.365001670018216"><ele>71.0</ele><time>2026-04-17T16:02:55.997Z</time></trkpt><trkpt lat="41.92449785285862" lon="12.364863003875008"><ele>71.0</ele><time>2026-04-17T16:02:57.997Z</time></trkpt><trkpt lat="41.924564883819606" lon="12.364761722780248"><ele>71.0</ele><time>2026-04-17T16:02:59.997Z</time></trkpt><trkpt lat="41.92463826784882" lon="12.364672991780594"><ele>71.0</ele><time>2026-04-17T16:03:01.997Z</time></trkpt><trkpt lat="41.924720970879484" lon="12.364571372368228"><ele>71.0</ele><time>2026-04-17T16:03:03.997Z</time></trkpt><trkpt lat="41.924818402684046" lon="12.364464998300726"><ele>71.0</ele><time>2026-04-17T16:03:05.999Z</time></trkpt><trkpt lat="41.924910352719266" lon="12.364352546232368"><ele>70.14285714285714</ele><time>2026-04-17T16:03:07.999Z</time></trkpt><trkpt lat="41.92496623232089" lon="12.364306888580174"><ele>69.28571428571428</ele><time>2026-04-17T16:03:09Z</time></trkpt><trkpt lat="41.92500014865663" lon="12.364213801380567"><ele>68.42857142857143</ele><time>2026-04-17T16:03:10Z</time></trkpt><trkpt lat="41.92504416809119" lon="12.364139007791678"><ele>67.57142857142857</ele><time>2026-04-17T16:03:11Z</time></trkpt><trkpt lat="41.9250826881952" lon="12.364063827917631"><ele>66.71428571428572</ele><time>2026-04-17T16:03:12Z</time></trkpt><trkpt lat="41.92511743993998" lon="12.363991475750757"><ele>65.85714285714286</ele><time>2026-04-17T16:03:13Z</time></trkpt><trkpt lat="41.92515239113179" lon="12.363918777696831"><ele>65.0</ele><time>2026-04-17T16:03:14Z</time></trkpt><trkpt lat="41.925207465619465" lon="12.363765422836577"><ele>63.57142857142858</ele><time>2026-04-17T16:03:16Z</time></trkpt><trkpt lat="41.925225148881694" lon="12.363680441035347"><ele>62.142857142857146</ele><time>2026-04-17T16:03:17Z</time></trkpt><trkpt lat="41.925238521391314" lon="12.363596434197724"><ele>60.714285714285715</ele><time>2026-04-17T16:03:18Z</time></trkpt><trkpt lat="41.92525000360584" lon="12.363511799824037"><ele>59.28571428571429</ele><time>2026-04-17T16:03:19Z</time></trkpt><trkpt lat="41.92526811022123" lon="12.363345410985403"><ele>57.85714285714286</ele><time>2026-04-17T16:03:21Z</time></trkpt><trkpt lat="41.92527544502616" lon="12.363256420418029"><ele>56.42857142857142</ele><time>2026-04-17T16:03:22Z</time></trkpt><trkpt lat="41.925285101985715" lon="12.363171612884042"><ele>55.0</ele><time>2026-04-17T16:03:23Z</time></trkpt><trkpt lat="41.925294832922496" lon="12.363085208842698"><ele>54.6</ele><time>2026-04-17T16:03:24Z</time></trkpt><trkpt lat="41.92530758354169" lon="12.362924158833023"><ele>54.2</ele><time>2026-04-17T16:03:26Z</time></trkpt><trkpt lat="41.925317331832936" lon="12.362812210184671"><ele>53.8</ele><time>2026-04-17T16:03:28Z</time></trkpt><trkpt lat="41.925330478779" lon="12.362724262547298"><ele>53.4</ele><time>2026-04-17T16:03:31Z</time></trkpt><trkpt lat="41.925352613072455" lon="12.362618521505338"><ele>53.0</ele><time>2026-04-17T16:03:33Z</time></trkpt><trkpt lat="41.9253814537297" lon="12.362491257139517"><ele>53.0</ele><time>2026-04-17T16:03:35Z</time></trkpt><trkpt lat="41.92541756164553" lon="12.36234369409436"><ele>53.0</ele><time>2026-04-17T16:03:37Z</time></trkpt><trkpt lat="41.925469750508874" lon="12.362191962380184"><ele>53.0</ele><time>2026-04-17T16:03:39Z</time></trkpt><trkpt lat="41.92550274697005" lon="12.362119270245662"><ele>53.0</ele><time>2026-04-17T16:03:40Z</time></trkpt><trkpt lat="41.925577326219006" lon="12.362003840309455"><ele>53.0</ele><time>2026-04-17T16:03:42Z</time></trkpt><trkpt lat="41.92557740317615" lon="12.361842924545943"><ele>53.4</ele><time>2026-04-17T16:03:44Z</time></trkpt><trkpt lat="41.92561841332076" lon="12.361716256908235"><ele>53.8</ele><time>2026-04-17T16:03:52Z</time></trkpt><trkpt lat="41.92564670997324" lon="12.361623380890542"><ele>54.2</ele><time>2026-04-17T16:03:53Z</time></trkpt><trkpt lat="41.92568476491716" lon="12.361497898091985"><ele>54.6</ele><time>2026-04-17T16:03:54Z</time></trkpt><trkpt lat="41.92571776456515" lon="12.36136865699768"><ele>55.0</ele><time>2026-04-17T16:03:55Z</time></trkpt><trkpt lat="41.92574253035502" lon="12.361218530290724"><ele>55.5</ele><time>2026-04-17T16:03:56Z</time></trkpt><trkpt lat="41.92578110180612" lon="12.361052312909202"><ele>56.0</ele><time>2026-04-17T16:03:57Z</time></trkpt><trkpt lat="41.925811312434284" lon="12.36087376323057"><ele>56.5</ele><time>2026-04-17T16:03:58Z</time></trkpt><trkpt lat="41.925841577292886" lon="12.3606961861176"><ele>57.0</ele><time>2026-04-17T16:03:59Z</time></trkpt><trkpt lat="41.92588423359857" lon="12.360512056448004"><ele>60.0</ele><time>2026-04-17T16:04:00Z</time></trkpt><trkpt lat="41.92594096492838" lon="12.360330544108907"><ele>63.0</ele><time>2026-04-17T16:04:01Z</time></trkpt><trkpt lat="41.9260107367285" lon="12.36014960087056"><ele>66.0</ele><time>2026-04-17T16:04:02Z</time></trkpt><trkpt lat="41.9260874237698" lon="12.359977067426204"><ele>69.0</ele><time>2026-04-17T16:04:03Z</time></trkpt><trkpt lat="41.92616617012581" lon="12.359818871304398"><ele>66.0</ele><time>2026-04-17T16:04:04Z</time></trkpt><trkpt lat="41.92625672326907" lon="12.359656917108179"><ele>63.0</ele><time>2026-04-17T16:04:05Z</time></trkpt><trkpt lat="41.926375595689464" lon="12.359529934372176"><ele>60.0</ele><time>2026-04-17T16:04:06Z</time></trkpt><trkpt lat="41.92650218471352" lon="12.35940712381914"><ele>60.0</ele><time>2026-04-17T16:04:07Z</time></trkpt><trkpt lat="41.92663601168701" lon="12.359298272426484"><ele>60.0</ele><time>2026-04-17T16:04:08Z</time></trkpt><trkpt lat="41.92676778789761" lon="12.359208119438732"><ele>60.0</ele><time>2026-04-17T16:04:09Z</time></trkpt><trkpt lat="41.92687231425914" lon="12.359122653912005"><ele>60.0</ele><time>2026-04-17T16:04:10Z</time></trkpt><trkpt lat="41.92696424561984" lon="12.35903949676412"><ele>60.0</ele><time>2026-04-17T16:04:11Z</time></trkpt><trkpt lat="41.927051990155014" lon="12.35895655751301"><ele>60.0</ele><time>2026-04-17T16:04:12Z</time></trkpt><trkpt lat="41.92713640054962" lon="12.358883063467134"><ele>60.0</ele><time>2026-04-17T16:04:13Z</time></trkpt><trkpt lat="41.927225747809075" lon="12.358838847497639"><ele>60.0</ele><time>2026-04-17T16:04:14Z</time></trkpt><trkpt lat="41.927312478266245" lon="12.358831745322036"><ele>60.0</ele><time>2026-04-17T16:04:14.999Z</time></trkpt><trkpt lat="41.927401979070694" lon="12.358846131364517"><ele>60.0</ele><time>2026-04-17T16:04:15.999Z</time></trkpt><trkpt lat="41.92750595528121" lon="12.358855402858769"><ele>60.0</ele><time>2026-04-17T16:04:16.999Z</time></trkpt><trkpt lat="41.92761379910902" lon="12.358826553381903"><ele>60.0</ele><time>2026-04-17T16:04:17.999Z</time></trkpt><trkpt lat="41.92771368760381" lon="12.358810165844833"><ele>60.0</ele><time>2026-04-17T16:04:18.999Z</time></trkpt><trkpt lat="41.927788047189246" lon="12.35867839143037"><ele>60.0</ele><time>2026-04-17T16:04:19.999Z</time></trkpt><trkpt lat="41.927854211340865" lon="12.358568823549279"><ele>59.75</ele><time>2026-04-17T16:04:20.999Z</time></trkpt><trkpt lat="41.92791089448985" lon="12.358430678038674"><ele>59.5</ele><time>2026-04-17T16:04:21.999Z</time></trkpt><trkpt lat="41.92796110556845" lon="12.358268299526417"><ele>59.25</ele><time>2026-04-17T16:04:22.999Z</time></trkpt><trkpt lat="41.92801191374894" lon="12.358095155413386"><ele>59.0</ele><time>2026-04-17T16:04:23.999Z</time></trkpt><trkpt lat="41.92807389575468" lon="12.357936096285535"><ele>58.5</ele><time>2026-04-17T16:04:24.999Z</time></trkpt><trkpt lat="41.92814236028335" lon="12.357790750528794"><ele>58.0</ele><time>2026-04-17T16:04:25.999Z</time></trkpt><trkpt lat="41.928219436798244" lon="12.35764421040638"><ele>57.5</ele><time>2026-04-17T16:04:26.999Z</time></trkpt><trkpt lat="41.92830851674158" lon="12.357495229422133"><ele>57.0</ele><time>2026-04-17T16:04:27.999Z</time></trkpt><trkpt lat="41.92839938086541" lon="12.357357202144772"><ele>57.0</ele><time>2026-04-17T16:04:28.999Z</time></trkpt><trkpt lat="41.928477668945185" lon="12.357226604454913"><ele>57.0</ele><time>2026-04-17T16:04:29.999Z</time></trkpt><trkpt lat="41.92854142669908" lon="12.357093099503102"><ele>57.0</ele><time>2026-04-17T16:04:30.999Z</time></trkpt><trkpt lat="41.928581949899076" lon="12.356950190540637"><ele>57.0</ele><time>2026-04-17T16:04:31.999Z</time></trkpt><trkpt lat="41.92858969098565" lon="12.356814439039129"><ele>55.400000000000006</ele><time>2026-04-17T16:04:32.999Z</time></trkpt><trkpt lat="41.928561674200196" lon="12.356684206526007"><ele>53.800000000000004</ele><time>2026-04-17T16:04:33.999Z</time></trkpt><trkpt lat="41.92849912579453" lon="12.356569485384245"><ele>52.2</ele><time>2026-04-17T16:04:34.999Z</time></trkpt><trkpt lat="41.928416403837375" lon="12.35647338854669"><ele>50.6</ele><time>2026-04-17T16:04:35.999Z</time></trkpt><trkpt lat="41.928338435235254" lon="12.356384276287871"><ele>49.0</ele><time>2026-04-17T16:04:36.999Z</time></trkpt><trkpt lat="41.92828518895171" lon="12.356281726528374"><ele>48.400000000000006</ele><time>2026-04-17T16:04:37.999Z</time></trkpt><trkpt lat="41.92825428816247" lon="12.356164047138567"><ele>47.8</ele><time>2026-04-17T16:04:38.999Z</time></trkpt><trkpt lat="41.928241136221715" lon="12.356028771660451"><ele>47.2</ele><time>2026-04-17T16:04:39.999Z</time></trkpt><trkpt lat="41.92823660175653" lon="12.355874807622254"><ele>46.599999999999994</ele><time>2026-04-17T16:04:40.999Z</time></trkpt><trkpt lat="41.92824186223645" lon="12.355703227397777"><ele>46.0</ele><time>2026-04-17T16:04:41.999Z</time></trkpt><trkpt lat="41.928248807425035" lon="12.355512045236077"><ele>46.0</ele><time>2026-04-17T16:04:42.999Z</time></trkpt><trkpt lat="41.928252919209235" lon="12.35531217184406"><ele>46.0</ele><time>2026-04-17T16:04:43.999Z</time></trkpt><trkpt lat="41.92825435506652" lon="12.355098104115147"><ele>46.0</ele><time>2026-04-17T16:04:44.999Z</time></trkpt><trkpt lat="41.92825781885974" lon="12.354894709214802"><ele>46.0</ele><time>2026-04-17T16:04:45.999Z</time></trkpt><trkpt lat="41.9282570718834" lon="12.354714018070633"><ele>46.0</ele><time>2026-04-17T16:04:46.999Z</time></trkpt><trkpt lat="41.928255112871824" lon="12.35455436300345"><ele>46.0</ele><time>2026-04-17T16:04:47.999Z</time></trkpt><trkpt lat="41.92825542788357" lon="12.354409592915122"><ele>46.0</ele><time>2026-04-17T16:04:48.999Z</time></trkpt><trkpt lat="41.928254534121066" lon="12.354283033143803"><ele>46.142857142857146</ele><time>2026-04-17T16:04:49.999Z</time></trkpt><trkpt lat="41.928247923565266" lon="12.354167017807368"><ele>46.285714285714285</ele><time>2026-04-17T16:04:50.999Z</time></trkpt><trkpt lat="41.92823222162211" lon="12.354066262752886"><ele>46.42857142857143</ele><time>2026-04-17T16:04:51.999Z</time></trkpt><trkpt lat="41.92821325760827" lon="12.353978784365276"><ele>46.57142857142857</ele><time>2026-04-17T16:04:52.999Z</time></trkpt><trkpt lat="41.928193130965155" lon="12.353895190282003"><ele>46.71428571428571</ele><time>2026-04-17T16:04:53.999Z</time></trkpt><trkpt lat="41.92817394391215" lon="12.35381028998176"><ele>46.857142857142854</ele><time>2026-04-17T16:04:54.999Z</time></trkpt><trkpt lat="41.92815425234622" lon="12.353726326470767"><ele>47.0</ele><time>2026-04-17T16:04:55.999Z</time></trkpt><trkpt lat="41.92811742322929" lon="12.353591015533556"><ele>46.83333333333333</ele><time>2026-04-17T16:04:57.999Z</time></trkpt><trkpt lat="41.928087364426325" lon="12.353486900295508"><ele>46.666666666666664</ele><time>2026-04-17T16:04:59.999Z</time></trkpt><trkpt lat="41.92806145103868" lon="12.353376083202738"><ele>46.5</ele><time>2026-04-17T16:05:01.999Z</time></trkpt><trkpt lat="41.92804101470749" lon="12.353291902853941"><ele>46.333333333333336</ele><time>2026-04-17T16:05:03.999Z</time></trkpt><trkpt lat="41.927983497920124" lon="12.353150613581194"><ele>46.16666666666667</ele><time>2026-04-17T16:05:05.999Z</time></trkpt><trkpt lat="41.927950030515454" lon="12.353062091742167"><ele>46.0</ele><time>2026-04-17T16:05:06.999Z</time></trkpt><trkpt lat="41.92793339678687" lon="12.35297276640569"><ele>46.0</ele><time>2026-04-17T16:05:07.999Z</time></trkpt><trkpt lat="41.92791316613722" lon="12.352865427360125"><ele>46.0</ele><time>2026-04-17T16:05:08.999Z</time></trkpt><trkpt lat="41.92789963055407" lon="12.352760979948098"><ele>46.0</ele><time>2026-04-17T16:05:10.001Z</time></trkpt><trkpt lat="41.927888361148554" lon="12.352632029287589"><ele>46.0</ele><time>2026-04-17T16:05:11.001Z</time></trkpt><trkpt lat="41.927882554244825" lon="12.352482926794877"><ele>46.0</ele><time>2026-04-17T16:05:12.001Z</time></trkpt><trkpt lat="41.92787000054692" lon="12.352321673485942"><ele>45.75</ele><time>2026-04-17T16:05:13.001Z</time></trkpt><trkpt lat="41.927867901536565" lon="12.352157995452648"><ele>45.5</ele><time>2026-04-17T16:05:14.001Z</time></trkpt><trkpt lat="41.92786668668898" lon="12.351993325548344"><ele>45.25</ele><time>2026-04-17T16:05:15.001Z</time></trkpt><trkpt lat="41.92787237337166" lon="12.351822880358299"><ele>45.0</ele><time>2026-04-17T16:05:16.001Z</time></trkpt><trkpt lat="41.927887638679394" lon="12.351651548490116"><ele>45.0</ele><time>2026-04-17T16:05:17.001Z</time></trkpt><trkpt lat="41.9279075473321" lon="12.351487210370495"><ele>45.0</ele><time>2026-04-17T16:05:18.001Z</time></trkpt><trkpt lat="41.92792001850666" lon="12.35131055726688"><ele>45.0</ele><time>2026-04-17T16:05:19.001Z</time></trkpt><trkpt lat="41.92791991008317" lon="12.351120697656151"><ele>45.0</ele><time>2026-04-17T16:05:20.001Z</time></trkpt><trkpt lat="41.92790142769548" lon="12.350922300523917"><ele>47.0</ele><time>2026-04-17T16:05:21.001Z</time></trkpt><trkpt lat="41.92785893941374" lon="12.350722066748537"><ele>49.0</ele><time>2026-04-17T16:05:22.001Z</time></trkpt><trkpt lat="41.927805217036834" lon="12.350524090942022"><ele>51.0</ele><time>2026-04-17T16:05:23.001Z</time></trkpt><trkpt lat="41.927751690058194" lon="12.350336214038988"><ele>53.75</ele><time>2026-04-17T16:05:24.001Z</time></trkpt><trkpt lat="41.927700821051126" lon="12.350157097188651"><ele>56.5</ele><time>2026-04-17T16:05:25.001Z</time></trkpt><trkpt lat="41.927657317978834" lon="12.349969520919089"><ele>59.25</ele><time>2026-04-17T16:05:26.001Z</time></trkpt><trkpt lat="41.92762375429773" lon="12.349772286795924"><ele>62.0</ele><time>2026-04-17T16:05:27.001Z</time></trkpt><trkpt lat="41.92760304663372" lon="12.349559726738054"><ele>63.66666666666667</ele><time>2026-04-17T16:05:28.001Z</time></trkpt><trkpt lat="41.92758947142839" lon="12.349338057568081"><ele>65.33333333333333</ele><time>2026-04-17T16:05:29.001Z</time></trkpt><trkpt lat="41.92757222537178" lon="12.349112273575937"><ele>67.0</ele><time>2026-04-17T16:05:30.001Z</time></trkpt><trkpt lat="41.92755284515019" lon="12.348910170265825"><ele>67.5</ele><time>2026-04-17T16:05:31.001Z</time></trkpt><trkpt lat="41.92754827483193" lon="12.348736789177304"><ele>68.0</ele><time>2026-04-17T16:05:32Z</time></trkpt><trkpt lat="41.92755469204857" lon="12.348569173880872"><ele>68.5</ele><time>2026-04-17T16:05:33Z</time></trkpt><trkpt lat="41.92756876434265" lon="12.348401122980555"><ele>69.0</ele><time>2026-04-17T16:05:34Z</time></trkpt><trkpt lat="41.927596108519175" lon="12.348232420991453"><ele>72.0</ele><time>2026-04-17T16:05:35Z</time></trkpt><trkpt lat="41.92764026799465" lon="12.34804991477194"><ele>75.0</ele><time>2026-04-17T16:05:36Z</time></trkpt><trkpt lat="41.927683831792905" lon="12.347850361901028"><ele>78.0</ele><time>2026-04-17T16:05:37Z</time></trkpt><trkpt lat="41.927733503734096" lon="12.347643395409289"><ele>78.0</ele><time>2026-04-17T16:05:38Z</time></trkpt><trkpt lat="41.9278178070851" lon="12.347445968641612"><ele>78.0</ele><time>2026-04-17T16:05:39Z</time></trkpt><trkpt lat="41.92790164545" lon="12.347233924069757"><ele>78.0</ele><time>2026-04-17T16:05:40Z</time></trkpt><trkpt lat="41.928014396252614" lon="12.347040945004585"><ele>76.66666666666667</ele><time>2026-04-17T16:05:41Z</time></trkpt><trkpt lat="41.928123725578324" lon="12.346863006614804"><ele>75.33333333333334</ele><time>2026-04-17T16:05:42Z</time></trkpt><trkpt lat="41.92824233296462" lon="12.346702137035905"><ele>74.0</ele><time>2026-04-17T16:05:43Z</time></trkpt><trkpt lat="41.928372373770834" lon="12.346604147275075"><ele>75.0</ele><time>2026-04-17T16:05:44Z</time></trkpt><trkpt lat="41.92850233803649" lon="12.346517298878835"><ele>76.0</ele><time>2026-04-17T16:05:45Z</time></trkpt><trkpt lat="41.92864850646948" lon="12.346442646461186"><ele>77.0</ele><time>2026-04-17T16:05:46Z</time></trkpt><trkpt lat="41.92880017921842" lon="12.346347633113567"><ele>77.0</ele><time>2026-04-17T16:05:47Z</time></trkpt><trkpt lat="41.92895130046821" lon="12.346296246145076"><ele>77.0</ele><time>2026-04-17T16:05:48Z</time></trkpt><trkpt lat="41.929112957054116" lon="12.346265745242048"><ele>77.0</ele><time>2026-04-17T16:05:49Z</time></trkpt><trkpt lat="41.929271575818376" lon="12.346238297298536"><ele>77.33333333333334</ele><time>2026-04-17T16:05:50Z</time></trkpt><trkpt lat="41.92942343452407" lon="12.346190078235676"><ele>77.66666666666667</ele><time>2026-04-17T16:05:51Z</time></trkpt><trkpt lat="41.92956489591698" lon="12.346102190094278"><ele>78.0</ele><time>2026-04-17T16:05:52Z</time></trkpt><trkpt lat="41.92969956959552" lon="12.345999859883976"><ele>78.0</ele><time>2026-04-17T16:05:53Z</time></trkpt><trkpt lat="41.929821275684226" lon="12.3458733905871"><ele>78.0</ele><time>2026-04-17T16:05:54Z</time></trkpt><trkpt lat="41.92993856414104" lon="12.345707578701663"><ele>78.0</ele><time>2026-04-17T16:05:55Z</time></trkpt><trkpt lat="41.93004839953208" lon="12.345511033191396"><ele>77.66666666666667</ele><time>2026-04-17T16:05:56Z</time></trkpt><trkpt lat="41.930155716689804" lon="12.345325183093202"><ele>77.33333333333334</ele><time>2026-04-17T16:05:57Z</time></trkpt><trkpt lat="41.93025352368912" lon="12.345172743512048"><ele>77.0</ele><time>2026-04-17T16:05:58Z</time></trkpt><trkpt lat="41.93034793473504" lon="12.345038109354967"><ele>77.0</ele><time>2026-04-17T16:05:59Z</time></trkpt><trkpt lat="41.930444549966786" lon="12.344898741808061"><ele>77.0</ele><time>2026-04-17T16:06:00Z</time></trkpt><trkpt lat="41.93054047006323" lon="12.344743376478641"><ele>77.0</ele><time>2026-04-17T16:06:01Z</time></trkpt><trkpt lat="41.930632599678155" lon="12.344588216679037"><ele>77.0</ele><time>2026-04-17T16:06:02Z</time></trkpt><trkpt lat="41.930724945158204" lon="12.344442075940208"><ele>77.25</ele><time>2026-04-17T16:06:03Z</time></trkpt><trkpt lat="41.93081980726276" lon="12.344301699020708"><ele>77.5</ele><time>2026-04-17T16:06:04Z</time></trkpt><trkpt lat="41.93091317601856" lon="12.344159393098918"><ele>77.75</ele><time>2026-04-17T16:06:05Z</time></trkpt><trkpt lat="41.93100657292522" lon="12.344022761448693"><ele>78.0</ele><time>2026-04-17T16:06:06Z</time></trkpt><trkpt lat="41.93110636643218" lon="12.34389432279332"><ele>78.0</ele><time>2026-04-17T16:06:07Z</time></trkpt><trkpt lat="41.931210992888445" lon="12.343770955694641"><ele>78.0</ele><time>2026-04-17T16:06:08Z</time></trkpt><trkpt lat="41.93131423196476" lon="12.34364661480472"><ele>78.0</ele><time>2026-04-17T16:06:09Z</time></trkpt><trkpt lat="41.93141548986752" lon="12.343523073189127"><ele>78.0</ele><time>2026-04-17T16:06:10Z</time></trkpt><trkpt lat="41.93152123115914" lon="12.343395779455726"><ele>78.0</ele><time>2026-04-17T16:06:11Z</time></trkpt><trkpt lat="41.93162491973501" lon="12.343271837098161"><ele>78.0</ele><time>2026-04-17T16:06:12Z</time></trkpt><trkpt lat="41.93173385102291" lon="12.343140464368014"><ele>78.0</ele><time>2026-04-17T16:06:13Z</time></trkpt><trkpt lat="41.931839928876656" lon="12.343018034370255"><ele>78.0</ele><time>2026-04-17T16:06:14Z</time></trkpt><trkpt lat="41.931954751695876" lon="12.342901499168017"><ele>79.0</ele><time>2026-04-17T16:06:15Z</time></trkpt><trkpt lat="41.932067611004314" lon="12.342796085006714"><ele>80.0</ele><time>2026-04-17T16:06:16Z</time></trkpt><trkpt lat="41.932183827061976" lon="12.342695870121178"><ele>81.0</ele><time>2026-04-17T16:06:17Z</time></trkpt><trkpt lat="41.93229091880277" lon="12.342592810827375"><ele>82.0</ele><time>2026-04-17T16:06:18Z</time></trkpt><trkpt lat="41.93239809270454" lon="12.342490325117446"><ele>82.0</ele><time>2026-04-17T16:06:19Z</time></trkpt><trkpt lat="41.93249853913056" lon="12.34238572671768"><ele>82.0</ele><time>2026-04-17T16:06:20Z</time></trkpt><trkpt lat="41.93259637020306" lon="12.34227031765979"><ele>82.0</ele><time>2026-04-17T16:06:21Z</time></trkpt><trkpt lat="41.93268915015981" lon="12.342149604634253"><ele>82.0</ele><time>2026-04-17T16:06:21.999Z</time></trkpt><trkpt lat="41.93276563535972" lon="12.342020134666644"><ele>81.75</ele><time>2026-04-17T16:06:22.999Z</time></trkpt><trkpt lat="41.93283629607383" lon="12.341880732885654"><ele>81.5</ele><time>2026-04-17T16:06:23.999Z</time></trkpt><trkpt lat="41.9329073053556" lon="12.341722704303002"><ele>81.25</ele><time>2026-04-17T16:06:24.999Z</time></trkpt><trkpt lat="41.93297897042694" lon="12.34153223799529"><ele>81.0</ele><time>2026-04-17T16:06:25.999Z</time></trkpt><trkpt lat="41.933062647153726" lon="12.34132729389282"><ele>80.66666666666667</ele><time>2026-04-17T16:06:26.999Z</time></trkpt><trkpt lat="41.93313362260676" lon="12.34111664436156"><ele>80.33333333333334</ele><time>2026-04-17T16:06:27.999Z</time></trkpt><trkpt lat="41.93324467256479" lon="12.341031080194838"><ele>80.0</ele><time>2026-04-17T16:06:28.999Z</time></trkpt><trkpt lat="41.93335023446191" lon="12.340848136998623"><ele>80.0</ele><time>2026-04-17T16:06:29.999Z</time></trkpt><trkpt lat="41.933489479366976" lon="12.340690020691556"><ele>80.0</ele><time>2026-04-17T16:06:30.999Z</time></trkpt><trkpt lat="41.933637785222416" lon="12.340514984924585"><ele>80.0</ele><time>2026-04-17T16:06:31.999Z</time></trkpt><trkpt lat="41.93377540445994" lon="12.340323226442582"><ele>80.33333333333334</ele><time>2026-04-17T16:06:32.999Z</time></trkpt><trkpt lat="41.93391350399874" lon="12.340161104775321"><ele>80.66666666666667</ele><time>2026-04-17T16:06:33.999Z</time></trkpt><trkpt lat="41.93402013706739" lon="12.339984844702377"><ele>81.0</ele><time>2026-04-17T16:06:34.999Z</time></trkpt><trkpt lat="41.934096875934415" lon="12.339800944596155"><ele>81.0</ele><time>2026-04-17T16:06:35.999Z</time></trkpt><trkpt lat="41.934141235150115" lon="12.33960044599863"><ele>81.0</ele><time>2026-04-17T16:06:36.999Z</time></trkpt><trkpt lat="41.93416163224845" lon="12.339377835422788"><ele>81.0</ele><time>2026-04-17T16:06:37.999Z</time></trkpt><trkpt lat="41.93415864276547" lon="12.339130159113356"><ele>81.33333333333333</ele><time>2026-04-17T16:06:38.999Z</time></trkpt><trkpt lat="41.934167558894295" lon="12.338876447384925"><ele>81.66666666666666</ele><time>2026-04-17T16:06:39.999Z</time></trkpt><trkpt lat="41.93419057181274" lon="12.338617345178795"><ele>82.0</ele><time>2026-04-17T16:06:40.999Z</time></trkpt><trkpt lat="41.93420110802895" lon="12.338386281174035"><ele>82.0</ele><time>2026-04-17T16:06:41.999Z</time></trkpt><trkpt lat="41.93419553934259" lon="12.338152587402483"><ele>82.0</ele><time>2026-04-17T16:06:42.999Z</time></trkpt><trkpt lat="41.93416890141542" lon="12.337905477717717"><ele>82.0</ele><time>2026-04-17T16:06:43.999Z</time></trkpt><trkpt lat="41.93412881443006" lon="12.337639173295743"><ele>81.33333333333333</ele><time>2026-04-17T16:06:44.999Z</time></trkpt><trkpt lat="41.934084497053874" lon="12.337358290556608"><ele>80.66666666666667</ele><time>2026-04-17T16:06:45.999Z</time></trkpt><trkpt lat="41.934037789064924" lon="12.337067953061695"><ele>80.0</ele><time>2026-04-17T16:06:46.999Z</time></trkpt><trkpt lat="41.93399604597044" lon="12.336805662083176"><ele>80.0</ele><time>2026-04-17T16:06:47.999Z</time></trkpt><trkpt lat="41.93395929144433" lon="12.336550482599556"><ele>80.0</ele><time>2026-04-17T16:06:48.999Z</time></trkpt><trkpt lat="41.9339208382269" lon="12.336292986801872"><ele>80.0</ele><time>2026-04-17T16:06:49.999Z</time></trkpt><trkpt lat="41.93388776194395" lon="12.336031035139053"><ele>80.66666666666667</ele><time>2026-04-17T16:06:50.999Z</time></trkpt><trkpt lat="41.933860236381854" lon="12.33576682974412"><ele>81.33333333333333</ele><time>2026-04-17T16:06:51.999Z</time></trkpt><trkpt lat="41.933832551666924" lon="12.335493123317615"><ele>82.0</ele><time>2026-04-17T16:06:52.999Z</time></trkpt><trkpt lat="41.933801469332764" lon="12.335216295943866"><ele>81.75</ele><time>2026-04-17T16:06:53.999Z</time></trkpt><trkpt lat="41.93377942078727" lon="12.334978479509198"><ele>81.5</ele><time>2026-04-17T16:06:54.999Z</time></trkpt><trkpt lat="41.93376538400077" lon="12.334801325236127"><ele>81.25</ele><time>2026-04-17T16:06:55.999Z</time></trkpt><trkpt lat="41.93375192766534" lon="12.334647299696554"><ele>81.0</ele><time>2026-04-17T16:06:56.999Z</time></trkpt><trkpt lat="41.93373890517405" lon="12.334481396876436"><ele>81.0</ele><time>2026-04-17T16:06:57.999Z</time></trkpt><trkpt lat="41.93373492662397" lon="12.334298334735822"><ele>81.0</ele><time>2026-04-17T16:06:58.999Z</time></trkpt><trkpt lat="41.933734558501584" lon="12.33408607507699"><ele>81.0</ele><time>2026-04-17T16:06:59.999Z</time></trkpt><trkpt lat="41.93374860638903" lon="12.333848896286222"><ele>81.0</ele><time>2026-04-17T16:07:00.999Z</time></trkpt><trkpt lat="41.93376777941687" lon="12.333601062338648"><ele>81.0</ele><time>2026-04-17T16:07:01.999Z</time></trkpt><trkpt lat="41.933772913316936" lon="12.33335988007048"><ele>81.0</ele><time>2026-04-17T16:07:02.999Z</time></trkpt><trkpt lat="41.93376171024009" lon="12.333127726711837"><ele>81.0</ele><time>2026-04-17T16:07:03.999Z</time></trkpt><trkpt lat="41.93372880473874" lon="12.332904871949067"><ele>81.0</ele><time>2026-04-17T16:07:04.999Z</time></trkpt><trkpt lat="41.933671750711646" lon="12.332674368092318"><ele>81.0</ele><time>2026-04-17T16:07:05.999Z</time></trkpt><trkpt lat="41.933631954722536" lon="12.332453564737802"><ele>81.0</ele><time>2026-04-17T16:07:06.999Z</time></trkpt><trkpt lat="41.933639019259125" lon="12.332256727676402"><ele>81.0</ele><time>2026-04-17T16:07:07.999Z</time></trkpt><trkpt lat="41.93363755793387" lon="12.332069213480775"><ele>81.0</ele><time>2026-04-17T16:07:08.999Z</time></trkpt><trkpt lat="41.933673679364034" lon="12.331872893505945"><ele>81.0</ele><time>2026-04-17T16:07:09.999Z</time></trkpt><trkpt lat="41.933723127246836" lon="12.331665561609183"><ele>80.0</ele><time>2026-04-17T16:07:10.999Z</time></trkpt><trkpt lat="41.93377898502137" lon="12.331444898056624"><ele>79.0</ele><time>2026-04-17T16:07:11.999Z</time></trkpt><trkpt lat="41.93383087343025" lon="12.331207005373939"><ele>78.0</ele><time>2026-04-17T16:07:12.999Z</time></trkpt><trkpt lat="41.93387481413778" lon="12.330950118774204"><ele>78.0</ele><time>2026-04-17T16:07:13.999Z</time></trkpt><trkpt lat="41.93391051662669" lon="12.330679517913037"><ele>78.0</ele><time>2026-04-17T16:07:14.999Z</time></trkpt><trkpt lat="41.93393538523054" lon="12.330408475884848"><ele>78.0</ele><time>2026-04-17T16:07:16.001Z</time></trkpt><trkpt lat="41.93394416604956" lon="12.330167007275124"><ele>78.33333333333333</ele><time>2026-04-17T16:07:17.001Z</time></trkpt><trkpt lat="41.93395925808609" lon="12.329935773708447"><ele>78.66666666666666</ele><time>2026-04-17T16:07:18.001Z</time></trkpt><trkpt lat="41.93397263296119" lon="12.329706451835508"><ele>79.0</ele><time>2026-04-17T16:07:19.001Z</time></trkpt><trkpt lat="41.9339892030839" lon="12.329475084842969"><ele>79.66666666666666</ele><time>2026-04-17T16:07:20.001Z</time></trkpt><trkpt lat="41.934008371995276" lon="12.329240483314829"><ele>80.33333333333333</ele><time>2026-04-17T16:07:21.001Z</time></trkpt><trkpt lat="41.93402362672012" lon="12.329017133575151"><ele>81.0</ele><time>2026-04-17T16:07:22.001Z</time></trkpt><trkpt lat="41.9340338358202" lon="12.32880936709004"><ele>81.75</ele><time>2026-04-17T16:07:23.001Z</time></trkpt><trkpt lat="41.93404605301453" lon="12.328616603434536"><ele>82.5</ele><time>2026-04-17T16:07:24.001Z</time></trkpt><trkpt lat="41.9340591222582" lon="12.328426245450414"><ele>83.25</ele><time>2026-04-17T16:07:25.001Z</time></trkpt><trkpt lat="41.93406529733155" lon="12.328236980203751"><ele>84.0</ele><time>2026-04-17T16:07:26.001Z</time></trkpt><trkpt lat="41.93406370627868" lon="12.328055905223165"><ele>84.0</ele><time>2026-04-17T16:07:27.001Z</time></trkpt><trkpt lat="41.93406282826687" lon="12.327866562374094"><ele>84.0</ele><time>2026-04-17T16:07:28.001Z</time></trkpt><trkpt lat="41.93407088145744" lon="12.327657832870647"><ele>84.0</ele><time>2026-04-17T16:07:29.001Z</time></trkpt><trkpt lat="41.93407214230069" lon="12.32744482275619"><ele>84.0</ele><time>2026-04-17T16:07:30.001Z</time></trkpt><trkpt lat="41.93408201020509" lon="12.327253249395742"><ele>84.0</ele><time>2026-04-17T16:07:31.001Z</time></trkpt><trkpt lat="41.934099771592514" lon="12.327087004444355"><ele>84.0</ele><time>2026-04-17T16:07:32.001Z</time></trkpt><trkpt lat="41.934120166572434" lon="12.326932742200105"><ele>84.0</ele><time>2026-04-17T16:07:33.001Z</time></trkpt><trkpt lat="41.93414661305106" lon="12.326797044444389"><ele>83.75</ele><time>2026-04-17T16:07:34.001Z</time></trkpt><trkpt lat="41.93417479251364" lon="12.326653291200326"><ele>83.5</ele><time>2026-04-17T16:07:35.001Z</time></trkpt><trkpt lat="41.934208466295836" lon="12.326504617950187"><ele>83.25</ele><time>2026-04-17T16:07:36.001Z</time></trkpt><trkpt lat="41.93425066336546" lon="12.326347562612645"><ele>83.0</ele><time>2026-04-17T16:07:37.001Z</time></trkpt><trkpt lat="41.93430234748272" lon="12.32617752823803"><ele>83.66666666666667</ele><time>2026-04-17T16:07:38Z</time></trkpt><trkpt lat="41.93434810145996" lon="12.325997557194068"><ele>84.33333333333333</ele><time>2026-04-17T16:07:39Z</time></trkpt><trkpt lat="41.934406992774235" lon="12.32580648979416"><ele>85.0</ele><time>2026-04-17T16:07:40Z</time></trkpt><trkpt lat="41.93446672227068" lon="12.325601350993567"><ele>85.33333333333333</ele><time>2026-04-17T16:07:41Z</time></trkpt><trkpt lat="41.93453398660979" lon="12.325388383215648"><ele>85.66666666666667</ele><time>2026-04-17T16:07:42Z</time></trkpt><trkpt lat="41.93459457894547" lon="12.325157624307268"><ele>86.0</ele><time>2026-04-17T16:07:43Z</time></trkpt><trkpt lat="41.93465927587325" lon="12.324918160973652"><ele>86.66666666666667</ele><time>2026-04-17T16:07:44Z</time></trkpt><trkpt lat="41.93472878970819" lon="12.324667236024954"><ele>87.33333333333333</ele><time>2026-04-17T16:07:45Z</time></trkpt><trkpt lat="41.93478954113752" lon="12.324420768557374"><ele>88.0</ele><time>2026-04-17T16:07:46Z</time></trkpt><trkpt lat="41.93484591125841" lon="12.32418281621006"><ele>88.0</ele><time>2026-04-17T16:07:47Z</time></trkpt><trkpt lat="41.93489911626241" lon="12.323954255102556"><ele>88.0</ele><time>2026-04-17T16:07:48Z</time></trkpt><trkpt lat="41.93494725771928" lon="12.323736798432636"><ele>88.0</ele><time>2026-04-17T16:07:49Z</time></trkpt><trkpt lat="41.934997847078144" lon="12.323522118309448"><ele>88.5</ele><time>2026-04-17T16:07:50Z</time></trkpt><trkpt lat="41.93503496720482" lon="12.323313546584952"><ele>89.0</ele><time>2026-04-17T16:07:51Z</time></trkpt><trkpt lat="41.93507099929938" lon="12.323124390637481"><ele>89.5</ele><time>2026-04-17T16:07:52Z</time></trkpt><trkpt lat="41.93510290562248" lon="12.322942406064197"><ele>90.0</ele><time>2026-04-17T16:07:53Z</time></trkpt><trkpt lat="41.93513635662392" lon="12.322759339301303"><ele>90.0</ele><time>2026-04-17T16:07:54Z</time></trkpt><trkpt lat="41.935167784354576" lon="12.322585833696857"><ele>90.0</ele><time>2026-04-17T16:07:55Z</time></trkpt><trkpt lat="41.93520154891322" lon="12.322412826915544"><ele>90.0</ele><time>2026-04-17T16:07:56Z</time></trkpt><trkpt lat="41.935233279335854" lon="12.322234392092987"><ele>90.0</ele><time>2026-04-17T16:07:57Z</time></trkpt><trkpt lat="41.93526789903517" lon="12.322048898558169"><ele>90.33333333333333</ele><time>2026-04-17T16:07:58Z</time></trkpt><trkpt lat="41.93530516902629" lon="12.321852429225759"><ele>90.66666666666666</ele><time>2026-04-17T16:07:59Z</time></trkpt><trkpt lat="41.93534255157482" lon="12.32166062018462"><ele>91.0</ele><time>2026-04-17T16:08:00Z</time></trkpt><trkpt lat="41.9353786895199" lon="12.321458276918088"><ele>90.33333333333333</ele><time>2026-04-17T16:08:01Z</time></trkpt><trkpt lat="41.93541426506483" lon="12.321257475892635"><ele>89.66666666666667</ele><time>2026-04-17T16:08:02Z</time></trkpt><trkpt lat="41.935449959356426" lon="12.321057432367372"><ele>89.0</ele><time>2026-04-17T16:08:03Z</time></trkpt><trkpt lat="41.935484783344315" lon="12.320863172658996"><ele>89.0</ele><time>2026-04-17T16:08:04Z</time></trkpt><trkpt lat="41.93552024082388" lon="12.320666327441788"><ele>89.0</ele><time>2026-04-17T16:08:05Z</time></trkpt><trkpt lat="41.9355516044043" lon="12.320472000109959"><ele>89.0</ele><time>2026-04-17T16:08:06Z</time></trkpt><trkpt lat="41.935577297578575" lon="12.320297299026539"><ele>89.0</ele><time>2026-04-17T16:08:07Z</time></trkpt><trkpt lat="41.93560347396546" lon="12.320113800430637"><ele>89.25</ele><time>2026-04-17T16:08:08Z</time></trkpt><trkpt lat="41.93563136967907" lon="12.319927466138719"><ele>89.5</ele><time>2026-04-17T16:08:09Z</time></trkpt><trkpt lat="41.93565522661377" lon="12.319743310931441"><ele>89.75</ele><time>2026-04-17T16:08:10Z</time></trkpt><trkpt lat="41.93567573486713" lon="12.31955745204495"><ele>90.0</ele><time>2026-04-17T16:08:11Z</time></trkpt><trkpt lat="41.93569308187985" lon="12.319372559390589"><ele>90.25</ele><time>2026-04-17T16:08:12Z</time></trkpt><trkpt lat="41.935709604438784" lon="12.319210077296797"><ele>90.5</ele><time>2026-04-17T16:08:13Z</time></trkpt><trkpt lat="41.935726889082936" lon="12.31904687277368"><ele>90.75</ele><time>2026-04-17T16:08:14Z</time></trkpt><trkpt lat="41.935741626512026" lon="12.31888724570658"><ele>91.0</ele><time>2026-04-17T16:08:15Z</time></trkpt><trkpt lat="41.93575547722172" lon="12.318731861813333"><ele>91.0</ele><time>2026-04-17T16:08:16Z</time></trkpt><trkpt lat="41.93576722183367" lon="12.318597366966586"><ele>91.0</ele><time>2026-04-17T16:08:17Z</time></trkpt><trkpt lat="41.9357823301431" lon="12.318459942124532"><ele>91.0</ele><time>2026-04-17T16:08:18Z</time></trkpt><trkpt lat="41.93580046360716" lon="12.318333441125816"><ele>91.0</ele><time>2026-04-17T16:08:19Z</time></trkpt><trkpt lat="41.93582161712641" lon="12.318209276486593"><ele>91.0</ele><time>2026-04-17T16:08:20Z</time></trkpt><trkpt lat="41.93585088155114" lon="12.318093643619942"><ele>90.4</ele><time>2026-04-17T16:08:21Z</time></trkpt><trkpt lat="41.935891114383494" lon="12.317982271850553"><ele>89.8</ele><time>2026-04-17T16:08:22Z</time></trkpt><trkpt lat="41.935943066842896" lon="12.31789141327206"><ele>89.2</ele><time>2026-04-17T16:08:23Z</time></trkpt><trkpt lat="41.936012651130184" lon="12.317815463306678"><ele>88.60000000000001</ele><time>2026-04-17T16:08:24Z</time></trkpt><trkpt lat="41.936102864588506" lon="12.317773875081441"><ele>88.0</ele><time>2026-04-17T16:08:25Z</time></trkpt><trkpt lat="41.93620579934255" lon="12.317719272874495"><ele>88.0</ele><time>2026-04-17T16:08:26Z</time></trkpt><trkpt lat="41.93632325169736" lon="12.317702642221095"><ele>88.0</ele><time>2026-04-17T16:08:26.999Z</time></trkpt><trkpt lat="41.93642906401264" lon="12.317690250753628"><ele>88.0</ele><time>2026-04-17T16:08:27.999Z</time></trkpt><trkpt lat="41.93652638084836" lon="12.317674707293508"><ele>88.0</ele><time>2026-04-17T16:08:28.999Z</time></trkpt><trkpt lat="41.93662399063447" lon="12.3176597143942"><ele>88.0</ele><time>2026-04-17T16:08:29.999Z</time></trkpt><trkpt lat="41.9367318962887" lon="12.317658604036641"><ele>87.25</ele><time>2026-04-17T16:08:30.999Z</time></trkpt><trkpt lat="41.93684228035201" lon="12.317644712287354"><ele>86.5</ele><time>2026-04-17T16:08:31.999Z</time></trkpt><trkpt lat="41.93696416725287" lon="12.317636518169769"><ele>85.75</ele><time>2026-04-17T16:08:32.999Z</time></trkpt><trkpt lat="41.93707719647696" lon="12.317629344481155"><ele>85.0</ele><time>2026-04-17T16:08:33.999Z</time></trkpt><trkpt lat="41.93718580746114" lon="12.317626184919963"><ele>85.0</ele><time>2026-04-17T16:08:34.999Z</time></trkpt><trkpt lat="41.93731008275963" lon="12.317609927912386"><ele>85.0</ele><time>2026-04-17T16:08:35.999Z</time></trkpt><trkpt lat="41.93744508474165" lon="12.317602165811994"><ele>85.0</ele><time>2026-04-17T16:08:36.999Z</time></trkpt><trkpt lat="41.93758443160164" lon="12.317613114875103"><ele>85.0</ele><time>2026-04-17T16:08:37.999Z</time></trkpt><trkpt lat="41.93771959320211" lon="12.317635043211656"><ele>85.25</ele><time>2026-04-17T16:08:38.999Z</time></trkpt><trkpt lat="41.937849507009474" lon="12.31768473134494"><ele>85.5</ele><time>2026-04-17T16:08:39.999Z</time></trkpt><trkpt lat="41.937970561910724" lon="12.3177378476919"><ele>85.75</ele><time>2026-04-17T16:08:40.999Z</time></trkpt><trkpt lat="41.93808529499486" lon="12.317776154797896"><ele>86.0</ele><time>2026-04-17T16:08:41.999Z</time></trkpt><trkpt lat="41.938204775240536" lon="12.31780997281092"><ele>86.0</ele><time>2026-04-17T16:08:42.999Z</time></trkpt><trkpt lat="41.93832506813584" lon="12.317832613357291"><ele>86.0</ele><time>2026-04-17T16:08:43.999Z</time></trkpt><trkpt lat="41.938447102227634" lon="12.317843383790363"><ele>86.0</ele><time>2026-04-17T16:08:44.999Z</time></trkpt><trkpt lat="41.93857247379925" lon="12.317846343695805"><ele>86.0</ele><time>2026-04-17T16:08:45.999Z</time></trkpt><trkpt lat="41.938702805650955" lon="12.317857135049353"><ele>86.5</ele><time>2026-04-17T16:08:46.999Z</time></trkpt><trkpt lat="41.938833749818976" lon="12.317869926290046"><ele>87.0</ele><time>2026-04-17T16:08:47.999Z</time></trkpt><trkpt lat="41.938949870155774" lon="12.31787759081086"><ele>87.5</ele><time>2026-04-17T16:08:48.999Z</time></trkpt><trkpt lat="41.939053867773254" lon="12.317881172277252"><ele>88.0</ele><time>2026-04-17T16:08:49.999Z</time></trkpt><trkpt lat="41.93916275497286" lon="12.317882405396038"><ele>89.0</ele><time>2026-04-17T16:08:50.999Z</time></trkpt><trkpt lat="41.939270592066975" lon="12.31786768318277"><ele>90.0</ele><time>2026-04-17T16:08:51.999Z</time></trkpt><trkpt lat="41.9393804563666" lon="12.317827838774464"><ele>91.0</ele><time>2026-04-17T16:08:52.999Z</time></trkpt><trkpt lat="41.9394853698065" lon="12.317752901290575"><ele>92.0</ele><time>2026-04-17T16:08:53.999Z</time></trkpt><trkpt lat="41.939575795992084" lon="12.317659606664323"><ele>92.0</ele><time>2026-04-17T16:08:54.999Z</time></trkpt><trkpt lat="41.939639959324815" lon="12.317575957776004"><ele>92.0</ele><time>2026-04-17T16:08:55.999Z</time></trkpt><trkpt lat="41.939699148394396" lon="12.317503941409326"><ele>92.0</ele><time>2026-04-17T16:08:56.999Z</time></trkpt><trkpt lat="41.939753561218325" lon="12.317443024381125"><ele>92.0</ele><time>2026-04-17T16:08:57.999Z</time></trkpt><trkpt lat="41.93980728055578" lon="12.31738034029146"><ele>92.0</ele><time>2026-04-17T16:08:58.999Z</time></trkpt><trkpt lat="41.93988364414439" lon="12.317293715038533"><ele>92.0</ele><time>2026-04-17T16:08:59.999Z</time></trkpt><trkpt lat="41.93998867061481" lon="12.317201812868674"><ele>89.5</ele><time>2026-04-17T16:09:00.999Z</time></trkpt><trkpt lat="41.940098721639565" lon="12.317112755903604"><ele>87.0</ele><time>2026-04-17T16:09:01.999Z</time></trkpt><trkpt lat="41.94020702898954" lon="12.317035999345196"><ele>84.5</ele><time>2026-04-17T16:09:02.999Z</time></trkpt><trkpt lat="41.94031476283" lon="12.31698306903684"><ele>82.0</ele><time>2026-04-17T16:09:03.999Z</time></trkpt><trkpt lat="41.94042813974396" lon="12.316940093301852"><ele>82.0</ele><time>2026-04-17T16:09:04.999Z</time></trkpt><trkpt lat="41.94054661553572" lon="12.316917298803377"><ele>82.0</ele><time>2026-04-17T16:09:05.999Z</time></trkpt><trkpt lat="41.94066626142774" lon="12.316925368526459"><ele>82.0</ele><time>2026-04-17T16:09:06.999Z</time></trkpt><trkpt lat="41.94079427272169" lon="12.316972929872763"><ele>82.0</ele><time>2026-04-17T16:09:07.999Z</time></trkpt><trkpt lat="41.94093301024789" lon="12.317041600001886"><ele>81.75</ele><time>2026-04-17T16:09:08.999Z</time></trkpt><trkpt lat="41.94107104868146" lon="12.317108087308975"><ele>81.5</ele><time>2026-04-17T16:09:09.999Z</time></trkpt><trkpt lat="41.94121460298501" lon="12.317153605074354"><ele>81.25</ele><time>2026-04-17T16:09:10.999Z</time></trkpt><trkpt lat="41.9413669355276" lon="12.317175027774672"><ele>81.0</ele><time>2026-04-17T16:09:11.999Z</time></trkpt><trkpt lat="41.941527670885044" lon="12.317193972428699"><ele>81.0</ele><time>2026-04-17T16:09:12.999Z</time></trkpt><trkpt lat="41.9416847669117" lon="12.317190198113561"><ele>81.0</ele><time>2026-04-17T16:09:13.999Z</time></trkpt><trkpt lat="41.94182046295863" lon="12.317173499471608"><ele>81.0</ele><time>2026-04-17T16:09:14.999Z</time></trkpt><trkpt lat="41.94195665490431" lon="12.317182167127998"><ele>81.0</ele><time>2026-04-17T16:09:15.999Z</time></trkpt><trkpt lat="41.94210124475371" lon="12.317203426529277"><ele>81.0</ele><time>2026-04-17T16:09:16.999Z</time></trkpt><trkpt lat="41.94225669453932" lon="12.3172345519202"><ele>81.0</ele><time>2026-04-17T16:09:17.999Z</time></trkpt><trkpt lat="41.94241936557319" lon="12.317243296294176"><ele>81.0</ele><time>2026-04-17T16:09:18.998Z</time></trkpt><trkpt lat="41.94257537271013" lon="12.317240212204899"><ele>81.75</ele><time>2026-04-17T16:09:19.998Z</time></trkpt><trkpt lat="41.94271454183224" lon="12.317232546066114"><ele>82.5</ele><time>2026-04-17T16:09:20.998Z</time></trkpt><trkpt lat="41.94284045092085" lon="12.317235157770384"><ele>83.25</ele><time>2026-04-17T16:09:22.001Z</time></trkpt><trkpt lat="41.94295363941633" lon="12.317250104883396"><ele>84.0</ele><time>2026-04-17T16:09:23.001Z</time></trkpt><trkpt lat="41.94305937363181" lon="12.3172615995625"><ele>84.0</ele><time>2026-04-17T16:09:24.001Z</time></trkpt><trkpt lat="41.94315848333868" lon="12.317265324901989"><ele>84.0</ele><time>2026-04-17T16:09:25.001Z</time></trkpt><trkpt lat="41.94326152210808" lon="12.317272386001354"><ele>84.0</ele><time>2026-04-17T16:09:26.001Z</time></trkpt><trkpt lat="41.9433685606567" lon="12.317281604344275"><ele>84.0</ele><time>2026-04-17T16:09:27.001Z</time></trkpt><trkpt lat="41.943479430059625" lon="12.317288509881662"><ele>84.0</ele><time>2026-04-17T16:09:28.001Z</time></trkpt><trkpt lat="41.94359427749026" lon="12.317288145650448"><ele>84.5</ele><time>2026-04-17T16:09:29.001Z</time></trkpt><trkpt lat="41.94370908761633" lon="12.317286234218798"><ele>85.0</ele><time>2026-04-17T16:09:30.001Z</time></trkpt><trkpt lat="41.943828066507635" lon="12.31727688875786"><ele>85.5</ele><time>2026-04-17T16:09:31.001Z</time></trkpt><trkpt lat="41.94394558635492" lon="12.317257483606609"><ele>86.0</ele><time>2026-04-17T16:09:32.001Z</time></trkpt><trkpt lat="41.94405576604518" lon="12.317235375704014"><ele>86.33333333333334</ele><time>2026-04-17T16:09:33.001Z</time></trkpt><trkpt lat="41.94415016727701" lon="12.317217239170105"><ele>86.66666666666667</ele><time>2026-04-17T16:09:34.001Z</time></trkpt><trkpt lat="41.94423231325361" lon="12.317195368327972"><ele>87.0</ele><time>2026-04-17T16:09:35.001Z</time></trkpt><trkpt lat="41.94430579861994" lon="12.317174338640557"><ele>87.33333333333333</ele><time>2026-04-17T16:09:36.001Z</time></trkpt><trkpt lat="41.9443724775012" lon="12.317157463886652"><ele>87.66666666666666</ele><time>2026-04-17T16:09:37.001Z</time></trkpt><trkpt lat="41.94443784199434" lon="12.317142695194242"><ele>88.0</ele><time>2026-04-17T16:09:38.001Z</time></trkpt><trkpt lat="41.944507815567654" lon="12.31712735095731"><ele>88.0</ele><time>2026-04-17T16:09:39.001Z</time></trkpt><trkpt lat="41.94458299177258" lon="12.317109863002733"><ele>88.0</ele><time>2026-04-17T16:09:40.001Z</time></trkpt><trkpt lat="41.94466374150339" lon="12.31709293425797"><ele>88.0</ele><time>2026-04-17T16:09:41.001Z</time></trkpt><trkpt lat="41.94474888086624" lon="12.317075098963135"><ele>88.0</ele><time>2026-04-17T16:09:42.001Z</time></trkpt><trkpt lat="41.94484520150858" lon="12.317047625361763"><ele>88.0</ele><time>2026-04-17T16:09:43.001Z</time></trkpt><trkpt lat="41.94495561809904" lon="12.317021732260843"><ele>88.75</ele><time>2026-04-17T16:09:44.001Z</time></trkpt><trkpt lat="41.94508046586502" lon="12.316994763250284"><ele>89.5</ele><time>2026-04-17T16:09:45.001Z</time></trkpt><trkpt lat="41.94520938382864" lon="12.316966219548638"><ele>90.25</ele><time>2026-04-17T16:09:46.001Z</time></trkpt><trkpt lat="41.945334792785424" lon="12.31694224265663"><ele>91.0</ele><time>2026-04-17T16:09:47.001Z</time></trkpt><trkpt lat="41.945460904576365" lon="12.316919733381527"><ele>91.0</ele><time>2026-04-17T16:09:48Z</time></trkpt><trkpt lat="41.94556554528408" lon="12.316888935959788"><ele>91.0</ele><time>2026-04-17T16:09:49Z</time></trkpt><trkpt lat="41.94566155901756" lon="12.31684377010902"><ele>91.0</ele><time>2026-04-17T16:09:50Z</time></trkpt><trkpt lat="41.94574094425266" lon="12.316802736435136"><ele>91.0</ele><time>2026-04-17T16:09:51Z</time></trkpt><trkpt lat="41.94580396147135" lon="12.316767221732588"><ele>91.0</ele><time>2026-04-17T16:09:52Z</time></trkpt><trkpt lat="41.94587274156776" lon="12.316729481917852"><ele>91.0</ele><time>2026-04-17T16:09:53Z</time></trkpt><trkpt lat="41.945959899650624" lon="12.316677050925794"><ele>91.0</ele><time>2026-04-17T16:09:54Z</time></trkpt><trkpt lat="41.946059824744424" lon="12.316616631081017"><ele>91.0</ele><time>2026-04-17T16:09:55Z</time></trkpt><trkpt lat="41.946171481369284" lon="12.316545075743333"><ele>91.0</ele><time>2026-04-17T16:09:56Z</time></trkpt><trkpt lat="41.94629934614912" lon="12.316467447716695"><ele>91.0</ele><time>2026-04-17T16:09:57Z</time></trkpt><trkpt lat="41.946435692192594" lon="12.31639434172713"><ele>91.0</ele><time>2026-04-17T16:09:58Z</time></trkpt><trkpt lat="41.946574991698085" lon="12.316324769012011"><ele>91.0</ele><time>2026-04-17T16:09:59Z</time></trkpt><trkpt lat="41.94672759793944" lon="12.316266299408525"><ele>91.0</ele><time>2026-04-17T16:10:00Z</time></trkpt><trkpt lat="41.94688624283007" lon="12.316165557417753"><ele>92.0</ele><time>2026-04-17T16:10:01Z</time></trkpt><trkpt lat="41.94704803384446" lon="12.316045263413233"><ele>93.0</ele><time>2026-04-17T16:10:02Z</time></trkpt><trkpt lat="41.947179777690245" lon="12.315923466215937"><ele>94.0</ele><time>2026-04-17T16:10:03Z</time></trkpt><trkpt lat="41.947313657080215" lon="12.315817812292911"><ele>94.0</ele><time>2026-04-17T16:10:04Z</time></trkpt><trkpt lat="41.947438552097324" lon="12.315730825707215"><ele>94.0</ele><time>2026-04-17T16:10:05Z</time></trkpt><trkpt lat="41.947556868925524" lon="12.315653948723641"><ele>94.0</ele><time>2026-04-17T16:10:06Z</time></trkpt><trkpt lat="41.94767672098575" lon="12.315580871376808"><ele>94.0</ele><time>2026-04-17T16:10:07Z</time></trkpt><trkpt lat="41.9478096937435" lon="12.315529269780518"><ele>94.33333333333333</ele><time>2026-04-17T16:10:08Z</time></trkpt><trkpt lat="41.947965587295414" lon="12.31548887967803"><ele>94.66666666666667</ele><time>2026-04-17T16:10:09Z</time></trkpt><trkpt lat="41.948136599964954" lon="12.315451190572105"><ele>95.0</ele><time>2026-04-17T16:10:10Z</time></trkpt><trkpt lat="41.948322617583145" lon="12.31541501080571"><ele>94.0</ele><time>2026-04-17T16:10:11Z</time></trkpt><trkpt lat="41.94850955810266" lon="12.315375044592503"><ele>93.0</ele><time>2026-04-17T16:10:12Z</time></trkpt><trkpt lat="41.948699374013984" lon="12.315313661278743"><ele>92.0</ele><time>2026-04-17T16:10:13Z</time></trkpt><trkpt lat="41.9488755413623" lon="12.315254402882577"><ele>92.0</ele><time>2026-04-17T16:10:14Z</time></trkpt><trkpt lat="41.94903783406921" lon="12.315191540516611"><ele>92.0</ele><time>2026-04-17T16:10:15Z</time></trkpt><trkpt lat="41.9491932783731" lon="12.315130483236782"><ele>92.0</ele><time>2026-04-17T16:10:16Z</time></trkpt><trkpt lat="41.9493371115642" lon="12.315051690912373"><ele>92.0</ele><time>2026-04-17T16:10:17Z</time></trkpt><trkpt lat="41.94949000316469" lon="12.314952846349016"><ele>92.0</ele><time>2026-04-17T16:10:18Z</time></trkpt><trkpt lat="41.94964374766997" lon="12.314831949485464"><ele>92.0</ele><time>2026-04-17T16:10:19Z</time></trkpt><trkpt lat="41.94980196935445" lon="12.314695369675924"><ele>92.0</ele><time>2026-04-17T16:10:20Z</time></trkpt><trkpt lat="41.949958619759975" lon="12.314545823364512"><ele>92.0</ele><time>2026-04-17T16:10:21Z</time></trkpt><trkpt lat="41.95009678153175" lon="12.314411945642714"><ele>92.0</ele><time>2026-04-17T16:10:22Z</time></trkpt><trkpt lat="41.95021847302966" lon="12.314290020363488"><ele>92.25</ele><time>2026-04-17T16:10:23Z</time></trkpt><trkpt lat="41.95031741215559" lon="12.314189642045086"><ele>92.5</ele><time>2026-04-17T16:10:24Z</time></trkpt><trkpt lat="41.95043011723858" lon="12.314090750244421"><ele>92.75</ele><time>2026-04-17T16:10:25Z</time></trkpt><trkpt lat="41.95055871454443" lon="12.31398609710737"><ele>93.0</ele><time>2026-04-17T16:10:26Z</time></trkpt><trkpt lat="41.95069678915071" lon="12.313879165992203"><ele>92.25</ele><time>2026-04-17T16:10:27Z</time></trkpt><trkpt lat="41.95082282644295" lon="12.313785918505523"><ele>91.5</ele><time>2026-04-17T16:10:28Z</time></trkpt><trkpt lat="41.95094287128313" lon="12.313698496108858"><ele>90.75</ele><time>2026-04-17T16:10:29Z</time></trkpt><trkpt lat="41.95105600465439" lon="12.313614506151325"><ele>90.0</ele><time>2026-04-17T16:10:30Z</time></trkpt><trkpt lat="41.95116401435912" lon="12.31352372743047"><ele>89.0</ele><time>2026-04-17T16:10:31Z</time></trkpt><trkpt lat="41.95127205614563" lon="12.31343997317058"><ele>88.0</ele><time>2026-04-17T16:10:32Z</time></trkpt><trkpt lat="41.95137760914793" lon="12.313351755377509"><ele>87.0</ele><time>2026-04-17T16:10:33Z</time></trkpt><trkpt lat="41.95147487249522" lon="12.313270169607904"><ele>86.0</ele><time>2026-04-17T16:10:34Z</time></trkpt><trkpt lat="41.951572103600185" lon="12.31319262439919"><ele>86.0</ele><time>2026-04-17T16:10:34.999Z</time></trkpt><trkpt lat="41.951673602514866" lon="12.313114344981056"><ele>86.0</ele><time>2026-04-17T16:10:35.999Z</time></trkpt><trkpt lat="41.95176748025684" lon="12.313042439853987"><ele>86.0</ele><time>2026-04-17T16:10:36.999Z</time></trkpt><trkpt lat="41.951859180863735" lon="12.312983890219828"><ele>86.0</ele><time>2026-04-17T16:10:37.999Z</time></trkpt><trkpt lat="41.95196099427031" lon="12.312955027598258"><ele>86.0</ele><time>2026-04-17T16:10:38.999Z</time></trkpt><trkpt lat="41.95207683901661" lon="12.312990387279369"><ele>86.0</ele><time>2026-04-17T16:10:39.999Z</time></trkpt><trkpt lat="41.95222364336186" lon="12.313036859724097"><ele>86.0</ele><time>2026-04-17T16:10:40.999Z</time></trkpt><trkpt lat="41.95236450468139" lon="12.31308641832471"><ele>86.0</ele><time>2026-04-17T16:10:41.999Z</time></trkpt><trkpt lat="41.95251278908639" lon="12.313113378079555"><ele>86.0</ele><time>2026-04-17T16:10:42.999Z</time></trkpt><trkpt lat="41.952671099875076" lon="12.31311812916787"><ele>86.25</ele><time>2026-04-17T16:10:43.999Z</time></trkpt><trkpt lat="41.952818598417245" lon="12.313119443872678"><ele>86.5</ele><time>2026-04-17T16:10:44.999Z</time></trkpt><trkpt lat="41.952960508312245" lon="12.313118978666461"><ele>86.75</ele><time>2026-04-17T16:10:45.999Z</time></trkpt><trkpt lat="41.95309756218237" lon="12.313100090822898"><ele>87.0</ele><time>2026-04-17T16:10:46.999Z</time></trkpt><trkpt lat="41.95324771733635" lon="12.313062941769125"><ele>87.66666666666667</ele><time>2026-04-17T16:10:47.999Z</time></trkpt><trkpt lat="41.953404030537214" lon="12.31299452300609"><ele>88.33333333333334</ele><time>2026-04-17T16:10:48.999Z</time></trkpt><trkpt lat="41.95357038314093" lon="12.31290439450516"><ele>89.0</ele><time>2026-04-17T16:10:49.999Z</time></trkpt><trkpt lat="41.953749781501735" lon="12.312820189878794"><ele>89.0</ele><time>2026-04-17T16:10:50.999Z</time></trkpt><trkpt lat="41.953906554339376" lon="12.312750489948852"><ele>89.0</ele><time>2026-04-17T16:10:51.999Z</time></trkpt><trkpt lat="41.9540512072371" lon="12.312714976396082"><ele>89.0</ele><time>2026-04-17T16:10:52.999Z</time></trkpt><trkpt lat="41.954200084172875" lon="12.31268973920607"><ele>90.0</ele><time>2026-04-17T16:10:53.999Z</time></trkpt><trkpt lat="41.954360357865255" lon="12.312677982445715"><ele>91.0</ele><time>2026-04-17T16:10:54.999Z</time></trkpt><trkpt lat="41.95453311442016" lon="12.312675821704191"><ele>92.0</ele><time>2026-04-17T16:10:55.999Z</time></trkpt><trkpt lat="41.95469652836631" lon="12.312676474998229"><ele>92.0</ele><time>2026-04-17T16:10:56.999Z</time></trkpt><trkpt lat="41.95484651989451" lon="12.312669105753914"><ele>92.0</ele><time>2026-04-17T16:10:57.999Z</time></trkpt><trkpt lat="41.95499489580972" lon="12.312681375430667"><ele>92.0</ele><time>2026-04-17T16:10:58.999Z</time></trkpt><trkpt lat="41.95515540546509" lon="12.31271215094183"><ele>92.33333333333334</ele><time>2026-04-17T16:10:59.999Z</time></trkpt><trkpt lat="41.95533361432754" lon="12.31275142203204"><ele>92.66666666666667</ele><time>2026-04-17T16:11:00.999Z</time></trkpt><trkpt lat="41.955522391037285" lon="12.31278679447084"><ele>93.0</ele><time>2026-04-17T16:11:01.999Z</time></trkpt><trkpt lat="41.95571383858762" lon="12.312816711594717"><ele>91.66666666666667</ele><time>2026-04-17T16:11:02.999Z</time></trkpt><trkpt lat="41.95592417790114" lon="12.312845709349748"><ele>90.33333333333334</ele><time>2026-04-17T16:11:03.999Z</time></trkpt><trkpt lat="41.95613862034328" lon="12.312871516532757"><ele>89.0</ele><time>2026-04-17T16:11:04.999Z</time></trkpt><trkpt lat="41.956353071912" lon="12.31288570776881"><ele>89.0</ele><time>2026-04-17T16:11:05.999Z</time></trkpt><trkpt lat="41.95654145816194" lon="12.312899757423061"><ele>89.0</ele><time>2026-04-17T16:11:06.999Z</time></trkpt><trkpt lat="41.95671359619715" lon="12.312900476797338"><ele>89.0</ele><time>2026-04-17T16:11:07.999Z</time></trkpt><trkpt lat="41.95687557722137" lon="12.312899774295431"><ele>89.33333333333334</ele><time>2026-04-17T16:11:08.999Z</time></trkpt><trkpt lat="41.95705441627535" lon="12.31289524374135"><ele>89.66666666666667</ele><time>2026-04-17T16:11:09.999Z</time></trkpt><trkpt lat="41.95725056662386" lon="12.312902560386757"><ele>90.0</ele><time>2026-04-17T16:11:10.999Z</time></trkpt><trkpt lat="41.95745030548259" lon="12.31292506239458"><ele>90.33333333333333</ele><time>2026-04-17T16:11:11.999Z</time></trkpt><trkpt lat="41.95765046445019" lon="12.312952515729492"><ele>90.66666666666666</ele><time>2026-04-17T16:11:12.999Z</time></trkpt><trkpt lat="41.957857018259425" lon="12.313009859406096"><ele>91.0</ele><time>2026-04-17T16:11:13.999Z</time></trkpt><trkpt lat="41.958067010448026" lon="12.313054133641545"><ele>91.33333333333333</ele><time>2026-04-17T16:11:14.999Z</time></trkpt><trkpt lat="41.9582888543259" lon="12.31310198741344"><ele>91.66666666666667</ele><time>2026-04-17T16:11:15.999Z</time></trkpt><trkpt lat="41.95850206893248" lon="12.313146419045808"><ele>92.0</ele><time>2026-04-17T16:11:16.999Z</time></trkpt><trkpt lat="41.95869789451154" lon="12.313187156641908"><ele>92.0</ele><time>2026-04-17T16:11:17.999Z</time></trkpt><trkpt lat="41.95889243134478" lon="12.313204965815792"><ele>92.0</ele><time>2026-04-17T16:11:18.999Z</time></trkpt><trkpt lat="41.959071867227124" lon="12.313241926836202"><ele>92.0</ele><time>2026-04-17T16:11:19.999Z</time></trkpt><trkpt lat="41.95922152143139" lon="12.313299528171514"><ele>92.0</ele><time>2026-04-17T16:11:20.999Z</time></trkpt><trkpt lat="41.95937269211294" lon="12.31334361010707"><ele>92.0</ele><time>2026-04-17T16:11:21.999Z</time></trkpt><trkpt lat="41.959515046479694" lon="12.313396217378461"><ele>92.0</ele><time>2026-04-17T16:11:22.999Z</time></trkpt><trkpt lat="41.9596582268832" lon="12.313452446087467"><ele>92.0</ele><time>2026-04-17T16:11:23.999Z</time></trkpt><trkpt lat="41.95978110197534" lon="12.313558641982183"><ele>92.0</ele><time>2026-04-17T16:11:24.999Z</time></trkpt><trkpt lat="41.95990903568522" lon="12.313689717331359"><ele>92.0</ele><time>2026-04-17T16:11:25.998Z</time></trkpt><trkpt lat="41.96003444767363" lon="12.31382809716255"><ele>91.25</ele><time>2026-04-17T16:11:26.998Z</time></trkpt><trkpt lat="41.96014864556501" lon="12.313952020100066"><ele>90.5</ele><time>2026-04-17T16:11:28.001Z</time></trkpt><trkpt lat="41.96026356977868" lon="12.314070128347344"><ele>89.75</ele><time>2026-04-17T16:11:29.001Z</time></trkpt><trkpt lat="41.960379710346" lon="12.314161155657393"><ele>89.0</ele><time>2026-04-17T16:11:30.001Z</time></trkpt><trkpt lat="41.960520712341314" lon="12.314233226650085"><ele>89.0</ele><time>2026-04-17T16:11:31.001Z</time></trkpt><trkpt lat="41.960677708531314" lon="12.314289924454146"><ele>89.0</ele><time>2026-04-17T16:11:32.001Z</time></trkpt><trkpt lat="41.96084378358426" lon="12.31433692245615"><ele>89.0</ele><time>2026-04-17T16:11:33.001Z</time></trkpt><trkpt lat="41.961024539587605" lon="12.314362247266317"><ele>89.33333333333334</ele><time>2026-04-17T16:11:34.001Z</time></trkpt><trkpt lat="41.96119943588036" lon="12.314392037692764"><ele>89.66666666666667</ele><time>2026-04-17T16:11:35.001Z</time></trkpt><trkpt lat="41.96135606720356" lon="12.314412661871248"><ele>90.0</ele><time>2026-04-17T16:11:36.001Z</time></trkpt><trkpt lat="41.96149517759084" lon="12.314421155208384"><ele>90.0</ele><time>2026-04-17T16:11:37.001Z</time></trkpt><trkpt lat="41.96162002945571" lon="12.314419678777135"><ele>90.0</ele><time>2026-04-17T16:11:38.001Z</time></trkpt><trkpt lat="41.96174022093268" lon="12.314406419120845"><ele>90.0</ele><time>2026-04-17T16:11:39.001Z</time></trkpt><trkpt lat="41.96185672966804" lon="12.314410382622366"><ele>90.0</ele><time>2026-04-17T16:11:40.001Z</time></trkpt><trkpt lat="41.96195943299865" lon="12.314375499471675"><ele>89.8</ele><time>2026-04-17T16:11:41.001Z</time></trkpt><trkpt lat="41.96205975210098" lon="12.314370684349397"><ele>89.6</ele><time>2026-04-17T16:11:42.001Z</time></trkpt><trkpt lat="41.96215132472948" lon="12.314352825105212"><ele>89.4</ele><time>2026-04-17T16:11:43.001Z</time></trkpt><trkpt lat="41.9622527415617" lon="12.314340092215085"><ele>89.2</ele><time>2026-04-17T16:11:44.001Z</time></trkpt><trkpt lat="41.962353557530975" lon="12.314330604697838"><ele>89.0</ele><time>2026-04-17T16:11:45.001Z</time></trkpt><trkpt lat="41.96244894006234" lon="12.314325469703245"><ele>89.0</ele><time>2026-04-17T16:11:46.001Z</time></trkpt><trkpt lat="41.9625417811683" lon="12.314319748897134"><ele>89.0</ele><time>2026-04-17T16:11:47.001Z</time></trkpt><trkpt lat="41.96263289804828" lon="12.314314539529592"><ele>89.0</ele><time>2026-04-17T16:11:48.001Z</time></trkpt><trkpt lat="41.96272387448971" lon="12.31430749896826"><ele>89.0</ele><time>2026-04-17T16:11:49.001Z</time></trkpt><trkpt lat="41.96280820729377" lon="12.314299778555979"><ele>89.0</ele><time>2026-04-17T16:11:50.001Z</time></trkpt><trkpt lat="41.96289495381925" lon="12.314285028791039"><ele>89.0</ele><time>2026-04-17T16:11:51.001Z</time></trkpt><trkpt lat="41.9629750757377" lon="12.314273862876837"><ele>89.0</ele><time>2026-04-17T16:11:52.001Z</time></trkpt><trkpt lat="41.96304963621478" lon="12.314269061746645"><ele>89.0</ele><time>2026-04-17T16:11:53.001Z</time></trkpt><trkpt lat="41.96311048985492" lon="12.314243289084983"><ele>89.0</ele><time>2026-04-17T16:11:54.001Z</time></trkpt><trkpt lat="41.96316200285176" lon="12.31418672988085"><ele>89.0</ele><time>2026-04-17T16:11:55.001Z</time></trkpt><trkpt lat="41.963199118132906" lon="12.314031350764743"><ele>89.0</ele><time>2026-04-17T16:11:57Z</time></trkpt><trkpt lat="41.96317810435684" lon="12.31392792513418"><ele>89.0</ele><time>2026-04-17T16:11:58Z</time></trkpt><trkpt lat="41.963135856453086" lon="12.313848008278596"><ele>88.80000000000001</ele><time>2026-04-17T16:11:59Z</time></trkpt><trkpt lat="41.963062271236886" lon="12.313769903843118"><ele>88.60000000000001</ele><time>2026-04-17T16:12:00Z</time></trkpt><trkpt lat="41.96298754568582" lon="12.313707819754715"><ele>88.4</ele><time>2026-04-17T16:12:01Z</time></trkpt><trkpt lat="41.96291460125292" lon="12.313631600286696"><ele>88.2</ele><time>2026-04-17T16:12:02Z</time></trkpt><trkpt lat="41.962838190981394" lon="12.313528689802087"><ele>88.0</ele><time>2026-04-17T16:12:03Z</time></trkpt><trkpt lat="41.96276237264513" lon="12.313408105218674"><ele>88.0</ele><time>2026-04-17T16:12:04Z</time></trkpt><trkpt lat="41.962686502117094" lon="12.313283042305947"><ele>88.0</ele><time>2026-04-17T16:12:05Z</time></trkpt><trkpt lat="41.96260731448305" lon="12.313149593354435"><ele>88.0</ele><time>2026-04-17T16:12:06Z</time></trkpt><trkpt lat="41.9625307608516" lon="12.313027023697277"><ele>88.0</ele><time>2026-04-17T16:12:07Z</time></trkpt><trkpt lat="41.962462315996284" lon="12.312907545977657"><ele>86.4</ele><time>2026-04-17T16:12:08Z</time></trkpt><trkpt lat="41.96239363754707" lon="12.3127954620434"><ele>84.80000000000001</ele><time>2026-04-17T16:12:09Z</time></trkpt><trkpt lat="41.96233092561355" lon="12.312683121701726"><ele>83.2</ele><time>2026-04-17T16:12:10Z</time></trkpt><trkpt lat="41.96225997828878" lon="12.31256482998972"><ele>81.6</ele><time>2026-04-17T16:12:11Z</time></trkpt><trkpt lat="41.962198379907925" lon="12.312420660847728"><ele>80.0</ele><time>2026-04-17T16:12:12Z</time></trkpt><trkpt lat="41.96211852921922" lon="12.312276937019456"><ele>80.0</ele><time>2026-04-17T16:12:13Z</time></trkpt><trkpt lat="41.96204086794946" lon="12.312121453886753"><ele>80.0</ele><time>2026-04-17T16:12:14Z</time></trkpt><trkpt lat="41.96197924150498" lon="12.311968591979888"><ele>80.0</ele><time>2026-04-17T16:12:15Z</time></trkpt><trkpt lat="41.96192457142264" lon="12.31179203815301"><ele>80.0</ele><time>2026-04-17T16:12:16Z</time></trkpt><trkpt lat="41.96187785007" lon="12.311605867173082"><ele>80.0</ele><time>2026-04-17T16:12:17Z</time></trkpt><trkpt lat="41.961848680932064" lon="12.311431217919994"><ele>80.0</ele><time>2026-04-17T16:12:18Z</time></trkpt><trkpt lat="41.96182656577629" lon="12.311229407565495"><ele>80.0</ele><time>2026-04-17T16:12:19Z</time></trkpt><trkpt lat="41.96180719342874" lon="12.310998130513596"><ele>80.0</ele><time>2026-04-17T16:12:20Z</time></trkpt><trkpt lat="41.96178948452525" lon="12.310762785343522"><ele>80.0</ele><time>2026-04-17T16:12:21Z</time></trkpt><trkpt lat="41.96176947407615" lon="12.31049875833436"><ele>80.0</ele><time>2026-04-17T16:12:22Z</time></trkpt><trkpt lat="41.96174420658426" lon="12.310222337468902"><ele>78.66666666666667</ele><time>2026-04-17T16:12:23Z</time></trkpt><trkpt lat="41.96171870556865" lon="12.309943361943226"><ele>77.33333333333333</ele><time>2026-04-17T16:12:24Z</time></trkpt><trkpt lat="41.96170010812084" lon="12.309688437741475"><ele>76.0</ele><time>2026-04-17T16:12:25Z</time></trkpt><trkpt lat="41.96168962500102" lon="12.309443023315325"><ele>67.66666666666666</ele><time>2026-04-17T16:12:26Z</time></trkpt><trkpt lat="41.96168497196975" lon="12.309202087892135"><ele>59.33333333333333</ele><time>2026-04-17T16:12:27Z</time></trkpt><trkpt lat="41.96168211060365" lon="12.308969061959461"><ele>51.0</ele><time>2026-04-17T16:12:28Z</time></trkpt><trkpt lat="41.96168038070405" lon="12.308729947598962"><ele>51.0</ele><time>2026-04-17T16:12:29Z</time></trkpt><trkpt lat="41.96168770784903" lon="12.308484469273683"><ele>51.0</ele><time>2026-04-17T16:12:30Z</time></trkpt><trkpt lat="41.96170456986664" lon="12.308250115053305"><ele>51.0</ele><time>2026-04-17T16:12:31Z</time></trkpt><trkpt lat="41.961723352598256" lon="12.30803457661758"><ele>51.0</ele><time>2026-04-17T16:12:32Z</time></trkpt><trkpt lat="41.96174034902409" lon="12.307840538344973"><ele>51.0</ele><time>2026-04-17T16:12:33Z</time></trkpt><trkpt lat="41.96175827557664" lon="12.307666463763482"><ele>51.0</ele><time>2026-04-17T16:12:34Z</time></trkpt><trkpt lat="41.96176634685673" lon="12.307499064437387"><ele>51.0</ele><time>2026-04-17T16:12:35Z</time></trkpt><trkpt lat="41.961811593908145" lon="12.307362384125344"><ele>47.599999999999994</ele><time>2026-04-17T16:12:36Z</time></trkpt><trkpt lat="41.9618723251232" lon="12.30724152917108"><ele>44.199999999999996</ele><time>2026-04-17T16:12:37Z</time></trkpt><trkpt lat="41.96195689927517" lon="12.307139193294866"><ele>40.8</ele><time>2026-04-17T16:12:37.999Z</time></trkpt><trkpt lat="41.962054252035024" lon="12.307059563923337"><ele>37.4</ele><time>2026-04-17T16:12:38.999Z</time></trkpt><trkpt lat="41.96215593409376" lon="12.307026085852637"><ele>34.0</ele><time>2026-04-17T16:12:39.999Z</time></trkpt><trkpt lat="41.96226925644864" lon="12.307042056619162"><ele>34.0</ele><time>2026-04-17T16:12:40.999Z</time></trkpt><trkpt lat="41.96237169082291" lon="12.307069574169805"><ele>34.0</ele><time>2026-04-17T16:12:42Z</time></trkpt><trkpt lat="41.96248569136127" lon="12.307118936711648"><ele>34.0</ele><time>2026-04-17T16:12:42.999Z</time></trkpt><trkpt lat="41.962604462896074" lon="12.3071652043144"><ele>34.0</ele><time>2026-04-17T16:12:43.999Z</time></trkpt><trkpt lat="41.962741362529435" lon="12.30725262360648"><ele>36.5</ele><time>2026-04-17T16:12:44.999Z</time></trkpt><trkpt lat="41.962884095488" lon="12.307345081930597"><ele>39.0</ele><time>2026-04-17T16:12:45.999Z</time></trkpt><trkpt lat="41.96301181142926" lon="12.307434047855107"><ele>41.5</ele><time>2026-04-17T16:12:46.999Z</time></trkpt><trkpt lat="41.96313400349159" lon="12.30751531636176"><ele>44.0</ele><time>2026-04-17T16:12:47.999Z</time></trkpt><trkpt lat="41.963248830404204" lon="12.3075970910421"><ele>44.0</ele><time>2026-04-17T16:12:48.999Z</time></trkpt><trkpt lat="41.96336055390814" lon="12.307681105573236"><ele>44.0</ele><time>2026-04-17T16:12:49.999Z</time></trkpt><trkpt lat="41.96346532216916" lon="12.307758973162603"><ele>44.0</ele><time>2026-04-17T16:12:50.999Z</time></trkpt><trkpt lat="41.96356312430198" lon="12.30782832281837"><ele>44.0</ele><time>2026-04-17T16:12:51.999Z</time></trkpt><trkpt lat="41.96365400518741" lon="12.307878007831018"><ele>42.0</ele><time>2026-04-17T16:12:52.999Z</time></trkpt><trkpt lat="41.96373752926874" lon="12.307896651779652"><ele>40.0</ele><time>2026-04-17T16:12:53.999Z</time></trkpt><trkpt lat="41.963815487642044" lon="12.307909913357394"><ele>38.0</ele><time>2026-04-17T16:12:54.999Z</time></trkpt><trkpt lat="41.96394614405038" lon="12.307857343794728"><ele>36.0</ele><time>2026-04-17T16:12:55.999Z</time></trkpt><trkpt lat="41.96404626327463" lon="12.307798430577805"><ele>34.0</ele><time>2026-04-17T16:12:56.999Z</time></trkpt><trkpt lat="41.96413894120603" lon="12.307741995502036"><ele>33.6</ele><time>2026-04-17T16:12:57.999Z</time></trkpt><trkpt lat="41.96420708562763" lon="12.307667763034871"><ele>33.2</ele><time>2026-04-17T16:12:58.999Z</time></trkpt><trkpt lat="41.96426670560161" lon="12.307559750088725"><ele>32.800000000000004</ele><time>2026-04-17T16:12:59.999Z</time></trkpt><trkpt lat="41.96429596198533" lon="12.30740558529127"><ele>32.4</ele><time>2026-04-17T16:13:00.999Z</time></trkpt><trkpt lat="41.96430680736164" lon="12.307227890871404"><ele>32.0</ele><time>2026-04-17T16:13:01.999Z</time></trkpt><trkpt lat="41.96430403039543" lon="12.307032349006144"><ele>32.0</ele><time>2026-04-17T16:13:02.999Z</time></trkpt><trkpt lat="41.964301427648245" lon="12.306820381538316"><ele>32.0</ele><time>2026-04-17T16:13:03.999Z</time></trkpt><trkpt lat="41.96430306519694" lon="12.306604282397997"><ele>32.0</ele><time>2026-04-17T16:13:04.999Z</time></trkpt><trkpt lat="41.964306334685" lon="12.306381566994338"><ele>32.0</ele><time>2026-04-17T16:13:05.999Z</time></trkpt><trkpt lat="41.96431524462135" lon="12.306177549699438"><ele>32.0</ele><time>2026-04-17T16:13:06.999Z</time></trkpt><trkpt lat="41.96432169367857" lon="12.305997692609193"><ele>32.0</ele><time>2026-04-17T16:13:07.999Z</time></trkpt><trkpt lat="41.96431778697848" lon="12.305810518092152"><ele>32.0</ele><time>2026-04-17T16:13:08.999Z</time></trkpt><trkpt lat="41.9643005022891" lon="12.305626198786655"><ele>31.75</ele><time>2026-04-17T16:13:09.999Z</time></trkpt><trkpt lat="41.964255309873224" lon="12.30544427149223"><ele>31.5</ele><time>2026-04-17T16:13:10.999Z</time></trkpt><trkpt lat="41.96419627719424" lon="12.305268272869913"><ele>31.25</ele><time>2026-04-17T16:13:11.999Z</time></trkpt><trkpt lat="41.964134437123874" lon="12.30511697414672"><ele>31.0</ele><time>2026-04-17T16:13:12.999Z</time></trkpt><trkpt lat="41.9640852548284" lon="12.304972710055488"><ele>31.8</ele><time>2026-04-17T16:13:13.999Z</time></trkpt><trkpt lat="41.9640391497241" lon="12.304831810265897"><ele>32.6</ele><time>2026-04-17T16:13:14.999Z</time></trkpt><trkpt lat="41.96400355293434" lon="12.304707061811088"><ele>33.4</ele><time>2026-04-17T16:13:15.999Z</time></trkpt><trkpt lat="41.963968872292455" lon="12.304598547064858"><ele>34.2</ele><time>2026-04-17T16:13:16.999Z</time></trkpt><trkpt lat="41.963939134468994" lon="12.304495731633388"><ele>35.0</ele><time>2026-04-17T16:13:17.999Z</time></trkpt><trkpt lat="41.96390342805253" lon="12.304394862696759"><ele>35.75</ele><time>2026-04-17T16:13:18.999Z</time></trkpt><trkpt lat="41.96376403926193" lon="12.304362875556118"><ele>36.5</ele><time>2026-04-17T16:13:19.999Z</time></trkpt><trkpt lat="41.96366110809632" lon="12.304294527110162"><ele>37.25</ele><time>2026-04-17T16:13:20.999Z</time></trkpt><trkpt lat="41.96356337218333" lon="12.304186791257274"><ele>38.0</ele><time>2026-04-17T16:13:21.999Z</time></trkpt><trkpt lat="41.96347532916636" lon="12.304041173052829"><ele>38.666666666666664</ele><time>2026-04-17T16:13:22.999Z</time></trkpt><trkpt lat="41.96337686012953" lon="12.303881993409563"><ele>39.333333333333336</ele><time>2026-04-17T16:13:23.999Z</time></trkpt><trkpt lat="41.96328465815477" lon="12.303705896652545"><ele>40.0</ele><time>2026-04-17T16:13:24.998Z</time></trkpt><trkpt lat="41.963185996090935" lon="12.303539835984548"><ele>40.0</ele><time>2026-04-17T16:13:25.998Z</time></trkpt><trkpt lat="41.963084052280664" lon="12.303372551781804"><ele>40.0</ele><time>2026-04-17T16:13:26.998Z</time></trkpt><trkpt lat="41.962988027755046" lon="12.303222625085423"><ele>40.0</ele><time>2026-04-17T16:13:27.998Z</time></trkpt><trkpt lat="41.96288904730415" lon="12.303057770649769"><ele>42.66666666666667</ele><time>2026-04-17T16:13:28.998Z</time></trkpt><trkpt lat="41.96278218239789" lon="12.302899209893308"><ele>45.333333333333336</ele><time>2026-04-17T16:13:29.998Z</time></trkpt><trkpt lat="41.96268166795762" lon="12.302723705025688"><ele>48.0</ele><time>2026-04-17T16:13:30.998Z</time></trkpt><trkpt lat="41.96257133276275" lon="12.302535108683418"><ele>49.0</ele><time>2026-04-17T16:13:31.998Z</time></trkpt><trkpt lat="41.9624473408958" lon="12.302358749896523"><ele>50.0</ele><time>2026-04-17T16:13:33.001Z</time></trkpt><trkpt lat="41.96231914680947" lon="12.302190786783369"><ele>51.0</ele><time>2026-04-17T16:13:34.001Z</time></trkpt><trkpt lat="41.96219331988108" lon="12.30202078358041"><ele>51.0</ele><time>2026-04-17T16:13:35.001Z</time></trkpt><trkpt lat="41.96207643693654" lon="12.301859827780428"><ele>51.0</ele><time>2026-04-17T16:13:36.001Z</time></trkpt><trkpt lat="41.9619621214553" lon="12.301711500467011"><ele>51.0</ele><time>2026-04-17T16:13:37.001Z</time></trkpt><trkpt lat="41.961847291593" lon="12.301562291354115"><ele>51.0</ele><time>2026-04-17T16:13:38.001Z</time></trkpt><trkpt lat="41.96173342633139" lon="12.301416566758368"><ele>51.0</ele><time>2026-04-17T16:13:39.001Z</time></trkpt><trkpt lat="41.96162972698041" lon="12.30128238441465"><ele>51.0</ele><time>2026-04-17T16:13:40.001Z</time></trkpt><trkpt lat="41.961534914774454" lon="12.301165649312058"><ele>51.0</ele><time>2026-04-17T16:13:41.001Z</time></trkpt><trkpt lat="41.961448057741165" lon="12.301061523782627"><ele>48.75</ele><time>2026-04-17T16:13:42.001Z</time></trkpt><trkpt lat="41.96134803547943" lon="12.300968332540485"><ele>46.5</ele><time>2026-04-17T16:13:43.001Z</time></trkpt><trkpt lat="41.96123036503651" lon="12.3008876452847"><ele>44.25</ele><time>2026-04-17T16:13:44.001Z</time></trkpt><trkpt lat="41.961091202531556" lon="12.300852655366164"><ele>42.0</ele><time>2026-04-17T16:13:45.001Z</time></trkpt><trkpt lat="41.960932247459105" lon="12.300825800831465"><ele>41.0</ele><time>2026-04-17T16:13:46.001Z</time></trkpt><trkpt lat="41.960754889438036" lon="12.300831477671094"><ele>40.0</ele><time>2026-04-17T16:13:47.001Z</time></trkpt><trkpt lat="41.960569858124444" lon="12.30085473832246"><ele>39.0</ele><time>2026-04-17T16:13:48.001Z</time></trkpt><trkpt lat="41.96037352795042" lon="12.300884643836497"><ele>39.0</ele><time>2026-04-17T16:13:49.001Z</time></trkpt><trkpt lat="41.960162594124334" lon="12.300909872579028"><ele>39.0</ele><time>2026-04-17T16:13:50.001Z</time></trkpt><trkpt lat="41.95995448555258" lon="12.300938975905508"><ele>39.0</ele><time>2026-04-17T16:13:51.001Z</time></trkpt><trkpt lat="41.9597372568725" lon="12.300969310552183"><ele>39.666666666666664</ele><time>2026-04-17T16:13:52.001Z</time></trkpt><trkpt lat="41.95953340681714" lon="12.300996355377265"><ele>40.33333333333333</ele><time>2026-04-17T16:13:53.001Z</time></trkpt><trkpt lat="41.959340725643436" lon="12.301017975200253"><ele>41.0</ele><time>2026-04-17T16:13:54.001Z</time></trkpt><trkpt lat="41.959165891270196" lon="12.301036585542885"><ele>39.33333333333333</ele><time>2026-04-17T16:13:55.001Z</time></trkpt><trkpt lat="41.95899143642644" lon="12.30105615446558"><ele>37.666666666666664</ele><time>2026-04-17T16:13:56.001Z</time></trkpt><trkpt lat="41.95882719562978" lon="12.301073411458287"><ele>36.0</ele><time>2026-04-17T16:13:57.001Z</time></trkpt><trkpt lat="41.95866717538285" lon="12.301089345947133"><ele>36.0</ele><time>2026-04-17T16:13:58.001Z</time></trkpt><trkpt lat="41.95851765688873" lon="12.301101709352308"><ele>36.0</ele><time>2026-04-17T16:13:59.001Z</time></trkpt><trkpt lat="41.95837538280792" lon="12.301120169707307"><ele>36.0</ele><time>2026-04-17T16:14:00.001Z</time></trkpt><trkpt lat="41.95824581610141" lon="12.301127525808312"><ele>36.0</ele><time>2026-04-17T16:14:01Z</time></trkpt><trkpt lat="41.95811066355935" lon="12.301127878017718"><ele>35.75</ele><time>2026-04-17T16:14:02Z</time></trkpt><trkpt lat="41.95796913265716" lon="12.3011164093728"><ele>35.5</ele><time>2026-04-17T16:14:03Z</time></trkpt><trkpt lat="41.957832813380904" lon="12.301085438187117"><ele>35.25</ele><time>2026-04-17T16:14:04Z</time></trkpt><trkpt lat="41.95769782424976" lon="12.30104047796877"><ele>35.0</ele><time>2026-04-17T16:14:05Z</time></trkpt><trkpt lat="41.95755603711192" lon="12.300983321323349"><ele>35.33333333333333</ele><time>2026-04-17T16:14:06Z</time></trkpt><trkpt lat="41.957409039593074" lon="12.30091234014381"><ele>35.666666666666664</ele><time>2026-04-17T16:14:07Z</time></trkpt><trkpt lat="41.9572519975865" lon="12.300837325430816"><ele>36.0</ele><time>2026-04-17T16:14:08Z</time></trkpt><trkpt lat="41.95708779913516" lon="12.300753268053525"><ele>36.0</ele><time>2026-04-17T16:14:09Z</time></trkpt><trkpt lat="41.956923806509955" lon="12.300663119934422"><ele>36.0</ele><time>2026-04-17T16:14:10Z</time></trkpt><trkpt lat="41.956753223643986" lon="12.300572762171193"><ele>36.0</ele><time>2026-04-17T16:14:11Z</time></trkpt><trkpt lat="41.95658051563083" lon="12.300470641384337"><ele>40.66666666666667</ele><time>2026-04-17T16:14:12Z</time></trkpt><trkpt lat="41.95642003701846" lon="12.300371973605436"><ele>45.333333333333336</ele><time>2026-04-17T16:14:13Z</time></trkpt><trkpt lat="41.9562677028736" lon="12.300270611552847"><ele>50.0</ele><time>2026-04-17T16:14:14Z</time></trkpt><trkpt lat="41.95610808720293" lon="12.300159707375027"><ele>50.0</ele><time>2026-04-17T16:14:15Z</time></trkpt><trkpt lat="41.955939108864406" lon="12.30002693996027"><ele>50.0</ele><time>2026-04-17T16:14:16Z</time></trkpt><trkpt lat="41.955757630442754" lon="12.299881160675932"><ele>50.0</ele><time>2026-04-17T16:14:17Z</time></trkpt><trkpt lat="41.955574090892576" lon="12.299732453391721"><ele>45.5</ele><time>2026-04-17T16:14:18Z</time></trkpt><trkpt lat="41.955373391859105" lon="12.299572522093607"><ele>41.0</ele><time>2026-04-17T16:14:19Z</time></trkpt><trkpt lat="41.95517828486984" lon="12.29941695584285"><ele>37.666666666666664</ele><time>2026-04-17T16:14:20Z</time></trkpt><trkpt lat="41.95498722330017" lon="12.299264468774732"><ele>34.333333333333336</ele><time>2026-04-17T16:14:21Z</time></trkpt><trkpt lat="41.95479990492135" lon="12.29911481710662"><ele>31.0</ele><time>2026-04-17T16:14:22Z</time></trkpt><trkpt lat="41.95462297499998" lon="12.298974058160413"><ele>33.0</ele><time>2026-04-17T16:14:23Z</time></trkpt><trkpt lat="41.95446733700673" lon="12.298842581618391"><ele>35.0</ele><time>2026-04-17T16:14:24Z</time></trkpt><trkpt lat="41.95430665213026" lon="12.298718879422433"><ele>37.0</ele><time>2026-04-17T16:14:25Z</time></trkpt><trkpt lat="41.95413818385002" lon="12.29860581306316"><ele>37.0</ele><time>2026-04-17T16:14:26Z</time></trkpt><trkpt lat="41.95395718086772" lon="12.298513288126546"><ele>37.0</ele><time>2026-04-17T16:14:27Z</time></trkpt><trkpt lat="41.95376991126807" lon="12.298445035290456"><ele>37.0</ele><time>2026-04-17T16:14:28Z</time></trkpt><trkpt lat="41.95358487982712" lon="12.298411389160009"><ele>37.0</ele><time>2026-04-17T16:14:29Z</time></trkpt><trkpt lat="41.95339190216849" lon="12.29840633142777"><ele>37.0</ele><time>2026-04-17T16:14:30Z</time></trkpt><trkpt lat="41.95317929007766" lon="12.29842477357241"><ele>37.0</ele><time>2026-04-17T16:14:31Z</time></trkpt><trkpt lat="41.952965332475536" lon="12.298449236404815"><ele>37.333333333333336</ele><time>2026-04-17T16:14:32Z</time></trkpt><trkpt lat="41.95276732712366" lon="12.298439051844229"><ele>37.666666666666664</ele><time>2026-04-17T16:14:33Z</time></trkpt><trkpt lat="41.95258438603982" lon="12.298471289074604"><ele>38.0</ele><time>2026-04-17T16:14:34Z</time></trkpt><trkpt lat="41.9523972595666" lon="12.298476354809049"><ele>39.0</ele><time>2026-04-17T16:14:35Z</time></trkpt><trkpt lat="41.95221215754563" lon="12.298481193593554"><ele>40.0</ele><time>2026-04-17T16:14:36Z</time></trkpt><trkpt lat="41.95202727794381" lon="12.298480202101008"><ele>41.0</ele><time>2026-04-17T16:14:37Z</time></trkpt><trkpt lat="41.951843335073086" lon="12.298469400968152"><ele>38.0</ele><time>2026-04-17T16:14:38Z</time></trkpt><trkpt lat="41.95165599558063" lon="12.298444696019759"><ele>35.0</ele><time>2026-04-17T16:14:39Z</time></trkpt><trkpt lat="41.95146101868626" lon="12.298407062857379"><ele>32.0</ele><time>2026-04-17T16:14:40Z</time></trkpt><trkpt lat="41.951261759727934" lon="12.298330191091495"><ele>32.0</ele><time>2026-04-17T16:14:41Z</time></trkpt><trkpt lat="41.95106056882039" lon="12.298290675252753"><ele>32.0</ele><time>2026-04-17T16:14:41.999Z</time></trkpt><trkpt lat="41.950857603099074" lon="12.29822701570681"><ele>32.0</ele><time>2026-04-17T16:14:42.999Z</time></trkpt><trkpt lat="41.95066094191703" lon="12.298165473981943"><ele>31.666666666666664</ele><time>2026-04-17T16:14:43.999Z</time></trkpt><trkpt lat="41.95048260880495" lon="12.298112770250595"><ele>31.333333333333336</ele><time>2026-04-17T16:14:44.999Z</time></trkpt><trkpt lat="41.95031636809524" lon="12.298062776035806"><ele>31.0</ele><time>2026-04-17T16:14:45.999Z</time></trkpt><trkpt lat="41.95016265010758" lon="12.298016494405521"><ele>31.0</ele><time>2026-04-17T16:14:46.999Z</time></trkpt><trkpt lat="41.9500003642967" lon="12.297973505972296"><ele>31.0</ele><time>2026-04-17T16:14:47.999Z</time></trkpt><trkpt lat="41.94983711259806" lon="12.297931325765822"><ele>31.0</ele><time>2026-04-17T16:14:48.999Z</time></trkpt><trkpt lat="41.94968811357404" lon="12.297878159561746"><ele>31.0</ele><time>2026-04-17T16:14:49.999Z</time></trkpt><trkpt lat="41.94954969339373" lon="12.297846809897731"><ele>31.0</ele><time>2026-04-17T16:14:50.999Z</time></trkpt><trkpt lat="41.94941464440377" lon="12.297804510589813"><ele>31.0</ele><time>2026-04-17T16:14:51.999Z</time></trkpt><trkpt lat="41.949275425368945" lon="12.297762706358698"><ele>31.0</ele><time>2026-04-17T16:14:52.999Z</time></trkpt><trkpt lat="41.94913130668307" lon="12.297718549767968"><ele>30.0</ele><time>2026-04-17T16:14:53.999Z</time></trkpt><trkpt lat="41.94898130051901" lon="12.297675453215579"><ele>29.0</ele><time>2026-04-17T16:14:54.999Z</time></trkpt><trkpt lat="41.94882799315274" lon="12.297634246511562"><ele>28.0</ele><time>2026-04-17T16:14:55.999Z</time></trkpt><trkpt lat="41.948669691211045" lon="12.297588761898899"><ele>28.0</ele><time>2026-04-17T16:14:56.999Z</time></trkpt><trkpt lat="41.948503510448" lon="12.297539212365011"><ele>28.0</ele><time>2026-04-17T16:14:57.999Z</time></trkpt><trkpt lat="41.94833088704572" lon="12.297492803965206"><ele>28.0</ele><time>2026-04-17T16:14:58.999Z</time></trkpt><trkpt lat="41.948153384386515" lon="12.297445164187321"><ele>27.666666666666668</ele><time>2026-04-17T16:14:59.999Z</time></trkpt><trkpt lat="41.947998783997086" lon="12.297393554923568"><ele>27.333333333333336</ele><time>2026-04-17T16:15:00.999Z</time></trkpt><trkpt lat="41.94784744419413" lon="12.297342548499717"><ele>27.0</ele><time>2026-04-17T16:15:01.999Z</time></trkpt><trkpt lat="41.94769843168812" lon="12.29727928545859"><ele>27.0</ele><time>2026-04-17T16:15:02.999Z</time></trkpt><trkpt lat="41.947566309808856" lon="12.297201883632733"><ele>27.0</ele><time>2026-04-17T16:15:03.999Z</time></trkpt><trkpt lat="41.94744125110407" lon="12.297112659921773"><ele>27.0</ele><time>2026-04-17T16:15:04.999Z</time></trkpt><trkpt lat="41.947317494061366" lon="12.297004406410677"><ele>27.0</ele><time>2026-04-17T16:15:05.999Z</time></trkpt><trkpt lat="41.94720057945973" lon="12.296860928669204"><ele>27.0</ele><time>2026-04-17T16:15:06.999Z</time></trkpt><trkpt lat="41.94706974351087" lon="12.296716832039332"><ele>27.0</ele><time>2026-04-17T16:15:07.999Z</time></trkpt><trkpt lat="41.946931500945176" lon="12.296564962709041"><ele>27.0</ele><time>2026-04-17T16:15:08.999Z</time></trkpt><trkpt lat="41.9467801607841" lon="12.296422226399194"><ele>27.0</ele><time>2026-04-17T16:15:09.999Z</time></trkpt><trkpt lat="41.94663271978826" lon="12.296259115865462"><ele>27.0</ele><time>2026-04-17T16:15:10.999Z</time></trkpt><trkpt lat="41.946481113495494" lon="12.296089658071505"><ele>27.0</ele><time>2026-04-17T16:15:11.999Z</time></trkpt><trkpt lat="41.94632557129472" lon="12.295919131733339"><ele>27.0</ele><time>2026-04-17T16:15:12.999Z</time></trkpt><trkpt lat="41.94617327655064" lon="12.295753011121953"><ele>27.0</ele><time>2026-04-17T16:15:13.999Z</time></trkpt><trkpt lat="41.94601505615511" lon="12.295581467203547"><ele>27.0</ele><time>2026-04-17T16:15:14.999Z</time></trkpt><trkpt lat="41.945858730528066" lon="12.295408041789015"><ele>27.0</ele><time>2026-04-17T16:15:15.999Z</time></trkpt><trkpt lat="41.94570292148808" lon="12.2952341148512"><ele>27.0</ele><time>2026-04-17T16:15:16.999Z</time></trkpt><trkpt lat="41.94554456985354" lon="12.295060140750614"><ele>27.0</ele><time>2026-04-17T16:15:17.999Z</time></trkpt><trkpt lat="41.945390677568135" lon="12.294890801052107"><ele>27.666666666666664</ele><time>2026-04-17T16:15:18.999Z</time></trkpt><trkpt lat="41.94523183797302" lon="12.294716167827955"><ele>28.333333333333332</ele><time>2026-04-17T16:15:19.999Z</time></trkpt><trkpt lat="41.94508092699176" lon="12.294546298785768"><ele>29.0</ele><time>2026-04-17T16:15:20.999Z</time></trkpt><trkpt lat="41.944922430359185" lon="12.294373148792156"><ele>29.0</ele><time>2026-04-17T16:15:21.999Z</time></trkpt><trkpt lat="41.944771114442986" lon="12.294212017113924"><ele>29.0</ele><time>2026-04-17T16:15:22.999Z</time></trkpt><trkpt lat="41.94462735643367" lon="12.294055060798076"><ele>29.0</ele><time>2026-04-17T16:15:23.999Z</time></trkpt><trkpt lat="41.944486816264465" lon="12.293903216289216"><ele>31.333333333333332</ele><time>2026-04-17T16:15:24.999Z</time></trkpt><trkpt lat="41.944351344834054" lon="12.293755033853074"><ele>33.666666666666664</ele><time>2026-04-17T16:15:25.999Z</time></trkpt><trkpt lat="41.94423337855525" lon="12.293594796577883"><ele>36.0</ele><time>2026-04-17T16:15:26.998Z</time></trkpt><trkpt lat="41.94409252140122" lon="12.29346929538947"><ele>36.0</ele><time>2026-04-17T16:15:27.998Z</time></trkpt><trkpt lat="41.94394861268224" lon="12.29333957057813"><ele>36.0</ele><time>2026-04-17T16:15:28.998Z</time></trkpt><trkpt lat="41.94379122905392" lon="12.293235219702568"><ele>36.0</ele><time>2026-04-17T16:15:29.998Z</time></trkpt><trkpt lat="41.94362171807174" lon="12.293151824982584"><ele>39.666666666666664</ele><time>2026-04-17T16:15:30.998Z</time></trkpt><trkpt lat="41.94345114761179" lon="12.293085705764058"><ele>43.33333333333333</ele><time>2026-04-17T16:15:31.998Z</time></trkpt><trkpt lat="41.943264455359525" lon="12.293040200595547"><ele>47.0</ele><time>2026-04-17T16:15:32.998Z</time></trkpt><trkpt lat="41.943075880679054" lon="12.29299997962162"><ele>47.0</ele><time>2026-04-17T16:15:33.998Z</time></trkpt><trkpt lat="41.94288261553469" lon="12.292956927343985"><ele>47.0</ele><time>2026-04-17T16:15:34.998Z</time></trkpt><trkpt lat="41.942705831783286" lon="12.292916462488089"><ele>47.0</ele><time>2026-04-17T16:15:35.998Z</time></trkpt><trkpt lat="41.94254247733957" lon="12.292879700270722"><ele>43.75</ele><time>2026-04-17T16:15:36.998Z</time></trkpt><trkpt lat="41.942394604841205" lon="12.292848022852516"><ele>40.5</ele><time>2026-04-17T16:15:37.998Z</time></trkpt><trkpt lat="41.94225357942305" lon="12.292814495696025"><ele>37.25</ele><time>2026-04-17T16:15:39.001Z</time></trkpt><trkpt lat="41.942127209893776" lon="12.292746504095422"><ele>34.0</ele><time>2026-04-17T16:15:40.001Z</time></trkpt><trkpt lat="41.941997247642156" lon="12.292675060853488"><ele>34.0</ele><time>2026-04-17T16:15:41.001Z</time></trkpt><trkpt lat="41.94187606284319" lon="12.292571117953274"><ele>34.0</ele><time>2026-04-17T16:15:42.001Z</time></trkpt><trkpt lat="41.941762105978675" lon="12.29245057118705"><ele>34.0</ele><time>2026-04-17T16:15:43.001Z</time></trkpt><trkpt lat="41.941659124244254" lon="12.292309353958698"><ele>34.0</ele><time>2026-04-17T16:15:44.001Z</time></trkpt><trkpt lat="41.9415617959687" lon="12.29214580081868"><ele>32.66666666666667</ele><time>2026-04-17T16:15:45.001Z</time></trkpt><trkpt lat="41.94144251236194" lon="12.291978732446955"><ele>31.333333333333336</ele><time>2026-04-17T16:15:46.001Z</time></trkpt><trkpt lat="41.94133491790298" lon="12.291787816706456"><ele>30.0</ele><time>2026-04-17T16:15:47.001Z</time></trkpt><trkpt lat="41.94122658734378" lon="12.291591234197892"><ele>29.666666666666664</ele><time>2026-04-17T16:15:48.001Z</time></trkpt><trkpt lat="41.941113170547254" lon="12.291392870166266"><ele>29.333333333333332</ele><time>2026-04-17T16:15:49.001Z</time></trkpt><trkpt lat="41.940993701441315" lon="12.291190860227223"><ele>29.0</ele><time>2026-04-17T16:15:50.001Z</time></trkpt><trkpt lat="41.940875580178925" lon="12.290987736763173"><ele>28.333333333333332</ele><time>2026-04-17T16:15:51.001Z</time></trkpt><trkpt lat="41.94075968872604" lon="12.290790606804212"><ele>27.666666666666664</ele><time>2026-04-17T16:15:52.001Z</time></trkpt><trkpt lat="41.94065195002199" lon="12.290601486898789"><ele>27.0</ele><time>2026-04-17T16:15:53.001Z</time></trkpt><trkpt lat="41.940546528117025" lon="12.29042212127407"><ele>27.0</ele><time>2026-04-17T16:15:54.001Z</time></trkpt><trkpt lat="41.94045923333914" lon="12.290236641537776"><ele>27.0</ele><time>2026-04-17T16:15:55.001Z</time></trkpt><trkpt lat="41.940361997921634" lon="12.290069813079283"><ele>27.0</ele><time>2026-04-17T16:15:56.001Z</time></trkpt><trkpt lat="41.94025553503503" lon="12.289915450266136"><ele>27.0</ele><time>2026-04-17T16:15:57.001Z</time></trkpt><trkpt lat="41.940161963546764" lon="12.289751745004747"><ele>27.0</ele><time>2026-04-17T16:15:58.001Z</time></trkpt><trkpt lat="41.9400690251218" lon="12.289588894906258"><ele>27.0</ele><time>2026-04-17T16:15:59.001Z</time></trkpt><trkpt lat="41.93997585032841" lon="12.289436524418832"><ele>26.333333333333336</ele><time>2026-04-17T16:16:00Z</time></trkpt><trkpt lat="41.93988467024195" lon="12.289276495806376"><ele>25.666666666666668</ele><time>2026-04-17T16:16:01Z</time></trkpt><trkpt lat="41.93978738894004" lon="12.289107590374764"><ele>25.0</ele><time>2026-04-17T16:16:02Z</time></trkpt><trkpt lat="41.93968360743747" lon="12.288933564242546"><ele>25.666666666666668</ele><time>2026-04-17T16:16:03Z</time></trkpt><trkpt lat="41.93957772256775" lon="12.28875096062456"><ele>26.333333333333336</ele><time>2026-04-17T16:16:04Z</time></trkpt><trkpt lat="41.93947059234042" lon="12.28856452052994"><ele>27.0</ele><time>2026-04-17T16:16:05Z</time></trkpt><trkpt lat="41.9393622878672" lon="12.288379984653671"><ele>27.0</ele><time>2026-04-17T16:16:06Z</time></trkpt><trkpt lat="41.93925686790703" lon="12.288193627653884"><ele>27.0</ele><time>2026-04-17T16:16:07Z</time></trkpt><trkpt lat="41.93915227929132" lon="12.2880071654225"><ele>27.0</ele><time>2026-04-17T16:16:08Z</time></trkpt><trkpt lat="41.93904217868987" lon="12.287821255758361"><ele>27.666666666666664</ele><time>2026-04-17T16:16:09Z</time></trkpt><trkpt lat="41.938926725462565" lon="12.287632473226536"><ele>28.333333333333332</ele><time>2026-04-17T16:16:10Z</time></trkpt><trkpt lat="41.93880938955263" lon="12.287452201480955"><ele>29.0</ele><time>2026-04-17T16:16:11Z</time></trkpt><trkpt lat="41.93868490202497" lon="12.287269435088843"><ele>28.0</ele><time>2026-04-17T16:16:12Z</time></trkpt><trkpt lat="41.938564918446936" lon="12.287103713664866"><ele>27.0</ele><time>2026-04-17T16:16:13Z</time></trkpt><trkpt lat="41.938445822599284" lon="12.286938401716485"><ele>26.0</ele><time>2026-04-17T16:16:14Z</time></trkpt><trkpt lat="41.93831376763442" lon="12.28677003194438"><ele>26.0</ele><time>2026-04-17T16:16:15Z</time></trkpt><trkpt lat="41.93817171052129" lon="12.286606462400657"><ele>26.0</ele><time>2026-04-17T16:16:16Z</time></trkpt><trkpt lat="41.9380185759037" lon="12.286451659026461"><ele>26.0</ele><time>2026-04-17T16:16:17Z</time></trkpt><trkpt lat="41.93785752184762" lon="12.286295357415977"><ele>26.666666666666664</ele><time>2026-04-17T16:16:18Z</time></trkpt><trkpt lat="41.93769114084642" lon="12.28613977761913"><ele>27.333333333333336</ele><time>2026-04-17T16:16:19Z</time></trkpt><trkpt lat="41.937516427539364" lon="12.28598280794853"><ele>28.0</ele><time>2026-04-17T16:16:20Z</time></trkpt><trkpt lat="41.93733520691472" lon="12.28581700278253"><ele>28.0</ele><time>2026-04-17T16:16:21Z</time></trkpt><trkpt lat="41.937147929056486" lon="12.285652849718998"><ele>28.0</ele><time>2026-04-17T16:16:22Z</time></trkpt><trkpt lat="41.93696609079358" lon="12.285492716360489"><ele>28.0</ele><time>2026-04-17T16:16:23Z</time></trkpt><trkpt lat="41.93678946797439" lon="12.285346319806669"><ele>27.333333333333336</ele><time>2026-04-17T16:16:24Z</time></trkpt><trkpt lat="41.936644462677236" lon="12.285130416900707"><ele>26.666666666666664</ele><time>2026-04-17T16:16:25Z</time></trkpt><trkpt lat="41.936515507912354" lon="12.285032639998251"><ele>26.0</ele><time>2026-04-17T16:16:26Z</time></trkpt><trkpt lat="41.93637853187382" lon="12.284900309078278"><ele>26.0</ele><time>2026-04-17T16:16:27Z</time></trkpt><trkpt lat="41.93625715337952" lon="12.284783624872532"><ele>26.0</ele><time>2026-04-17T16:16:28Z</time></trkpt><trkpt lat="41.936145497935954" lon="12.284683829922882"><ele>26.0</ele><time>2026-04-17T16:16:29Z</time></trkpt><trkpt lat="41.936057726414276" lon="12.284573047086898"><ele>26.0</ele><time>2026-04-17T16:16:30Z</time></trkpt><trkpt lat="41.9359601159313" lon="12.284506263822896"><ele>26.200000000000003</ele><time>2026-04-17T16:16:31Z</time></trkpt><trkpt lat="41.935885011992255" lon="12.284423965667452"><ele>26.400000000000002</ele><time>2026-04-17T16:16:32Z</time></trkpt><trkpt lat="41.93580413893467" lon="12.284354121905308"><ele>26.6</ele><time>2026-04-17T16:16:33Z</time></trkpt><trkpt lat="41.93572456868551" lon="12.28427222582222"><ele>26.8</ele><time>2026-04-17T16:16:34Z</time></trkpt><trkpt lat="41.935640430885435" lon="12.284189011959906"><ele>27.0</ele><time>2026-04-17T16:16:35Z</time></trkpt><trkpt lat="41.935536469611705" lon="12.28410586805452"><ele>27.0</ele><time>2026-04-17T16:16:36Z</time></trkpt><trkpt lat="41.93539132203705" lon="12.284035513587384"><ele>27.0</ele><time>2026-04-17T16:16:37Z</time></trkpt><trkpt lat="41.93522440531725" lon="12.283980602048407"><ele>27.0</ele><time>2026-04-17T16:16:38Z</time></trkpt><trkpt lat="41.93505271530994" lon="12.283949198372802"><ele>27.0</ele><time>2026-04-17T16:16:38.999Z</time></trkpt><trkpt lat="41.93487107799911" lon="12.283942360125279"><ele>27.0</ele><time>2026-04-17T16:16:39.999Z</time></trkpt><trkpt lat="41.9346849080296" lon="12.283924155906302"><ele>27.0</ele><time>2026-04-17T16:16:40.999Z</time></trkpt><trkpt lat="41.93450673022832" lon="12.283903543231329"><ele>30.0</ele><time>2026-04-17T16:16:41.999Z</time></trkpt><trkpt lat="41.93434284192248" lon="12.28389888698025"><ele>33.0</ele><time>2026-04-17T16:16:42.999Z</time></trkpt><trkpt lat="41.93418843245009" lon="12.283894797794142"><ele>36.0</ele><time>2026-04-17T16:16:43.999Z</time></trkpt><trkpt lat="41.93405231991179" lon="12.283868885113813"><ele>36.0</ele><time>2026-04-17T16:16:44.999Z</time></trkpt><trkpt lat="41.93393313643657" lon="12.283797538939526"><ele>36.0</ele><time>2026-04-17T16:16:45.999Z</time></trkpt><trkpt lat="41.93381375994947" lon="12.283725480258546"><ele>36.0</ele><time>2026-04-17T16:16:46.999Z</time></trkpt><trkpt lat="41.93370155402615" lon="12.28365191775352"><ele>36.0</ele><time>2026-04-17T16:16:47.999Z</time></trkpt><trkpt lat="41.93359336380359" lon="12.283541387968091"><ele>36.0</ele><time>2026-04-17T16:16:48.999Z</time></trkpt><trkpt lat="41.93350716496013" lon="12.28338539972552"><ele>36.0</ele><time>2026-04-17T16:16:49.999Z</time></trkpt><trkpt lat="41.93339843340866" lon="12.283234499172245"><ele>36.0</ele><time>2026-04-17T16:16:50.999Z</time></trkpt><trkpt lat="41.93330507490835" lon="12.283050780977794"><ele>34.0</ele><time>2026-04-17T16:16:51.999Z</time></trkpt><trkpt lat="41.93320254636948" lon="12.282859768299787"><ele>32.0</ele><time>2026-04-17T16:16:52.999Z</time></trkpt><trkpt lat="41.933100757271916" lon="12.282675813151895"><ele>30.0</ele><time>2026-04-17T16:16:53.999Z</time></trkpt><trkpt lat="41.93302296557869" lon="12.282500827186732"><ele>30.0</ele><time>2026-04-17T16:16:54.999Z</time></trkpt><trkpt lat="41.93294389361249" lon="12.282341005705781"><ele>30.0</ele><time>2026-04-17T16:16:55.999Z</time></trkpt><trkpt lat="41.932860984617875" lon="12.282168889348968"><ele>30.0</ele><time>2026-04-17T16:16:56.999Z</time></trkpt><trkpt lat="41.93276951282376" lon="12.281985912594235"><ele>30.0</ele><time>2026-04-17T16:16:57.999Z</time></trkpt><trkpt lat="41.93272475223999" lon="12.28177635312338"><ele>30.0</ele><time>2026-04-17T16:16:58.999Z</time></trkpt><trkpt lat="41.93267804419752" lon="12.281586522107268"><ele>30.0</ele><time>2026-04-17T16:16:59.999Z</time></trkpt><trkpt lat="41.932620762124465" lon="12.281409093468637"><ele>30.0</ele><time>2026-04-17T16:17:00.999Z</time></trkpt><trkpt lat="41.93260733881006" lon="12.281209205660403"><ele>30.0</ele><time>2026-04-17T16:17:01.999Z</time></trkpt><trkpt lat="41.932576429869165" lon="12.281040004034518"><ele>30.0</ele><time>2026-04-17T16:17:02.999Z</time></trkpt><trkpt lat="41.93253066526432" lon="12.280898850313086"><ele>30.0</ele><time>2026-04-17T16:17:03.999Z</time></trkpt><trkpt lat="41.9324885123855" lon="12.280763952839143"><ele>29.6</ele><time>2026-04-17T16:17:04.999Z</time></trkpt><trkpt lat="41.93243759383766" lon="12.280639523821185"><ele>29.2</ele><time>2026-04-17T16:17:05.999Z</time></trkpt><trkpt lat="41.932376717648914" lon="12.280533346764313"><ele>28.799999999999997</ele><time>2026-04-17T16:17:06.999Z</time></trkpt><trkpt lat="41.93229514787879" lon="12.280459788468765"><ele>28.4</ele><time>2026-04-17T16:17:07.999Z</time></trkpt><trkpt lat="41.93220342241388" lon="12.280421846029688"><ele>28.0</ele><time>2026-04-17T16:17:08.999Z</time></trkpt><trkpt lat="41.93209670332369" lon="12.2804179759732"><ele>28.0</ele><time>2026-04-17T16:17:09.999Z</time></trkpt><trkpt lat="41.931985999842304" lon="12.280386754393517"><ele>28.0</ele><time>2026-04-17T16:17:10.999Z</time></trkpt><trkpt lat="41.931867621521405" lon="12.28034986741009"><ele>28.0</ele><time>2026-04-17T16:17:11.999Z</time></trkpt><trkpt lat="41.93176036792052" lon="12.280264686527872"><ele>28.0</ele><time>2026-04-17T16:17:12.999Z</time></trkpt><trkpt lat="41.93168280722367" lon="12.280146507552484"><ele>28.25</ele><time>2026-04-17T16:17:13.999Z</time></trkpt><trkpt lat="41.931583436447305" lon="12.280033075828804"><ele>28.5</ele><time>2026-04-17T16:17:14.999Z</time></trkpt><trkpt lat="41.93148754822976" lon="12.279876712433222"><ele>28.75</ele><time>2026-04-17T16:17:15.999Z</time></trkpt><trkpt lat="41.931384770761404" lon="12.279706123450369"><ele>29.0</ele><time>2026-04-17T16:17:16.999Z</time></trkpt><trkpt lat="41.93127215026207" lon="12.279520869476192"><ele>30.666666666666664</ele><time>2026-04-17T16:17:17.999Z</time></trkpt><trkpt lat="41.93115299154202" lon="12.279333145278665"><ele>32.333333333333336</ele><time>2026-04-17T16:17:18.999Z</time></trkpt><trkpt lat="41.93103384535868" lon="12.279144026659548"><ele>34.0</ele><time>2026-04-17T16:17:19.999Z</time></trkpt><trkpt lat="41.93091255405763" lon="12.27894489409707"><ele>32.0</ele><time>2026-04-17T16:17:20.999Z</time></trkpt><trkpt lat="41.930787193503775" lon="12.278741409631005"><ele>30.0</ele><time>2026-04-17T16:17:21.998Z</time></trkpt><trkpt lat="41.93065495152648" lon="12.278537496217277"><ele>28.0</ele><time>2026-04-17T16:17:22.998Z</time></trkpt><trkpt lat="41.93052309962014" lon="12.278328504615205"><ele>28.0</ele><time>2026-04-17T16:17:23.998Z</time></trkpt><trkpt lat="41.930390641106875" lon="12.278114541537564"><ele>28.0</ele><time>2026-04-17T16:17:24.998Z</time></trkpt><trkpt lat="41.93025528496921" lon="12.277895100924171"><ele>28.0</ele><time>2026-04-17T16:17:25.998Z</time></trkpt><trkpt lat="41.93012027889384" lon="12.27768052919461"><ele>27.666666666666668</ele><time>2026-04-17T16:17:26.998Z</time></trkpt><trkpt lat="41.92999635544782" lon="12.277480047070048"><ele>27.333333333333336</ele><time>2026-04-17T16:17:27.998Z</time></trkpt><trkpt lat="41.92986976811659" lon="12.277275926456197"><ele>27.0</ele><time>2026-04-17T16:17:28.998Z</time></trkpt><trkpt lat="41.929744298000834" lon="12.277072139090563"><ele>29.0</ele><time>2026-04-17T16:17:29.998Z</time></trkpt><trkpt lat="41.92961718120353" lon="12.276867427674983"><ele>31.0</ele><time>2026-04-17T16:17:30.998Z</time></trkpt><trkpt lat="41.929495538119596" lon="12.276683696489089"><ele>33.0</ele><time>2026-04-17T16:17:31.998Z</time></trkpt><trkpt lat="41.92937449813055" lon="12.276506804638743"><ele>33.333333333333336</ele><time>2026-04-17T16:17:32.998Z</time></trkpt><trkpt lat="41.92925174988828" lon="12.276346767921288"><ele>33.66666666666667</ele><time>2026-04-17T16:17:33.998Z</time></trkpt><trkpt lat="41.929118486951616" lon="12.276203509639101"><ele>34.0</ele><time>2026-04-17T16:17:34.998Z</time></trkpt><trkpt lat="41.928975457391964" lon="12.276075079342704"><ele>34.0</ele><time>2026-04-17T16:17:35.998Z</time></trkpt><trkpt lat="41.9288230746882" lon="12.275953159343855"><ele>34.0</ele><time>2026-04-17T16:17:36.998Z</time></trkpt><trkpt lat="41.92865955014205" lon="12.275835002526353"><ele>34.0</ele><time>2026-04-17T16:17:37.998Z</time></trkpt><trkpt lat="41.92850669644438" lon="12.275719118302945"><ele>33.66666666666667</ele><time>2026-04-17T16:17:38.998Z</time></trkpt><trkpt lat="41.928365945154916" lon="12.275607341724225"><ele>33.333333333333336</ele><time>2026-04-17T16:17:39.998Z</time></trkpt><trkpt lat="41.92823402774365" lon="12.27549194827554"><ele>33.0</ele><time>2026-04-17T16:17:40.998Z</time></trkpt><trkpt lat="41.9281078523991" lon="12.27536293877704"><ele>33.0</ele><time>2026-04-17T16:17:41.998Z</time></trkpt><trkpt lat="41.92797982144394" lon="12.275221895497575"><ele>33.0</ele><time>2026-04-17T16:17:42.998Z</time></trkpt><trkpt lat="41.92785125846876" lon="12.275056845686596"><ele>33.0</ele><time>2026-04-17T16:17:44.001Z</time></trkpt><trkpt lat="41.927726825853156" lon="12.274872729372381"><ele>32.333333333333336</ele><time>2026-04-17T16:17:45.001Z</time></trkpt><trkpt lat="41.927591805576654" lon="12.274673683552917"><ele>31.666666666666668</ele><time>2026-04-17T16:17:46.001Z</time></trkpt><trkpt lat="41.92745710492903" lon="12.274468258224418"><ele>31.0</ele><time>2026-04-17T16:17:47.001Z</time></trkpt><trkpt lat="41.9273192371258" lon="12.274258081636436"><ele>31.0</ele><time>2026-04-17T16:17:48.001Z</time></trkpt><trkpt lat="41.92718669739941" lon="12.274056003555947"><ele>31.0</ele><time>2026-04-17T16:17:49.001Z</time></trkpt><trkpt lat="41.92706303465407" lon="12.27387033048284"><ele>31.0</ele><time>2026-04-17T16:17:50.001Z</time></trkpt><trkpt lat="41.92695029847782" lon="12.273699688694078"><ele>31.0</ele><time>2026-04-17T16:17:51.001Z</time></trkpt><trkpt lat="41.926843071888584" lon="12.273533443319062"><ele>31.0</ele><time>2026-04-17T16:17:52.001Z</time></trkpt><trkpt lat="41.926731898761744" lon="12.273361847091705"><ele>31.0</ele><time>2026-04-17T16:17:53.001Z</time></trkpt><trkpt lat="41.92662013828517" lon="12.273187899897595"><ele>31.333333333333336</ele><time>2026-04-17T16:17:54.001Z</time></trkpt><trkpt lat="41.926509150691096" lon="12.273021873815859"><ele>31.666666666666664</ele><time>2026-04-17T16:17:55.001Z</time></trkpt><trkpt lat="41.926404927339924" lon="12.272869322145278"><ele>32.0</ele><time>2026-04-17T16:17:56.001Z</time></trkpt><trkpt lat="41.92631006486483" lon="12.272729012550032"><ele>32.0</ele><time>2026-04-17T16:17:57.001Z</time></trkpt><trkpt lat="41.92622021990952" lon="12.272598106059833"><ele>32.0</ele><time>2026-04-17T16:17:58.001Z</time></trkpt><trkpt lat="41.9261222431466" lon="12.27246245400652"><ele>32.0</ele><time>2026-04-17T16:17:59.001Z</time></trkpt><trkpt lat="41.92600211367167" lon="12.272343411254889"><ele>32.0</ele><time>2026-04-17T16:18:00.001Z</time></trkpt><trkpt lat="41.925863467136224" lon="12.272230996773283"><ele>31.666666666666664</ele><time>2026-04-17T16:18:01Z</time></trkpt><trkpt lat="41.925716849085426" lon="12.272118205374289"><ele>31.333333333333336</ele><time>2026-04-17T16:18:02Z</time></trkpt><trkpt lat="41.92556523394594" lon="12.271999291595705"><ele>31.0</ele><time>2026-04-17T16:18:03Z</time></trkpt><trkpt lat="41.925402855511116" lon="12.27187417710604"><ele>31.0</ele><time>2026-04-17T16:18:04Z</time></trkpt><trkpt lat="41.925234808791835" lon="12.271746239735212"><ele>31.0</ele><time>2026-04-17T16:18:05Z</time></trkpt><trkpt lat="41.92506529537403" lon="12.271609510429322"><ele>31.0</ele><time>2026-04-17T16:18:06Z</time></trkpt><trkpt lat="41.92489071509693" lon="12.27147352253733"><ele>32.0</ele><time>2026-04-17T16:18:07Z</time></trkpt><trkpt lat="41.92470979073914" lon="12.271342254914803"><ele>33.0</ele><time>2026-04-17T16:18:08Z</time></trkpt><trkpt lat="41.924524229952965" lon="12.271203586472227"><ele>34.0</ele><time>2026-04-17T16:18:09Z</time></trkpt><trkpt lat="41.92434393185685" lon="12.271067192015604"><ele>32.66666666666667</ele><time>2026-04-17T16:18:10Z</time></trkpt><trkpt lat="41.92416129069919" lon="12.270931705089179"><ele>31.333333333333336</ele><time>2026-04-17T16:18:11Z</time></trkpt><trkpt lat="41.92398713251495" lon="12.270810516001285"><ele>30.0</ele><time>2026-04-17T16:18:12Z</time></trkpt><trkpt lat="41.92381626073085" lon="12.270702571130771"><ele>30.0</ele><time>2026-04-17T16:18:13Z</time></trkpt><trkpt lat="41.9236354651136" lon="12.27061286166168"><ele>30.0</ele><time>2026-04-17T16:18:14Z</time></trkpt><trkpt lat="41.923448081251465" lon="12.270540848269718"><ele>30.0</ele><time>2026-04-17T16:18:15Z</time></trkpt><trkpt lat="41.923270546488354" lon="12.270479359754917"><ele>33.666666666666664</ele><time>2026-04-17T16:18:16Z</time></trkpt><trkpt lat="41.92311073563754" lon="12.270416605027599"><ele>37.33333333333333</ele><time>2026-04-17T16:18:17Z</time></trkpt><trkpt lat="41.922955458514295" lon="12.27035257417164"><ele>41.0</ele><time>2026-04-17T16:18:18Z</time></trkpt><trkpt lat="41.92281390389538" lon="12.270256317784089"><ele>41.0</ele><time>2026-04-17T16:18:19Z</time></trkpt><trkpt lat="41.92266988256863" lon="12.270160692922873"><ele>41.0</ele><time>2026-04-17T16:18:20Z</time></trkpt><trkpt lat="41.922523992114954" lon="12.270043269864777"><ele>41.0</ele><time>2026-04-17T16:18:21Z</time></trkpt><trkpt lat="41.922377749198574" lon="12.269907189407181"><ele>40.666666666666664</ele><time>2026-04-17T16:18:22Z</time></trkpt><trkpt lat="41.92222800964807" lon="12.269760165233214"><ele>40.333333333333336</ele><time>2026-04-17T16:18:23Z</time></trkpt><trkpt lat="41.92206783123823" lon="12.269623471979035"><ele>40.0</ele><time>2026-04-17T16:18:24Z</time></trkpt><trkpt lat="41.921915580901846" lon="12.269469825164009"><ele>40.0</ele><time>2026-04-17T16:18:25Z</time></trkpt><trkpt lat="41.92176317352175" lon="12.269332600778787"><ele>40.0</ele><time>2026-04-17T16:18:26Z</time></trkpt><trkpt lat="41.92160848405031" lon="12.269225429822027"><ele>40.0</ele><time>2026-04-17T16:18:27Z</time></trkpt><trkpt lat="41.92144758536027" lon="12.269150281010045"><ele>36.0</ele><time>2026-04-17T16:18:28Z</time></trkpt><trkpt lat="41.921278725465854" lon="12.269105540043936"><ele>32.0</ele><time>2026-04-17T16:18:29Z</time></trkpt><trkpt lat="41.92109725305592" lon="12.269086163966023"><ele>28.0</ele><time>2026-04-17T16:18:30Z</time></trkpt><trkpt lat="41.920917849100306" lon="12.269072673920984"><ele>27.333333333333336</ele><time>2026-04-17T16:18:31Z</time></trkpt><trkpt lat="41.92074350071151" lon="12.269013701794963"><ele>26.666666666666664</ele><time>2026-04-17T16:18:32Z</time></trkpt><trkpt lat="41.920570011098086" lon="12.268953334281889"><ele>26.0</ele><time>2026-04-17T16:18:33Z</time></trkpt><trkpt lat="41.92038614473122" lon="12.268876998736175"><ele>26.333333333333332</ele><time>2026-04-17T16:18:34Z</time></trkpt><trkpt lat="41.92019810299376" lon="12.268816102208573"><ele>26.666666666666664</ele><time>2026-04-17T16:18:35Z</time></trkpt><trkpt lat="41.92000803906164" lon="12.268728602528768"><ele>27.0</ele><time>2026-04-17T16:18:36Z</time></trkpt><trkpt lat="41.91981296438055" lon="12.268643333134497"><ele>27.0</ele><time>2026-04-17T16:18:37Z</time></trkpt><trkpt lat="41.91962137027769" lon="12.268567020078196"><ele>27.0</ele><time>2026-04-17T16:18:38Z</time></trkpt><trkpt lat="41.91944914136524" lon="12.268492914936564"><ele>27.0</ele><time>2026-04-17T16:18:39Z</time></trkpt><trkpt lat="41.91928787229738" lon="12.268420531531367"><ele>27.333333333333336</ele><time>2026-04-17T16:18:39.999Z</time></trkpt><trkpt lat="41.91912165679528" lon="12.26835271737173"><ele>27.666666666666668</ele><time>2026-04-17T16:18:40.999Z</time></trkpt><trkpt lat="41.91895083724081" lon="12.268300256327898"><ele>28.0</ele><time>2026-04-17T16:18:41.999Z</time></trkpt><trkpt lat="41.91877265238043" lon="12.26827069034068"><ele>28.0</ele><time>2026-04-17T16:18:42.999Z</time></trkpt><trkpt lat="41.91860834178503" lon="12.268267934797105"><ele>28.0</ele><time>2026-04-17T16:18:43.999Z</time></trkpt><trkpt lat="41.91845852974627" lon="12.268268930900337"><ele>28.0</ele><time>2026-04-17T16:18:44.999Z</time></trkpt><trkpt lat="41.918321242784636" lon="12.26822407098009"><ele>27.333333333333336</ele><time>2026-04-17T16:18:45.999Z</time></trkpt><trkpt lat="41.91818526304798" lon="12.268187716787311"><ele>26.666666666666664</ele><time>2026-04-17T16:18:46.999Z</time></trkpt><trkpt lat="41.91805480858845" lon="12.268077482488664"><ele>26.0</ele><time>2026-04-17T16:18:47.999Z</time></trkpt><trkpt lat="41.91791626626518" lon="12.267970856382421"><ele>24.666666666666664</ele><time>2026-04-17T16:18:48.999Z</time></trkpt><trkpt lat="41.9177698982791" lon="12.267845222899561"><ele>23.333333333333332</ele><time>2026-04-17T16:18:49.999Z</time></trkpt><trkpt lat="41.91761135176829" lon="12.26769980011122"><ele>22.0</ele><time>2026-04-17T16:18:50.999Z</time></trkpt><trkpt lat="41.91744967383549" lon="12.267547295365928"><ele>22.0</ele><time>2026-04-17T16:18:51.999Z</time></trkpt><trkpt lat="41.9172811855259" lon="12.267388393873615"><ele>22.0</ele><time>2026-04-17T16:18:52.999Z</time></trkpt><trkpt lat="41.91711161349501" lon="12.267228961202333"><ele>22.0</ele><time>2026-04-17T16:18:53.999Z</time></trkpt><trkpt lat="41.916941549737444" lon="12.267093303865808"><ele>21.333333333333332</ele><time>2026-04-17T16:18:54.999Z</time></trkpt><trkpt lat="41.91680346178352" lon="12.266932726182041"><ele>20.666666666666668</ele><time>2026-04-17T16:18:55.999Z</time></trkpt><trkpt lat="41.91666216161433" lon="12.26679610868587"><ele>20.0</ele><time>2026-04-17T16:18:56.999Z</time></trkpt><trkpt lat="41.91651848517905" lon="12.266657194846141"><ele>19.666666666666668</ele><time>2026-04-17T16:18:57.999Z</time></trkpt><trkpt lat="41.91637677506876" lon="12.266520181101233"><ele>19.333333333333332</ele><time>2026-04-17T16:18:58.999Z</time></trkpt><trkpt lat="41.91622907310215" lon="12.266377026940566"><ele>19.0</ele><time>2026-04-17T16:18:59.999Z</time></trkpt><trkpt lat="41.91607423137068" lon="12.266251438825972"><ele>19.0</ele><time>2026-04-17T16:19:00.999Z</time></trkpt><trkpt lat="41.91592089068261" lon="12.266104158476182"><ele>19.0</ele><time>2026-04-17T16:19:01.999Z</time></trkpt><trkpt lat="41.915793439047356" lon="12.26595233202232"><ele>19.0</ele><time>2026-04-17T16:19:02.999Z</time></trkpt><trkpt lat="41.915661462889375" lon="12.265823669823634"><ele>19.0</ele><time>2026-04-17T16:19:03.999Z</time></trkpt><trkpt lat="41.91553824312821" lon="12.265703544160788"><ele>19.0</ele><time>2026-04-17T16:19:04.999Z</time></trkpt><trkpt lat="41.91542498416024" lon="12.265595288145933"><ele>19.0</ele><time>2026-04-17T16:19:05.999Z</time></trkpt><trkpt lat="41.91531908666524" lon="12.265498720383265"><ele>19.0</ele><time>2026-04-17T16:19:06.999Z</time></trkpt><trkpt lat="41.91520193547655" lon="12.265424005300385"><ele>19.0</ele><time>2026-04-17T16:19:07.999Z</time></trkpt><trkpt lat="41.915076754369814" lon="12.265392214470582"><ele>19.0</ele><time>2026-04-17T16:19:08.999Z</time></trkpt><trkpt lat="41.91495419974428" lon="12.265360757654054"><ele>19.0</ele><time>2026-04-17T16:19:09.999Z</time></trkpt><trkpt lat="41.914823222977155" lon="12.265365125865717"><ele>19.0</ele><time>2026-04-17T16:19:10.999Z</time></trkpt><trkpt lat="41.91469510126729" lon="12.26538354220414"><ele>18.75</ele><time>2026-04-17T16:19:11.999Z</time></trkpt><trkpt lat="41.91457470250952" lon="12.265386829850476"><ele>18.5</ele><time>2026-04-17T16:19:12.999Z</time></trkpt><trkpt lat="41.914467206614724" lon="12.265382119287027"><ele>18.25</ele><time>2026-04-17T16:19:13.999Z</time></trkpt><trkpt lat="41.91435107522069" lon="12.265355509379905"><ele>18.0</ele><time>2026-04-17T16:19:14.999Z</time></trkpt><trkpt lat="41.91423644549428" lon="12.265307738225204"><ele>18.0</ele><time>2026-04-17T16:19:15.999Z</time></trkpt><trkpt lat="41.91413119627118" lon="12.26523906607797"><ele>18.0</ele><time>2026-04-17T16:19:16.999Z</time></trkpt><trkpt lat="41.91402551024055" lon="12.265122234607592"><ele>18.0</ele><time>2026-04-17T16:19:17.999Z</time></trkpt><trkpt lat="41.91392720369542" lon="12.26497329294574"><ele>18.0</ele><time>2026-04-17T16:19:18.999Z</time></trkpt><trkpt lat="41.91383008947019" lon="12.264795293815121"><ele>18.25</ele><time>2026-04-17T16:19:19.999Z</time></trkpt><trkpt lat="41.913739414868864" lon="12.264609272699529"><ele>18.5</ele><time>2026-04-17T16:19:20.999Z</time></trkpt><trkpt lat="41.9136057651968" lon="12.26456353621043"><ele>18.75</ele><time>2026-04-17T16:19:21.998Z</time></trkpt><trkpt lat="41.913509568604006" lon="12.26444201584089"><ele>19.0</ele><time>2026-04-17T16:19:22.998Z</time></trkpt><trkpt lat="41.91340747395668" lon="12.2643407725919"><ele>19.0</ele><time>2026-04-17T16:19:23.998Z</time></trkpt><trkpt lat="41.9133040533229" lon="12.264270354467444"><ele>19.0</ele><time>2026-04-17T16:19:24.998Z</time></trkpt><trkpt lat="41.91319303702133" lon="12.26423278088576"><ele>19.0</ele><time>2026-04-17T16:19:25.998Z</time></trkpt><trkpt lat="41.91307548662982" lon="12.26423995211332"><ele>19.0</ele><time>2026-04-17T16:19:26.998Z</time></trkpt><trkpt lat="41.91294610167699" lon="12.264293201708547"><ele>19.0</ele><time>2026-04-17T16:19:27.998Z</time></trkpt><trkpt lat="41.91281034977226" lon="12.264375179690104"><ele>19.0</ele><time>2026-04-17T16:19:28.998Z</time></trkpt><trkpt lat="41.91266724435166" lon="12.264471433230012"><ele>19.0</ele><time>2026-04-17T16:19:29.998Z</time></trkpt><trkpt lat="41.91251874093003" lon="12.264542441981277"><ele>18.333333333333332</ele><time>2026-04-17T16:19:30.998Z</time></trkpt><trkpt lat="41.912367030963935" lon="12.264546574988138"><ele>17.666666666666668</ele><time>2026-04-17T16:19:31.998Z</time></trkpt><trkpt lat="41.912209478656905" lon="12.264536319316656"><ele>17.0</ele><time>2026-04-17T16:19:32.998Z</time></trkpt><trkpt lat="41.912041723407846" lon="12.264523179378404"><ele>17.0</ele><time>2026-04-17T16:19:33.998Z</time></trkpt><trkpt lat="41.911864619863664" lon="12.264529902212837"><ele>17.0</ele><time>2026-04-17T16:19:34.998Z</time></trkpt><trkpt lat="41.911682961983544" lon="12.264516000316377"><ele>17.0</ele><time>2026-04-17T16:19:35.998Z</time></trkpt><trkpt lat="41.911503831311535" lon="12.26450034545787"><ele>17.0</ele><time>2026-04-17T16:19:36.998Z</time></trkpt><trkpt lat="41.91132132688202" lon="12.264487317876359"><ele>17.0</ele><time>2026-04-17T16:19:37.998Z</time></trkpt><trkpt lat="41.91113608054806" lon="12.264475777492864"><ele>17.0</ele><time>2026-04-17T16:19:38.998Z</time></trkpt><trkpt lat="41.91094982870999" lon="12.264458091438659"><ele>17.333333333333336</ele><time>2026-04-17T16:19:39.998Z</time></trkpt><trkpt lat="41.910761844115875" lon="12.264444639636832"><ele>17.666666666666668</ele><time>2026-04-17T16:19:40.998Z</time></trkpt><trkpt lat="41.910574963355565" lon="12.264432423161884"><ele>18.0</ele><time>2026-04-17T16:19:41.998Z</time></trkpt><trkpt lat="41.910387489240016" lon="12.26442355230082"><ele>18.0</ele><time>2026-04-17T16:19:42.998Z</time></trkpt><trkpt lat="41.91021905186561" lon="12.26440387692311"><ele>18.0</ele><time>2026-04-17T16:19:43.998Z</time></trkpt><trkpt lat="41.910057654576484" lon="12.264375388112626"><ele>18.0</ele><time>2026-04-17T16:19:44.998Z</time></trkpt><trkpt lat="41.90990788417464" lon="12.264332055363685"><ele>18.25</ele><time>2026-04-17T16:19:45.998Z</time></trkpt><trkpt lat="41.9097646770265" lon="12.264264287062698"><ele>18.5</ele><time>2026-04-17T16:19:46.998Z</time></trkpt><trkpt lat="41.90963055983916" lon="12.264179507351761"><ele>18.75</ele><time>2026-04-17T16:19:47.998Z</time></trkpt><trkpt lat="41.909504273298964" lon="12.264073581410189"><ele>19.0</ele><time>2026-04-17T16:19:48.998Z</time></trkpt><trkpt lat="41.90940035724163" lon="12.26394704642147"><ele>19.25</ele><time>2026-04-17T16:19:50.001Z</time></trkpt><trkpt lat="41.90931227039892" lon="12.263800622641401"><ele>19.5</ele><time>2026-04-17T16:19:51.001Z</time></trkpt><trkpt lat="41.90927701807315" lon="12.26362494389034"><ele>19.75</ele><time>2026-04-17T16:19:52.001Z</time></trkpt><trkpt lat="41.909217647050234" lon="12.26348040899265"><ele>20.0</ele><time>2026-04-17T16:19:53.001Z</time></trkpt><trkpt lat="41.90916055691965" lon="12.263337637331807"><ele>20.0</ele><time>2026-04-17T16:19:54.001Z</time></trkpt><trkpt lat="41.90910374850715" lon="12.263216969942901"><ele>20.0</ele><time>2026-04-17T16:19:55.001Z</time></trkpt><trkpt lat="41.90905930825007" lon="12.263098526892469"><ele>20.0</ele><time>2026-04-17T16:19:56.001Z</time></trkpt><trkpt lat="41.90901323246514" lon="12.262979813212198"><ele>20.0</ele><time>2026-04-17T16:19:57.001Z</time></trkpt><trkpt lat="41.908970870419154" lon="12.262865903777035"><ele>20.0</ele><time>2026-04-17T16:19:58.001Z</time></trkpt><trkpt lat="41.90892328837404" lon="12.262734197616986"><ele>20.4</ele><time>2026-04-17T16:19:59.001Z</time></trkpt><trkpt lat="41.90887872522045" lon="12.26260106134426"><ele>20.8</ele><time>2026-04-17T16:20:00.001Z</time></trkpt><trkpt lat="41.9088297599716" lon="12.262469838540305"><ele>21.200000000000003</ele><time>2026-04-17T16:20:01Z</time></trkpt><trkpt lat="41.90878866580051" lon="12.262343312128433"><ele>21.6</ele><time>2026-04-17T16:20:02Z</time></trkpt><trkpt lat="41.90872351033701" lon="12.26224195879242"><ele>22.0</ele><time>2026-04-17T16:20:03Z</time></trkpt><trkpt lat="41.90863521353012" lon="12.262171733123143"><ele>22.5</ele><time>2026-04-17T16:20:04Z</time></trkpt><trkpt lat="41.90853486214579" lon="12.262123183964212"><ele>23.0</ele><time>2026-04-17T16:20:05Z</time></trkpt><trkpt lat="41.90843876629471" lon="12.262050727520297"><ele>23.5</ele><time>2026-04-17T16:20:06Z</time></trkpt><trkpt lat="41.9083447636887" lon="12.261966974998952"><ele>24.0</ele><time>2026-04-17T16:20:07Z</time></trkpt><trkpt lat="41.90824508305771" lon="12.26187529711719"><ele>24.0</ele><time>2026-04-17T16:20:08Z</time></trkpt><trkpt lat="41.90812975111339" lon="12.261735390828154"><ele>24.0</ele><time>2026-04-17T16:20:09Z</time></trkpt><trkpt lat="41.90798944237792" lon="12.261622954179433"><ele>24.0</ele><time>2026-04-17T16:20:10Z</time></trkpt><trkpt lat="41.907842485423615" lon="12.26150617219699"><ele>24.333333333333336</ele><time>2026-04-17T16:20:11Z</time></trkpt><trkpt lat="41.9076781380937" lon="12.261402416762602"><ele>24.666666666666668</ele><time>2026-04-17T16:20:12Z</time></trkpt><trkpt lat="41.90751172948169" lon="12.26130199696345"><ele>25.0</ele><time>2026-04-17T16:20:13Z</time></trkpt><trkpt lat="41.90734191955326" lon="12.261205946881832"><ele>25.0</ele><time>2026-04-17T16:20:14Z</time></trkpt><trkpt lat="41.90716655002358" lon="12.261112734808616"><ele>25.0</ele><time>2026-04-17T16:20:15Z</time></trkpt><trkpt lat="41.90699081222722" lon="12.261016669913737"><ele>25.0</ele><time>2026-04-17T16:20:16Z</time></trkpt><trkpt lat="41.906818364958056" lon="12.260923715634584"><ele>23.666666666666668</ele><time>2026-04-17T16:20:17Z</time></trkpt><trkpt lat="41.906645822776994" lon="12.260832410781392"><ele>22.333333333333336</ele><time>2026-04-17T16:20:18Z</time></trkpt><trkpt lat="41.9064746088818" lon="12.260743088429543"><ele>21.0</ele><time>2026-04-17T16:20:19Z</time></trkpt><trkpt lat="41.906311752774236" lon="12.260657568639983"><ele>22.0</ele><time>2026-04-17T16:20:20Z</time></trkpt><trkpt lat="41.9061498726304" lon="12.260577857236363"><ele>23.0</ele><time>2026-04-17T16:20:21Z</time></trkpt><trkpt lat="41.90598655239981" lon="12.260492937606402"><ele>24.0</ele><time>2026-04-17T16:20:22Z</time></trkpt><trkpt lat="41.90582634366564" lon="12.260404183242617"><ele>24.0</ele><time>2026-04-17T16:20:23Z</time></trkpt><trkpt lat="41.90567238087198" lon="12.260318909184582"><ele>24.0</ele><time>2026-04-17T16:20:24Z</time></trkpt><trkpt lat="41.9055150330027" lon="12.260257409578088"><ele>24.0</ele><time>2026-04-17T16:20:25Z</time></trkpt><trkpt lat="41.905358194831415" lon="12.260226148738555"><ele>24.0</ele><time>2026-04-17T16:20:26Z</time></trkpt><trkpt lat="41.90519885751637" lon="12.260223308448335"><ele>24.0</ele><time>2026-04-17T16:20:27Z</time></trkpt><trkpt lat="41.90503339997861" lon="12.260244929622775"><ele>24.0</ele><time>2026-04-17T16:20:28Z</time></trkpt><trkpt lat="41.90486213788702" lon="12.260279842981324"><ele>22.666666666666668</ele><time>2026-04-17T16:20:29Z</time></trkpt><trkpt lat="41.9046925819621" lon="12.260305323216272"><ele>21.333333333333336</ele><time>2026-04-17T16:20:30Z</time></trkpt><trkpt lat="41.904514680312815" lon="12.260330498061537"><ele>20.0</ele><time>2026-04-17T16:20:31Z</time></trkpt><trkpt lat="41.904339503579195" lon="12.26035900708278"><ele>19.666666666666668</ele><time>2026-04-17T16:20:32Z</time></trkpt><trkpt lat="41.90416849536478" lon="12.260384934168092"><ele>19.333333333333332</ele><time>2026-04-17T16:20:33Z</time></trkpt><trkpt lat="41.90401220635945" lon="12.26040641703774"><ele>19.0</ele><time>2026-04-17T16:20:34Z</time></trkpt><trkpt lat="41.903854440469296" lon="12.260428580037502"><ele>19.0</ele><time>2026-04-17T16:20:35Z</time></trkpt><trkpt lat="41.90368563217144" lon="12.260448897907237"><ele>19.0</ele><time>2026-04-17T16:20:36Z</time></trkpt><trkpt lat="41.90352843593505" lon="12.26045050652249"><ele>19.0</ele><time>2026-04-17T16:20:37Z</time></trkpt><trkpt lat="41.90336894052358" lon="12.260437814905405"><ele>18.666666666666664</ele><time>2026-04-17T16:20:38Z</time></trkpt><trkpt lat="41.90321578128187" lon="12.26041453333661"><ele>18.333333333333332</ele><time>2026-04-17T16:20:39Z</time></trkpt><trkpt lat="41.90305617013906" lon="12.260354854056775"><ele>18.0</ele><time>2026-04-17T16:20:39.999Z</time></trkpt><trkpt lat="41.902887633677665" lon="12.26028631960456"><ele>18.0</ele><time>2026-04-17T16:20:40.999Z</time></trkpt><trkpt lat="41.90272367534906" lon="12.260185833624718"><ele>18.0</ele><time>2026-04-17T16:20:41.999Z</time></trkpt><trkpt lat="41.902556449782296" lon="12.26010453594564"><ele>18.0</ele><time>2026-04-17T16:20:42.999Z</time></trkpt><trkpt lat="41.90238646675159" lon="12.26002189765179"><ele>19.0</ele><time>2026-04-17T16:20:43.999Z</time></trkpt><trkpt lat="41.902205939857375" lon="12.25993438809527"><ele>20.0</ele><time>2026-04-17T16:20:44.999Z</time></trkpt><trkpt lat="41.90202578795386" lon="12.259846416977796"><ele>21.0</ele><time>2026-04-17T16:20:45.999Z</time></trkpt><trkpt lat="41.901847816983164" lon="12.259758268707012"><ele>23.333333333333336</ele><time>2026-04-17T16:20:46.999Z</time></trkpt><trkpt lat="41.9016803488678" lon="12.259694671498579"><ele>25.666666666666668</ele><time>2026-04-17T16:20:47.999Z</time></trkpt><trkpt lat="41.901518371031756" lon="12.259600385430526"><ele>28.0</ele><time>2026-04-17T16:20:48.999Z</time></trkpt><trkpt lat="41.90135213906875" lon="12.259511788096647"><ele>28.0</ele><time>2026-04-17T16:20:49.999Z</time></trkpt><trkpt lat="41.901197448015736" lon="12.25941309552201"><ele>28.0</ele><time>2026-04-17T16:20:50.999Z</time></trkpt><trkpt lat="41.90105850050293" lon="12.25932645550115"><ele>28.0</ele><time>2026-04-17T16:20:51.999Z</time></trkpt><trkpt lat="41.90092623667882" lon="12.259238859590164"><ele>25.333333333333336</ele><time>2026-04-17T16:20:52.999Z</time></trkpt><trkpt lat="41.90078615282175" lon="12.259153986838394"><ele>22.666666666666668</ele><time>2026-04-17T16:20:53.999Z</time></trkpt><trkpt lat="41.900637669025734" lon="12.259056027856571"><ele>20.0</ele><time>2026-04-17T16:20:54.999Z</time></trkpt><trkpt lat="41.90047927069337" lon="12.258956309965948"><ele>21.0</ele><time>2026-04-17T16:20:55.999Z</time></trkpt><trkpt lat="41.90031147227739" lon="12.25885605048994"><ele>22.0</ele><time>2026-04-17T16:20:56.999Z</time></trkpt><trkpt lat="41.90013987994687" lon="12.258754878648976"><ele>23.0</ele><time>2026-04-17T16:20:57.999Z</time></trkpt><trkpt lat="41.899969267545" lon="12.258648622874263"><ele>21.0</ele><time>2026-04-17T16:20:58.999Z</time></trkpt><trkpt lat="41.89979263282812" lon="12.258539172397246"><ele>19.0</ele><time>2026-04-17T16:20:59.999Z</time></trkpt><trkpt lat="41.89961998031723" lon="12.258430901786525"><ele>17.0</ele><time>2026-04-17T16:21:00.999Z</time></trkpt><trkpt lat="41.899439938352494" lon="12.258321855175929"><ele>17.0</ele><time>2026-04-17T16:21:01.999Z</time></trkpt><trkpt lat="41.89926545060538" lon="12.25820835407393"><ele>17.0</ele><time>2026-04-17T16:21:02.999Z</time></trkpt><trkpt lat="41.89908729490144" lon="12.258092707776598"><ele>17.0</ele><time>2026-04-17T16:21:03.999Z</time></trkpt><trkpt lat="41.89890844147879" lon="12.257981056750099"><ele>16.333333333333336</ele><time>2026-04-17T16:21:04.999Z</time></trkpt><trkpt lat="41.898734228542125" lon="12.25787312850787"><ele>15.666666666666668</ele><time>2026-04-17T16:21:05.999Z</time></trkpt><trkpt lat="41.89855608050779" lon="12.25776241141851"><ele>15.0</ele><time>2026-04-17T16:21:06.999Z</time></trkpt><trkpt lat="41.89837778184935" lon="12.257652394547119"><ele>15.0</ele><time>2026-04-17T16:21:07.999Z</time></trkpt><trkpt lat="41.89820126614773" lon="12.257542258692238"><ele>15.0</ele><time>2026-04-17T16:21:08.999Z</time></trkpt><trkpt lat="41.89802999867906" lon="12.257440517550952"><ele>15.0</ele><time>2026-04-17T16:21:09.999Z</time></trkpt><trkpt lat="41.897874178136846" lon="12.25734434314926"><ele>14.666666666666668</ele><time>2026-04-17T16:21:10.999Z</time></trkpt><trkpt lat="41.89772677960575" lon="12.257252091025187"><ele>14.333333333333334</ele><time>2026-04-17T16:21:11.999Z</time></trkpt><trkpt lat="41.89757836364376" lon="12.257159731956417"><ele>14.0</ele><time>2026-04-17T16:21:12.999Z</time></trkpt><trkpt lat="41.897425783618644" lon="12.257064867995227"><ele>14.0</ele><time>2026-04-17T16:21:13.999Z</time></trkpt><trkpt lat="41.89727132837949" lon="12.256969310667895"><ele>14.0</ele><time>2026-04-17T16:21:14.999Z</time></trkpt><trkpt lat="41.8971100099206" lon="12.256872743978683"><ele>14.0</ele><time>2026-04-17T16:21:15.999Z</time></trkpt><trkpt lat="41.896948506171846" lon="12.25677603973234"><ele>14.0</ele><time>2026-04-17T16:21:16.999Z</time></trkpt><trkpt lat="41.89679745050708" lon="12.256681014922215"><ele>14.0</ele><time>2026-04-17T16:21:17.999Z</time></trkpt><trkpt lat="41.896653380513555" lon="12.256585920634091"><ele>14.0</ele><time>2026-04-17T16:21:18.999Z</time></trkpt><trkpt lat="41.8965092333115" lon="12.256489807894202"><ele>13.666666666666668</ele><time>2026-04-17T16:21:19.999Z</time></trkpt><trkpt lat="41.89637242090161" lon="12.25638156261953"><ele>13.333333333333332</ele><time>2026-04-17T16:21:20.998Z</time></trkpt><trkpt lat="41.896244351394024" lon="12.256260760647182"><ele>13.0</ele><time>2026-04-17T16:21:21.998Z</time></trkpt><trkpt lat="41.89612635690301" lon="12.256115064976637"><ele>13.0</ele><time>2026-04-17T16:21:22.998Z</time></trkpt><trkpt lat="41.896006559422354" lon="12.255945990100347"><ele>13.0</ele><time>2026-04-17T16:21:23.998Z</time></trkpt><trkpt lat="41.895887277066635" lon="12.255775012164193"><ele>13.0</ele><time>2026-04-17T16:21:24.998Z</time></trkpt><trkpt lat="41.89576402437947" lon="12.255599047026086"><ele>13.666666666666666</ele><time>2026-04-17T16:21:25.998Z</time></trkpt><trkpt lat="41.89563443380269" lon="12.255434247188493"><ele>14.333333333333332</ele><time>2026-04-17T16:21:26.998Z</time></trkpt><trkpt lat="41.895513230656356" lon="12.255274237262807"><ele>15.0</ele><time>2026-04-17T16:21:27.998Z</time></trkpt><trkpt lat="41.89539938310528" lon="12.255112956685364"><ele>15.0</ele><time>2026-04-17T16:21:28.998Z</time></trkpt><trkpt lat="41.89528206514933" lon="12.25495180138856"><ele>15.0</ele><time>2026-04-17T16:21:29.998Z</time></trkpt><trkpt lat="41.895166083470215" lon="12.254801576640032"><ele>15.0</ele><time>2026-04-17T16:21:30.998Z</time></trkpt><trkpt lat="41.89505442889247" lon="12.254651979829411"><ele>14.5</ele><time>2026-04-17T16:21:31.998Z</time></trkpt><trkpt lat="41.89495624128517" lon="12.254513138361833"><ele>14.0</ele><time>2026-04-17T16:21:32.998Z</time></trkpt><trkpt lat="41.89486167967776" lon="12.254378850804176"><ele>13.5</ele><time>2026-04-17T16:21:33.998Z</time></trkpt><trkpt lat="41.89477086517614" lon="12.254252405399841"><ele>13.0</ele><time>2026-04-17T16:21:34.998Z</time></trkpt><trkpt lat="41.89468379249484" lon="12.254132832733648"><ele>13.0</ele><time>2026-04-17T16:21:35.998Z</time></trkpt><trkpt lat="41.894589571982316" lon="12.254011666251355"><ele>13.0</ele><time>2026-04-17T16:21:36.998Z</time></trkpt><trkpt lat="41.89449594161157" lon="12.253883371983207"><ele>13.0</ele><time>2026-04-17T16:21:37.998Z</time></trkpt><trkpt lat="41.89439859690075" lon="12.253752980355099"><ele>13.0</ele><time>2026-04-17T16:21:38.998Z</time></trkpt><trkpt lat="41.894302844259265" lon="12.253618958249687"><ele>12.666666666666666</ele><time>2026-04-17T16:21:39.998Z</time></trkpt><trkpt lat="41.89419776033192" lon="12.253479742073345"><ele>12.333333333333332</ele><time>2026-04-17T16:21:40.998Z</time></trkpt><trkpt lat="41.89408192116878" lon="12.253330483197118"><ele>12.0</ele><time>2026-04-17T16:21:41.998Z</time></trkpt><trkpt lat="41.8939604589854" lon="12.253169282801412"><ele>11.666666666666666</ele><time>2026-04-17T16:21:42.998Z</time></trkpt><trkpt lat="41.89383926687376" lon="12.253010641514447"><ele>11.333333333333332</ele><time>2026-04-17T16:21:43.998Z</time></trkpt><trkpt lat="41.89372638165427" lon="12.252851271354652"><ele>11.0</ele><time>2026-04-17T16:21:44.998Z</time></trkpt><trkpt lat="41.893615692904625" lon="12.252696028971078"><ele>11.0</ele><time>2026-04-17T16:21:45.998Z</time></trkpt><trkpt lat="41.89350087400581" lon="12.252542665236538"><ele>11.0</ele><time>2026-04-17T16:21:46.998Z</time></trkpt><trkpt lat="41.89338223090741" lon="12.25238585991097"><ele>11.0</ele><time>2026-04-17T16:21:47.998Z</time></trkpt><trkpt lat="41.893254221515264" lon="12.252214732944694"><ele>10.333333333333332</ele><time>2026-04-17T16:21:48.998Z</time></trkpt><trkpt lat="41.893129269765176" lon="12.252040203782459"><ele>9.666666666666666</ele><time>2026-04-17T16:21:49.998Z</time></trkpt><trkpt lat="41.89300686662331" lon="12.251870678516676"><ele>9.0</ele><time>2026-04-17T16:21:50.998Z</time></trkpt><trkpt lat="41.892887618488786" lon="12.251705118710838"><ele>9.0</ele><time>2026-04-17T16:21:51.998Z</time></trkpt><trkpt lat="41.89276985838061" lon="12.2515444352196"><ele>9.0</ele><time>2026-04-17T16:21:52.998Z</time></trkpt><trkpt lat="41.89264806775064" lon="12.25138272761151"><ele>9.0</ele><time>2026-04-17T16:21:53.998Z</time></trkpt><trkpt lat="41.892532944464165" lon="12.251229483601254"><ele>9.666666666666666</ele><time>2026-04-17T16:21:54.998Z</time></trkpt><trkpt lat="41.8924182057349" lon="12.25107398635261"><ele>10.333333333333332</ele><time>2026-04-17T16:21:56Z</time></trkpt><trkpt lat="41.89230407623611" lon="12.250923357640918"><ele>11.0</ele><time>2026-04-17T16:21:57Z</time></trkpt><trkpt lat="41.892192384980696" lon="12.25077467681006"><ele>11.0</ele><time>2026-04-17T16:21:58Z</time></trkpt><trkpt lat="41.892079118478605" lon="12.250623727321749"><ele>11.0</ele><time>2026-04-17T16:21:59Z</time></trkpt><trkpt lat="41.89196379574668" lon="12.250466656158231"><ele>11.0</ele><time>2026-04-17T16:22:00Z</time></trkpt><trkpt lat="41.891847811396545" lon="12.250306543550698"><ele>11.333333333333332</ele><time>2026-04-17T16:22:01Z</time></trkpt><trkpt lat="41.89172788774341" lon="12.25014258890632"><ele>11.666666666666666</ele><time>2026-04-17T16:22:02Z</time></trkpt><trkpt lat="41.891607616395504" lon="12.249972181138405"><ele>12.0</ele><time>2026-04-17T16:22:03Z</time></trkpt><trkpt lat="41.891484222171954" lon="12.249801500795396"><ele>12.0</ele><time>2026-04-17T16:22:04Z</time></trkpt><trkpt lat="41.891355117382545" lon="12.249634493351722"><ele>12.0</ele><time>2026-04-17T16:22:05Z</time></trkpt><trkpt lat="41.89122211489362" lon="12.249452224376178"><ele>12.0</ele><time>2026-04-17T16:22:06Z</time></trkpt><trkpt lat="41.89110199872657" lon="12.24928593133588"><ele>12.0</ele><time>2026-04-17T16:22:07Z</time></trkpt><trkpt lat="41.890990230215884" lon="12.249113020982595"><ele>12.0</ele><time>2026-04-17T16:22:08Z</time></trkpt><trkpt lat="41.89088450527758" lon="12.248931088332673"><ele>12.0</ele><time>2026-04-17T16:22:09Z</time></trkpt><trkpt lat="41.890784394126094" lon="12.248745637923287"><ele>12.0</ele><time>2026-04-17T16:22:10Z</time></trkpt><trkpt lat="41.89068714870888" lon="12.248547544384657"><ele>12.0</ele><time>2026-04-17T16:22:11Z</time></trkpt><trkpt lat="41.89058875072012" lon="12.24834174435917"><ele>12.0</ele><time>2026-04-17T16:22:12Z</time></trkpt><trkpt lat="41.890492313362614" lon="12.248133319883882"><ele>12.666666666666668</ele><time>2026-04-17T16:22:13Z</time></trkpt><trkpt lat="41.89041305753431" lon="12.247932315083657"><ele>13.333333333333334</ele><time>2026-04-17T16:22:14Z</time></trkpt><trkpt lat="41.890341754586366" lon="12.247732272837228"><ele>14.0</ele><time>2026-04-17T16:22:15Z</time></trkpt><trkpt lat="41.89027952105474" lon="12.247526219379198"><ele>14.0</ele><time>2026-04-17T16:22:16Z</time></trkpt><trkpt lat="41.89022740790532" lon="12.247309743780034"><ele>14.0</ele><time>2026-04-17T16:22:17Z</time></trkpt><trkpt lat="41.89018800472613" lon="12.247080928216628"><ele>14.0</ele><time>2026-04-17T16:22:18Z</time></trkpt><trkpt lat="41.89015500789498" lon="12.246839011687713"><ele>14.0</ele><time>2026-04-17T16:22:19Z</time></trkpt><trkpt lat="41.89011859321404" lon="12.246589595176207"><ele>14.0</ele><time>2026-04-17T16:22:20Z</time></trkpt><trkpt lat="41.890080048741524" lon="12.246340945445876"><ele>14.0</ele><time>2026-04-17T16:22:21Z</time></trkpt><trkpt lat="41.890044650894936" lon="12.246088863256958"><ele>14.0</ele><time>2026-04-17T16:22:22Z</time></trkpt><trkpt lat="41.89000741066537" lon="12.245841326555363"><ele>14.0</ele><time>2026-04-17T16:22:23Z</time></trkpt><trkpt lat="41.8899688548733" lon="12.245598263656813"><ele>14.0</ele><time>2026-04-17T16:22:24Z</time></trkpt><trkpt lat="41.88993547822573" lon="12.245364210963713"><ele>13.666666666666668</ele><time>2026-04-17T16:22:25Z</time></trkpt><trkpt lat="41.88990118301868" lon="12.245132751211674"><ele>13.333333333333332</ele><time>2026-04-17T16:22:26Z</time></trkpt><trkpt lat="41.88986412288852" lon="12.244901955113551"><ele>13.0</ele><time>2026-04-17T16:22:27Z</time></trkpt><trkpt lat="41.889820092375814" lon="12.244666013426187"><ele>13.0</ele><time>2026-04-17T16:22:28Z</time></trkpt><trkpt lat="41.889780292744156" lon="12.244426006201529"><ele>13.0</ele><time>2026-04-17T16:22:29Z</time></trkpt><trkpt lat="41.88974540003956" lon="12.244188920572327"><ele>13.0</ele><time>2026-04-17T16:22:30Z</time></trkpt><trkpt lat="41.88970380081065" lon="12.243951979820832"><ele>13.0</ele><time>2026-04-17T16:22:31Z</time></trkpt><trkpt lat="41.8896645919856" lon="12.243715478070555"><ele>13.0</ele><time>2026-04-17T16:22:32Z</time></trkpt><trkpt lat="41.88962902365012" lon="12.243468485412818"><ele>13.0</ele><time>2026-04-17T16:22:33Z</time></trkpt><trkpt lat="41.889590673326666" lon="12.243221833657822"><ele>13.666666666666666</ele><time>2026-04-17T16:22:34Z</time></trkpt><trkpt lat="41.88955306527185" lon="12.242973028895744"><ele>14.333333333333332</ele><time>2026-04-17T16:22:35Z</time></trkpt><trkpt lat="41.889515128891446" lon="12.242724007460989"><ele>15.0</ele><time>2026-04-17T16:22:36Z</time></trkpt><trkpt lat="41.889477518399794" lon="12.242485308719946"><ele>15.666666666666668</ele><time>2026-04-17T16:22:37Z</time></trkpt><trkpt lat="41.88944200786905" lon="12.242261137426354"><ele>16.333333333333336</ele><time>2026-04-17T16:22:38Z</time></trkpt><trkpt lat="41.88941014379504" lon="12.242034925925507"><ele>17.0</ele><time>2026-04-17T16:22:39Z</time></trkpt><trkpt lat="41.88937463838862" lon="12.241814333216896"><ele>17.0</ele><time>2026-04-17T16:22:40Z</time></trkpt><trkpt lat="41.88933565732523" lon="12.24161089368244"><ele>17.0</ele><time>2026-04-17T16:22:41Z</time></trkpt><trkpt lat="41.88929531194423" lon="12.241407497070506"><ele>17.0</ele><time>2026-04-17T16:22:42Z</time></trkpt><trkpt lat="41.889236998660785" lon="12.241213704273457"><ele>15.333333333333334</ele><time>2026-04-17T16:22:43Z</time></trkpt><trkpt lat="41.88916823020777" lon="12.241017748010064"><ele>13.666666666666668</ele><time>2026-04-17T16:22:43.999Z</time></trkpt><trkpt lat="41.8890952758856" lon="12.240833379430999"><ele>12.0</ele><time>2026-04-17T16:22:44.999Z</time></trkpt><trkpt lat="41.8890114492038" lon="12.240657442564915"><ele>14.666666666666668</ele><time>2026-04-17T16:22:45.999Z</time></trkpt><trkpt lat="41.888872331029134" lon="12.240477935435816"><ele>17.333333333333336</ele><time>2026-04-17T16:22:46.999Z</time></trkpt><trkpt lat="41.88874442823243" lon="12.240318034093118"><ele>20.0</ele><time>2026-04-17T16:22:47.999Z</time></trkpt><trkpt lat="41.88862505100208" lon="12.24015390807072"><ele>20.0</ele><time>2026-04-17T16:22:48.999Z</time></trkpt><trkpt lat="41.88850973013073" lon="12.239984787668181"><ele>20.0</ele><time>2026-04-17T16:22:49.999Z</time></trkpt><trkpt lat="41.88839947985918" lon="12.23983644601451"><ele>20.0</ele><time>2026-04-17T16:22:50.999Z</time></trkpt><trkpt lat="41.88830083859566" lon="12.239696910300529"><ele>18.75</ele><time>2026-04-17T16:22:51.999Z</time></trkpt><trkpt lat="41.88820792107804" lon="12.239565576348424"><ele>17.5</ele><time>2026-04-17T16:22:52.999Z</time></trkpt><trkpt lat="41.88812325315215" lon="12.239443503557435"><ele>16.25</ele><time>2026-04-17T16:22:53.999Z</time></trkpt><trkpt lat="41.88804801536551" lon="12.239328152937432"><ele>15.0</ele><time>2026-04-17T16:22:54.999Z</time></trkpt><trkpt lat="41.88798469457033" lon="12.239205004896618"><ele>15.0</ele><time>2026-04-17T16:22:55.999Z</time></trkpt><trkpt lat="41.887935581488975" lon="12.239085659000539"><ele>15.0</ele><time>2026-04-17T16:22:56.999Z</time></trkpt><trkpt lat="41.88789712092828" lon="12.238970644593225"><ele>15.0</ele><time>2026-04-17T16:22:57.999Z</time></trkpt><trkpt lat="41.88786818702467" lon="12.238846634661952"><ele>15.0</ele><time>2026-04-17T16:22:58.999Z</time></trkpt><trkpt lat="41.88784640045576" lon="12.238713023421077"><ele>15.0</ele><time>2026-04-17T16:22:59.999Z</time></trkpt><trkpt lat="41.88781438512496" lon="12.23857375844845"><ele>14.25</ele><time>2026-04-17T16:23:00.999Z</time></trkpt><trkpt lat="41.88776126278117" lon="12.238444552421585"><ele>13.5</ele><time>2026-04-17T16:23:01.999Z</time></trkpt><trkpt lat="41.887681109509884" lon="12.238331481611347"><ele>12.75</ele><time>2026-04-17T16:23:02.999Z</time></trkpt><trkpt lat="41.88757206366736" lon="12.238240870400777"><ele>12.0</ele><time>2026-04-17T16:23:03.999Z</time></trkpt><trkpt lat="41.887434598026374" lon="12.238183328752452"><ele>10.666666666666666</ele><time>2026-04-17T16:23:04.999Z</time></trkpt><trkpt lat="41.88729928856371" lon="12.238081087949361"><ele>9.333333333333332</ele><time>2026-04-17T16:23:05.999Z</time></trkpt><trkpt lat="41.887150298572415" lon="12.238046943084818"><ele>8.0</ele><time>2026-04-17T16:23:06.999Z</time></trkpt><trkpt lat="41.88701671441073" lon="12.23792010647841"><ele>8.0</ele><time>2026-04-17T16:23:07.999Z</time></trkpt><trkpt lat="41.88688473212063" lon="12.237826798337473"><ele>8.0</ele><time>2026-04-17T16:23:08.999Z</time></trkpt><trkpt lat="41.886751739818344" lon="12.237725317668877"><ele>8.0</ele><time>2026-04-17T16:23:09.999Z</time></trkpt><trkpt lat="41.88661643234139" lon="12.237630954697076"><ele>8.333333333333332</ele><time>2026-04-17T16:23:10.999Z</time></trkpt><trkpt lat="41.886475720932516" lon="12.237540528160384"><ele>8.666666666666666</ele><time>2026-04-17T16:23:11.999Z</time></trkpt><trkpt lat="41.88632992523466" lon="12.237459758772399"><ele>9.0</ele><time>2026-04-17T16:23:12.999Z</time></trkpt><trkpt lat="41.88618288917089" lon="12.237382093139107"><ele>9.0</ele><time>2026-04-17T16:23:13.999Z</time></trkpt><trkpt lat="41.886027702862435" lon="12.237306769184073"><ele>9.0</ele><time>2026-04-17T16:23:14.999Z</time></trkpt><trkpt lat="41.885871372840214" lon="12.237232566380658"><ele>9.0</ele><time>2026-04-17T16:23:15.999Z</time></trkpt><trkpt lat="41.88571829239097" lon="12.237157416889303"><ele>8.333333333333334</ele><time>2026-04-17T16:23:16.999Z</time></trkpt><trkpt lat="41.88555928982936" lon="12.237079858220884"><ele>7.666666666666667</ele><time>2026-04-17T16:23:17.999Z</time></trkpt><trkpt lat="41.88540366715414" lon="12.23700637642223"><ele>7.0</ele><time>2026-04-17T16:23:18.999Z</time></trkpt><trkpt lat="41.88525645551742" lon="12.23694761601903"><ele>7.0</ele><time>2026-04-17T16:23:19.999Z</time></trkpt><trkpt lat="41.88511477858364" lon="12.236897714671228"><ele>7.0</ele><time>2026-04-17T16:23:20.999Z</time></trkpt><trkpt lat="41.88496993207235" lon="12.236867135187827"><ele>7.0</ele><time>2026-04-17T16:23:21.999Z</time></trkpt><trkpt lat="41.88482043033197" lon="12.236877782994512"><ele>7.0</ele><time>2026-04-17T16:23:22.999Z</time></trkpt><trkpt lat="41.88466661222989" lon="12.23693354463359"><ele>7.333333333333334</ele><time>2026-04-17T16:23:23.999Z</time></trkpt><trkpt lat="41.88451102857493" lon="12.237010587175737"><ele>7.666666666666666</ele><time>2026-04-17T16:23:24.998Z</time></trkpt><trkpt lat="41.88434873863603" lon="12.237086919920234"><ele>8.0</ele><time>2026-04-17T16:23:25.998Z</time></trkpt><trkpt lat="41.884200656578656" lon="12.237160241863783"><ele>8.0</ele><time>2026-04-17T16:23:26.998Z</time></trkpt><trkpt lat="41.8840565985097" lon="12.237226637372967"><ele>8.0</ele><time>2026-04-17T16:23:27.998Z</time></trkpt><trkpt lat="41.88390908496561" lon="12.23729035886103"><ele>8.0</ele><time>2026-04-17T16:23:28.998Z</time></trkpt><trkpt lat="41.88375646601161" lon="12.237354144164062"><ele>8.0</ele><time>2026-04-17T16:23:29.998Z</time></trkpt><trkpt lat="41.88359469210123" lon="12.237423046083784"><ele>8.0</ele><time>2026-04-17T16:23:30.998Z</time></trkpt><trkpt lat="41.883425188159514" lon="12.23749737686151"><ele>8.0</ele><time>2026-04-17T16:23:31.998Z</time></trkpt><trkpt lat="41.883258411583995" lon="12.237570797806015"><ele>8.333333333333332</ele><time>2026-04-17T16:23:32.998Z</time></trkpt><trkpt lat="41.88309108977717" lon="12.237646708001769"><ele>8.666666666666666</ele><time>2026-04-17T16:23:33.998Z</time></trkpt><trkpt lat="41.882921848908744" lon="12.237724483955944"><ele>9.0</ele><time>2026-04-17T16:23:34.998Z</time></trkpt><trkpt lat="41.88275205954589" lon="12.237801419214705"><ele>9.0</ele><time>2026-04-17T16:23:35.998Z</time></trkpt><trkpt lat="41.88260061779036" lon="12.23786625045785"><ele>9.0</ele><time>2026-04-17T16:23:36.998Z</time></trkpt><trkpt lat="41.88245705101096" lon="12.237928202966703"><ele>9.0</ele><time>2026-04-17T16:23:37.998Z</time></trkpt><trkpt lat="41.88231005610183" lon="12.237993022320238"><ele>9.0</ele><time>2026-04-17T16:23:38.998Z</time></trkpt><trkpt lat="41.88216192100336" lon="12.238059084798932"><ele>9.0</ele><time>2026-04-17T16:23:39.998Z</time></trkpt><trkpt lat="41.88201241243289" lon="12.238122372109684"><ele>9.0</ele><time>2026-04-17T16:23:40.998Z</time></trkpt><trkpt lat="41.881868565399564" lon="12.238189606534696"><ele>9.0</ele><time>2026-04-17T16:23:41.998Z</time></trkpt><trkpt lat="41.88172063418147" lon="12.238258878512607"><ele>9.0</ele><time>2026-04-17T16:23:42.998Z</time></trkpt><trkpt lat="41.881577854478095" lon="12.238322133191112"><ele>9.0</ele><time>2026-04-17T16:23:43.998Z</time></trkpt><trkpt lat="41.881436736680485" lon="12.238380422202916"><ele>9.0</ele><time>2026-04-17T16:23:44.998Z</time></trkpt><trkpt lat="41.88129251347696" lon="12.238439832650014"><ele>9.0</ele><time>2026-04-17T16:23:45.998Z</time></trkpt><trkpt lat="41.88114496191179" lon="12.238501024670756"><ele>9.0</ele><time>2026-04-17T16:23:46.998Z</time></trkpt><trkpt lat="41.88100042172647" lon="12.238558548082176"><ele>8.75</ele><time>2026-04-17T16:23:47.998Z</time></trkpt><trkpt lat="41.8808726345504" lon="12.238620254487227"><ele>8.5</ele><time>2026-04-17T16:23:48.998Z</time></trkpt><trkpt lat="41.88073183644842" lon="12.238688808594702"><ele>8.25</ele><time>2026-04-17T16:23:49.998Z</time></trkpt><trkpt lat="41.880588129962995" lon="12.238734949052544"><ele>8.0</ele><time>2026-04-17T16:23:50.998Z</time></trkpt><trkpt lat="41.8804514008195" lon="12.238787123610468"><ele>8.0</ele><time>2026-04-17T16:23:51.998Z</time></trkpt><trkpt lat="41.88030886490332" lon="12.238849015781938"><ele>8.0</ele><time>2026-04-17T16:23:52.998Z</time></trkpt><trkpt lat="41.88015575633913" lon="12.23892224961641"><ele>8.0</ele><time>2026-04-17T16:23:53.998Z</time></trkpt><trkpt lat="41.87999854774719" lon="12.239004879080964"><ele>7.666666666666666</ele><time>2026-04-17T16:23:54.998Z</time></trkpt><trkpt lat="41.879835076394414" lon="12.23908401977926"><ele>7.333333333333334</ele><time>2026-04-17T16:23:55.998Z</time></trkpt><trkpt lat="41.879671198989804" lon="12.239152928601088"><ele>7.0</ele><time>2026-04-17T16:23:56.998Z</time></trkpt><trkpt lat="41.87950549014395" lon="12.23922690653401"><ele>7.0</ele><time>2026-04-17T16:23:57.998Z</time></trkpt><trkpt lat="41.879351814969596" lon="12.239299540855011"><ele>7.0</ele><time>2026-04-17T16:23:58.998Z</time></trkpt><trkpt lat="41.87920048442788" lon="12.239365328733044"><ele>7.0</ele><time>2026-04-17T16:23:59.998Z</time></trkpt><trkpt lat="41.879053433527005" lon="12.239431449052354"><ele>7.0</ele><time>2026-04-17T16:24:00.998Z</time></trkpt><trkpt lat="41.87891078816355" lon="12.239495299317376"><ele>7.0</ele><time>2026-04-17T16:24:02Z</time></trkpt><trkpt lat="41.8787704135217" lon="12.239557908185459"><ele>7.0</ele><time>2026-04-17T16:24:03Z</time></trkpt><trkpt lat="41.878630754564384" lon="12.239621629752023"><ele>7.0</ele><time>2026-04-17T16:24:04Z</time></trkpt><trkpt lat="41.87848878610645" lon="12.239680757500732"><ele>7.333333333333334</ele><time>2026-04-17T16:24:05Z</time></trkpt><trkpt lat="41.878347947444496" lon="12.239743076101945"><ele>7.666666666666666</ele><time>2026-04-17T16:24:06Z</time></trkpt><trkpt lat="41.87820359142551" lon="12.239812133628922"><ele>8.0</ele><time>2026-04-17T16:24:07Z</time></trkpt><trkpt lat="41.87805771198808" lon="12.239881686663423"><ele>8.0</ele><time>2026-04-17T16:24:08Z</time></trkpt><trkpt lat="41.87790471205957" lon="12.239949923531668"><ele>8.0</ele><time>2026-04-17T16:24:09Z</time></trkpt><trkpt lat="41.87776031900018" lon="12.240015061865508"><ele>8.0</ele><time>2026-04-17T16:24:10Z</time></trkpt><trkpt lat="41.877611772525285" lon="12.240097496050875"><ele>8.333333333333332</ele><time>2026-04-17T16:24:11Z</time></trkpt><trkpt lat="41.87746570162263" lon="12.240195689609262"><ele>8.666666666666666</ele><time>2026-04-17T16:24:12Z</time></trkpt><trkpt lat="41.877331780853325" lon="12.240302670377703"><ele>9.0</ele><time>2026-04-17T16:24:13Z</time></trkpt><trkpt lat="41.87720246264977" lon="12.240422795557295"><ele>9.0</ele><time>2026-04-17T16:24:14Z</time></trkpt><trkpt lat="41.877085364555505" lon="12.240540812128458"><ele>9.0</ele><time>2026-04-17T16:24:15Z</time></trkpt><trkpt lat="41.87697738976487" lon="12.240646652516492"><ele>9.0</ele><time>2026-04-17T16:24:16Z</time></trkpt><trkpt lat="41.87687078910452" lon="12.240764333554875"><ele>9.0</ele><time>2026-04-17T16:24:17Z</time></trkpt><trkpt lat="41.876753395414006" lon="12.240873564631883"><ele>9.0</ele><time>2026-04-17T16:24:18Z</time></trkpt><trkpt lat="41.876642231848415" lon="12.240991094649008"><ele>9.0</ele><time>2026-04-17T16:24:19Z</time></trkpt><trkpt lat="41.876534434841744" lon="12.241098513639493"><ele>9.0</ele><time>2026-04-17T16:24:20Z</time></trkpt><trkpt lat="41.876435106480756" lon="12.241205194951284"><ele>9.0</ele><time>2026-04-17T16:24:21Z</time></trkpt><trkpt lat="41.87632647766446" lon="12.241300711742015"><ele>9.0</ele><time>2026-04-17T16:24:22Z</time></trkpt><trkpt lat="41.87623039832064" lon="12.241390774739545"><ele>9.0</ele><time>2026-04-17T16:24:23Z</time></trkpt><trkpt lat="41.876139793131095" lon="12.241480397808097"><ele>9.0</ele><time>2026-04-17T16:24:24Z</time></trkpt><trkpt lat="41.87605733264966" lon="12.24156500321201"><ele>9.0</ele><time>2026-04-17T16:24:25Z</time></trkpt><trkpt lat="41.875986053119895" lon="12.241636761000693"><ele>9.0</ele><time>2026-04-17T16:24:26Z</time></trkpt><trkpt lat="41.87591360681897" lon="12.24169021845885"><ele>9.166666666666666</ele><time>2026-04-17T16:24:27Z</time></trkpt><trkpt lat="41.87585796555173" lon="12.241739906852269"><ele>9.333333333333334</ele><time>2026-04-17T16:24:28Z</time></trkpt><trkpt lat="41.8758051127754" lon="12.241792819515046"><ele>9.5</ele><time>2026-04-17T16:24:29Z</time></trkpt><trkpt lat="41.8757121275091" lon="12.241897066030239"><ele>9.666666666666668</ele><time>2026-04-17T16:24:31Z</time></trkpt><trkpt lat="41.875651022198376" lon="12.241958975029213"><ele>9.833333333333334</ele><time>2026-04-17T16:24:32Z</time></trkpt><trkpt lat="41.875581684212754" lon="12.242030074260049"><ele>10.0</ele><time>2026-04-17T16:24:33Z</time></trkpt><trkpt lat="41.87550234852726" lon="12.242110821037947"><ele>10.0</ele><time>2026-04-17T16:24:34Z</time></trkpt><trkpt lat="41.875419162333834" lon="12.24218993107824"><ele>10.0</ele><time>2026-04-17T16:24:35Z</time></trkpt><trkpt lat="41.87533693589876" lon="12.242275912851213"><ele>10.0</ele><time>2026-04-17T16:24:36Z</time></trkpt><trkpt lat="41.87524797612879" lon="12.242369397325874"><ele>10.0</ele><time>2026-04-17T16:24:37Z</time></trkpt><trkpt lat="41.87514971487017" lon="12.242474894793103"><ele>10.0</ele><time>2026-04-17T16:24:38Z</time></trkpt><trkpt lat="41.87504279921981" lon="12.242582202594695"><ele>9.5</ele><time>2026-04-17T16:24:39Z</time></trkpt><trkpt lat="41.87493449506494" lon="12.242692148821522"><ele>9.0</ele><time>2026-04-17T16:24:40Z</time></trkpt><trkpt lat="41.87482233587772" lon="12.242800029466741"><ele>8.5</ele><time>2026-04-17T16:24:41Z</time></trkpt><trkpt lat="41.874711691062224" lon="12.24291435170645"><ele>8.0</ele><time>2026-04-17T16:24:42Z</time></trkpt><trkpt lat="41.87459539770483" lon="12.243029138674006"><ele>8.0</ele><time>2026-04-17T16:24:43Z</time></trkpt><trkpt lat="41.87447641457346" lon="12.243143834542641"><ele>8.0</ele><time>2026-04-17T16:24:44Z</time></trkpt><trkpt lat="41.87436089567177" lon="12.243257372322917"><ele>8.0</ele><time>2026-04-17T16:24:45Z</time></trkpt><trkpt lat="41.874254011683924" lon="12.243366097473277"><ele>8.0</ele><time>2026-04-17T16:24:46Z</time></trkpt><trkpt lat="41.87416369238029" lon="12.243458862440113"><ele>8.0</ele><time>2026-04-17T16:24:47Z</time></trkpt><trkpt lat="41.874072804066934" lon="12.243553222289602"><ele>8.0</ele><time>2026-04-17T16:24:47.999Z</time></trkpt><trkpt lat="41.87397526180917" lon="12.24365001417732"><ele>8.0</ele><time>2026-04-17T16:24:48.999Z</time></trkpt><trkpt lat="41.87387159602673" lon="12.243750685249951"><ele>8.0</ele><time>2026-04-17T16:24:49.999Z</time></trkpt><trkpt lat="41.87377069568098" lon="12.243840342199766"><ele>8.0</ele><time>2026-04-17T16:24:50.999Z</time></trkpt><trkpt lat="41.873674175036186" lon="12.243895949239171"><ele>8.0</ele><time>2026-04-17T16:24:51.999Z</time></trkpt><trkpt lat="41.87356870382217" lon="12.24393399264818"><ele>8.0</ele><time>2026-04-17T16:24:52.999Z</time></trkpt><trkpt lat="41.87346584850248" lon="12.2439258252638"><ele>8.0</ele><time>2026-04-17T16:24:53.999Z</time></trkpt><trkpt lat="41.87336693093927" lon="12.243884320299237"><ele>8.0</ele><time>2026-04-17T16:24:54.999Z</time></trkpt><trkpt lat="41.87327759280155" lon="12.243810402803916"><ele>8.200000000000001</ele><time>2026-04-17T16:24:55.999Z</time></trkpt><trkpt lat="41.873199078891176" lon="12.243705541408739"><ele>8.4</ele><time>2026-04-17T16:24:56.999Z</time></trkpt><trkpt lat="41.87313478191638" lon="12.24358456609048"><ele>8.600000000000001</ele><time>2026-04-17T16:24:57.999Z</time></trkpt><trkpt lat="41.87307741492256" lon="12.243459452903638"><ele>8.8</ele><time>2026-04-17T16:24:58.999Z</time></trkpt><trkpt lat="41.87301062604844" lon="12.243341865018053"><ele>9.0</ele><time>2026-04-17T16:24:59.999Z</time></trkpt><trkpt lat="41.87295077016002" lon="12.24324286839776"><ele>9.0</ele><time>2026-04-17T16:25:00.999Z</time></trkpt><trkpt lat="41.872903080760196" lon="12.243160560852417"><ele>9.0</ele><time>2026-04-17T16:25:01.999Z</time></trkpt><trkpt lat="41.87286234159503" lon="12.243078337388786"><ele>9.0</ele><time>2026-04-17T16:25:02.999Z</time></trkpt><trkpt lat="41.872821813945095" lon="12.242950580990415"><ele>9.0</ele><time>2026-04-17T16:25:04.999Z</time></trkpt><trkpt lat="41.87281307461721" lon="12.24284176048122"><ele>9.0</ele><time>2026-04-17T16:25:06.999Z</time></trkpt><trkpt lat="41.87280299913459" lon="12.242701147599846"><ele>9.0</ele><time>2026-04-17T16:25:08.999Z</time></trkpt><trkpt lat="41.872833951952586" lon="12.242559345569486"><ele>9.0</ele><time>2026-04-17T16:25:10.999Z</time></trkpt><trkpt lat="41.87290410884409" lon="12.242419872160534"><ele>9.0</ele><time>2026-04-17T16:25:12.999Z</time></trkpt><trkpt lat="41.87295944500452" lon="12.242348615436272"><ele>9.0</ele><time>2026-04-17T16:25:13.999Z</time></trkpt><trkpt lat="41.87303119455021" lon="12.242269036416252"><ele>9.0</ele><time>2026-04-17T16:25:14.999Z</time></trkpt><trkpt lat="41.8731116711338" lon="12.242181158207368"><ele>9.0</ele><time>2026-04-17T16:25:15.999Z</time></trkpt><trkpt lat="41.87319556734313" lon="12.24208270902779"><ele>9.0</ele><time>2026-04-17T16:25:16.999Z</time></trkpt><trkpt lat="41.87331223287308" lon="12.241981652174841"><ele>9.0</ele><time>2026-04-17T16:25:17.999Z</time></trkpt><trkpt lat="41.87342934545179" lon="12.241862709740225"><ele>9.0</ele><time>2026-04-17T16:25:18.999Z</time></trkpt><trkpt lat="41.87354319067299" lon="12.241737254092621"><ele>9.0</ele><time>2026-04-17T16:25:19.999Z</time></trkpt><trkpt lat="41.87367780987874" lon="12.241623450263875"><ele>9.0</ele><time>2026-04-17T16:25:20.999Z</time></trkpt><trkpt lat="41.87381619064781" lon="12.241496575980898"><ele>9.0</ele><time>2026-04-17T16:25:21.999Z</time></trkpt><trkpt lat="41.87395504130399" lon="12.241355179301767"><ele>9.0</ele><time>2026-04-17T16:25:22.999Z</time></trkpt><trkpt lat="41.87409115124626" lon="12.241216537204254"><ele>9.0</ele><time>2026-04-17T16:25:23.999Z</time></trkpt><trkpt lat="41.87422945717435" lon="12.241076131125228"><ele>9.0</ele><time>2026-04-17T16:25:24.999Z</time></trkpt><trkpt lat="41.87437292527724" lon="12.240932587330251"><ele>9.0</ele><time>2026-04-17T16:25:25.999Z</time></trkpt><trkpt lat="41.8745104436664" lon="12.24079163857751"><ele>8.666666666666666</ele><time>2026-04-17T16:25:26.999Z</time></trkpt><trkpt lat="41.8746416030872" lon="12.24066044511298"><ele>8.333333333333332</ele><time>2026-04-17T16:25:27.998Z</time></trkpt><trkpt lat="41.874777596979406" lon="12.240526147056581"><ele>8.0</ele><time>2026-04-17T16:25:28.998Z</time></trkpt><trkpt lat="41.87490306332215" lon="12.240397559215499"><ele>8.0</ele><time>2026-04-17T16:25:29.998Z</time></trkpt><trkpt lat="41.87501848425893" lon="12.24028478423941"><ele>8.0</ele><time>2026-04-17T16:25:30.998Z</time></trkpt><trkpt lat="41.87514300633639" lon="12.240164310620493"><ele>8.0</ele><time>2026-04-17T16:25:31.998Z</time></trkpt><trkpt lat="41.875264233145174" lon="12.24004033887856"><ele>8.0</ele><time>2026-04-17T16:25:32.998Z</time></trkpt><trkpt lat="41.875375842748795" lon="12.239921660568076"><ele>8.0</ele><time>2026-04-17T16:25:33.998Z</time></trkpt><trkpt lat="41.87547864497303" lon="12.239809953272315"><ele>8.0</ele><time>2026-04-17T16:25:34.998Z</time></trkpt><trkpt lat="41.875577603461046" lon="12.239702438362002"><ele>8.0</ele><time>2026-04-17T16:25:35.998Z</time></trkpt><trkpt lat="41.87566602211013" lon="12.239588710953917"><ele>8.0</ele><time>2026-04-17T16:25:36.998Z</time></trkpt><trkpt lat="41.875738555635195" lon="12.239468797055462"><ele>8.0</ele><time>2026-04-17T16:25:37.998Z</time></trkpt><trkpt lat="41.875801461327725" lon="12.23933724536078"><ele>8.0</ele><time>2026-04-17T16:25:38.998Z</time></trkpt><trkpt lat="41.875857506473885" lon="12.239197222056344"><ele>8.0</ele><time>2026-04-17T16:25:39.998Z</time></trkpt><trkpt lat="41.87591040484437" lon="12.23905610482463"><ele>8.0</ele><time>2026-04-17T16:25:40.998Z</time></trkpt><trkpt lat="41.87596728792721" lon="12.238907495626174"><ele>8.200000000000001</ele><time>2026-04-17T16:25:41.998Z</time></trkpt><trkpt lat="41.87601579637452" lon="12.238759018295575"><ele>8.4</ele><time>2026-04-17T16:25:42.998Z</time></trkpt><trkpt lat="41.87605680379935" lon="12.238630153451304"><ele>8.600000000000001</ele><time>2026-04-17T16:25:43.998Z</time></trkpt><trkpt lat="41.8760967473661" lon="12.238507624402969"><ele>8.8</ele><time>2026-04-17T16:25:44.998Z</time></trkpt><trkpt lat="41.87613946586142" lon="12.238380827023763"><ele>9.0</ele><time>2026-04-17T16:25:45.998Z</time></trkpt><trkpt lat="41.87618607272973" lon="12.238254807786978"><ele>9.0</ele><time>2026-04-17T16:25:46.998Z</time></trkpt><trkpt lat="41.87622662667617" lon="12.238127702838382"><ele>9.0</ele><time>2026-04-17T16:25:47.998Z</time></trkpt><trkpt lat="41.87626457257436" lon="12.238006315934598"><ele>9.0</ele><time>2026-04-17T16:25:48.998Z</time></trkpt><trkpt lat="41.87630730682909" lon="12.237883489397108"><ele>9.0</ele><time>2026-04-17T16:25:49.998Z</time></trkpt><trkpt lat="41.8763571546061" lon="12.237752681170704"><ele>9.0</ele><time>2026-04-17T16:25:50.998Z</time></trkpt><trkpt lat="41.87640387177836" lon="12.23762651652005"><ele>9.0</ele><time>2026-04-17T16:25:51.998Z</time></trkpt><trkpt lat="41.876440058512166" lon="12.237509481355483"><ele>9.0</ele><time>2026-04-17T16:25:52.998Z</time></trkpt><trkpt lat="41.87647855566491" lon="12.237386628201163"><ele>9.0</ele><time>2026-04-17T16:25:53.998Z</time></trkpt><trkpt lat="41.876519442630375" lon="12.237268349082122"><ele>9.0</ele><time>2026-04-17T16:25:54.998Z</time></trkpt><trkpt lat="41.87656145778978" lon="12.237129089907462"><ele>9.0</ele><time>2026-04-17T16:25:55.998Z</time></trkpt><trkpt lat="41.87660438284843" lon="12.236971325087962"><ele>9.5</ele><time>2026-04-17T16:25:56.998Z</time></trkpt><trkpt lat="41.87664436504561" lon="12.236796526625234"><ele>10.0</ele><time>2026-04-17T16:25:57.998Z</time></trkpt><trkpt lat="41.87669039555591" lon="12.236623586998816"><ele>10.5</ele><time>2026-04-17T16:25:58.998Z</time></trkpt><trkpt lat="41.87672523722051" lon="12.236429199885682"><ele>11.0</ele><time>2026-04-17T16:25:59.998Z</time></trkpt><trkpt lat="41.876765550879405" lon="12.23622962753776"><ele>11.0</ele><time>2026-04-17T16:26:00.998Z</time></trkpt><trkpt lat="41.87679976662734" lon="12.236031588943542"><ele>11.0</ele><time>2026-04-17T16:26:01.998Z</time></trkpt><trkpt lat="41.87682003488079" lon="12.235841549532113"><ele>11.0</ele><time>2026-04-17T16:26:02.998Z</time></trkpt><trkpt lat="41.87682601934653" lon="12.235665086120767"><ele>11.0</ele><time>2026-04-17T16:26:03.998Z</time></trkpt><trkpt lat="41.876824609209265" lon="12.23549982644738"><ele>11.0</ele><time>2026-04-17T16:26:04.998Z</time></trkpt><trkpt lat="41.87682362734466" lon="12.235338732729694"><ele>11.0</ele><time>2026-04-17T16:26:05.998Z</time></trkpt><trkpt lat="41.876825124070336" lon="12.235181128587309"><ele>11.0</ele><time>2026-04-17T16:26:06.998Z</time></trkpt><trkpt lat="41.876828349131955" lon="12.235040142059058"><ele>11.0</ele><time>2026-04-17T16:26:08Z</time></trkpt><trkpt lat="41.876831002819365" lon="12.2348830373068"><ele>10.200000000000001</ele><time>2026-04-17T16:26:09Z</time></trkpt><trkpt lat="41.87683152397113" lon="12.234739916639255"><ele>9.4</ele><time>2026-04-17T16:26:10Z</time></trkpt><trkpt lat="41.87683582729732" lon="12.234595444002512"><ele>8.6</ele><time>2026-04-17T16:26:11Z</time></trkpt><trkpt lat="41.87683861095078" lon="12.2344487434925"><ele>7.8</ele><time>2026-04-17T16:26:12Z</time></trkpt><trkpt lat="41.87684263763549" lon="12.234298506043986"><ele>7.0</ele><time>2026-04-17T16:26:13Z</time></trkpt><trkpt lat="41.87684295045074" lon="12.23415030952698"><ele>7.0</ele><time>2026-04-17T16:26:14Z</time></trkpt><trkpt lat="41.876843782577154" lon="12.234003655140247"><ele>7.0</ele><time>2026-04-17T16:26:15Z</time></trkpt><trkpt lat="41.87684414775778" lon="12.233855328215396"><ele>7.0</ele><time>2026-04-17T16:26:16Z</time></trkpt><trkpt lat="41.87684233688947" lon="12.233700888654834"><ele>7.0</ele><time>2026-04-17T16:26:17Z</time></trkpt><trkpt lat="41.876845286671106" lon="12.233541858017682"><ele>7.0</ele><time>2026-04-17T16:26:18Z</time></trkpt><trkpt lat="41.87684575092363" lon="12.23338337170088"><ele>7.0</ele><time>2026-04-17T16:26:19Z</time></trkpt><trkpt lat="41.87684561810313" lon="12.233223680056728"><ele>7.0</ele><time>2026-04-17T16:26:20Z</time></trkpt><trkpt lat="41.87684570301865" lon="12.233062636278687"><ele>7.0</ele><time>2026-04-17T16:26:21Z</time></trkpt><trkpt lat="41.87685013833807" lon="12.232904230703468"><ele>7.0</ele><time>2026-04-17T16:26:22Z</time></trkpt><trkpt lat="41.87685474597677" lon="12.232737262276773"><ele>7.0</ele><time>2026-04-17T16:26:23Z</time></trkpt><trkpt lat="41.876855098030475" lon="12.232576285992595"><ele>7.0</ele><time>2026-04-17T16:26:24Z</time></trkpt><trkpt lat="41.87685649898602" lon="12.232420217381579"><ele>7.0</ele><time>2026-04-17T16:26:25Z</time></trkpt><trkpt lat="41.876859176720146" lon="12.232264754114095"><ele>7.25</ele><time>2026-04-17T16:26:26Z</time></trkpt><trkpt lat="41.87685919268792" lon="12.23211396070694"><ele>7.5</ele><time>2026-04-17T16:26:27Z</time></trkpt><trkpt lat="41.8768579070638" lon="12.231961570532237"><ele>7.75</ele><time>2026-04-17T16:26:28Z</time></trkpt><trkpt lat="41.87685931530806" lon="12.231808247076922"><ele>8.0</ele><time>2026-04-17T16:26:29Z</time></trkpt><trkpt lat="41.87686211097902" lon="12.231656089953646"><ele>8.0</ele><time>2026-04-17T16:26:30Z</time></trkpt><trkpt lat="41.876866718715576" lon="12.231506683508352"><ele>8.0</ele><time>2026-04-17T16:26:31Z</time></trkpt><trkpt lat="41.876867514263196" lon="12.231356529914637"><ele>8.0</ele><time>2026-04-17T16:26:32Z</time></trkpt><trkpt lat="41.87686670136234" lon="12.23120595129477"><ele>8.0</ele><time>2026-04-17T16:26:33Z</time></trkpt><trkpt lat="41.87686556831445" lon="12.231054969558722"><ele>8.0</ele><time>2026-04-17T16:26:34Z</time></trkpt><trkpt lat="41.87687251739394" lon="12.230905556010013"><ele>7.4</ele><time>2026-04-17T16:26:35Z</time></trkpt><trkpt lat="41.87687396412104" lon="12.230758460298173"><ele>6.800000000000001</ele><time>2026-04-17T16:26:36Z</time></trkpt><trkpt lat="41.876874350675436" lon="12.230611210847215"><ele>6.2</ele><time>2026-04-17T16:26:37Z</time></trkpt><trkpt lat="41.87687675849148" lon="12.230460215929554"><ele>5.6</ele><time>2026-04-17T16:26:38Z</time></trkpt><trkpt lat="41.876875936958" lon="12.230307784125978"><ele>5.0</ele><time>2026-04-17T16:26:39Z</time></trkpt><trkpt lat="41.87688244896025" lon="12.230137711545693"><ele>5.0</ele><time>2026-04-17T16:26:40Z</time></trkpt><trkpt lat="41.87688789183736" lon="12.229965571331485"><ele>5.0</ele><time>2026-04-17T16:26:41Z</time></trkpt><trkpt lat="41.876888623185884" lon="12.229790998465209"><ele>5.0</ele><time>2026-04-17T16:26:42Z</time></trkpt><trkpt lat="41.876890344770295" lon="12.229619154089649"><ele>5.0</ele><time>2026-04-17T16:26:43Z</time></trkpt><trkpt lat="41.87689443689918" lon="12.229437566219994"><ele>5.25</ele><time>2026-04-17T16:26:44Z</time></trkpt><trkpt lat="41.87689273609217" lon="12.22926440673204"><ele>5.5</ele><time>2026-04-17T16:26:45Z</time></trkpt><trkpt lat="41.87689761014233" lon="12.229086444067486"><ele>5.75</ele><time>2026-04-17T16:26:46Z</time></trkpt><trkpt lat="41.87691180478432" lon="12.228882955349412"><ele>6.0</ele><time>2026-04-17T16:26:47Z</time></trkpt><trkpt lat="41.876934244876274" lon="12.22866999078184"><ele>6.25</ele><time>2026-04-17T16:26:48Z</time></trkpt><trkpt lat="41.87694829488946" lon="12.228469006317114"><ele>6.5</ele><time>2026-04-17T16:26:49Z</time></trkpt><trkpt lat="41.87694241864889" lon="12.228275198463233"><ele>6.75</ele><time>2026-04-17T16:26:50Z</time></trkpt><trkpt lat="41.87693343822723" lon="12.22815051483298"><ele>7.0</ele><time>2026-04-17T16:26:50.999Z</time></trkpt><trkpt lat="41.876932413621596" lon="12.227975982986385"><ele>7.0</ele><time>2026-04-17T16:26:51.999Z</time></trkpt><trkpt lat="41.87693041069946" lon="12.227810070117394"><ele>7.0</ele><time>2026-04-17T16:26:52.999Z</time></trkpt><trkpt lat="41.876931491724214" lon="12.227643266645995"><ele>7.0</ele><time>2026-04-17T16:26:53.999Z</time></trkpt><trkpt lat="41.87693162948293" lon="12.22748133061471"><ele>7.0</ele><time>2026-04-17T16:26:54.999Z</time></trkpt><trkpt lat="41.87693017793062" lon="12.227318015059433"><ele>6.5</ele><time>2026-04-17T16:26:55.999Z</time></trkpt><trkpt lat="41.87692881115866" lon="12.227153184475158"><ele>6.0</ele><time>2026-04-17T16:26:56.999Z</time></trkpt><trkpt lat="41.876930195548674" lon="12.226989232628972"><ele>5.5</ele><time>2026-04-17T16:26:57.999Z</time></trkpt><trkpt lat="41.87693536047172" lon="12.226823304649047"><ele>5.0</ele><time>2026-04-17T16:26:58.999Z</time></trkpt><trkpt lat="41.87693663976056" lon="12.22666302812478"><ele>5.0</ele><time>2026-04-17T16:26:59.999Z</time></trkpt><trkpt lat="41.87693813828855" lon="12.226497364995117"><ele>5.0</ele><time>2026-04-17T16:27:00.999Z</time></trkpt><trkpt lat="41.87693673209858" lon="12.226336014258257"><ele>5.0</ele><time>2026-04-17T16:27:01.999Z</time></trkpt><trkpt lat="41.8769383873611" lon="12.22616750543192"><ele>5.0</ele><time>2026-04-17T16:27:02.999Z</time></trkpt><trkpt lat="41.876938221627704" lon="12.225999629185916"><ele>5.25</ele><time>2026-04-17T16:27:03.999Z</time></trkpt><trkpt lat="41.87693888187831" lon="12.225835121712242"><ele>5.5</ele><time>2026-04-17T16:27:04.999Z</time></trkpt><trkpt lat="41.87694015776413" lon="12.22567007138558"><ele>5.75</ele><time>2026-04-17T16:27:05.999Z</time></trkpt><trkpt lat="41.87693919823261" lon="12.225502747414543"><ele>6.0</ele><time>2026-04-17T16:27:06.999Z</time></trkpt><trkpt lat="41.87693907288192" lon="12.225335895245227"><ele>6.0</ele><time>2026-04-17T16:27:07.999Z</time></trkpt><trkpt lat="41.87693486935113" lon="12.225165437690036"><ele>6.0</ele><time>2026-04-17T16:27:08.999Z</time></trkpt><trkpt lat="41.87693309827672" lon="12.224992038034193"><ele>6.0</ele><time>2026-04-17T16:27:09.999Z</time></trkpt><trkpt lat="41.87693543662057" lon="12.224815094741581"><ele>6.0</ele><time>2026-04-17T16:27:10.999Z</time></trkpt><trkpt lat="41.87694618348034" lon="12.224636514444612"><ele>6.25</ele><time>2026-04-17T16:27:11.999Z</time></trkpt><trkpt lat="41.87695043008443" lon="12.22445874572852"><ele>6.5</ele><time>2026-04-17T16:27:12.999Z</time></trkpt><trkpt lat="41.8769549962712" lon="12.224311762831555"><ele>6.75</ele><time>2026-04-17T16:27:13.999Z</time></trkpt><trkpt lat="41.87695541976823" lon="12.224158555788033"><ele>7.0</ele><time>2026-04-17T16:27:14.999Z</time></trkpt><trkpt lat="41.87695618231563" lon="12.22402025795938"><ele>7.3999999999999995</ele><time>2026-04-17T16:27:15.999Z</time></trkpt><trkpt lat="41.876956942700154" lon="12.22386963083058"><ele>7.799999999999999</ele><time>2026-04-17T16:27:16.999Z</time></trkpt><trkpt lat="41.87696278842335" lon="12.223723951536384"><ele>8.2</ele><time>2026-04-17T16:27:17.999Z</time></trkpt><trkpt lat="41.87696372213893" lon="12.223578224817706"><ele>8.6</ele><time>2026-04-17T16:27:18.999Z</time></trkpt><trkpt lat="41.87696402468221" lon="12.223435096800175"><ele>9.0</ele><time>2026-04-17T16:27:19.999Z</time></trkpt><trkpt lat="41.87696836173543" lon="12.223287644617528"><ele>9.0</ele><time>2026-04-17T16:27:20.999Z</time></trkpt><trkpt lat="41.87696689149526" lon="12.223135054902482"><ele>9.0</ele><time>2026-04-17T16:27:21.999Z</time></trkpt><trkpt lat="41.876964160710465" lon="12.222974987646847"><ele>9.0</ele><time>2026-04-17T16:27:22.999Z</time></trkpt><trkpt lat="41.876957913543684" lon="12.222807665964341"><ele>9.0</ele><time>2026-04-17T16:27:23.999Z</time></trkpt><trkpt lat="41.87696208185109" lon="12.222643565255751"><ele>9.0</ele><time>2026-04-17T16:27:24.999Z</time></trkpt><trkpt lat="41.87696128927032" lon="12.222482290245221"><ele>9.0</ele><time>2026-04-17T16:27:25.999Z</time></trkpt><trkpt lat="41.87695904704807" lon="12.222316912384748"><ele>9.0</ele><time>2026-04-17T16:27:26.999Z</time></trkpt><trkpt lat="41.876960378117396" lon="12.222147859025956"><ele>9.0</ele><time>2026-04-17T16:27:27.999Z</time></trkpt><trkpt lat="41.87695799331089" lon="12.221988882862059"><ele>8.75</ele><time>2026-04-17T16:27:28.999Z</time></trkpt><trkpt lat="41.87694937530925" lon="12.22182558553475"><ele>8.5</ele><time>2026-04-17T16:27:29.999Z</time></trkpt><trkpt lat="41.87694430054024" lon="12.221657485689057"><ele>8.25</ele><time>2026-04-17T16:27:30.999Z</time></trkpt><trkpt lat="41.87693952866699" lon="12.221497788854844"><ele>8.0</ele><time>2026-04-17T16:27:31.998Z</time></trkpt><trkpt lat="41.876935461975066" lon="12.221337479228245"><ele>8.0</ele><time>2026-04-17T16:27:32.998Z</time></trkpt><trkpt lat="41.87693399034083" lon="12.221199148284143"><ele>8.0</ele><time>2026-04-17T16:27:33.998Z</time></trkpt><trkpt lat="41.87693205721394" lon="12.221053454375241"><ele>8.0</ele><time>2026-04-17T16:27:34.998Z</time></trkpt><trkpt lat="41.87693000447304" lon="12.220908253505558"><ele>8.0</ele><time>2026-04-17T16:27:35.998Z</time></trkpt><trkpt lat="41.876927297606315" lon="12.22075434814736"><ele>8.0</ele><time>2026-04-17T16:27:36.998Z</time></trkpt><trkpt lat="41.87692391427375" lon="12.220597731693662"><ele>8.0</ele><time>2026-04-17T16:27:37.998Z</time></trkpt><trkpt lat="41.876922777308565" lon="12.220436745969916"><ele>8.0</ele><time>2026-04-17T16:27:38.998Z</time></trkpt><trkpt lat="41.87691740915605" lon="12.220273539637308"><ele>8.0</ele><time>2026-04-17T16:27:39.998Z</time></trkpt><trkpt lat="41.87691184687077" lon="12.22010116546121"><ele>8.0</ele><time>2026-04-17T16:27:40.998Z</time></trkpt><trkpt lat="41.87691040441195" lon="12.219920320651033"><ele>7.75</ele><time>2026-04-17T16:27:41.998Z</time></trkpt><trkpt lat="41.8769064904496" lon="12.219740893511062"><ele>7.5</ele><time>2026-04-17T16:27:42.998Z</time></trkpt><trkpt lat="41.87689133748233" lon="12.219561429330351"><ele>7.25</ele><time>2026-04-17T16:27:43.998Z</time></trkpt><trkpt lat="41.876885094612" lon="12.219381121544027"><ele>7.0</ele><time>2026-04-17T16:27:44.998Z</time></trkpt><trkpt lat="41.876886533910294" lon="12.21920589224159"><ele>7.0</ele><time>2026-04-17T16:27:45.998Z</time></trkpt><trkpt lat="41.87687775092587" lon="12.219030420486861"><ele>7.0</ele><time>2026-04-17T16:27:46.998Z</time></trkpt><trkpt lat="41.87687082382275" lon="12.218840978519214"><ele>7.0</ele><time>2026-04-17T16:27:47.998Z</time></trkpt><trkpt lat="41.876869496942746" lon="12.218670577508567"><ele>7.0</ele><time>2026-04-17T16:27:48.998Z</time></trkpt><trkpt lat="41.876870516701096" lon="12.218502125178748"><ele>6.75</ele><time>2026-04-17T16:27:49.998Z</time></trkpt><trkpt lat="41.876863471256414" lon="12.218343697170328"><ele>6.5</ele><time>2026-04-17T16:27:50.998Z</time></trkpt><trkpt lat="41.87686039902117" lon="12.218165091230029"><ele>6.25</ele><time>2026-04-17T16:27:51.998Z</time></trkpt><trkpt lat="41.876860611422224" lon="12.217978563379054"><ele>6.0</ele><time>2026-04-17T16:27:52.998Z</time></trkpt><trkpt lat="41.876856856883535" lon="12.217798506628155"><ele>6.0</ele><time>2026-04-17T16:27:53.998Z</time></trkpt><trkpt lat="41.87685722247825" lon="12.217608619836357"><ele>6.0</ele><time>2026-04-17T16:27:54.998Z</time></trkpt><trkpt lat="41.87685794939535" lon="12.217418125544564"><ele>6.0</ele><time>2026-04-17T16:27:55.998Z</time></trkpt><trkpt lat="41.876859203650376" lon="12.21726951622959"><ele>6.0</ele><time>2026-04-17T16:27:56.998Z</time></trkpt><trkpt lat="41.87685626763502" lon="12.217114298857572"><ele>6.5</ele><time>2026-04-17T16:27:57.998Z</time></trkpt><trkpt lat="41.87685253422293" lon="12.216922370580436"><ele>7.0</ele><time>2026-04-17T16:27:58.998Z</time></trkpt><trkpt lat="41.8768278270156" lon="12.216737985954715"><ele>7.5</ele><time>2026-04-17T16:27:59.998Z</time></trkpt><trkpt lat="41.87681538895502" lon="12.21656605081815"><ele>8.0</ele><time>2026-04-17T16:28:00.998Z</time></trkpt><trkpt lat="41.87679059724973" lon="12.216393673146849"><ele>7.75</ele><time>2026-04-17T16:28:01.998Z</time></trkpt><trkpt lat="41.8767622288057" lon="12.216224514663223"><ele>7.5</ele><time>2026-04-17T16:28:02.998Z</time></trkpt><trkpt lat="41.876715025669284" lon="12.216065300335849"><ele>7.25</ele><time>2026-04-17T16:28:03.998Z</time></trkpt><trkpt lat="41.87667001740909" lon="12.21589988592643"><ele>7.0</ele><time>2026-04-17T16:28:04.998Z</time></trkpt><trkpt lat="41.87662816118172" lon="12.215738594611066"><ele>6.6</ele><time>2026-04-17T16:28:05.998Z</time></trkpt><trkpt lat="41.87658926572116" lon="12.215600464105744"><ele>6.199999999999999</ele><time>2026-04-17T16:28:06.998Z</time></trkpt><trkpt lat="41.876569851576555" lon="12.215467238806855"><ele>5.8</ele><time>2026-04-17T16:28:07.998Z</time></trkpt><trkpt lat="41.876534961951634" lon="12.215356331063646"><ele>5.4</ele><time>2026-04-17T16:28:08.998Z</time></trkpt><trkpt lat="41.8765151665645" lon="12.215218423235218"><ele>5.0</ele><time>2026-04-17T16:28:10.998Z</time></trkpt><trkpt lat="41.87655178580282" lon="12.21514672016061"><ele>5.0</ele><time>2026-04-17T16:28:12.997Z</time></trkpt><trkpt lat="41.876629212584696" lon="12.215114307478872"><ele>5.0</ele><time>2026-04-17T16:28:15Z</time></trkpt><trkpt lat="41.87672895173638" lon="12.21507183701453"><ele>5.0</ele><time>2026-04-17T16:28:17Z</time></trkpt><trkpt lat="41.87684679512156" lon="12.215004545265508"><ele>5.0</ele><time>2026-04-17T16:28:19Z</time></trkpt><trkpt lat="41.876920049675" lon="12.214967048843384"><ele>5.0</ele><time>2026-04-17T16:28:20Z</time></trkpt><trkpt lat="41.87699622772291" lon="12.214928289768114"><ele>5.333333333333334</ele><time>2026-04-17T16:28:21Z</time></trkpt><trkpt lat="41.87707574259267" lon="12.21488926216879"><ele>5.666666666666667</ele><time>2026-04-17T16:28:22Z</time></trkpt><trkpt lat="41.87715286005786" lon="12.21485366478346"><ele>6.0</ele><time>2026-04-17T16:28:23Z</time></trkpt><trkpt lat="41.87721818294184" lon="12.214826880441386"><ele>6.333333333333334</ele><time>2026-04-17T16:28:24Z</time></trkpt><trkpt lat="41.877286017839154" lon="12.214792815203714"><ele>6.666666666666667</ele><time>2026-04-17T16:28:25Z</time></trkpt><trkpt lat="41.877358883755335" lon="12.214754820009434"><ele>7.0</ele><time>2026-04-17T16:28:26Z</time></trkpt><trkpt lat="41.87743079714574" lon="12.21471946729303"><ele>7.000000000000001</ele><time>2026-04-17T16:28:27Z</time></trkpt><trkpt lat="41.877497847423456" lon="12.214685509850698"><ele>7.0</ele><time>2026-04-17T16:28:28Z</time></trkpt><trkpt lat="41.8775587361099" lon="12.214653386044569"><ele>7.0</ele><time>2026-04-17T16:28:29Z</time></trkpt><trkpt lat="41.87766681136458" lon="12.214580468078218"><ele>7.0</ele><time>2026-04-17T16:28:31Z</time></trkpt><trkpt lat="41.8776998109101" lon="12.21449859603542"><ele>7.000000000000001</ele><time>2026-04-17T16:28:32Z</time></trkpt><trkpt lat="41.877716913135046" lon="12.21438411591643"><ele>7.0</ele><time>2026-04-17T16:28:33Z</time></trkpt><trkpt lat="41.87772138026365" lon="12.214245148971651"><ele>6.5</ele><time>2026-04-17T16:28:34Z</time></trkpt><trkpt lat="41.87773267433197" lon="12.21409265610299"><ele>6.0</ele><time>2026-04-17T16:28:35Z</time></trkpt><trkpt lat="41.87774788374023" lon="12.213928331799737"><ele>5.5</ele><time>2026-04-17T16:28:36Z</time></trkpt><trkpt lat="41.87776160546851" lon="12.213776216272885"><ele>5.0</ele><time>2026-04-17T16:28:37Z</time></trkpt><trkpt lat="41.87777528509516" lon="12.213617209271405"><ele>5.0</ele><time>2026-04-17T16:28:38Z</time></trkpt><trkpt lat="41.877790034753055" lon="12.213447050749817"><ele>5.0</ele><time>2026-04-17T16:28:39Z</time></trkpt><trkpt lat="41.877803981898886" lon="12.213277121036489"><ele>5.0</ele><time>2026-04-17T16:28:40Z</time></trkpt><trkpt lat="41.87781859308863" lon="12.213106104221689"><ele>5.0</ele><time>2026-04-17T16:28:41Z</time></trkpt><trkpt lat="41.8778338534602" lon="12.212947053646756"><ele>4.75</ele><time>2026-04-17T16:28:42Z</time></trkpt><trkpt lat="41.877847533514185" lon="12.212781895506982"><ele>4.5</ele><time>2026-04-17T16:28:43Z</time></trkpt><trkpt lat="41.87786068334443" lon="12.21260408097432"><ele>4.25</ele><time>2026-04-17T16:28:44Z</time></trkpt><trkpt lat="41.87787331183839" lon="12.212413955762967"><ele>4.0</ele><time>2026-04-17T16:28:45Z</time></trkpt><trkpt lat="41.87788496834149" lon="12.212205598160361"><ele>4.0</ele><time>2026-04-17T16:28:46Z</time></trkpt><trkpt lat="41.8778973691334" lon="12.211988977752647"><ele>4.0</ele><time>2026-04-17T16:28:46.999Z</time></trkpt><trkpt lat="41.87790975786854" lon="12.211778162772736"><ele>4.0</ele><time>2026-04-17T16:28:47.999Z</time></trkpt><trkpt lat="41.877926277994206" lon="12.21155401476636"><ele>4.0</ele><time>2026-04-17T16:28:48.999Z</time></trkpt><trkpt lat="41.877938528649956" lon="12.211325744947615"><ele>4.0</ele><time>2026-04-17T16:28:49.999Z</time></trkpt><trkpt lat="41.87795623984461" lon="12.211096932748953"><ele>4.0</ele><time>2026-04-17T16:28:50.999Z</time></trkpt><trkpt lat="41.877975077115984" lon="12.210867642010044"><ele>4.0</ele><time>2026-04-17T16:28:51.999Z</time></trkpt><trkpt lat="41.877990818404676" lon="12.21064456565324"><ele>4.0</ele><time>2026-04-17T16:28:52.999Z</time></trkpt><trkpt lat="41.87800535660579" lon="12.210432709164103"><ele>4.0</ele><time>2026-04-17T16:28:53.999Z</time></trkpt><trkpt lat="41.87802690094205" lon="12.210163534762945"><ele>4.0</ele><time>2026-04-17T16:28:54.999Z</time></trkpt><trkpt lat="41.87804848562118" lon="12.20992168651187"><ele>4.0</ele><time>2026-04-17T16:28:55.999Z</time></trkpt><trkpt lat="41.878069690947044" lon="12.209676670024724"><ele>4.0</ele><time>2026-04-17T16:28:56.999Z</time></trkpt><trkpt lat="41.878093394794" lon="12.209427843115847"><ele>3.6666666666666665</ele><time>2026-04-17T16:28:57.999Z</time></trkpt><trkpt lat="41.87811303124163" lon="12.209184097318461"><ele>3.333333333333333</ele><time>2026-04-17T16:28:58.999Z</time></trkpt><trkpt lat="41.87813471530919" lon="12.208932773103228"><ele>3.0</ele><time>2026-04-17T16:28:59.999Z</time></trkpt><trkpt lat="41.87815858779155" lon="12.20868357577584"><ele>3.0</ele><time>2026-04-17T16:29:00.999Z</time></trkpt><trkpt lat="41.878179747928534" lon="12.208440847965914"><ele>3.0</ele><time>2026-04-17T16:29:01.999Z</time></trkpt><trkpt lat="41.87820504156628" lon="12.208190506316193"><ele>3.0</ele><time>2026-04-17T16:29:02.999Z</time></trkpt><trkpt lat="41.87822467603952" lon="12.207943604032915"><ele>3.333333333333333</ele><time>2026-04-17T16:29:03.999Z</time></trkpt><trkpt lat="41.8782436268314" lon="12.207698097612472"><ele>3.6666666666666665</ele><time>2026-04-17T16:29:04.999Z</time></trkpt><trkpt lat="41.878266028438965" lon="12.207450924820417"><ele>4.0</ele><time>2026-04-17T16:29:05.999Z</time></trkpt><trkpt lat="41.87828436040745" lon="12.207215988775134"><ele>4.0</ele><time>2026-04-17T16:29:06.999Z</time></trkpt><trkpt lat="41.87830383606491" lon="12.20696274133164"><ele>4.0</ele><time>2026-04-17T16:29:07.999Z</time></trkpt><trkpt lat="41.8783228478439" lon="12.206736744251831"><ele>4.0</ele><time>2026-04-17T16:29:08.999Z</time></trkpt><trkpt lat="41.87834509890968" lon="12.206496505740743"><ele>3.6666666666666665</ele><time>2026-04-17T16:29:09.999Z</time></trkpt><trkpt lat="41.87836160955102" lon="12.206265475257313"><ele>3.333333333333333</ele><time>2026-04-17T16:29:10.999Z</time></trkpt><trkpt lat="41.87838353216636" lon="12.206026011277753"><ele>3.0</ele><time>2026-04-17T16:29:11.999Z</time></trkpt><trkpt lat="41.87840569055513" lon="12.205803581217376"><ele>3.0</ele><time>2026-04-17T16:29:12.999Z</time></trkpt><trkpt lat="41.87842965549584" lon="12.205569721477731"><ele>3.0</ele><time>2026-04-17T16:29:13.999Z</time></trkpt><trkpt lat="41.87846050877574" lon="12.205338972804444"><ele>3.0</ele><time>2026-04-17T16:29:14.999Z</time></trkpt><trkpt lat="41.878486182732644" lon="12.205115889607525"><ele>2.3333333333333335</ele><time>2026-04-17T16:29:15.999Z</time></trkpt><trkpt lat="41.87850795537541" lon="12.204872021227214"><ele>1.6666666666666665</ele><time>2026-04-17T16:29:16.999Z</time></trkpt><trkpt lat="41.8785242117572" lon="12.204630016175239"><ele>1.0</ele><time>2026-04-17T16:29:17.999Z</time></trkpt><trkpt lat="41.878538752239336" lon="12.20438193615604"><ele>0.6666666666666666</ele><time>2026-04-17T16:29:18.999Z</time></trkpt><trkpt lat="41.87855907246319" lon="12.20412674125142"><ele>0.3333333333333333</ele><time>2026-04-17T16:29:19.999Z</time></trkpt><trkpt lat="41.87858009819786" lon="12.203869673871692"><ele>0.0</ele><time>2026-04-17T16:29:20.999Z</time></trkpt><trkpt lat="41.87860652392129" lon="12.203611256786182"><ele>0.0</ele><time>2026-04-17T16:29:21.999Z</time></trkpt><trkpt lat="41.87862732949446" lon="12.203361416916447"><ele>0.0</ele><time>2026-04-17T16:29:22.998Z</time></trkpt><trkpt lat="41.87865148633168" lon="12.203130101597171"><ele>0.0</ele><time>2026-04-17T16:29:23.998Z</time></trkpt><trkpt lat="41.87867337383187" lon="12.2029025909917"><ele>0.3333333333333333</ele><time>2026-04-17T16:29:24.998Z</time></trkpt><trkpt lat="41.878694458542846" lon="12.202692101214485"><ele>0.6666666666666666</ele><time>2026-04-17T16:29:25.998Z</time></trkpt><trkpt lat="41.87871295977359" lon="12.202488959289607"><ele>1.0</ele><time>2026-04-17T16:29:26.998Z</time></trkpt><trkpt lat="41.87873757331733" lon="12.202295417353056"><ele>1.25</ele><time>2026-04-17T16:29:27.998Z</time></trkpt><trkpt lat="41.87878045540228" lon="12.202108254420192"><ele>1.5</ele><time>2026-04-17T16:29:28.998Z</time></trkpt><trkpt lat="41.8788410167206" lon="12.201923703988584"><ele>1.75</ele><time>2026-04-17T16:29:29.998Z</time></trkpt><trkpt lat="41.878907798780226" lon="12.201741791294355"><ele>2.0</ele><time>2026-04-17T16:29:30.998Z</time></trkpt><trkpt lat="41.878983432329775" lon="12.201557544544833"><ele>1.75</ele><time>2026-04-17T16:29:31.998Z</time></trkpt><trkpt lat="41.87906043666817" lon="12.201377447371568"><ele>1.5</ele><time>2026-04-17T16:29:32.998Z</time></trkpt><trkpt lat="41.87912430351151" lon="12.201200768162234"><ele>1.25</ele><time>2026-04-17T16:29:33.998Z</time></trkpt><trkpt lat="41.879188825930264" lon="12.201026124119913"><ele>1.0</ele><time>2026-04-17T16:29:34.998Z</time></trkpt><trkpt lat="41.87925626709122" lon="12.200855631452644"><ele>1.5</ele><time>2026-04-17T16:29:35.998Z</time></trkpt><trkpt lat="41.87932306674003" lon="12.20069237413096"><ele>2.0</ele><time>2026-04-17T16:29:36.998Z</time></trkpt><trkpt lat="41.879391189414264" lon="12.200526887733345"><ele>2.5</ele><time>2026-04-17T16:29:37.998Z</time></trkpt><trkpt lat="41.879456988586995" lon="12.200364807860653"><ele>3.0</ele><time>2026-04-17T16:29:38.998Z</time></trkpt><trkpt lat="41.879522684869954" lon="12.200206947762604"><ele>3.0</ele><time>2026-04-17T16:29:39.998Z</time></trkpt><trkpt lat="41.87957927383722" lon="12.200061405269246"><ele>3.0</ele><time>2026-04-17T16:29:40.998Z</time></trkpt><trkpt lat="41.8796384066687" lon="12.19991586866024"><ele>3.0</ele><time>2026-04-17T16:29:41.998Z</time></trkpt><trkpt lat="41.87969049771004" lon="12.199782440282819"><ele>3.0</ele><time>2026-04-17T16:29:42.998Z</time></trkpt><trkpt lat="41.879737606945966" lon="12.199651613489873"><ele>3.0</ele><time>2026-04-17T16:29:43.998Z</time></trkpt><trkpt lat="41.87978806173423" lon="12.199515947772342"><ele>3.0</ele><time>2026-04-17T16:29:44.998Z</time></trkpt><trkpt lat="41.879864751310485" lon="12.19936588793084"><ele>3.0</ele><time>2026-04-17T16:29:45.998Z</time></trkpt><trkpt lat="41.87992302810976" lon="12.199177070028837"><ele>3.0</ele><time>2026-04-17T16:29:46.998Z</time></trkpt><trkpt lat="41.88000809569238" lon="12.19899772244174"><ele>3.0</ele><time>2026-04-17T16:29:47.998Z</time></trkpt><trkpt lat="41.88008610999922" lon="12.198813769534365"><ele>3.0</ele><time>2026-04-17T16:29:48.998Z</time></trkpt><trkpt lat="41.88016380270502" lon="12.198628577025755"><ele>3.0</ele><time>2026-04-17T16:29:49.998Z</time></trkpt><trkpt lat="41.88023703015954" lon="12.19844988791289"><ele>3.0</ele><time>2026-04-17T16:29:50.998Z</time></trkpt><trkpt lat="41.880312654115315" lon="12.19826631741849"><ele>3.0</ele><time>2026-04-17T16:29:51.998Z</time></trkpt><trkpt lat="41.880388044204906" lon="12.19808309228645"><ele>3.0</ele><time>2026-04-17T16:29:52.998Z</time></trkpt><trkpt lat="41.880459647384356" lon="12.197900205878057"><ele>3.0</ele><time>2026-04-17T16:29:53.998Z</time></trkpt><trkpt lat="41.880534953879604" lon="12.197722205334312"><ele>3.0</ele><time>2026-04-17T16:29:54.998Z</time></trkpt><trkpt lat="41.88060698924834" lon="12.197541473579882"><ele>3.0</ele><time>2026-04-17T16:29:55.998Z</time></trkpt><trkpt lat="41.88067659547383" lon="12.197362579415842"><ele>3.333333333333333</ele><time>2026-04-17T16:29:56.998Z</time></trkpt><trkpt lat="41.8807464505351" lon="12.19717586344323"><ele>3.6666666666666665</ele><time>2026-04-17T16:29:57.998Z</time></trkpt><trkpt lat="41.88081615535964" lon="12.196990401291455"><ele>4.0</ele><time>2026-04-17T16:29:58.998Z</time></trkpt><trkpt lat="41.880889847769346" lon="12.19680631966645"><ele>3.6666666666666665</ele><time>2026-04-17T16:29:59.998Z</time></trkpt><trkpt lat="41.88096303646222" lon="12.19662634797832"><ele>3.333333333333333</ele><time>2026-04-17T16:30:00.998Z</time></trkpt><trkpt lat="41.88103309464123" lon="12.196443457841772"><ele>3.0</ele><time>2026-04-17T16:30:01.998Z</time></trkpt><trkpt lat="41.881100187690166" lon="12.196270864648076"><ele>3.0</ele><time>2026-04-17T16:30:02.997Z</time></trkpt><trkpt lat="41.881160373883255" lon="12.196117037905488"><ele>3.0</ele><time>2026-04-17T16:30:03.997Z</time></trkpt><trkpt lat="41.88122583391872" lon="12.195986023689112"><ele>3.0</ele><time>2026-04-17T16:30:04.997Z</time></trkpt><trkpt lat="41.881291796551146" lon="12.19587403348268"><ele>3.0</ele><time>2026-04-17T16:30:05.997Z</time></trkpt><trkpt lat="41.881347431289214" lon="12.19578136176449"><ele>3.0</ele><time>2026-04-17T16:30:06.997Z</time></trkpt><trkpt lat="41.88140213111628" lon="12.19571385588616"><ele>3.0</ele><time>2026-04-17T16:30:07.997Z</time></trkpt><trkpt lat="41.881483066578994" lon="12.195621047592358"><ele>3.0</ele><time>2026-04-17T16:30:09.997Z</time></trkpt><trkpt lat="41.88142882660322" lon="12.195459907535728"><ele>3.0</ele><time>2026-04-17T16:30:11.997Z</time></trkpt><trkpt lat="41.881349259755325" lon="12.195308049225364"><ele>3.0</ele><time>2026-04-17T16:30:13.997Z</time></trkpt><trkpt lat="41.881299857245494" lon="12.195204305336334"><ele>3.0</ele><time>2026-04-17T16:30:14.997Z</time></trkpt><trkpt lat="41.88124845139785" lon="12.195080200895832"><ele>3.0</ele><time>2026-04-17T16:30:15.997Z</time></trkpt><trkpt lat="41.88118175865468" lon="12.194945345104829"><ele>3.0</ele><time>2026-04-17T16:30:16.997Z</time></trkpt><trkpt lat="41.88111599505243" lon="12.194799270147902"><ele>3.0</ele><time>2026-04-17T16:30:17.997Z</time></trkpt><trkpt lat="41.88104333764254" lon="12.194632573838616"><ele>2.6666666666666665</ele><time>2026-04-17T16:30:18.997Z</time></trkpt><trkpt lat="41.88096377320348" lon="12.194452330959137"><ele>2.333333333333333</ele><time>2026-04-17T16:30:20Z</time></trkpt><trkpt lat="41.880880009691076" lon="12.194268273209133"><ele>2.0</ele><time>2026-04-17T16:30:21Z</time></trkpt><trkpt lat="41.88081002569493" lon="12.194066690231054"><ele>2.333333333333333</ele><time>2026-04-17T16:30:22Z</time></trkpt><trkpt lat="41.880716271723315" lon="12.19389457800507"><ele>2.6666666666666665</ele><time>2026-04-17T16:30:23Z</time></trkpt><trkpt lat="41.8806441140152" lon="12.193720069830118"><ele>3.0</ele><time>2026-04-17T16:30:24Z</time></trkpt><trkpt lat="41.880570147220475" lon="12.193553908856822"><ele>3.0</ele><time>2026-04-17T16:30:25Z</time></trkpt><trkpt lat="41.8804924883265" lon="12.193378008213111"><ele>3.0</ele><time>2026-04-17T16:30:26Z</time></trkpt><trkpt lat="41.880416834978575" lon="12.193195298068098"><ele>3.0</ele><time>2026-04-17T16:30:27Z</time></trkpt><trkpt lat="41.880339007744524" lon="12.193007502686026"><ele>2.6666666666666665</ele><time>2026-04-17T16:30:28Z</time></trkpt><trkpt lat="41.880261127265165" lon="12.19281741686449"><ele>2.333333333333333</ele><time>2026-04-17T16:30:29Z</time></trkpt><trkpt lat="41.880179346357814" lon="12.192635256745236"><ele>2.0</ele><time>2026-04-17T16:30:30Z</time></trkpt><trkpt lat="41.88011776194069" lon="12.192451657048627"><ele>2.5</ele><time>2026-04-17T16:30:31Z</time></trkpt><trkpt lat="41.880048764467546" lon="12.192287491323752"><ele>3.0</ele><time>2026-04-17T16:30:32Z</time></trkpt><trkpt lat="41.879981219912764" lon="12.192171828870276"><ele>3.5</ele><time>2026-04-17T16:30:33Z</time></trkpt><trkpt lat="41.87993351548796" lon="12.192013340361571"><ele>4.0</ele><time>2026-04-17T16:30:34Z</time></trkpt><trkpt lat="41.87986101173571" lon="12.191888148985758"><ele>4.0</ele><time>2026-04-17T16:30:35Z</time></trkpt><trkpt lat="41.87981096408397" lon="12.191749508594743"><ele>4.0</ele><time>2026-04-17T16:30:36Z</time></trkpt><trkpt lat="41.87974459942331" lon="12.191616115496057"><ele>4.0</ele><time>2026-04-17T16:30:37Z</time></trkpt><trkpt lat="41.87969655270204" lon="12.191492772420126"><ele>4.0</ele><time>2026-04-17T16:30:38Z</time></trkpt><trkpt lat="41.879646882266194" lon="12.19137699047661"><ele>4.0</ele><time>2026-04-17T16:30:39Z</time></trkpt><trkpt lat="41.879597235708786" lon="12.191257618999632"><ele>3.6</ele><time>2026-04-17T16:30:40Z</time></trkpt><trkpt lat="41.87954052358089" lon="12.191137546064546"><ele>3.2</ele><time>2026-04-17T16:30:41Z</time></trkpt><trkpt lat="41.879490156121626" lon="12.19101295757388"><ele>2.8000000000000003</ele><time>2026-04-17T16:30:42Z</time></trkpt><trkpt lat="41.87944322858955" lon="12.190896030377763"><ele>2.4000000000000004</ele><time>2026-04-17T16:30:43Z</time></trkpt><trkpt lat="41.87939160265569" lon="12.190777291721345"><ele>2.0</ele><time>2026-04-17T16:30:44Z</time></trkpt><trkpt lat="41.87933129035924" lon="12.190646173916674"><ele>2.25</ele><time>2026-04-17T16:30:45Z</time></trkpt><trkpt lat="41.87926598188013" lon="12.190501606154246"><ele>2.5</ele><time>2026-04-17T16:30:46Z</time></trkpt><trkpt lat="41.879207166325855" lon="12.190355422757342"><ele>2.75</ele><time>2026-04-17T16:30:47Z</time></trkpt><trkpt lat="41.87913932997711" lon="12.19019996031127"><ele>3.0</ele><time>2026-04-17T16:30:48Z</time></trkpt><trkpt lat="41.879071836408826" lon="12.19004316878254"><ele>3.0</ele><time>2026-04-17T16:30:49Z</time></trkpt><trkpt lat="41.87900324568911" lon="12.189878296865992"><ele>3.0</ele><time>2026-04-17T16:30:50Z</time></trkpt><trkpt lat="41.87893567603149" lon="12.18971534838405"><ele>3.0</ele><time>2026-04-17T16:30:51Z</time></trkpt><trkpt lat="41.87886129502947" lon="12.1895550334766"><ele>3.0</ele><time>2026-04-17T16:30:52Z</time></trkpt><trkpt lat="41.87879232400221" lon="12.189386189869847"><ele>1.6666666666666667</ele><time>2026-04-17T16:30:53Z</time></trkpt><trkpt lat="41.87871711265894" lon="12.189205980500981"><ele>0.33333333333333337</ele><time>2026-04-17T16:30:54Z</time></trkpt><trkpt lat="41.87864326918217" lon="12.18903155343745"><ele>-1.0</ele><time>2026-04-17T16:30:55Z</time></trkpt><trkpt lat="41.878567688247756" lon="12.188856040927678"><ele>-1.5</ele><time>2026-04-17T16:30:56Z</time></trkpt><trkpt lat="41.878490844891274" lon="12.188686895898575"><ele>-2.0</ele><time>2026-04-17T16:30:57Z</time></trkpt><trkpt lat="41.87841528478962" lon="12.188527376652743"><ele>-2.5</ele><time>2026-04-17T16:30:58Z</time></trkpt><trkpt lat="41.87834332344444" lon="12.188376418969288"><ele>-3.0</ele><time>2026-04-17T16:30:58.999Z</time></trkpt><trkpt lat="41.87828964346495" lon="12.188218032001084"><ele>-2.25</ele><time>2026-04-17T16:30:59.999Z</time></trkpt><trkpt lat="41.87821704914209" lon="12.188077077337317"><ele>-1.5</ele><time>2026-04-17T16:31:00.999Z</time></trkpt><trkpt lat="41.87814919653896" lon="12.187920002690934"><ele>-0.75</ele><time>2026-04-17T16:31:01.999Z</time></trkpt><trkpt lat="41.87807724901828" lon="12.18776083735547"><ele>0.0</ele><time>2026-04-17T16:31:02.999Z</time></trkpt><trkpt lat="41.878004847873996" lon="12.18758203396428"><ele>0.0</ele><time>2026-04-17T16:31:03.999Z</time></trkpt><trkpt lat="41.87792889195413" lon="12.18741478607276"><ele>0.0</ele><time>2026-04-17T16:31:04.999Z</time></trkpt><trkpt lat="41.877852341459175" lon="12.18724341177291"><ele>0.0</ele><time>2026-04-17T16:31:05.999Z</time></trkpt><trkpt lat="41.877778716680474" lon="12.187078181257915"><ele>0.0</ele><time>2026-04-17T16:31:06.999Z</time></trkpt><trkpt lat="41.87771174045872" lon="12.18691887896623"><ele>0.25</ele><time>2026-04-17T16:31:07.999Z</time></trkpt><trkpt lat="41.87763982817692" lon="12.186757226984883"><ele>0.5</ele><time>2026-04-17T16:31:08.999Z</time></trkpt><trkpt lat="41.877569109731404" lon="12.186590289136458"><ele>0.75</ele><time>2026-04-17T16:31:09.999Z</time></trkpt><trkpt lat="41.87749836051202" lon="12.186424902420958"><ele>1.0</ele><time>2026-04-17T16:31:10.999Z</time></trkpt><trkpt lat="41.87742493347436" lon="12.186257471620614"><ele>1.5</ele><time>2026-04-17T16:31:11.999Z</time></trkpt><trkpt lat="41.87735728996604" lon="12.18609865257602"><ele>2.0</ele><time>2026-04-17T16:31:12.999Z</time></trkpt><trkpt lat="41.87729620358998" lon="12.18595306573464"><ele>2.5</ele><time>2026-04-17T16:31:13.999Z</time></trkpt><trkpt lat="41.87723277766982" lon="12.185805493097169"><ele>3.0</ele><time>2026-04-17T16:31:14.999Z</time></trkpt><trkpt lat="41.87717047142537" lon="12.185659976045713"><ele>3.0</ele><time>2026-04-17T16:31:15.999Z</time></trkpt><trkpt lat="41.877110307141045" lon="12.18552976291275"><ele>3.0</ele><time>2026-04-17T16:31:16.999Z</time></trkpt><trkpt lat="41.877055440410615" lon="12.185402480332547"><ele>3.0</ele><time>2026-04-17T16:31:17.999Z</time></trkpt><trkpt lat="41.87699568362345" lon="12.185267641585394"><ele>3.0</ele><time>2026-04-17T16:31:18.999Z</time></trkpt><trkpt lat="41.87693225939639" lon="12.185116451548993"><ele>3.0</ele><time>2026-04-17T16:31:19.999Z</time></trkpt><trkpt lat="41.87686415396903" lon="12.184958307175748"><ele>3.0</ele><time>2026-04-17T16:31:20.999Z</time></trkpt><trkpt lat="41.87679312591368" lon="12.184786883663044"><ele>3.0</ele><time>2026-04-17T16:31:21.999Z</time></trkpt><trkpt lat="41.87671169314274" lon="12.184597718545694"><ele>3.0</ele><time>2026-04-17T16:31:22.999Z</time></trkpt><trkpt lat="41.87663350892823" lon="12.184415507555745"><ele>3.75</ele><time>2026-04-17T16:31:23.999Z</time></trkpt><trkpt lat="41.87656771158399" lon="12.184257606186566"><ele>4.5</ele><time>2026-04-17T16:31:24.999Z</time></trkpt><trkpt lat="41.876504729682445" lon="12.184111355955814"><ele>5.25</ele><time>2026-04-17T16:31:25.999Z</time></trkpt><trkpt lat="41.87644719288099" lon="12.183976779124546"><ele>6.0</ele><time>2026-04-17T16:31:26.999Z</time></trkpt><trkpt lat="41.87639370337881" lon="12.183852709973571"><ele>6.0</ele><time>2026-04-17T16:31:27.999Z</time></trkpt><trkpt lat="41.87634442195927" lon="12.18374349364463"><ele>6.0</ele><time>2026-04-17T16:31:28.999Z</time></trkpt><trkpt lat="41.876303122726334" lon="12.183633897552914"><ele>6.0</ele><time>2026-04-17T16:31:29.999Z</time></trkpt><trkpt lat="41.87625286239418" lon="12.183519049022868"><ele>6.0</ele><time>2026-04-17T16:31:30.999Z</time></trkpt><trkpt lat="41.876198037885885" lon="12.183398476068682"><ele>6.0</ele><time>2026-04-17T16:31:31.999Z</time></trkpt><trkpt lat="41.876140133695046" lon="12.183263921432031"><ele>6.5</ele><time>2026-04-17T16:31:32.999Z</time></trkpt><trkpt lat="41.87608727427458" lon="12.183122588470953"><ele>7.0</ele><time>2026-04-17T16:31:33.999Z</time></trkpt><trkpt lat="41.876026309933536" lon="12.18298456283286"><ele>7.5</ele><time>2026-04-17T16:31:34.999Z</time></trkpt><trkpt lat="41.875956592451224" lon="12.18283677691847"><ele>8.0</ele><time>2026-04-17T16:31:35.999Z</time></trkpt><trkpt lat="41.8758982208053" lon="12.182670005913641"><ele>8.0</ele><time>2026-04-17T16:31:36.999Z</time></trkpt><trkpt lat="41.87582420395348" lon="12.182525390082496"><ele>8.0</ele><time>2026-04-17T16:31:37.999Z</time></trkpt><trkpt lat="41.875758933965386" lon="12.18237409616012"><ele>8.0</ele><time>2026-04-17T16:31:38.999Z</time></trkpt><trkpt lat="41.87570613718354" lon="12.182241695058867"><ele>8.0</ele><time>2026-04-17T16:31:39.998Z</time></trkpt><trkpt lat="41.875648155957535" lon="12.182115341524536"><ele>8.0</ele><time>2026-04-17T16:31:40.998Z</time></trkpt><trkpt lat="41.87559484281404" lon="12.181981054201417"><ele>8.0</ele><time>2026-04-17T16:31:41.998Z</time></trkpt><trkpt lat="41.87553517900659" lon="12.181837762980617"><ele>8.0</ele><time>2026-04-17T16:31:42.998Z</time></trkpt><trkpt lat="41.875475823497304" lon="12.18170952923651"><ele>8.0</ele><time>2026-04-17T16:31:43.998Z</time></trkpt><trkpt lat="41.875419627607066" lon="12.181588180842292"><ele>7.6000000000000005</ele><time>2026-04-17T16:31:44.998Z</time></trkpt><trkpt lat="41.87536449568907" lon="12.181457299326178"><ele>7.200000000000001</ele><time>2026-04-17T16:31:45.998Z</time></trkpt><trkpt lat="41.87530586931848" lon="12.181317749332333"><ele>6.8</ele><time>2026-04-17T16:31:46.998Z</time></trkpt><trkpt lat="41.875248775012736" lon="12.181190026299646"><ele>6.4</ele><time>2026-04-17T16:31:47.998Z</time></trkpt><trkpt lat="41.875194087050964" lon="12.181085492992208"><ele>6.0</ele><time>2026-04-17T16:31:48.998Z</time></trkpt><trkpt lat="41.87515343764299" lon="12.180987065211568"><ele>6.0</ele><time>2026-04-17T16:31:49.998Z</time></trkpt><trkpt lat="41.875119744610735" lon="12.180894547417314"><ele>6.0</ele><time>2026-04-17T16:31:50.998Z</time></trkpt><trkpt lat="41.87507841296633" lon="12.180805637111119"><ele>6.0</ele><time>2026-04-17T16:31:51.998Z</time></trkpt><trkpt lat="41.875029775016415" lon="12.180700703851768"><ele>6.0</ele><time>2026-04-17T16:31:52.998Z</time></trkpt><trkpt lat="41.874980830103866" lon="12.180588945443922"><ele>6.0</ele><time>2026-04-17T16:31:53.998Z</time></trkpt><trkpt lat="41.874925840079314" lon="12.180465706471704"><ele>5.2</ele><time>2026-04-17T16:31:54.998Z</time></trkpt><trkpt lat="41.87486972691973" lon="12.180336001323573"><ele>4.3999999999999995</ele><time>2026-04-17T16:31:55.998Z</time></trkpt><trkpt lat="41.874815425205945" lon="12.180214179118519"><ele>3.6</ele><time>2026-04-17T16:31:56.998Z</time></trkpt><trkpt lat="41.87477227347716" lon="12.180107605847713"><ele>2.8</ele><time>2026-04-17T16:31:57.998Z</time></trkpt><trkpt lat="41.874728743170344" lon="12.18000154676699"><ele>2.0</ele><time>2026-04-17T16:31:58.998Z</time></trkpt><trkpt lat="41.87468102240671" lon="12.179902403561037"><ele>1.9999999999999998</ele><time>2026-04-17T16:31:59.998Z</time></trkpt><trkpt lat="41.87463722860318" lon="12.179805701393281"><ele>2.0</ele><time>2026-04-17T16:32:00.998Z</time></trkpt><trkpt lat="41.87460210310299" lon="12.17970482170724"><ele>2.0</ele><time>2026-04-17T16:32:01.998Z</time></trkpt><trkpt lat="41.87456218973043" lon="12.17961168292393"><ele>2.0</ele><time>2026-04-17T16:32:02.998Z</time></trkpt><trkpt lat="41.874523828903854" lon="12.179531486655844"><ele>1.9999999999999998</ele><time>2026-04-17T16:32:03.998Z</time></trkpt><trkpt lat="41.87447163258635" lon="12.179394916417685"><ele>2.0</ele><time>2026-04-17T16:32:05.998Z</time></trkpt><trkpt lat="41.87446536306615" lon="12.179260650477355"><ele>2.0</ele><time>2026-04-17T16:32:07.998Z</time></trkpt><trkpt lat="41.87452907422437" lon="12.17911897021755"><ele>2.0</ele><time>2026-04-17T16:32:09.998Z</time></trkpt><trkpt lat="41.87459622629432" lon="12.179062918279456"><ele>2.0</ele><time>2026-04-17T16:32:10.998Z</time></trkpt><trkpt lat="41.8746779849347" lon="12.17900641284743"><ele>2.0</ele><time>2026-04-17T16:32:11.998Z</time></trkpt><trkpt lat="41.8747678324561" lon="12.178943311163497"><ele>2.0</ele><time>2026-04-17T16:32:12.998Z</time></trkpt><trkpt lat="41.874869709754506" lon="12.178858983849977"><ele>2.25</ele><time>2026-04-17T16:32:13.998Z</time></trkpt><trkpt lat="41.87497661383113" lon="12.178768593900596"><ele>2.5</ele><time>2026-04-17T16:32:14.998Z</time></trkpt><trkpt lat="41.87507646671331" lon="12.178689401217436"><ele>2.75</ele><time>2026-04-17T16:32:15.998Z</time></trkpt><trkpt lat="41.87517844045123" lon="12.17860859103223"><ele>3.0</ele><time>2026-04-17T16:32:16.998Z</time></trkpt><trkpt lat="41.87529796414246" lon="12.178514300168484"><ele>3.0</ele><time>2026-04-17T16:32:17.998Z</time></trkpt><trkpt lat="41.875428109640694" lon="12.178406715257125"><ele>3.0</ele><time>2026-04-17T16:32:18.998Z</time></trkpt><trkpt lat="41.87556840881076" lon="12.178293912702735"><ele>3.0</ele><time>2026-04-17T16:32:19.997Z</time></trkpt><trkpt lat="41.87571657536082" lon="12.178184142658443"><ele>3.0</ele><time>2026-04-17T16:32:20.997Z</time></trkpt><trkpt lat="41.87586380054996" lon="12.178076192089431"><ele>3.0</ele><time>2026-04-17T16:32:21.997Z</time></trkpt><trkpt lat="41.87600710321435" lon="12.177959815899918"><ele>3.0</ele><time>2026-04-17T16:32:22.997Z</time></trkpt><trkpt lat="41.87615718174319" lon="12.177840247059176"><ele>3.0</ele><time>2026-04-17T16:32:23.997Z</time></trkpt><trkpt lat="41.87629384960938" lon="12.17773328804142"><ele>3.0</ele><time>2026-04-17T16:32:24.997Z</time></trkpt><trkpt lat="41.87641314608285" lon="12.177640639022641"><ele>3.0</ele><time>2026-04-17T16:32:26Z</time></trkpt><trkpt lat="41.87653224602397" lon="12.177544197749693"><ele>3.0</ele><time>2026-04-17T16:32:27Z</time></trkpt><trkpt lat="41.87665540295256" lon="12.177449969290645"><ele>3.0</ele><time>2026-04-17T16:32:28Z</time></trkpt><trkpt lat="41.876786449626955" lon="12.177351918105112"><ele>3.0</ele><time>2026-04-17T16:32:29Z</time></trkpt><trkpt lat="41.87692048859302" lon="12.177252355962468"><ele>3.0</ele><time>2026-04-17T16:32:30Z</time></trkpt><trkpt lat="41.87705849751254" lon="12.1771568953049"><ele>3.0</ele><time>2026-04-17T16:32:31Z</time></trkpt><trkpt lat="41.87719418850059" lon="12.177055035230037"><ele>3.0</ele><time>2026-04-17T16:32:32Z</time></trkpt><trkpt lat="41.87732449391453" lon="12.176952508148979"><ele>3.0</ele><time>2026-04-17T16:32:33Z</time></trkpt><trkpt lat="41.877435047456224" lon="12.17686303491578"><ele>3.0</ele><time>2026-04-17T16:32:34Z</time></trkpt><trkpt lat="41.87753610020123" lon="12.176773230248724"><ele>3.0</ele><time>2026-04-17T16:32:35Z</time></trkpt><trkpt lat="41.87762353172154" lon="12.176684044080943"><ele>3.0</ele><time>2026-04-17T16:32:36Z</time></trkpt><trkpt lat="41.87772145276743" lon="12.176587990205755"><ele>3.0</ele><time>2026-04-17T16:32:37Z</time></trkpt><trkpt lat="41.877818471478896" lon="12.176489133601171"><ele>3.0</ele><time>2026-04-17T16:32:38Z</time></trkpt><trkpt lat="41.87791933518402" lon="12.176388034169545"><ele>2.5</ele><time>2026-04-17T16:32:39Z</time></trkpt><trkpt lat="41.8780226872771" lon="12.176291540023735"><ele>2.0</ele><time>2026-04-17T16:32:40Z</time></trkpt><trkpt lat="41.87812661646248" lon="12.176197079794553"><ele>1.5</ele><time>2026-04-17T16:32:41Z</time></trkpt><trkpt lat="41.87823334024876" lon="12.176103495337712"><ele>1.0</ele><time>2026-04-17T16:32:42Z</time></trkpt><trkpt lat="41.87834687568237" lon="12.176011853905543"><ele>0.75</ele><time>2026-04-17T16:32:43Z</time></trkpt><trkpt lat="41.87846553649107" lon="12.175914544258251"><ele>0.5</ele><time>2026-04-17T16:32:44Z</time></trkpt><trkpt lat="41.878595095167704" lon="12.175812440959994"><ele>0.25</ele><time>2026-04-17T16:32:45Z</time></trkpt><trkpt lat="41.878729395498766" lon="12.175712248684547"><ele>0.0</ele><time>2026-04-17T16:32:46Z</time></trkpt><trkpt lat="41.87887011755022" lon="12.175604868736338"><ele>1.0</ele><time>2026-04-17T16:32:47Z</time></trkpt><trkpt lat="41.87901257978786" lon="12.175498406894132"><ele>2.0</ele><time>2026-04-17T16:32:48Z</time></trkpt><trkpt lat="41.87915600098133" lon="12.17538779387181"><ele>3.0</ele><time>2026-04-17T16:32:49Z</time></trkpt><trkpt lat="41.87930026781222" lon="12.175275118325182"><ele>3.333333333333333</ele><time>2026-04-17T16:32:50Z</time></trkpt><trkpt lat="41.8794443188649" lon="12.175164698129622"><ele>3.6666666666666665</ele><time>2026-04-17T16:32:51Z</time></trkpt><trkpt lat="41.87959176979309" lon="12.175052548197199"><ele>4.0</ele><time>2026-04-17T16:32:52Z</time></trkpt><trkpt lat="41.879741657856755" lon="12.17494082262008"><ele>3.75</ele><time>2026-04-17T16:32:53Z</time></trkpt><trkpt lat="41.87987972706703" lon="12.174839977218445"><ele>3.5</ele><time>2026-04-17T16:32:54Z</time></trkpt><trkpt lat="41.88000536293174" lon="12.174744417419324"><ele>3.25</ele><time>2026-04-17T16:32:55Z</time></trkpt><trkpt lat="41.88013174438398" lon="12.17465008556335"><ele>3.0</ele><time>2026-04-17T16:32:56Z</time></trkpt><trkpt lat="41.88024206230529" lon="12.174570649860721"><ele>3.0</ele><time>2026-04-17T16:32:57Z</time></trkpt><trkpt lat="41.88034125421471" lon="12.17449186259215"><ele>3.0</ele><time>2026-04-17T16:32:58Z</time></trkpt><trkpt lat="41.8804274299046" lon="12.174426231312571"><ele>3.0</ele><time>2026-04-17T16:32:59Z</time></trkpt><trkpt lat="41.880510108903785" lon="12.174368458987043"><ele>3.0</ele><time>2026-04-17T16:33:00Z</time></trkpt><trkpt lat="41.880596476488805" lon="12.174301915311352"><ele>3.0</ele><time>2026-04-17T16:33:01Z</time></trkpt><trkpt lat="41.88067663061901" lon="12.174240349746395"><ele>3.0</ele><time>2026-04-17T16:33:02Z</time></trkpt><trkpt lat="41.88074536388152" lon="12.174192339261415"><ele>3.0</ele><time>2026-04-17T16:33:03Z</time></trkpt><trkpt lat="41.88081868906934" lon="12.174143755777381"><ele>3.0</ele><time>2026-04-17T16:33:04Z</time></trkpt><trkpt lat="41.88088274848244" lon="12.17408873245823"><ele>3.0</ele><time>2026-04-17T16:33:04.999Z</time></trkpt><trkpt lat="41.8809514149279" lon="12.174035486865366"><ele>3.0</ele><time>2026-04-17T16:33:05.999Z</time></trkpt><trkpt lat="41.881025596941605" lon="12.173982911399438"><ele>3.0</ele><time>2026-04-17T16:33:06.999Z</time></trkpt><trkpt lat="41.88110125877718" lon="12.173930310908819"><ele>3.0</ele><time>2026-04-17T16:33:07.999Z</time></trkpt><trkpt lat="41.881189055199485" lon="12.173857812293068"><ele>3.0</ele><time>2026-04-17T16:33:08.999Z</time></trkpt><trkpt lat="41.881276088366945" lon="12.173793617914864"><ele>3.0</ele><time>2026-04-17T16:33:09.999Z</time></trkpt><trkpt lat="41.88138613099239" lon="12.173726544339383"><ele>3.0</ele><time>2026-04-17T16:33:10.999Z</time></trkpt><trkpt lat="41.88148271237509" lon="12.173651334815053"><ele>3.0</ele><time>2026-04-17T16:33:11.999Z</time></trkpt><trkpt lat="41.88158381994305" lon="12.173574231898344"><ele>3.0</ele><time>2026-04-17T16:33:12.999Z</time></trkpt><trkpt lat="41.88168297824659" lon="12.173499425281143"><ele>3.0</ele><time>2026-04-17T16:33:13.999Z</time></trkpt><trkpt lat="41.88178619459011" lon="12.173417644235224"><ele>3.0</ele><time>2026-04-17T16:33:14.999Z</time></trkpt><trkpt lat="41.881890675448666" lon="12.173347396543011"><ele>3.0</ele><time>2026-04-17T16:33:15.999Z</time></trkpt><trkpt lat="41.881997272401" lon="12.173269727452194"><ele>3.25</ele><time>2026-04-17T16:33:16.999Z</time></trkpt><trkpt lat="41.88210575216999" lon="12.173192358015594"><ele>3.5</ele><time>2026-04-17T16:33:17.999Z</time></trkpt><trkpt lat="41.88221643227499" lon="12.173113899809694"><ele>3.75</ele><time>2026-04-17T16:33:18.999Z</time></trkpt><trkpt lat="41.88232433220321" lon="12.17303945207786"><ele>4.0</ele><time>2026-04-17T16:33:19.999Z</time></trkpt><trkpt lat="41.8824349058551" lon="12.172961922015565"><ele>3.6</ele><time>2026-04-17T16:33:20.999Z</time></trkpt><trkpt lat="41.88253473664886" lon="12.172889906975458"><ele>3.2</ele><time>2026-04-17T16:33:21.999Z</time></trkpt><trkpt lat="41.8826251494912" lon="12.172824748717353"><ele>2.8000000000000003</ele><time>2026-04-17T16:33:22.999Z</time></trkpt><trkpt lat="41.882698780370795" lon="12.172770085283794"><ele>2.4000000000000004</ele><time>2026-04-17T16:33:23.999Z</time></trkpt><trkpt lat="41.882776425364526" lon="12.172717211716291"><ele>2.0</ele><time>2026-04-17T16:33:24.999Z</time></trkpt><trkpt lat="41.882854008123786" lon="12.172659246391381"><ele>1.9999999999999998</ele><time>2026-04-17T16:33:25.999Z</time></trkpt><trkpt lat="41.882928988400636" lon="12.172595305334413"><ele>2.0</ele><time>2026-04-17T16:33:26.999Z</time></trkpt><trkpt lat="41.883001570447334" lon="12.172527411444625"><ele>2.0</ele><time>2026-04-17T16:33:27.999Z</time></trkpt><trkpt lat="41.88307146039598" lon="12.172465412857493"><ele>2.0</ele><time>2026-04-17T16:33:28.999Z</time></trkpt><trkpt lat="41.883141685252674" lon="12.172403908264936"><ele>1.9999999999999998</ele><time>2026-04-17T16:33:29.999Z</time></trkpt><trkpt lat="41.88322000971487" lon="12.172339612905832"><ele>2.0</ele><time>2026-04-17T16:33:30.999Z</time></trkpt><trkpt lat="41.88329733325707" lon="12.172285697960506"><ele>2.0</ele><time>2026-04-17T16:33:31.999Z</time></trkpt><trkpt lat="41.883378684030035" lon="12.172225980465532"><ele>2.0</ele><time>2026-04-17T16:33:32.999Z</time></trkpt><trkpt lat="41.883469491851564" lon="12.17216288803005"><ele>2.0</ele><time>2026-04-17T16:33:33.999Z</time></trkpt><trkpt lat="41.88356147419359" lon="12.172089542214355"><ele>2.0</ele><time>2026-04-17T16:33:34.999Z</time></trkpt><trkpt lat="41.88365305731587" lon="12.172015597228915"><ele>2.0</ele><time>2026-04-17T16:33:35.999Z</time></trkpt><trkpt lat="41.8837526245315" lon="12.171941846212086"><ele>2.5</ele><time>2026-04-17T16:33:36.999Z</time></trkpt><trkpt lat="41.883852151600856" lon="12.171870836084409"><ele>3.0</ele><time>2026-04-17T16:33:37.999Z</time></trkpt><trkpt lat="41.88395137446956" lon="12.171799397732235"><ele>3.5</ele><time>2026-04-17T16:33:38.999Z</time></trkpt><trkpt lat="41.88404537112979" lon="12.17172421709162"><ele>4.0</ele><time>2026-04-17T16:33:39.999Z</time></trkpt><trkpt lat="41.884147792908394" lon="12.171646106983845"><ele>4.0</ele><time>2026-04-17T16:33:40.999Z</time></trkpt><trkpt lat="41.88424575634649" lon="12.17156607428306"><ele>4.0</ele><time>2026-04-17T16:33:41.999Z</time></trkpt><trkpt lat="41.884341150208506" lon="12.17148517028481"><ele>4.0</ele><time>2026-04-17T16:33:42.999Z</time></trkpt><trkpt lat="41.884441410860006" lon="12.171413010978073"><ele>4.0</ele><time>2026-04-17T16:33:43.999Z</time></trkpt><trkpt lat="41.8845316703686" lon="12.17134014246687"><ele>4.0</ele><time>2026-04-17T16:33:44.998Z</time></trkpt><trkpt lat="41.884626408205946" lon="12.1712654823328"><ele>3.75</ele><time>2026-04-17T16:33:45.998Z</time></trkpt><trkpt lat="41.88471991396486" lon="12.171196625162523"><ele>3.5</ele><time>2026-04-17T16:33:46.998Z</time></trkpt><trkpt lat="41.8848214857117" lon="12.171124962371552"><ele>3.25</ele><time>2026-04-17T16:33:47.998Z</time></trkpt><trkpt lat="41.884923877009044" lon="12.171043569630987"><ele>3.0</ele><time>2026-04-17T16:33:48.998Z</time></trkpt><trkpt lat="41.88503478574144" lon="12.17095896312042"><ele>3.0</ele><time>2026-04-17T16:33:49.998Z</time></trkpt><trkpt lat="41.88514702146439" lon="12.17087149241803"><ele>3.0</ele><time>2026-04-17T16:33:50.998Z</time></trkpt><trkpt lat="41.88526527586874" lon="12.170782602483738"><ele>3.0</ele><time>2026-04-17T16:33:51.998Z</time></trkpt><trkpt lat="41.88536880762498" lon="12.170714082048244"><ele>3.0</ele><time>2026-04-17T16:33:52.998Z</time></trkpt><trkpt lat="41.88546115140024" lon="12.170638788610312"><ele>3.4</ele><time>2026-04-17T16:33:53.998Z</time></trkpt><trkpt lat="41.885540379089775" lon="12.170574395487353"><ele>3.8</ele><time>2026-04-17T16:33:54.998Z</time></trkpt><trkpt lat="41.88562397742598" lon="12.170513194953475"><ele>4.2</ele><time>2026-04-17T16:33:55.998Z</time></trkpt><trkpt lat="41.88571052136725" lon="12.170454905444243"><ele>4.6</ele><time>2026-04-17T16:33:56.998Z</time></trkpt><trkpt lat="41.885795344891356" lon="12.170394979871578"><ele>5.0</ele><time>2026-04-17T16:33:57.998Z</time></trkpt><trkpt lat="41.88587498508719" lon="12.170353319304933"><ele>4.666666666666667</ele><time>2026-04-17T16:33:58.998Z</time></trkpt><trkpt lat="41.885947095629426" lon="12.170310657417529"><ele>4.333333333333334</ele><time>2026-04-17T16:33:59.998Z</time></trkpt><trkpt lat="41.88602427392304" lon="12.170264335624761"><ele>4.0</ele><time>2026-04-17T16:34:00.998Z</time></trkpt><trkpt lat="41.88610236778461" lon="12.170220287413528"><ele>3.666666666666667</ele><time>2026-04-17T16:34:01.998Z</time></trkpt><trkpt lat="41.88619038666101" lon="12.170172154556289"><ele>3.3333333333333335</ele><time>2026-04-17T16:34:02.998Z</time></trkpt><trkpt lat="41.886283022719965" lon="12.170125841294917"><ele>3.0</ele><time>2026-04-17T16:34:03.998Z</time></trkpt><trkpt lat="41.886360326404244" lon="12.170097977353054"><ele>3.0</ele><time>2026-04-17T16:34:04.998Z</time></trkpt><trkpt lat="41.8864304602287" lon="12.170073315649379"><ele>3.0</ele><time>2026-04-17T16:34:05.998Z</time></trkpt><trkpt lat="41.88650923248834" lon="12.170057256849235"><ele>3.0</ele><time>2026-04-17T16:34:06.998Z</time></trkpt><trkpt lat="41.88660105809941" lon="12.170067309286365"><ele>3.0</ele><time>2026-04-17T16:34:07.998Z</time></trkpt><trkpt lat="41.88669737682695" lon="12.170087812673488"><ele>3.0</ele><time>2026-04-17T16:34:08.998Z</time></trkpt><trkpt lat="41.88681570404065" lon="12.170100939848684"><ele>2.8</ele><time>2026-04-17T16:34:09.998Z</time></trkpt><trkpt lat="41.88691105973077" lon="12.170088018226211"><ele>2.5999999999999996</ele><time>2026-04-17T16:34:10.998Z</time></trkpt><trkpt lat="41.88701013088776" lon="12.170042823466993"><ele>2.4000000000000004</ele><time>2026-04-17T16:34:11.998Z</time></trkpt><trkpt lat="41.88710308095402" lon="12.169998836120675"><ele>2.2</ele><time>2026-04-17T16:34:12.998Z</time></trkpt><trkpt lat="41.88719742793964" lon="12.169953891749188"><ele>2.0</ele><time>2026-04-17T16:34:13.998Z</time></trkpt><trkpt lat="41.88728380102911" lon="12.169904164936366"><ele>1.9999999999999998</ele><time>2026-04-17T16:34:14.998Z</time></trkpt><trkpt lat="41.88735736817931" lon="12.169860743355141"><ele>2.0</ele><time>2026-04-17T16:34:15.998Z</time></trkpt><trkpt lat="41.88742692164347" lon="12.169823317522402"><ele>2.0</ele><time>2026-04-17T16:34:16.998Z</time></trkpt><trkpt lat="41.88750297792572" lon="12.16978341570842"><ele>2.0</ele><time>2026-04-17T16:34:17.998Z</time></trkpt><trkpt lat="41.88756915144786" lon="12.169743061765043"><ele>1.9999999999999998</ele><time>2026-04-17T16:34:18.998Z</time></trkpt><trkpt lat="41.88767343142845" lon="12.169681420549429"><ele>2.0</ele><time>2026-04-17T16:34:20.998Z</time></trkpt><trkpt lat="41.887762708980276" lon="12.169606069972708"><ele>1.9999999999999998</ele><time>2026-04-17T16:34:22.998Z</time></trkpt><trkpt lat="41.88775132024485" lon="12.169499423718612"><ele>2.0</ele><time>2026-04-17T16:34:24.997Z</time></trkpt><trkpt lat="41.8876948277348" lon="12.169392004618903"><ele>2.0</ele><time>2026-04-17T16:34:26.997Z</time></trkpt><trkpt lat="41.88763395660117" lon="12.169258037946097"><ele>2.0</ele><time>2026-04-17T16:34:28.997Z</time></trkpt><trkpt lat="41.88761886415578" lon="12.169173240696596"><ele>1.9999999999999998</ele><time>2026-04-17T16:34:29.997Z</time></trkpt><trkpt lat="41.88761953757109" lon="12.169083898371158"><ele>2.0</ele><time>2026-04-17T16:34:30.997Z</time></trkpt><trkpt lat="41.88763821301275" lon="12.169000094882202"><ele>2.0</ele><time>2026-04-17T16:34:32Z</time></trkpt><trkpt lat="41.88767280833403" lon="12.16892279558868"><ele>1.9999999999999998</ele><time>2026-04-17T16:34:33Z</time></trkpt><trkpt lat="41.887718170784666" lon="12.168857634427326"><ele>2.0</ele><time>2026-04-17T16:34:34Z</time></trkpt><trkpt lat="41.88777079984492" lon="12.168802306343796"><ele>2.0</ele><time>2026-04-17T16:34:35Z</time></trkpt><trkpt lat="41.88782364237787" lon="12.168754192751136"><ele>1.9999999999999998</ele><time>2026-04-17T16:34:36Z</time></trkpt><trkpt lat="41.88788147311806" lon="12.168701879022425"><ele>2.0</ele><time>2026-04-17T16:34:37Z</time></trkpt><trkpt lat="41.887944888236376" lon="12.168646337994003"><ele>2.0</ele><time>2026-04-17T16:34:38Z</time></trkpt><trkpt lat="41.888018749841315" lon="12.1685834921092"><ele>2.0</ele><time>2026-04-17T16:34:39Z</time></trkpt><trkpt lat="41.88811001811716" lon="12.168502571395878"><ele>2.0</ele><time>2026-04-17T16:34:40Z</time></trkpt><trkpt lat="41.88820746079432" lon="12.168415945924052"><ele>2.0</ele><time>2026-04-17T16:34:41Z</time></trkpt><trkpt lat="41.888311882982826" lon="12.168327770683995"><ele>2.0</ele><time>2026-04-17T16:34:42Z</time></trkpt><trkpt lat="41.8884174959397" lon="12.168245396041126"><ele>2.0</ele><time>2026-04-17T16:34:43Z</time></trkpt><trkpt lat="41.88852608809691" lon="12.168142981529995"><ele>2.0</ele><time>2026-04-17T16:34:44Z</time></trkpt><trkpt lat="41.8886285757407" lon="12.168049181743237"><ele>2.0</ele><time>2026-04-17T16:34:45Z</time></trkpt><trkpt lat="41.888728158939315" lon="12.167966309529726"><ele>2.0</ele><time>2026-04-17T16:34:46Z</time></trkpt><trkpt lat="41.88882333906737" lon="12.167889321776364"><ele>2.0</ele><time>2026-04-17T16:34:47Z</time></trkpt><trkpt lat="41.88889779332577" lon="12.1678266782108"><ele>2.0</ele><time>2026-04-17T16:34:48Z</time></trkpt><trkpt lat="41.888978889703715" lon="12.167755149759254"><ele>2.0</ele><time>2026-04-17T16:34:49Z</time></trkpt><trkpt lat="41.88907366172749" lon="12.167669933638367"><ele>2.0</ele><time>2026-04-17T16:34:50Z</time></trkpt><trkpt lat="41.88918517443384" lon="12.167575643762122"><ele>2.0</ele><time>2026-04-17T16:34:51Z</time></trkpt><trkpt lat="41.88930799379365" lon="12.167473049545018"><ele>1.6666666666666665</ele><time>2026-04-17T16:34:52Z</time></trkpt><trkpt lat="41.88943654162185" lon="12.167365893255484"><ele>1.3333333333333333</ele><time>2026-04-17T16:34:53Z</time></trkpt><trkpt lat="41.88957837776858" lon="12.167248861104337"><ele>1.0</ele><time>2026-04-17T16:34:54Z</time></trkpt><trkpt lat="41.889727827115244" lon="12.16712606926447"><ele>0.6666666666666666</ele><time>2026-04-17T16:34:55Z</time></trkpt><trkpt lat="41.889867402451124" lon="12.167011197169312"><ele>0.3333333333333333</ele><time>2026-04-17T16:34:56Z</time></trkpt><trkpt lat="41.89002572962239" lon="12.166882990712361"><ele>0.0</ele><time>2026-04-17T16:34:57Z</time></trkpt><trkpt lat="41.890194323877736" lon="12.166753493109274"><ele>0.0</ele><time>2026-04-17T16:34:58Z</time></trkpt><trkpt lat="41.89037448320914" lon="12.166613708036538"><ele>0.0</ele><time>2026-04-17T16:34:59Z</time></trkpt><trkpt lat="41.8905535073049" lon="12.166482755039768"><ele>0.0</ele><time>2026-04-17T16:35:00Z</time></trkpt><trkpt lat="41.8907224909223" lon="12.166361554541249"><ele>0.0</ele><time>2026-04-17T16:35:01Z</time></trkpt><trkpt lat="41.89087451058407" lon="12.166230578077457"><ele>0.0</ele><time>2026-04-17T16:35:02Z</time></trkpt><trkpt lat="41.89102093362449" lon="12.166119845704387"><ele>0.0</ele><time>2026-04-17T16:35:03Z</time></trkpt><trkpt lat="41.89115112727009" lon="12.16601952903229"><ele>0.0</ele><time>2026-04-17T16:35:04Z</time></trkpt><trkpt lat="41.891264496604514" lon="12.165926948499424"><ele>0.0</ele><time>2026-04-17T16:35:05Z</time></trkpt><trkpt lat="41.89137365921724" lon="12.165831615634188"><ele>0.0</ele><time>2026-04-17T16:35:06Z</time></trkpt><trkpt lat="41.89147498573984" lon="12.165739571094482"><ele>0.0</ele><time>2026-04-17T16:35:07Z</time></trkpt><trkpt lat="41.89157485833711" lon="12.165654027163901"><ele>0.0</ele><time>2026-04-17T16:35:08Z</time></trkpt><trkpt lat="41.891666034518515" lon="12.165571972384848"><ele>0.0</ele><time>2026-04-17T16:35:09Z</time></trkpt><trkpt lat="41.89175528354595" lon="12.16549462883596"><ele>0.0</ele><time>2026-04-17T16:35:10Z</time></trkpt><trkpt lat="41.89185063648359" lon="12.1654138386141"><ele>0.0</ele><time>2026-04-17T16:35:11Z</time></trkpt><trkpt lat="41.89194331428798" lon="12.165329588712886"><ele>0.0</ele><time>2026-04-17T16:35:11.999Z</time></trkpt><trkpt lat="41.892045129338086" lon="12.165239502179999"><ele>0.0</ele><time>2026-04-17T16:35:12.999Z</time></trkpt><trkpt lat="41.89214498012788" lon="12.165155727759897"><ele>0.0</ele><time>2026-04-17T16:35:13.999Z</time></trkpt><trkpt lat="41.89224891359648" lon="12.165071547316309"><ele>0.0</ele><time>2026-04-17T16:35:14.999Z</time></trkpt><trkpt lat="41.892358149259245" lon="12.164975846415869"><ele>0.0</ele><time>2026-04-17T16:35:15.999Z</time></trkpt><trkpt lat="41.89246322383608" lon="12.164880035761607"><ele>0.25</ele><time>2026-04-17T16:35:16.999Z</time></trkpt><trkpt lat="41.892559522551245" lon="12.164794895879002"><ele>0.5</ele><time>2026-04-17T16:35:17.999Z</time></trkpt><trkpt lat="41.89265536256016" lon="12.164718733194054"><ele>0.75</ele><time>2026-04-17T16:35:18.999Z</time></trkpt><trkpt lat="41.89275215176847" lon="12.164636385562712"><ele>1.0</ele><time>2026-04-17T16:35:19.999Z</time></trkpt><trkpt lat="41.89284849404336" lon="12.16455684222056"><ele>1.2000000000000002</ele><time>2026-04-17T16:35:20.999Z</time></trkpt><trkpt lat="41.89294555241291" lon="12.164476503431187"><ele>1.4000000000000001</ele><time>2026-04-17T16:35:21.999Z</time></trkpt><trkpt lat="41.89303075372609" lon="12.16439967964161"><ele>1.6</ele><time>2026-04-17T16:35:22.999Z</time></trkpt><trkpt lat="41.893112889833006" lon="12.164327721668972"><ele>1.8</ele><time>2026-04-17T16:35:23.999Z</time></trkpt><trkpt lat="41.89319428130502" lon="12.16425515565196"><ele>2.0</ele><time>2026-04-17T16:35:24.999Z</time></trkpt><trkpt lat="41.89327756517487" lon="12.164185742403388"><ele>1.9999999999999998</ele><time>2026-04-17T16:35:25.999Z</time></trkpt><trkpt lat="41.893347052124945" lon="12.16413404089016"><ele>2.0</ele><time>2026-04-17T16:35:26.999Z</time></trkpt><trkpt lat="41.89340551325975" lon="12.164092040515166"><ele>2.0</ele><time>2026-04-17T16:35:27.999Z</time></trkpt><trkpt lat="41.89348112659565" lon="12.164033738198532"><ele>2.0</ele><time>2026-04-17T16:35:29.999Z</time></trkpt><trkpt lat="41.893550036676665" lon="12.16396312470031"><ele>1.9999999999999998</ele><time>2026-04-17T16:35:32.999Z</time></trkpt><trkpt lat="41.89359041969155" lon="12.163890504512308"><ele>2.0</ele><time>2026-04-17T16:35:36.999Z</time></trkpt><trkpt lat="41.89354424041144" lon="12.163953503025057"><ele>1.0</ele><time>2026-04-17T16:35:47.999Z</time></trkpt></trkseg><trkseg><trkpt lat="41.8934164633101" lon="12.164045796898922"><ele>1.9999999999999998</ele><time>2026-04-17T16:46:53Z</time></trkpt><trkpt lat="41.8933602490624" lon="12.164105416531934"><ele>2.0</ele><time>2026-04-17T16:46:54Z</time></trkpt><trkpt lat="41.893267282185946" lon="12.164135676570654"><ele>2.0</ele><time>2026-04-17T16:46:55Z</time></trkpt><trkpt lat="41.89319460458313" lon="12.164223869836729"><ele>2.0</ele><time>2026-04-17T16:46:56Z</time></trkpt><trkpt lat="41.893121357614056" lon="12.164283969161339"><ele>1.9999999999999998</ele><time>2026-04-17T16:46:57Z</time></trkpt><trkpt lat="41.893033268735834" lon="12.164335181471944"><ele>2.0</ele><time>2026-04-17T16:46:57.999Z</time></trkpt><trkpt lat="41.892961087226844" lon="12.164422907764266"><ele>2.0</ele><time>2026-04-17T16:46:58.999Z</time></trkpt><trkpt lat="41.8928799861645" lon="12.164483962309676"><ele>1.9999999999999998</ele><time>2026-04-17T16:46:59.999Z</time></trkpt><trkpt lat="41.892815989960326" lon="12.164542655910662"><ele>2.0</ele><time>2026-04-17T16:47:00.999Z</time></trkpt><trkpt lat="41.89275061250169" lon="12.164576766171432"><ele>2.0</ele><time>2026-04-17T16:47:01.999Z</time></trkpt><trkpt lat="41.89270046560521" lon="12.164628194594107"><ele>1.9999999999999998</ele><time>2026-04-17T16:47:02.999Z</time></trkpt><trkpt lat="41.892645678133356" lon="12.164675651293106"><ele>2.0</ele><time>2026-04-17T16:47:03.999Z</time></trkpt><trkpt lat="41.892593043091345" lon="12.164735633737662"><ele>2.0</ele><time>2026-04-17T16:47:04.999Z</time></trkpt><trkpt lat="41.89252999725859" lon="12.164772368268371"><ele>1.8</ele><time>2026-04-17T16:47:05.999Z</time></trkpt><trkpt lat="41.892475514647025" lon="12.16483630257761"><ele>1.6</ele><time>2026-04-17T16:47:06.999Z</time></trkpt><trkpt lat="41.89240274658161" lon="12.16487239776483"><ele>1.4000000000000001</ele><time>2026-04-17T16:47:07.999Z</time></trkpt><trkpt lat="41.89233474093049" lon="12.164947075187424"><ele>1.2000000000000002</ele><time>2026-04-17T16:47:08.999Z</time></trkpt><trkpt lat="41.89225281951562" lon="12.165020779089863"><ele>1.0</ele><time>2026-04-17T16:47:09.999Z</time></trkpt><trkpt lat="41.892150675658414" lon="12.165087126591025"><ele>0.8</ele><time>2026-04-17T16:47:10.999Z</time></trkpt><trkpt lat="41.8920598003638" lon="12.165190273809145"><ele>0.6000000000000001</ele><time>2026-04-17T16:47:11.999Z</time></trkpt><trkpt lat="41.89196868520256" lon="12.165264695478282"><ele>0.4</ele><time>2026-04-17T16:47:12.999Z</time></trkpt><trkpt lat="41.891890339112805" lon="12.165334398747387"><ele>0.2</ele><time>2026-04-17T16:47:13.999Z</time></trkpt><trkpt lat="41.89181499466377" lon="12.165400841599759"><ele>0.0</ele><time>2026-04-17T16:47:14.999Z</time></trkpt><trkpt lat="41.89172704219585" lon="12.165450691026928"><ele>0.0</ele><time>2026-04-17T16:47:15.999Z</time></trkpt><trkpt lat="41.89164519892184" lon="12.165522673277469"><ele>0.0</ele><time>2026-04-17T16:47:16.999Z</time></trkpt><trkpt lat="41.891545473060745" lon="12.165610907938815"><ele>0.0</ele><time>2026-04-17T16:47:17.999Z</time></trkpt><trkpt lat="41.891443041917086" lon="12.16572787505968"><ele>0.0</ele><time>2026-04-17T16:47:18.999Z</time></trkpt><trkpt lat="41.891336389626815" lon="12.165820030066966"><ele>0.0</ele><time>2026-04-17T16:47:19.999Z</time></trkpt><trkpt lat="41.89123980428272" lon="12.165893101618883"><ele>0.0</ele><time>2026-04-17T16:47:20.999Z</time></trkpt><trkpt lat="41.891165378472756" lon="12.165962080711193"><ele>0.0</ele><time>2026-04-17T16:47:21.999Z</time></trkpt><trkpt lat="41.89108871085561" lon="12.166024721337218"><ele>0.0</ele><time>2026-04-17T16:47:22.999Z</time></trkpt><trkpt lat="41.89100309606014" lon="12.166089216121032"><ele>0.0</ele><time>2026-04-17T16:47:23.999Z</time></trkpt><trkpt lat="41.89091745751819" lon="12.166155170154095"><ele>0.2</ele><time>2026-04-17T16:47:24.999Z</time></trkpt><trkpt lat="41.89082965487457" lon="12.166221528381428"><ele>0.4</ele><time>2026-04-17T16:47:25.999Z</time></trkpt><trkpt lat="41.89074466851061" lon="12.166280214162976"><ele>0.6000000000000001</ele><time>2026-04-17T16:47:26.999Z</time></trkpt><trkpt lat="41.89066248251818" lon="12.166342697655958"><ele>0.8</ele><time>2026-04-17T16:47:27.999Z</time></trkpt><trkpt lat="41.89058228145861" lon="12.166405141329529"><ele>1.0</ele><time>2026-04-17T16:47:28.999Z</time></trkpt><trkpt lat="41.89050029447787" lon="12.166467398249743"><ele>0.8</ele><time>2026-04-17T16:47:29.999Z</time></trkpt><trkpt lat="41.89041896461182" lon="12.16653153824273"><ele>0.6000000000000001</ele><time>2026-04-17T16:47:30.999Z</time></trkpt><trkpt lat="41.890335607633915" lon="12.166596942530347"><ele>0.4</ele><time>2026-04-17T16:47:31.999Z</time></trkpt><trkpt lat="41.89025022794041" lon="12.166658061401593"><ele>0.2</ele><time>2026-04-17T16:47:32.999Z</time></trkpt><trkpt lat="41.890167083959874" lon="12.16671778999976"><ele>0.0</ele><time>2026-04-17T16:47:33.999Z</time></trkpt><trkpt lat="41.89008844562532" lon="12.166785057391246"><ele>0.0</ele><time>2026-04-17T16:47:34.999Z</time></trkpt><trkpt lat="41.89000217283353" lon="12.16685132695752"><ele>0.0</ele><time>2026-04-17T16:47:35.999Z</time></trkpt><trkpt lat="41.88991622191374" lon="12.166917711923137"><ele>0.0</ele><time>2026-04-17T16:47:36.999Z</time></trkpt><trkpt lat="41.889832096858136" lon="12.16698636436388"><ele>0.0</ele><time>2026-04-17T16:47:37.999Z</time></trkpt><trkpt lat="41.88974133761845" lon="12.167062394220379"><ele>0.0</ele><time>2026-04-17T16:47:38.999Z</time></trkpt><trkpt lat="41.88965692751858" lon="12.167134576241153"><ele>0.0</ele><time>2026-04-17T16:47:39.999Z</time></trkpt><trkpt lat="41.889567155587365" lon="12.167212665591913"><ele>0.0</ele><time>2026-04-17T16:47:40.999Z</time></trkpt><trkpt lat="41.88947667474531" lon="12.16729084930708"><ele>0.0</ele><time>2026-04-17T16:47:41.999Z</time></trkpt><trkpt lat="41.889380337553455" lon="12.167367578620146"><ele>0.0</ele><time>2026-04-17T16:47:42.998Z</time></trkpt><trkpt lat="41.88928704844267" lon="12.16744632239578"><ele>0.0</ele><time>2026-04-17T16:47:43.998Z</time></trkpt><trkpt lat="41.8891956788707" lon="12.167526594325517"><ele>0.4</ele><time>2026-04-17T16:47:44.998Z</time></trkpt><trkpt lat="41.8890992205681" lon="12.16760815628757"><ele>0.8</ele><time>2026-04-17T16:47:45.998Z</time></trkpt><trkpt lat="41.88900585034183" lon="12.167687965922623"><ele>1.2000000000000002</ele><time>2026-04-17T16:47:46.998Z</time></trkpt><trkpt lat="41.88891579228777" lon="12.167776525133553"><ele>1.6</ele><time>2026-04-17T16:47:47.998Z</time></trkpt><trkpt lat="41.88883041003824" lon="12.167852157757254"><ele>2.0</ele><time>2026-04-17T16:47:48.998Z</time></trkpt><trkpt lat="41.888756982399556" lon="12.16791243361416"><ele>1.9999999999999998</ele><time>2026-04-17T16:47:49.998Z</time></trkpt><trkpt lat="41.88869586859848" lon="12.167961907128134"><ele>2.0</ele><time>2026-04-17T16:47:50.998Z</time></trkpt><trkpt lat="41.88863704846471" lon="12.168016989806809"><ele>2.0</ele><time>2026-04-17T16:47:51.998Z</time></trkpt><trkpt lat="41.8885703407585" lon="12.168071645812661"><ele>2.0</ele><time>2026-04-17T16:47:52.998Z</time></trkpt><trkpt lat="41.888493696277685" lon="12.168124195139578"><ele>1.9999999999999998</ele><time>2026-04-17T16:47:53.998Z</time></trkpt><trkpt lat="41.88841985840456" lon="12.168188188582404"><ele>2.0</ele><time>2026-04-17T16:47:54.998Z</time></trkpt><trkpt lat="41.888342698005054" lon="12.16825967363316"><ele>2.0</ele><time>2026-04-17T16:47:55.998Z</time></trkpt><trkpt lat="41.88826636368171" lon="12.168329380008663"><ele>2.0</ele><time>2026-04-17T16:47:56.998Z</time></trkpt><trkpt lat="41.88818596602313" lon="12.168402756603783"><ele>2.0</ele><time>2026-04-17T16:47:57.998Z</time></trkpt><trkpt lat="41.888102960480005" lon="12.168478000607976"><ele>2.0</ele><time>2026-04-17T16:47:58.998Z</time></trkpt><trkpt lat="41.88801641728785" lon="12.168548084294267"><ele>2.0</ele><time>2026-04-17T16:47:59.998Z</time></trkpt><trkpt lat="41.88794643291181" lon="12.168616523196993"><ele>2.0</ele><time>2026-04-17T16:48:00.998Z</time></trkpt><trkpt lat="41.88788584984073" lon="12.16866696045449"><ele>2.0</ele><time>2026-04-17T16:48:01.998Z</time></trkpt><trkpt lat="41.88779059172932" lon="12.168745867258117"><ele>2.0</ele><time>2026-04-17T16:48:03.998Z</time></trkpt><trkpt lat="41.88769966441234" lon="12.168836074825903"><ele>2.0</ele><time>2026-04-17T16:48:05.998Z</time></trkpt><trkpt lat="41.88761005315263" lon="12.16894956155249"><ele>2.0</ele><time>2026-04-17T16:48:07.998Z</time></trkpt><trkpt lat="41.887579227112106" lon="12.169094967543986"><ele>2.0</ele><time>2026-04-17T16:48:09.998Z</time></trkpt><trkpt lat="41.88758357526588" lon="12.169215675201045"><ele>2.0</ele><time>2026-04-17T16:48:11.998Z</time></trkpt><trkpt lat="41.887623567239835" lon="12.169356422165615"><ele>2.0</ele><time>2026-04-17T16:48:39.997Z</time></trkpt><trkpt lat="41.88765363146543" lon="12.16944163151322"><ele>2.0</ele><time>2026-04-17T16:48:40.997Z</time></trkpt><trkpt lat="41.88768831587886" lon="12.16953993632966"><ele>2.0</ele><time>2026-04-17T16:48:41.997Z</time></trkpt><trkpt lat="41.8878045127968" lon="12.169633798094763"><ele>2.0</ele><time>2026-04-17T16:48:42.997Z</time></trkpt><trkpt lat="41.88787916309887" lon="12.169757348007881"><ele>2.0</ele><time>2026-04-17T16:48:43.997Z</time></trkpt><trkpt lat="41.887947317897044" lon="12.169882981494451"><ele>2.0</ele><time>2026-04-17T16:48:45Z</time></trkpt><trkpt lat="41.88801701851097" lon="12.170014450838076"><ele>2.0</ele><time>2026-04-17T16:48:46Z</time></trkpt><trkpt lat="41.88809471446742" lon="12.17015450818564"><ele>2.0</ele><time>2026-04-17T16:48:47Z</time></trkpt><trkpt lat="41.88817938515953" lon="12.170307132131127"><ele>2.0</ele><time>2026-04-17T16:48:48Z</time></trkpt><trkpt lat="41.888263469478865" lon="12.170451598114498"><ele>2.0</ele><time>2026-04-17T16:48:49Z</time></trkpt><trkpt lat="41.88834591723526" lon="12.170597233783878"><ele>2.0</ele><time>2026-04-17T16:48:50Z</time></trkpt><trkpt lat="41.88842499648287" lon="12.170740409741128"><ele>2.25</ele><time>2026-04-17T16:48:51Z</time></trkpt><trkpt lat="41.888504852710085" lon="12.170877841365176"><ele>2.5</ele><time>2026-04-17T16:48:52Z</time></trkpt><trkpt lat="41.8885853079325" lon="12.171020052965615"><ele>2.75</ele><time>2026-04-17T16:48:53Z</time></trkpt><trkpt lat="41.88866172275617" lon="12.171167096796438"><ele>3.0</ele><time>2026-04-17T16:48:54Z</time></trkpt><trkpt lat="41.888742944315304" lon="12.171310284291419"><ele>3.0</ele><time>2026-04-17T16:48:55Z</time></trkpt><trkpt lat="41.88883190710731" lon="12.171453058452544"><ele>3.0</ele><time>2026-04-17T16:48:56Z</time></trkpt><trkpt lat="41.88890675861354" lon="12.171621981673285"><ele>3.0</ele><time>2026-04-17T16:48:57Z</time></trkpt><trkpt lat="41.88900470298245" lon="12.171768889822484"><ele>3.0</ele><time>2026-04-17T16:48:58Z</time></trkpt><trkpt lat="41.88908836154469" lon="12.171912954067809"><ele>3.25</ele><time>2026-04-17T16:48:59Z</time></trkpt><trkpt lat="41.88917564270827" lon="12.172071182517135"><ele>3.5</ele><time>2026-04-17T16:49:00Z</time></trkpt><trkpt lat="41.889259073912825" lon="12.172224033809524"><ele>3.75</ele><time>2026-04-17T16:49:01Z</time></trkpt><trkpt lat="41.88933554542047" lon="12.172367375468092"><ele>4.0</ele><time>2026-04-17T16:49:02Z</time></trkpt><trkpt lat="41.889402183501865" lon="12.17248730070851"><ele>4.5</ele><time>2026-04-17T16:49:03Z</time></trkpt><trkpt lat="41.88946954158612" lon="12.172598959182434"><ele>5.0</ele><time>2026-04-17T16:49:04Z</time></trkpt><trkpt lat="41.889540157356734" lon="12.172724369858624"><ele>5.5</ele><time>2026-04-17T16:49:05Z</time></trkpt><trkpt lat="41.889611199109105" lon="12.172852916353342"><ele>6.0</ele><time>2026-04-17T16:49:06Z</time></trkpt><trkpt lat="41.88968245961355" lon="12.172980215407517"><ele>6.0</ele><time>2026-04-17T16:49:07Z</time></trkpt><trkpt lat="41.889749187879104" lon="12.17310981072775"><ele>6.0</ele><time>2026-04-17T16:49:08Z</time></trkpt><trkpt lat="41.88982335447684" lon="12.173229686261283"><ele>6.0</ele><time>2026-04-17T16:49:09Z</time></trkpt><trkpt lat="41.88988394166749" lon="12.17333865197306"><ele>6.0</ele><time>2026-04-17T16:49:09.999Z</time></trkpt><trkpt lat="41.88993718688031" lon="12.17343369952923"><ele>6.0</ele><time>2026-04-17T16:49:10.999Z</time></trkpt><trkpt lat="41.88999233656962" lon="12.17352700173282"><ele>6.199999999999999</ele><time>2026-04-17T16:49:11.999Z</time></trkpt><trkpt lat="41.89005322286695" lon="12.17362977559093"><ele>6.3999999999999995</ele><time>2026-04-17T16:49:12.999Z</time></trkpt><trkpt lat="41.890115572571354" lon="12.173740733210852"><ele>6.6</ele><time>2026-04-17T16:49:13.999Z</time></trkpt><trkpt lat="41.89017838872574" lon="12.173855363852546"><ele>6.8</ele><time>2026-04-17T16:49:14.999Z</time></trkpt><trkpt lat="41.890247837783896" lon="12.173975430837482"><ele>7.0</ele><time>2026-04-17T16:49:15.999Z</time></trkpt><trkpt lat="41.89030843430977" lon="12.174088923227442"><ele>6.199999999999999</ele><time>2026-04-17T16:49:16.999Z</time></trkpt><trkpt lat="41.890378778894714" lon="12.174208972959876"><ele>5.3999999999999995</ele><time>2026-04-17T16:49:17.999Z</time></trkpt><trkpt lat="41.890445313469385" lon="12.174334798615801"><ele>4.6</ele><time>2026-04-17T16:49:18.999Z</time></trkpt><trkpt lat="41.890501633145796" lon="12.17444638513935"><ele>3.8</ele><time>2026-04-17T16:49:19.999Z</time></trkpt><trkpt lat="41.890557499408516" lon="12.17454857631398"><ele>3.0</ele><time>2026-04-17T16:49:20.999Z</time></trkpt><trkpt lat="41.89062179490889" lon="12.174672569639078"><ele>3.0</ele><time>2026-04-17T16:49:21.999Z</time></trkpt><trkpt lat="41.890695048520676" lon="12.174792119619985"><ele>3.0</ele><time>2026-04-17T16:49:22.999Z</time></trkpt><trkpt lat="41.89078515782241" lon="12.174925275618257"><ele>3.0</ele><time>2026-04-17T16:49:23.999Z</time></trkpt><trkpt lat="41.89087999538801" lon="12.17505471922734"><ele>3.0</ele><time>2026-04-17T16:49:24.999Z</time></trkpt><trkpt lat="41.89097676375954" lon="12.17519740018701"><ele>3.333333333333333</ele><time>2026-04-17T16:49:25.999Z</time></trkpt><trkpt lat="41.89108279479993" lon="12.175346676041764"><ele>3.6666666666666665</ele><time>2026-04-17T16:49:26.999Z</time></trkpt><trkpt lat="41.89119241548724" lon="12.175499698304671"><ele>4.0</ele><time>2026-04-17T16:49:27.999Z</time></trkpt><trkpt lat="41.89130452854611" lon="12.175654740616096"><ele>5.0</ele><time>2026-04-17T16:49:28.999Z</time></trkpt><trkpt lat="41.89142079169142" lon="12.175808889395858"><ele>6.0</ele><time>2026-04-17T16:49:29.999Z</time></trkpt><trkpt lat="41.891532945522094" lon="12.175957640234282"><ele>7.0</ele><time>2026-04-17T16:49:30.999Z</time></trkpt><trkpt lat="41.8916253674208" lon="12.176116183764046"><ele>7.0</ele><time>2026-04-17T16:49:31.999Z</time></trkpt><trkpt lat="41.891729789101525" lon="12.176259420750617"><ele>7.0</ele><time>2026-04-17T16:49:32.999Z</time></trkpt><trkpt lat="41.89184749688871" lon="12.176389522894524"><ele>7.0</ele><time>2026-04-17T16:49:33.999Z</time></trkpt><trkpt lat="41.89195261400093" lon="12.176536075300069"><ele>6.333333333333334</ele><time>2026-04-17T16:49:34.999Z</time></trkpt><trkpt lat="41.89206286451168" lon="12.176687924099195"><ele>5.666666666666667</ele><time>2026-04-17T16:49:35.999Z</time></trkpt><trkpt lat="41.892178614938274" lon="12.17684623574951"><ele>5.0</ele><time>2026-04-17T16:49:36.999Z</time></trkpt><trkpt lat="41.8922890497256" lon="12.17702573526275"><ele>5.0</ele><time>2026-04-17T16:49:37.999Z</time></trkpt><trkpt lat="41.89242141112453" lon="12.177177706478911"><ele>5.0</ele><time>2026-04-17T16:49:38.999Z</time></trkpt><trkpt lat="41.89255047797983" lon="12.177354204290381"><ele>5.0</ele><time>2026-04-17T16:49:39.999Z</time></trkpt><trkpt lat="41.89268019353982" lon="12.177532519702591"><ele>5.333333333333334</ele><time>2026-04-17T16:49:40.999Z</time></trkpt><trkpt lat="41.89280595594722" lon="12.177730476430616"><ele>5.666666666666667</ele><time>2026-04-17T16:49:41.999Z</time></trkpt><trkpt lat="41.89294764765769" lon="12.17789544730897"><ele>6.0</ele><time>2026-04-17T16:49:42.999Z</time></trkpt><trkpt lat="41.89308462700779" lon="12.178080942445241"><ele>5.666666666666667</ele><time>2026-04-17T16:49:43.999Z</time></trkpt><trkpt lat="41.893219787007865" lon="12.178264852183506"><ele>5.333333333333334</ele><time>2026-04-17T16:49:44.999Z</time></trkpt><trkpt lat="41.893366759794276" lon="12.178462595391295"><ele>5.0</ele><time>2026-04-17T16:49:45.999Z</time></trkpt><trkpt lat="41.89350723139419" lon="12.17865448780351"><ele>4.666666666666667</ele><time>2026-04-17T16:49:46.999Z</time></trkpt><trkpt lat="41.893646646134805" lon="12.1788448812409"><ele>4.333333333333333</ele><time>2026-04-17T16:49:47.999Z</time></trkpt><trkpt lat="41.89377432995439" lon="12.179051221586615"><ele>4.0</ele><time>2026-04-17T16:49:48.999Z</time></trkpt><trkpt lat="41.89392342828867" lon="12.1792247174729"><ele>4.0</ele><time>2026-04-17T16:49:49.999Z</time></trkpt><trkpt lat="41.894052347289076" lon="12.179402860127434"><ele>4.0</ele><time>2026-04-17T16:49:50.999Z</time></trkpt><trkpt lat="41.89417307504068" lon="12.179571297700763"><ele>4.0</ele><time>2026-04-17T16:49:51.998Z</time></trkpt><trkpt lat="41.894297894323586" lon="12.179742341628872"><ele>4.0</ele><time>2026-04-17T16:49:52.998Z</time></trkpt><trkpt lat="41.89454719391449" lon="12.180082911494678"><ele>4.0</ele><time>2026-04-17T16:49:54.998Z</time></trkpt><trkpt lat="41.89467139985102" lon="12.180254384373587"><ele>4.0</ele><time>2026-04-17T16:49:55.998Z</time></trkpt><trkpt lat="41.89479305402034" lon="12.18041824635191"><ele>4.0</ele><time>2026-04-17T16:49:56.998Z</time></trkpt><trkpt lat="41.89490713680058" lon="12.180571665947738"><ele>4.0</ele><time>2026-04-17T16:49:57.998Z</time></trkpt><trkpt lat="41.89501443985539" lon="12.180715903388382"><ele>3.75</ele><time>2026-04-17T16:49:58.998Z</time></trkpt><trkpt lat="41.89511347096428" lon="12.18084853181713"><ele>3.5</ele><time>2026-04-17T16:49:59.998Z</time></trkpt><trkpt lat="41.89520265633067" lon="12.180969887837946"><ele>3.25</ele><time>2026-04-17T16:50:00.998Z</time></trkpt><trkpt lat="41.89527218668755" lon="12.181102490159775"><ele>3.0</ele><time>2026-04-17T16:50:01.998Z</time></trkpt><trkpt lat="41.895352584629684" lon="12.181218612313996"><ele>3.0</ele><time>2026-04-17T16:50:02.998Z</time></trkpt><trkpt lat="41.895429333008785" lon="12.181329463453338"><ele>3.0</ele><time>2026-04-17T16:50:03.998Z</time></trkpt><trkpt lat="41.895508233849284" lon="12.18141116750801"><ele>3.0</ele><time>2026-04-17T16:50:04.998Z</time></trkpt><trkpt lat="41.8955626081185" lon="12.181501036161379"><ele>3.0</ele><time>2026-04-17T16:50:05.998Z</time></trkpt><trkpt lat="41.89561584663193" lon="12.181581272972288"><ele>3.0</ele><time>2026-04-17T16:50:06.998Z</time></trkpt><trkpt lat="41.89566296691921" lon="12.181654893969561"><ele>3.1666666666666665</ele><time>2026-04-17T16:50:07.998Z</time></trkpt><trkpt lat="41.89571363721387" lon="12.181727481018038"><ele>3.333333333333333</ele><time>2026-04-17T16:50:08.998Z</time></trkpt><trkpt lat="41.89577767854424" lon="12.181796062139425"><ele>3.5</ele><time>2026-04-17T16:50:09.998Z</time></trkpt><trkpt lat="41.895844411833" lon="12.181865245658113"><ele>3.6666666666666665</ele><time>2026-04-17T16:50:10.998Z</time></trkpt><trkpt lat="41.8958984555147" lon="12.181940240585126"><ele>3.833333333333333</ele><time>2026-04-17T16:50:11.998Z</time></trkpt><trkpt lat="41.89594476369156" lon="12.182009460303897"><ele>4.0</ele><time>2026-04-17T16:50:12.998Z</time></trkpt><trkpt lat="41.89597426924004" lon="12.182085685138995"><ele>3.6666666666666665</ele><time>2026-04-17T16:50:13.998Z</time></trkpt><trkpt lat="41.89599616448021" lon="12.182182739912717"><ele>3.333333333333333</ele><time>2026-04-17T16:50:14.998Z</time></trkpt><trkpt lat="41.89602074054463" lon="12.182279418472389"><ele>3.0</ele><time>2026-04-17T16:50:15.998Z</time></trkpt><trkpt lat="41.896067116312516" lon="12.182362094464537"><ele>2.6666666666666665</ele><time>2026-04-17T16:50:16.998Z</time></trkpt><trkpt lat="41.8961465905533" lon="12.182424062067065"><ele>2.333333333333333</ele><time>2026-04-17T16:50:17.998Z</time></trkpt><trkpt lat="41.89623838512534" lon="12.182424838108071"><ele>2.0</ele><time>2026-04-17T16:50:18.998Z</time></trkpt><trkpt lat="41.8963425533689" lon="12.182538076152733"><ele>2.0</ele><time>2026-04-17T16:50:19.998Z</time></trkpt><trkpt lat="41.89645219545614" lon="12.18265105730881"><ele>2.0</ele><time>2026-04-17T16:50:20.998Z</time></trkpt><trkpt lat="41.89656187870109" lon="12.182788036272434"><ele>2.0</ele><time>2026-04-17T16:50:21.998Z</time></trkpt><trkpt lat="41.89666982185408" lon="12.182923815421903"><ele>2.0</ele><time>2026-04-17T16:50:22.998Z</time></trkpt><trkpt lat="41.89677657372031" lon="12.183075897151742"><ele>1.0</ele><time>2026-04-17T16:50:23.998Z</time></trkpt><trkpt lat="41.89688517975328" lon="12.183171641727778"><ele>0.0</ele><time>2026-04-17T16:50:24.998Z</time></trkpt><trkpt lat="41.897007874729326" lon="12.183332850308359"><ele>-1.0</ele><time>2026-04-17T16:50:25.998Z</time></trkpt><trkpt lat="41.89713877039246" lon="12.183501946728281"><ele>-1.0</ele><time>2026-04-17T16:50:26.998Z</time></trkpt><trkpt lat="41.897277420481565" lon="12.183680839105833"><ele>-1.0</ele><time>2026-04-17T16:50:27.998Z</time></trkpt><trkpt lat="41.89742397089103" lon="12.18386244702922"><ele>-1.0</ele><time>2026-04-17T16:50:28.998Z</time></trkpt><trkpt lat="41.897566945719234" lon="12.184039187608006"><ele>-1.0</ele><time>2026-04-17T16:50:29.998Z</time></trkpt><trkpt lat="41.89770982086863" lon="12.18422152418"><ele>-1.0</ele><time>2026-04-17T16:50:30.998Z</time></trkpt><trkpt lat="41.89785226959393" lon="12.184407244419438"><ele>-1.0</ele><time>2026-04-17T16:50:31.998Z</time></trkpt><trkpt lat="41.89799892645078" lon="12.18460088974563"><ele>-1.0</ele><time>2026-04-17T16:50:32.998Z</time></trkpt><trkpt lat="41.89815056456096" lon="12.1847973259368"><ele>-1.0</ele><time>2026-04-17T16:50:33.998Z</time></trkpt><trkpt lat="41.89830946018963" lon="12.184990857750718"><ele>-1.0</ele><time>2026-04-17T16:50:34.998Z</time></trkpt><trkpt lat="41.898468634623384" lon="12.185188113931764"><ele>-0.5</ele><time>2026-04-17T16:50:35.997Z</time></trkpt><trkpt lat="41.89863659548678" lon="12.185384874466427"><ele>0.0</ele><time>2026-04-17T16:50:36.997Z</time></trkpt><trkpt lat="41.89880367013554" lon="12.185595617085676"><ele>0.5</ele><time>2026-04-17T16:50:37.997Z</time></trkpt><trkpt lat="41.89897081944823" lon="12.185813279815571"><ele>1.0</ele><time>2026-04-17T16:50:38.997Z</time></trkpt><trkpt lat="41.89914298061595" lon="12.186031911530764"><ele>1.5</ele><time>2026-04-17T16:50:39.997Z</time></trkpt><trkpt lat="41.899316733571105" lon="12.186259009281002"><ele>2.0</ele><time>2026-04-17T16:50:40.997Z</time></trkpt><trkpt lat="41.89949413267141" lon="12.186477771144553"><ele>1.6666666666666665</ele><time>2026-04-17T16:50:41.997Z</time></trkpt><trkpt lat="41.89965751351662" lon="12.186675784930664"><ele>1.3333333333333333</ele><time>2026-04-17T16:50:42.997Z</time></trkpt><trkpt lat="41.8998091341496" lon="12.186865973773571"><ele>1.0</ele><time>2026-04-17T16:50:43.997Z</time></trkpt><trkpt lat="41.899958236595666" lon="12.18705060735254"><ele>1.6666666666666665</ele><time>2026-04-17T16:50:44.997Z</time></trkpt><trkpt lat="41.900096895962996" lon="12.187248617327027"><ele>2.3333333333333335</ele><time>2026-04-17T16:50:45.997Z</time></trkpt><trkpt lat="41.90024475729598" lon="12.187419866699651"><ele>3.0</ele><time>2026-04-17T16:50:46.997Z</time></trkpt><trkpt lat="41.90039878176661" lon="12.187615633831367"><ele>3.0</ele><time>2026-04-17T16:50:47.997Z</time></trkpt><trkpt lat="41.900555605762044" lon="12.187813907202957"><ele>3.0</ele><time>2026-04-17T16:50:48.997Z</time></trkpt><trkpt lat="41.900709583551645" lon="12.188006759659908"><ele>3.0</ele><time>2026-04-17T16:50:49.997Z</time></trkpt><trkpt lat="41.90085594318675" lon="12.188191802869287"><ele>2.3333333333333335</ele><time>2026-04-17T16:50:51Z</time></trkpt><trkpt lat="41.90099448622807" lon="12.188370742787427"><ele>1.6666666666666665</ele><time>2026-04-17T16:50:52Z</time></trkpt><trkpt lat="41.9011380115993" lon="12.188557033256908"><ele>1.0</ele><time>2026-04-17T16:50:53Z</time></trkpt><trkpt lat="41.90128901697913" lon="12.188753819330694"><ele>1.0</ele><time>2026-04-17T16:50:54Z</time></trkpt><trkpt lat="41.90144390567629" lon="12.188954187921949"><ele>1.0</ele><time>2026-04-17T16:50:55Z</time></trkpt><trkpt lat="41.9015977172429" lon="12.189147250935811"><ele>1.0</ele><time>2026-04-17T16:50:56Z</time></trkpt><trkpt lat="41.90173756444677" lon="12.189325426977671"><ele>1.0</ele><time>2026-04-17T16:50:57Z</time></trkpt><trkpt lat="41.901877778545796" lon="12.189498645565928"><ele>1.0</ele><time>2026-04-17T16:50:58Z</time></trkpt><trkpt lat="41.902010692022735" lon="12.189669052656962"><ele>1.0</ele><time>2026-04-17T16:50:59Z</time></trkpt><trkpt lat="41.90214155229325" lon="12.189840818213572"><ele>1.3333333333333333</ele><time>2026-04-17T16:51:00Z</time></trkpt><trkpt lat="41.902272771419824" lon="12.190009524612345"><ele>1.6666666666666665</ele><time>2026-04-17T16:51:01Z</time></trkpt><trkpt lat="41.90240443026983" lon="12.190175617694"><ele>2.0</ele><time>2026-04-17T16:51:02Z</time></trkpt><trkpt lat="41.9025181864935" lon="12.190319819525865"><ele>1.8</ele><time>2026-04-17T16:51:03Z</time></trkpt><trkpt lat="41.90261302863234" lon="12.190436998845666"><ele>1.6</ele><time>2026-04-17T16:51:04Z</time></trkpt><trkpt lat="41.90269117695522" lon="12.190532663579084"><ele>1.4000000000000001</ele><time>2026-04-17T16:51:05Z</time></trkpt><trkpt lat="41.902758572669555" lon="12.190620217763955"><ele>1.2000000000000002</ele><time>2026-04-17T16:51:06Z</time></trkpt><trkpt lat="41.902822970415535" lon="12.1907050018976"><ele>1.0</ele><time>2026-04-17T16:51:07Z</time></trkpt><trkpt lat="41.9028817777443" lon="12.19077788554957"><ele>1.0</ele><time>2026-04-17T16:51:08Z</time></trkpt><trkpt lat="41.9029510056681" lon="12.190865405308822"><ele>1.0</ele><time>2026-04-17T16:51:09Z</time></trkpt><trkpt lat="41.903034978165074" lon="12.190970847811341"><ele>1.0</ele><time>2026-04-17T16:51:10Z</time></trkpt><trkpt lat="41.903135311750944" lon="12.191097805492305"><ele>1.0</ele><time>2026-04-17T16:51:11Z</time></trkpt><trkpt lat="41.90324389562912" lon="12.191234918870705"><ele>1.0</ele><time>2026-04-17T16:51:12Z</time></trkpt><trkpt lat="41.90334896762844" lon="12.191367265411316"><ele>1.0</ele><time>2026-04-17T16:51:13Z</time></trkpt><trkpt lat="41.903461749977126" lon="12.19150680429895"><ele>1.0</ele><time>2026-04-17T16:51:14Z</time></trkpt><trkpt lat="41.90358007614791" lon="12.191658354741637"><ele>2.0</ele><time>2026-04-17T16:51:15Z</time></trkpt><trkpt lat="41.90370750690594" lon="12.191816717510541"><ele>3.0</ele><time>2026-04-17T16:51:16Z</time></trkpt><trkpt lat="41.90383708376451" lon="12.191981748382146"><ele>4.0</ele><time>2026-04-17T16:51:16.999Z</time></trkpt><trkpt lat="41.903973971529275" lon="12.19215690542363"><ele>4.0</ele><time>2026-04-17T16:51:17.999Z</time></trkpt><trkpt lat="41.90410680849331" lon="12.192329354604087"><ele>4.0</ele><time>2026-04-17T16:51:18.999Z</time></trkpt><trkpt lat="41.90423917016215" lon="12.19249927434848"><ele>4.0</ele><time>2026-04-17T16:51:19.999Z</time></trkpt><trkpt lat="41.904377060002076" lon="12.192673281021754"><ele>4.0</ele><time>2026-04-17T16:51:20.999Z</time></trkpt><trkpt lat="41.90451826814742" lon="12.192847777299297"><ele>4.0</ele><time>2026-04-17T16:51:21.999Z</time></trkpt><trkpt lat="41.90466184043206" lon="12.193029820049523"><ele>4.0</ele><time>2026-04-17T16:51:22.999Z</time></trkpt><trkpt lat="41.904801515793345" lon="12.193209259277511"><ele>4.333333333333333</ele><time>2026-04-17T16:51:23.999Z</time></trkpt><trkpt lat="41.90493194793002" lon="12.193375867983153"><ele>4.666666666666667</ele><time>2026-04-17T16:51:24.999Z</time></trkpt><trkpt lat="41.90505892122761" lon="12.193534544454222"><ele>5.0</ele><time>2026-04-17T16:51:25.999Z</time></trkpt><trkpt lat="41.90518492305572" lon="12.193699179497443"><ele>5.0</ele><time>2026-04-17T16:51:26.999Z</time></trkpt><trkpt lat="41.905318056127285" lon="12.19387299619723"><ele>5.0</ele><time>2026-04-17T16:51:27.999Z</time></trkpt><trkpt lat="41.905450239617615" lon="12.194046227240191"><ele>5.0</ele><time>2026-04-17T16:51:28.999Z</time></trkpt><trkpt lat="41.90558796982733" lon="12.194218229712858"><ele>4.333333333333334</ele><time>2026-04-17T16:51:29.999Z</time></trkpt><trkpt lat="41.90573108543017" lon="12.194385329432922"><ele>3.666666666666667</ele><time>2026-04-17T16:51:30.999Z</time></trkpt><trkpt lat="41.90587689121778" lon="12.194573105122814"><ele>3.0</ele><time>2026-04-17T16:51:31.999Z</time></trkpt><trkpt lat="41.90603005416492" lon="12.19476846250204"><ele>2.6666666666666665</ele><time>2026-04-17T16:51:32.999Z</time></trkpt><trkpt lat="41.90618225612166" lon="12.194969923409435"><ele>2.333333333333333</ele><time>2026-04-17T16:51:33.999Z</time></trkpt><trkpt lat="41.90634518814836" lon="12.195174780584525"><ele>2.0</ele><time>2026-04-17T16:51:34.999Z</time></trkpt><trkpt lat="41.906504878148404" lon="12.19537943299647"><ele>2.0</ele><time>2026-04-17T16:51:35.999Z</time></trkpt><trkpt lat="41.906665870452386" lon="12.195583562834525"><ele>2.0</ele><time>2026-04-17T16:51:36.999Z</time></trkpt><trkpt lat="41.906816488201024" lon="12.195777864510173"><ele>2.0</ele><time>2026-04-17T16:51:37.999Z</time></trkpt><trkpt lat="41.90696841953295" lon="12.195972749942632"><ele>3.0</ele><time>2026-04-17T16:51:38.999Z</time></trkpt><trkpt lat="41.90711188001855" lon="12.196161530036427"><ele>4.0</ele><time>2026-04-17T16:51:39.999Z</time></trkpt><trkpt lat="41.90726755211055" lon="12.196354298997578"><ele>5.0</ele><time>2026-04-17T16:51:40.999Z</time></trkpt><trkpt lat="41.907424628386984" lon="12.196548985271914"><ele>5.0</ele><time>2026-04-17T16:51:41.999Z</time></trkpt><trkpt lat="41.90758524135163" lon="12.196743732022112"><ele>5.0</ele><time>2026-04-17T16:51:42.999Z</time></trkpt><trkpt lat="41.9077454175628" lon="12.196949219824514"><ele>5.0</ele><time>2026-04-17T16:51:43.999Z</time></trkpt><trkpt lat="41.90790808915513" lon="12.197156683958184"><ele>5.333333333333334</ele><time>2026-04-17T16:51:44.999Z</time></trkpt><trkpt lat="41.90806150993767" lon="12.197358687022001"><ele>5.666666666666667</ele><time>2026-04-17T16:51:45.999Z</time></trkpt><trkpt lat="41.9082064251027" lon="12.19753933227184"><ele>6.0</ele><time>2026-04-17T16:51:46.999Z</time></trkpt><trkpt lat="41.90834582230093" lon="12.197716157927818"><ele>6.0</ele><time>2026-04-17T16:51:47.999Z</time></trkpt><trkpt lat="41.90848573663354" lon="12.197890190854089"><ele>6.0</ele><time>2026-04-17T16:51:48.999Z</time></trkpt><trkpt lat="41.908626533532804" lon="12.198068910809642"><ele>6.0</ele><time>2026-04-17T16:51:49.999Z</time></trkpt><trkpt lat="41.90876585194081" lon="12.19825168907768"><ele>6.333333333333334</ele><time>2026-04-17T16:51:50.999Z</time></trkpt><trkpt lat="41.908912382033776" lon="12.19842996303162"><ele>6.666666666666667</ele><time>2026-04-17T16:51:51.999Z</time></trkpt><trkpt lat="41.90905965856683" lon="12.198611749463904"><ele>7.0</ele><time>2026-04-17T16:51:52.999Z</time></trkpt><trkpt lat="41.9092007945743" lon="12.198790877912527"><ele>7.333333333333334</ele><time>2026-04-17T16:51:53.999Z</time></trkpt><trkpt lat="41.90932661177843" lon="12.198959592508707"><ele>7.666666666666666</ele><time>2026-04-17T16:51:54.999Z</time></trkpt><trkpt lat="41.909458524999096" lon="12.199112231035645"><ele>8.0</ele><time>2026-04-17T16:51:55.999Z</time></trkpt><trkpt lat="41.909583679520985" lon="12.199273599599836"><ele>8.0</ele><time>2026-04-17T16:51:56.999Z</time></trkpt><trkpt lat="41.909712492455704" lon="12.199434319968782"><ele>8.0</ele><time>2026-04-17T16:51:57.998Z</time></trkpt><trkpt lat="41.90983700255006" lon="12.19959134941603"><ele>8.0</ele><time>2026-04-17T16:51:58.998Z</time></trkpt><trkpt lat="41.90995675024351" lon="12.199746845154133"><ele>7.666666666666666</ele><time>2026-04-17T16:51:59.998Z</time></trkpt><trkpt lat="41.910074581196994" lon="12.199897255100632"><ele>7.333333333333334</ele><time>2026-04-17T16:52:00.998Z</time></trkpt><trkpt lat="41.91018997224814" lon="12.200046118453978"><ele>7.0</ele><time>2026-04-17T16:52:01.998Z</time></trkpt><trkpt lat="41.9103075460555" lon="12.200196391326932"><ele>8.0</ele><time>2026-04-17T16:52:02.998Z</time></trkpt><trkpt lat="41.910416611273114" lon="12.200336978611649"><ele>9.0</ele><time>2026-04-17T16:52:03.998Z</time></trkpt><trkpt lat="41.91052261432228" lon="12.200471374529808"><ele>10.0</ele><time>2026-04-17T16:52:04.998Z</time></trkpt><trkpt lat="41.91063054557089" lon="12.200607050870808"><ele>11.0</ele><time>2026-04-17T16:52:05.998Z</time></trkpt><trkpt lat="41.9107373497705" lon="12.200745194551263"><ele>11.0</ele><time>2026-04-17T16:52:06.998Z</time></trkpt><trkpt lat="41.91084200489718" lon="12.200879764396547"><ele>11.0</ele><time>2026-04-17T16:52:07.998Z</time></trkpt><trkpt lat="41.91094847240789" lon="12.20100718895254"><ele>11.0</ele><time>2026-04-17T16:52:08.998Z</time></trkpt><trkpt lat="41.91105049306226" lon="12.201138345843512"><ele>11.0</ele><time>2026-04-17T16:52:09.998Z</time></trkpt><trkpt lat="41.91114392011637" lon="12.201259860987207"><ele>10.75</ele><time>2026-04-17T16:52:10.998Z</time></trkpt><trkpt lat="41.91123573796934" lon="12.201369823029665"><ele>10.5</ele><time>2026-04-17T16:52:11.998Z</time></trkpt><trkpt lat="41.9113288907403" lon="12.201473190884512"><ele>10.25</ele><time>2026-04-17T16:52:12.998Z</time></trkpt><trkpt lat="41.911433077043505" lon="12.20157128000278"><ele>10.0</ele><time>2026-04-17T16:52:13.998Z</time></trkpt><trkpt lat="41.91154261375529" lon="12.20167130231329"><ele>10.0</ele><time>2026-04-17T16:52:14.998Z</time></trkpt><trkpt lat="41.911651975465915" lon="12.20177527660834"><ele>10.0</ele><time>2026-04-17T16:52:15.998Z</time></trkpt><trkpt lat="41.91175369377581" lon="12.20187433804518"><ele>10.0</ele><time>2026-04-17T16:52:16.998Z</time></trkpt><trkpt lat="41.911854684268135" lon="12.201966794755675"><ele>10.0</ele><time>2026-04-17T16:52:17.998Z</time></trkpt><trkpt lat="41.91195295615103" lon="12.202057092344088"><ele>10.0</ele><time>2026-04-17T16:52:18.998Z</time></trkpt><trkpt lat="41.912036828577705" lon="12.202142089301534"><ele>10.0</ele><time>2026-04-17T16:52:19.998Z</time></trkpt><trkpt lat="41.91212338727287" lon="12.202221437174522"><ele>10.0</ele><time>2026-04-17T16:52:20.998Z</time></trkpt><trkpt lat="41.91220002305135" lon="12.202297408371876"><ele>10.0</ele><time>2026-04-17T16:52:21.998Z</time></trkpt><trkpt lat="41.912271170122196" lon="12.202368774152932"><ele>10.0</ele><time>2026-04-17T16:52:22.998Z</time></trkpt><trkpt lat="41.91233837511585" lon="12.202429985082317"><ele>10.0</ele><time>2026-04-17T16:52:23.998Z</time></trkpt><trkpt lat="41.91240207146817" lon="12.202491474451953"><ele>10.0</ele><time>2026-04-17T16:52:24.998Z</time></trkpt><trkpt lat="41.91248137769549" lon="12.202583062652486"><ele>10.0</ele><time>2026-04-17T16:52:26.998Z</time></trkpt><trkpt lat="41.91253325362332" lon="12.202653915757228"><ele>10.0</ele><time>2026-04-17T16:52:30.998Z</time></trkpt><trkpt lat="41.912639204925355" lon="12.202602210151078"><ele>10.0</ele><time>2026-04-17T16:52:33.998Z</time></trkpt><trkpt lat="41.912695755498994" lon="12.202519403378123"><ele>10.0</ele><time>2026-04-17T16:52:34.998Z</time></trkpt><trkpt lat="41.91276442020359" lon="12.202423495147125"><ele>10.0</ele><time>2026-04-17T16:52:35.998Z</time></trkpt><trkpt lat="41.91283259749548" lon="12.202326407925588"><ele>10.0</ele><time>2026-04-17T16:52:36.998Z</time></trkpt><trkpt lat="41.91291636291157" lon="12.202184737324353"><ele>10.0</ele><time>2026-04-17T16:52:37.998Z</time></trkpt><trkpt lat="41.91302851651236" lon="12.202064612918049"><ele>10.333333333333334</ele><time>2026-04-17T16:52:38.998Z</time></trkpt><trkpt lat="41.91313565932185" lon="12.20192173080595"><ele>10.666666666666666</ele><time>2026-04-17T16:52:39.998Z</time></trkpt><trkpt lat="41.91324609261959" lon="12.201746935096175"><ele>11.0</ele><time>2026-04-17T16:52:40.997Z</time></trkpt><trkpt lat="41.91338411215851" lon="12.201585112612737"><ele>11.666666666666666</ele><time>2026-04-17T16:52:41.997Z</time></trkpt><trkpt lat="41.9135240956616" lon="12.201414145279351"><ele>12.333333333333332</ele><time>2026-04-17T16:52:42.997Z</time></trkpt><trkpt lat="41.91365337940085" lon="12.2012340552525"><ele>13.0</ele><time>2026-04-17T16:52:43.997Z</time></trkpt><trkpt lat="41.91379193154245" lon="12.201044003916259"><ele>13.0</ele><time>2026-04-17T16:52:44.997Z</time></trkpt><trkpt lat="41.91392968511433" lon="12.200858148029843"><ele>13.0</ele><time>2026-04-17T16:52:45.997Z</time></trkpt><trkpt lat="41.914061116134334" lon="12.200681794836044"><ele>13.0</ele><time>2026-04-17T16:52:46.997Z</time></trkpt><trkpt lat="41.91419245206798" lon="12.200508573500935"><ele>13.0</ele><time>2026-04-17T16:52:47.997Z</time></trkpt><trkpt lat="41.91430381034074" lon="12.200360817513786"><ele>13.0</ele><time>2026-04-17T16:52:48.997Z</time></trkpt><trkpt lat="41.9143942074345" lon="12.200238001055643"><ele>13.0</ele><time>2026-04-17T16:52:49.997Z</time></trkpt><trkpt lat="41.914476909357326" lon="12.200121267395902"><ele>13.0</ele><time>2026-04-17T16:52:50.997Z</time></trkpt><trkpt lat="41.91456162135454" lon="12.200007922422508"><ele>13.0</ele><time>2026-04-17T16:52:51.997Z</time></trkpt><trkpt lat="41.91464808796987" lon="12.199897361063424"><ele>13.0</ele><time>2026-04-17T16:52:52.997Z</time></trkpt><trkpt lat="41.914736256561554" lon="12.199781405512473"><ele>13.0</ele><time>2026-04-17T16:52:53.997Z</time></trkpt><trkpt lat="41.914823504037145" lon="12.199656216362644"><ele>13.0</ele><time>2026-04-17T16:52:54.997Z</time></trkpt><trkpt lat="41.91491063489871" lon="12.199520773568704"><ele>13.25</ele><time>2026-04-17T16:52:55.997Z</time></trkpt><trkpt lat="41.915006059495575" lon="12.199386220800873"><ele>13.5</ele><time>2026-04-17T16:52:57Z</time></trkpt><trkpt lat="41.915099573404845" lon="12.19924546155892"><ele>13.75</ele><time>2026-04-17T16:52:58Z</time></trkpt><trkpt lat="41.91519571525054" lon="12.199103076605741"><ele>14.0</ele><time>2026-04-17T16:52:59Z</time></trkpt><trkpt lat="41.915294938972714" lon="12.198963913511752"><ele>14.0</ele><time>2026-04-17T16:53:00Z</time></trkpt><trkpt lat="41.91539559772285" lon="12.198819434499732"><ele>14.0</ele><time>2026-04-17T16:53:01Z</time></trkpt><trkpt lat="41.91549140224345" lon="12.198671925217285"><ele>14.0</ele><time>2026-04-17T16:53:02Z</time></trkpt><trkpt lat="41.915587921940954" lon="12.198520126448841"><ele>14.0</ele><time>2026-04-17T16:53:03Z</time></trkpt><trkpt lat="41.91568241950836" lon="12.198364273750698"><ele>14.0</ele><time>2026-04-17T16:53:04Z</time></trkpt><trkpt lat="41.915777198754924" lon="12.198207448309978"><ele>14.0</ele><time>2026-04-17T16:53:05Z</time></trkpt><trkpt lat="41.91587017103975" lon="12.19805020737057"><ele>14.0</ele><time>2026-04-17T16:53:06Z</time></trkpt><trkpt lat="41.91596257404127" lon="12.197889007753918"><ele>14.0</ele><time>2026-04-17T16:53:07Z</time></trkpt><trkpt lat="41.916051229360896" lon="12.197728664398085"><ele>14.0</ele><time>2026-04-17T16:53:08Z</time></trkpt><trkpt lat="41.91613678276888" lon="12.197563700974738"><ele>14.0</ele><time>2026-04-17T16:53:09Z</time></trkpt><trkpt lat="41.91621695161329" lon="12.197397635242961"><ele>14.0</ele><time>2026-04-17T16:53:10Z</time></trkpt><trkpt lat="41.91629138308343" lon="12.197244198578355"><ele>14.25</ele><time>2026-04-17T16:53:11Z</time></trkpt><trkpt lat="41.91636179657159" lon="12.197105367935489"><ele>14.5</ele><time>2026-04-17T16:53:12Z</time></trkpt><trkpt lat="41.916436816125305" lon="12.196977434324214"><ele>14.75</ele><time>2026-04-17T16:53:13Z</time></trkpt><trkpt lat="41.916515504279246" lon="12.19687404509976"><ele>15.0</ele><time>2026-04-17T16:53:14Z</time></trkpt><trkpt lat="41.916598219597006" lon="12.196786212237296"><ele>15.0</ele><time>2026-04-17T16:53:15Z</time></trkpt><trkpt lat="41.916686979674104" lon="12.196740524194189"><ele>15.0</ele><time>2026-04-17T16:53:16Z</time></trkpt><trkpt lat="41.91677448357784" lon="12.196723124917396"><ele>15.0</ele><time>2026-04-17T16:53:17Z</time></trkpt><trkpt lat="41.916857668248326" lon="12.196722999895773"><ele>15.0</ele><time>2026-04-17T16:53:18Z</time></trkpt><trkpt lat="41.91693568048929" lon="12.196736801329047"><ele>15.0</ele><time>2026-04-17T16:53:19Z</time></trkpt><trkpt lat="41.917018659863416" lon="12.19674736906406"><ele>15.0</ele><time>2026-04-17T16:53:20Z</time></trkpt><trkpt lat="41.91707140204099" lon="12.196851975318818"><ele>14.833333333333334</ele><time>2026-04-17T16:53:21Z</time></trkpt><trkpt lat="41.91712958120973" lon="12.1969335299979"><ele>14.666666666666668</ele><time>2026-04-17T16:53:22Z</time></trkpt><trkpt lat="41.917197718040214" lon="12.197019344236164"><ele>14.5</ele><time>2026-04-17T16:53:22.999Z</time></trkpt><trkpt lat="41.917267233233204" lon="12.197105135536638"><ele>14.333333333333334</ele><time>2026-04-17T16:53:23.999Z</time></trkpt><trkpt lat="41.91732854183995" lon="12.19718088429574"><ele>14.166666666666668</ele><time>2026-04-17T16:53:24.999Z</time></trkpt><trkpt lat="41.917398167397124" lon="12.197240551031015"><ele>14.0</ele><time>2026-04-17T16:53:25.999Z</time></trkpt><trkpt lat="41.91745060805593" lon="12.197308575144705"><ele>14.2</ele><time>2026-04-17T16:53:26.999Z</time></trkpt><trkpt lat="41.917535634137145" lon="12.197409076748329"><ele>14.399999999999999</ele><time>2026-04-17T16:53:28.999Z</time></trkpt><trkpt lat="41.91759632874027" lon="12.197487762790514"><ele>14.6</ele><time>2026-04-17T16:53:30.999Z</time></trkpt><trkpt lat="41.9176015975212" lon="12.197572970384858"><ele>14.8</ele><time>2026-04-17T16:53:36.999Z</time></trkpt><trkpt lat="41.917690679413965" lon="12.197763043452575"><ele>15.0</ele><time>2026-04-17T16:53:38.999Z</time></trkpt><trkpt lat="41.917764957682245" lon="12.197873879162742"><ele>15.2</ele><time>2026-04-17T16:53:39.999Z</time></trkpt><trkpt lat="41.91783364051237" lon="12.197965449138898"><ele>15.4</ele><time>2026-04-17T16:53:40.999Z</time></trkpt><trkpt lat="41.917907803299975" lon="12.198046628928187"><ele>15.600000000000001</ele><time>2026-04-17T16:53:41.999Z</time></trkpt><trkpt lat="41.91796400943723" lon="12.19816243119539"><ele>15.8</ele><time>2026-04-17T16:53:42.999Z</time></trkpt><trkpt lat="41.91802197337107" lon="12.198290025393968"><ele>16.0</ele><time>2026-04-17T16:53:43.999Z</time></trkpt><trkpt lat="41.91808939164873" lon="12.198430329581399"><ele>17.25</ele><time>2026-04-17T16:53:44.999Z</time></trkpt><trkpt lat="41.91815914903541" lon="12.198575501681974"><ele>18.5</ele><time>2026-04-17T16:53:45.999Z</time></trkpt><trkpt lat="41.91822846589665" lon="12.198720492099788"><ele>19.75</ele><time>2026-04-17T16:53:46.999Z</time></trkpt><trkpt lat="41.918309450945216" lon="12.198855232612706"><ele>21.0</ele><time>2026-04-17T16:53:47.999Z</time></trkpt><trkpt lat="41.91837633251767" lon="12.198993744801733"><ele>21.25</ele><time>2026-04-17T16:53:48.999Z</time></trkpt><trkpt lat="41.918436274899314" lon="12.199118973755791"><ele>21.5</ele><time>2026-04-17T16:53:49.999Z</time></trkpt><trkpt lat="41.918498018410446" lon="12.19924943932296"><ele>21.75</ele><time>2026-04-17T16:53:50.999Z</time></trkpt><trkpt lat="41.918560835135565" lon="12.199384352468691"><ele>22.0</ele><time>2026-04-17T16:53:51.999Z</time></trkpt><trkpt lat="41.91862804600659" lon="12.199527842088758"><ele>22.0</ele><time>2026-04-17T16:53:52.999Z</time></trkpt><trkpt lat="41.918698139838504" lon="12.199669102569652"><ele>22.0</ele><time>2026-04-17T16:53:53.999Z</time></trkpt><trkpt lat="41.91876373399084" lon="12.199809287982236"><ele>22.0</ele><time>2026-04-17T16:53:54.999Z</time></trkpt><trkpt lat="41.91882524791008" lon="12.199935265704687"><ele>22.0</ele><time>2026-04-17T16:53:55.999Z</time></trkpt><trkpt lat="41.91888312887947" lon="12.200053397905785"><ele>22.0</ele><time>2026-04-17T16:53:56.999Z</time></trkpt><trkpt lat="41.91894215765093" lon="12.20017551293623"><ele>22.0</ele><time>2026-04-17T16:53:57.999Z</time></trkpt><trkpt lat="41.919004699271234" lon="12.20031074256864"><ele>22.0</ele><time>2026-04-17T16:53:58.999Z</time></trkpt><trkpt lat="41.9190760667406" lon="12.200453410823979"><ele>22.0</ele><time>2026-04-17T16:53:59.999Z</time></trkpt><trkpt lat="41.919157585444" lon="12.20062460120177"><ele>21.25</ele><time>2026-04-17T16:54:00.999Z</time></trkpt><trkpt lat="41.919232086459814" lon="12.200794608248119"><ele>20.5</ele><time>2026-04-17T16:54:01.998Z</time></trkpt><trkpt lat="41.91930251916945" lon="12.200936324154453"><ele>19.75</ele><time>2026-04-17T16:54:02.998Z</time></trkpt><trkpt lat="41.919369999825776" lon="12.201056812066183"><ele>19.0</ele><time>2026-04-17T16:54:03.998Z</time></trkpt><trkpt lat="41.91942860838193" lon="12.201184341525568"><ele>19.0</ele><time>2026-04-17T16:54:04.998Z</time></trkpt><trkpt lat="41.91948774858761" lon="12.201310661410805"><ele>19.0</ele><time>2026-04-17T16:54:05.998Z</time></trkpt><trkpt lat="41.91954112400124" lon="12.20142265556858"><ele>19.0</ele><time>2026-04-17T16:54:06.998Z</time></trkpt><trkpt lat="41.91960728984735" lon="12.201544273054088"><ele>19.0</ele><time>2026-04-17T16:54:07.998Z</time></trkpt><trkpt lat="41.91967592644447" lon="12.201680339556813"><ele>19.0</ele><time>2026-04-17T16:54:08.998Z</time></trkpt><trkpt lat="41.91975419752524" lon="12.201828077002128"><ele>18.666666666666664</ele><time>2026-04-17T16:54:09.998Z</time></trkpt><trkpt lat="41.919846927404095" lon="12.201990719155257"><ele>18.333333333333332</ele><time>2026-04-17T16:54:10.998Z</time></trkpt><trkpt lat="41.91991804739191" lon="12.202167396110088"><ele>18.0</ele><time>2026-04-17T16:54:11.998Z</time></trkpt><trkpt lat="41.9200065256952" lon="12.202337617440456"><ele>20.0</ele><time>2026-04-17T16:54:12.998Z</time></trkpt><trkpt lat="41.920089762705956" lon="12.202495943737173"><ele>22.0</ele><time>2026-04-17T16:54:13.998Z</time></trkpt><trkpt lat="41.920170858856075" lon="12.202649384922687"><ele>24.0</ele><time>2026-04-17T16:54:14.998Z</time></trkpt><trkpt lat="41.92026628492811" lon="12.202791621257749"><ele>26.0</ele><time>2026-04-17T16:54:15.998Z</time></trkpt><trkpt lat="41.92035066201789" lon="12.202954133728289"><ele>26.0</ele><time>2026-04-17T16:54:16.998Z</time></trkpt><trkpt lat="41.92043892766948" lon="12.203129748876451"><ele>26.0</ele><time>2026-04-17T16:54:17.998Z</time></trkpt><trkpt lat="41.920518179540814" lon="12.203312454811888"><ele>26.0</ele><time>2026-04-17T16:54:18.998Z</time></trkpt><trkpt lat="41.92061929421395" lon="12.203489922547206"><ele>25.0</ele><time>2026-04-17T16:54:19.998Z</time></trkpt><trkpt lat="41.92071237965373" lon="12.20363850253988"><ele>24.0</ele><time>2026-04-17T16:54:20.998Z</time></trkpt><trkpt lat="41.92079814500629" lon="12.203797985523147"><ele>23.0</ele><time>2026-04-17T16:54:21.998Z</time></trkpt><trkpt lat="41.92089213391325" lon="12.203964177478724"><ele>22.0</ele><time>2026-04-17T16:54:22.998Z</time></trkpt><trkpt lat="41.9209916056086" lon="12.20412978503551"><ele>21.666666666666664</ele><time>2026-04-17T16:54:23.998Z</time></trkpt><trkpt lat="41.921080075266254" lon="12.204320532717535"><ele>21.333333333333332</ele><time>2026-04-17T16:54:24.998Z</time></trkpt><trkpt lat="41.92118109258824" lon="12.204502701327808"><ele>21.0</ele><time>2026-04-17T16:54:25.998Z</time></trkpt><trkpt lat="41.92126913682133" lon="12.204661216153886"><ele>21.0</ele><time>2026-04-17T16:54:26.998Z</time></trkpt><trkpt lat="41.921350745739346" lon="12.204806744077192"><ele>21.0</ele><time>2026-04-17T16:54:27.998Z</time></trkpt><trkpt lat="41.92142595803484" lon="12.204949544979097"><ele>21.0</ele><time>2026-04-17T16:54:28.998Z</time></trkpt><trkpt lat="41.92148727801467" lon="12.205094183982604"><ele>21.0</ele><time>2026-04-17T16:54:29.998Z</time></trkpt><trkpt lat="41.92155877040739" lon="12.205208640243734"><ele>20.25</ele><time>2026-04-17T16:54:30.998Z</time></trkpt><trkpt lat="41.92164535940687" lon="12.205342629641493"><ele>19.5</ele><time>2026-04-17T16:54:31.998Z</time></trkpt><trkpt lat="41.92174903430763" lon="12.205466898373707"><ele>18.75</ele><time>2026-04-17T16:54:32.998Z</time></trkpt><trkpt lat="41.92185449800408" lon="12.205628386414716"><ele>18.0</ele><time>2026-04-17T16:54:33.998Z</time></trkpt><trkpt lat="41.92195778045229" lon="12.205783632265733"><ele>17.0</ele><time>2026-04-17T16:54:34.998Z</time></trkpt><trkpt lat="41.922078357683176" lon="12.205943848022399"><ele>16.0</ele><time>2026-04-17T16:54:35.998Z</time></trkpt><trkpt lat="41.922182891693105" lon="12.20613956458296"><ele>15.0</ele><time>2026-04-17T16:54:36.998Z</time></trkpt><trkpt lat="41.922282840538" lon="12.206357287721033"><ele>15.666666666666668</ele><time>2026-04-17T16:54:37.998Z</time></trkpt><trkpt lat="41.92239449412931" lon="12.206559735006685"><ele>16.333333333333336</ele><time>2026-04-17T16:54:38.998Z</time></trkpt><trkpt lat="41.9225280056016" lon="12.206765677336389"><ele>17.0</ele><time>2026-04-17T16:54:39.998Z</time></trkpt><trkpt lat="41.922652719715714" lon="12.206992693978437"><ele>18.0</ele><time>2026-04-17T16:54:40.998Z</time></trkpt><trkpt lat="41.92278867866668" lon="12.207233405546805"><ele>19.0</ele><time>2026-04-17T16:54:41.998Z</time></trkpt><trkpt lat="41.922926368788666" lon="12.207485220306168"><ele>20.5</ele><time>2026-04-17T16:54:42.998Z</time></trkpt><trkpt lat="41.92305641941602" lon="12.207759933502647"><ele>22.0</ele><time>2026-04-17T16:54:43.997Z</time></trkpt><trkpt lat="41.92319306883772" lon="12.208008341997315"><ele>22.333333333333332</ele><time>2026-04-17T16:54:44.997Z</time></trkpt><trkpt lat="41.92331289894554" lon="12.208224562218687"><ele>22.666666666666668</ele><time>2026-04-17T16:54:45.997Z</time></trkpt><trkpt lat="41.923430874027126" lon="12.208434057832555"><ele>23.0</ele><time>2026-04-17T16:54:46.997Z</time></trkpt><trkpt lat="41.92355205812731" lon="12.208648403826913"><ele>24.0</ele><time>2026-04-17T16:54:47.997Z</time></trkpt><trkpt lat="41.9236715084839" lon="12.20886145393015"><ele>25.0</ele><time>2026-04-17T16:54:48.997Z</time></trkpt><trkpt lat="41.923791068135955" lon="12.209076540872331"><ele>26.0</ele><time>2026-04-17T16:54:49.997Z</time></trkpt><trkpt lat="41.92391311640153" lon="12.209297630301817"><ele>26.0</ele><time>2026-04-17T16:54:50.997Z</time></trkpt><trkpt lat="41.92403834769741" lon="12.209520733835172"><ele>26.0</ele><time>2026-04-17T16:54:51.997Z</time></trkpt><trkpt lat="41.92416020987359" lon="12.209737835248868"><ele>26.0</ele><time>2026-04-17T16:54:52.997Z</time></trkpt><trkpt lat="41.92427047082643" lon="12.209933742328204"><ele>28.333333333333332</ele><time>2026-04-17T16:54:53.997Z</time></trkpt><trkpt lat="41.92438589019825" lon="12.210137856792409"><ele>30.666666666666664</ele><time>2026-04-17T16:54:54.997Z</time></trkpt><trkpt lat="41.92451698180178" lon="12.210322719768616"><ele>33.0</ele><time>2026-04-17T16:54:55.997Z</time></trkpt><trkpt lat="41.92464172248909" lon="12.210522387187718"><ele>32.333333333333336</ele><time>2026-04-17T16:54:56.997Z</time></trkpt><trkpt lat="41.92476313802874" lon="12.210732899078677"><ele>31.666666666666668</ele><time>2026-04-17T16:54:57.997Z</time></trkpt><trkpt lat="41.92490027631093" lon="12.210932525125594"><ele>31.0</ele><time>2026-04-17T16:54:58.997Z</time></trkpt><trkpt lat="41.925038220690396" lon="12.211137563522326"><ele>31.666666666666668</ele><time>2026-04-17T16:54:59.997Z</time></trkpt><trkpt lat="41.92517657257326" lon="12.2113435704745"><ele>32.333333333333336</ele><time>2026-04-17T16:55:00.997Z</time></trkpt><trkpt lat="41.9253193687734" lon="12.211557422467877"><ele>33.0</ele><time>2026-04-17T16:55:02Z</time></trkpt><trkpt lat="41.9254444048138" lon="12.211745158852906"><ele>33.0</ele><time>2026-04-17T16:55:03Z</time></trkpt><trkpt lat="41.925558480382456" lon="12.211918688087074"><ele>33.0</ele><time>2026-04-17T16:55:04Z</time></trkpt><trkpt lat="41.925667951984764" lon="12.212089743850658"><ele>33.0</ele><time>2026-04-17T16:55:05Z</time></trkpt><trkpt lat="41.92577325585237" lon="12.212254603775568"><ele>33.0</ele><time>2026-04-17T16:55:06Z</time></trkpt><trkpt lat="41.92587707813116" lon="12.212419682323707"><ele>33.0</ele><time>2026-04-17T16:55:07Z</time></trkpt><trkpt lat="41.925978943071" lon="12.212581648565525"><ele>33.0</ele><time>2026-04-17T16:55:08Z</time></trkpt><trkpt lat="41.92607573359545" lon="12.212735546447187"><ele>34.75</ele><time>2026-04-17T16:55:09Z</time></trkpt><trkpt lat="41.92617271681357" lon="12.212889681841315"><ele>36.5</ele><time>2026-04-17T16:55:10Z</time></trkpt><trkpt lat="41.92626173052709" lon="12.213028190894416"><ele>38.25</ele><time>2026-04-17T16:55:11Z</time></trkpt><trkpt lat="41.92634084505006" lon="12.213148228794715"><ele>40.0</ele><time>2026-04-17T16:55:12Z</time></trkpt><trkpt lat="41.92640244224269" lon="12.213268676320611"><ele>40.0</ele><time>2026-04-17T16:55:13Z</time></trkpt><trkpt lat="41.926446853400996" lon="12.213384992809017"><ele>40.0</ele><time>2026-04-17T16:55:14Z</time></trkpt><trkpt lat="41.92647321554098" lon="12.213488599198719"><ele>40.0</ele><time>2026-04-17T16:55:15Z</time></trkpt><trkpt lat="41.92648272534117" lon="12.213591235789284"><ele>40.0</ele><time>2026-04-17T16:55:16Z</time></trkpt><trkpt lat="41.926492166340026" lon="12.21370789424645"><ele>40.0</ele><time>2026-04-17T16:55:17Z</time></trkpt><trkpt lat="41.926505461201856" lon="12.21381158458389"><ele>40.0</ele><time>2026-04-17T16:55:18Z</time></trkpt><trkpt lat="41.92653483366107" lon="12.21391933273737"><ele>40.5</ele><time>2026-04-17T16:55:19Z</time></trkpt><trkpt lat="41.92657681337393" lon="12.214020551238868"><ele>41.0</ele><time>2026-04-17T16:55:20Z</time></trkpt><trkpt lat="41.926629110459196" lon="12.21410951757862"><ele>41.5</ele><time>2026-04-17T16:55:20.999Z</time></trkpt><trkpt lat="41.926682283310875" lon="12.214189593854055"><ele>42.0</ele><time>2026-04-17T16:55:21.999Z</time></trkpt><trkpt lat="41.92674348465717" lon="12.214272955443901"><ele>42.5</ele><time>2026-04-17T16:55:22.999Z</time></trkpt><trkpt lat="41.926804305784465" lon="12.214351434025476"><ele>43.0</ele><time>2026-04-17T16:55:23.999Z</time></trkpt><trkpt lat="41.92686925610008" lon="12.214418864967879"><ele>43.16666666666667</ele><time>2026-04-17T16:55:24.999Z</time></trkpt><trkpt lat="41.92693515303902" lon="12.214493537756809"><ele>43.333333333333336</ele><time>2026-04-17T16:55:25.999Z</time></trkpt><trkpt lat="41.9270079392689" lon="12.214561210385995"><ele>43.5</ele><time>2026-04-17T16:55:26.999Z</time></trkpt><trkpt lat="41.92707763108306" lon="12.214623242411465"><ele>43.666666666666664</ele><time>2026-04-17T16:55:27.999Z</time></trkpt><trkpt lat="41.92715818224547" lon="12.214669922420699"><ele>43.83333333333333</ele><time>2026-04-17T16:55:28.999Z</time></trkpt><trkpt lat="41.92723241508866" lon="12.214733247020966"><ele>44.0</ele><time>2026-04-17T16:55:29.999Z</time></trkpt><trkpt lat="41.92731378465578" lon="12.214780285811509"><ele>44.75</ele><time>2026-04-17T16:55:30.999Z</time></trkpt><trkpt lat="41.92741722001247" lon="12.214846242395033"><ele>45.5</ele><time>2026-04-17T16:55:31.999Z</time></trkpt><trkpt lat="41.92752610262868" lon="12.214920269849094"><ele>46.25</ele><time>2026-04-17T16:55:32.999Z</time></trkpt><trkpt lat="41.9276451519961" lon="12.215012528773693"><ele>47.0</ele><time>2026-04-17T16:55:33.999Z</time></trkpt><trkpt lat="41.927770389626104" lon="12.215127403200755"><ele>47.0</ele><time>2026-04-17T16:55:34.999Z</time></trkpt><trkpt lat="41.92788659446872" lon="12.215252297443705"><ele>47.0</ele><time>2026-04-17T16:55:35.999Z</time></trkpt><trkpt lat="41.92799693342546" lon="12.215387837779234"><ele>47.0</ele><time>2026-04-17T16:55:36.999Z</time></trkpt><trkpt lat="41.92810418439134" lon="12.215535755657273"><ele>48.0</ele><time>2026-04-17T16:55:37.999Z</time></trkpt><trkpt lat="41.92820678577728" lon="12.21569289280989"><ele>49.0</ele><time>2026-04-17T16:55:38.999Z</time></trkpt><trkpt lat="41.92829553691136" lon="12.21584484816254"><ele>50.0</ele><time>2026-04-17T16:55:39.999Z</time></trkpt><trkpt lat="41.92835972888363" lon="12.215977025377596"><ele>51.0</ele><time>2026-04-17T16:55:40.999Z</time></trkpt><trkpt lat="41.92840665164266" lon="12.216094044342293"><ele>51.0</ele><time>2026-04-17T16:55:41.999Z</time></trkpt><trkpt lat="41.92843870719976" lon="12.216206555824396"><ele>51.0</ele><time>2026-04-17T16:55:42.999Z</time></trkpt><trkpt lat="41.92845899469171" lon="12.216319709225937"><ele>51.0</ele><time>2026-04-17T16:55:43.999Z</time></trkpt><trkpt lat="41.928461726702345" lon="12.216428072772045"><ele>51.0</ele><time>2026-04-17T16:55:44.999Z</time></trkpt><trkpt lat="41.92844653045481" lon="12.216569467096726"><ele>51.0</ele><time>2026-04-17T16:55:45.999Z</time></trkpt><trkpt lat="41.92842025689255" lon="12.216699896333601"><ele>53.75</ele><time>2026-04-17T16:55:46.999Z</time></trkpt><trkpt lat="41.92837449274123" lon="12.216842345109741"><ele>56.5</ele><time>2026-04-17T16:55:47.999Z</time></trkpt><trkpt lat="41.928321529752644" lon="12.21699379833891"><ele>59.25</ele><time>2026-04-17T16:55:48.999Z</time></trkpt><trkpt lat="41.92828721883845" lon="12.21717838509747"><ele>62.0</ele><time>2026-04-17T16:55:49.999Z</time></trkpt><trkpt lat="41.92824172247073" lon="12.217361855455014"><ele>63.25</ele><time>2026-04-17T16:55:50.999Z</time></trkpt><trkpt lat="41.92818027011963" lon="12.217541556314023"><ele>64.5</ele><time>2026-04-17T16:55:51.999Z</time></trkpt><trkpt lat="41.92813306661791" lon="12.21772606852691"><ele>65.75</ele><time>2026-04-17T16:55:52.999Z</time></trkpt><trkpt lat="41.92810361286208" lon="12.217898752130523"><ele>67.0</ele><time>2026-04-17T16:55:53.999Z</time></trkpt><trkpt lat="41.9280632740573" lon="12.218052298589459"><ele>66.6</ele><time>2026-04-17T16:55:54.999Z</time></trkpt><trkpt lat="41.92802132574044" lon="12.218204542913087"><ele>66.2</ele><time>2026-04-17T16:55:55.999Z</time></trkpt><trkpt lat="41.92798105985185" lon="12.21834380145032"><ele>65.8</ele><time>2026-04-17T16:55:56.999Z</time></trkpt><trkpt lat="41.92797404425191" lon="12.218490197877843"><ele>65.4</ele><time>2026-04-17T16:55:57.999Z</time></trkpt><trkpt lat="41.92799620832604" lon="12.218627558571267"><ele>65.0</ele><time>2026-04-17T16:55:58.999Z</time></trkpt><trkpt lat="41.92803077318088" lon="12.218766971669309"><ele>65.0</ele><time>2026-04-17T16:55:59.999Z</time></trkpt><trkpt lat="41.928077522256984" lon="12.218919895000218"><ele>65.0</ele><time>2026-04-17T16:56:00.999Z</time></trkpt><trkpt lat="41.92813181952488" lon="12.21908494875637"><ele>65.0</ele><time>2026-04-17T16:56:01.999Z</time></trkpt><trkpt lat="41.92819471439525" lon="12.219256343391345"><ele>65.0</ele><time>2026-04-17T16:56:02.999Z</time></trkpt><trkpt lat="41.92827284436365" lon="12.219424220937764"><ele>66.0</ele><time>2026-04-17T16:56:03.999Z</time></trkpt><trkpt lat="41.928356879471465" lon="12.219539720877"><ele>67.0</ele><time>2026-04-17T16:56:04.998Z</time></trkpt><trkpt lat="41.92842745323835" lon="12.219656836579277"><ele>68.0</ele><time>2026-04-17T16:56:05.998Z</time></trkpt><trkpt lat="41.928528804356425" lon="12.219718415007804"><ele>69.0</ele><time>2026-04-17T16:56:06.998Z</time></trkpt><trkpt lat="41.92863852800574" lon="12.219783788124765"><ele>66.4</ele><time>2026-04-17T16:56:07.998Z</time></trkpt><trkpt lat="41.92875708572247" lon="12.219843613992309"><ele>63.800000000000004</ele><time>2026-04-17T16:56:08.998Z</time></trkpt><trkpt lat="41.928844693828566" lon="12.219906579631639"><ele>61.199999999999996</ele><time>2026-04-17T16:56:09.998Z</time></trkpt><trkpt lat="41.92891965277084" lon="12.219977813385185"><ele>58.599999999999994</ele><time>2026-04-17T16:56:10.998Z</time></trkpt><trkpt lat="41.928978074918014" lon="12.220052264607139"><ele>56.0</ele><time>2026-04-17T16:56:11.998Z</time></trkpt><trkpt lat="41.92901963267402" lon="12.220129819095241"><ele>56.0</ele><time>2026-04-17T16:56:12.998Z</time></trkpt><trkpt lat="41.92905944338455" lon="12.220207341459584"><ele>56.0</ele><time>2026-04-17T16:56:13.998Z</time></trkpt><trkpt lat="41.92920490139438" lon="12.22072168150901"><ele>56.4</ele><time>2026-04-17T16:56:16.998Z</time></trkpt><trkpt lat="41.92925530703536" lon="12.220819463030148"><ele>56.8</ele><time>2026-04-17T16:56:17.998Z</time></trkpt><trkpt lat="41.9293105715765" lon="12.22091081140338"><ele>57.199999999999996</ele><time>2026-04-17T16:56:18.998Z</time></trkpt><trkpt lat="41.92936367324425" lon="12.221015514508965"><ele>57.599999999999994</ele><time>2026-04-17T16:56:19.998Z</time></trkpt><trkpt lat="41.92941864147143" lon="12.22114511753362"><ele>58.0</ele><time>2026-04-17T16:56:21.998Z</time></trkpt><trkpt lat="41.92940222854258" lon="12.221278422146929"><ele>58.0</ele><time>2026-04-17T16:56:23.998Z</time></trkpt><trkpt lat="41.929315675090905" lon="12.221316102206872"><ele>58.0</ele><time>2026-04-17T16:56:24.998Z</time></trkpt><trkpt lat="41.92925074324669" lon="12.221397221082805"><ele>58.0</ele><time>2026-04-17T16:56:25.998Z</time></trkpt><trkpt lat="41.92916417081576" lon="12.221475853064252"><ele>58.0</ele><time>2026-04-17T16:56:26.998Z</time></trkpt><trkpt lat="41.929071709074485" lon="12.221560604598448"><ele>58.0</ele><time>2026-04-17T16:56:27.998Z</time></trkpt><trkpt lat="41.928961886730555" lon="12.221505213948362"><ele>54.599999999999994</ele><time>2026-04-17T16:56:28.998Z</time></trkpt><trkpt lat="41.92886298623347" lon="12.221516464017435"><ele>51.199999999999996</ele><time>2026-04-17T16:56:29.998Z</time></trkpt><trkpt lat="41.92878083141011" lon="12.221567285560335"><ele>47.8</ele><time>2026-04-17T16:56:30.998Z</time></trkpt><trkpt lat="41.928706939938465" lon="12.22163341974752"><ele>44.4</ele><time>2026-04-17T16:56:31.998Z</time></trkpt><trkpt lat="41.928628130333195" lon="12.221739400727508"><ele>41.0</ele><time>2026-04-17T16:56:32.998Z</time></trkpt><trkpt lat="41.92857329399308" lon="12.22188750100336"><ele>41.0</ele><time>2026-04-17T16:56:33.998Z</time></trkpt><trkpt lat="41.92853032219794" lon="12.22207769095719"><ele>41.0</ele><time>2026-04-17T16:56:34.998Z</time></trkpt><trkpt lat="41.92848088840708" lon="12.222283166167093"><ele>41.0</ele><time>2026-04-17T16:56:35.998Z</time></trkpt><trkpt lat="41.92840236966875" lon="12.222477394140476"><ele>41.666666666666664</ele><time>2026-04-17T16:56:36.998Z</time></trkpt><trkpt lat="41.92833423135608" lon="12.222693345180577"><ele>42.333333333333336</ele><time>2026-04-17T16:56:37.998Z</time></trkpt><trkpt lat="41.92825822173931" lon="12.222914281647364"><ele>43.0</ele><time>2026-04-17T16:56:38.998Z</time></trkpt><trkpt lat="41.928189940198145" lon="12.223111754202595"><ele>42.199999999999996</ele><time>2026-04-17T16:56:39.998Z</time></trkpt><trkpt lat="41.928137578945794" lon="12.223278526970706"><ele>41.4</ele><time>2026-04-17T16:56:40.998Z</time></trkpt><trkpt lat="41.92812704496396" lon="12.223422423459114"><ele>40.599999999999994</ele><time>2026-04-17T16:56:41.998Z</time></trkpt><trkpt lat="41.92811111764221" lon="12.223538058728636"><ele>39.8</ele><time>2026-04-17T16:56:42.998Z</time></trkpt><trkpt lat="41.928125722892474" lon="12.22366302743574"><ele>39.0</ele><time>2026-04-17T16:56:43.998Z</time></trkpt><trkpt lat="41.92815496395325" lon="12.223798284396512"><ele>39.0</ele><time>2026-04-17T16:56:44.998Z</time></trkpt><trkpt lat="41.92820856246653" lon="12.223944780498092"><ele>39.0</ele><time>2026-04-17T16:56:45.997Z</time></trkpt><trkpt lat="41.928274297311056" lon="12.224105553946584"><ele>39.0</ele><time>2026-04-17T16:56:46.997Z</time></trkpt><trkpt lat="41.92834256008485" lon="12.224274027787299"><ele>39.0</ele><time>2026-04-17T16:56:47.997Z</time></trkpt><trkpt lat="41.92841184031367" lon="12.224420540115116"><ele>39.0</ele><time>2026-04-17T16:56:48.997Z</time></trkpt><trkpt lat="41.92848808578873" lon="12.224560267055216"><ele>39.0</ele><time>2026-04-17T16:56:49.997Z</time></trkpt><trkpt lat="41.928569090085254" lon="12.224678279072796"><ele>39.0</ele><time>2026-04-17T16:56:50.997Z</time></trkpt><trkpt lat="41.92866419326172" lon="12.22477229791046"><ele>39.0</ele><time>2026-04-17T16:56:51.997Z</time></trkpt><trkpt lat="41.92877901223216" lon="12.224838563989774"><ele>39.0</ele><time>2026-04-17T16:56:52.997Z</time></trkpt><trkpt lat="41.92891847034883" lon="12.224883438551231"><ele>39.0</ele><time>2026-04-17T16:56:53.997Z</time></trkpt><trkpt lat="41.92907360486683" lon="12.224908626808721"><ele>39.0</ele><time>2026-04-17T16:56:54.997Z</time></trkpt><trkpt lat="41.92922560392848" lon="12.224922443908582"><ele>39.5</ele><time>2026-04-17T16:56:55.997Z</time></trkpt><trkpt lat="41.92936800726346" lon="12.224928871581499"><ele>40.0</ele><time>2026-04-17T16:56:56.997Z</time></trkpt><trkpt lat="41.92950684674735" lon="12.224915785644546"><ele>40.5</ele><time>2026-04-17T16:56:57.997Z</time></trkpt><trkpt lat="41.929643485389384" lon="12.224878914876289"><ele>41.0</ele><time>2026-04-17T16:56:58.997Z</time></trkpt><trkpt lat="41.92978329018613" lon="12.224836983313065"><ele>44.599999999999994</ele><time>2026-04-17T16:56:59.997Z</time></trkpt><trkpt lat="41.92991838195547" lon="12.224797702248441"><ele>48.2</ele><time>2026-04-17T16:57:00.997Z</time></trkpt><trkpt lat="41.93003176869223" lon="12.22475843465017"><ele>51.800000000000004</ele><time>2026-04-17T16:57:01.997Z</time></trkpt><trkpt lat="41.93012919529076" lon="12.224718622317061"><ele>55.400000000000006</ele><time>2026-04-17T16:57:02.997Z</time></trkpt><trkpt lat="41.930214633603434" lon="12.224693736887652"><ele>59.0</ele><time>2026-04-17T16:57:03.997Z</time></trkpt><trkpt lat="41.930289780778466" lon="12.224734020879783"><ele>59.00000000000001</ele><time>2026-04-17T16:57:04.997Z</time></trkpt><trkpt lat="41.930346559082636" lon="12.224794120245516"><ele>59.0</ele><time>2026-04-17T16:57:05.997Z</time></trkpt><trkpt lat="41.930417517921015" lon="12.22487470538422"><ele>59.0</ele><time>2026-04-17T16:57:07Z</time></trkpt><trkpt lat="41.93047864818057" lon="12.224962191705993"><ele>59.0</ele><time>2026-04-17T16:57:08Z</time></trkpt><trkpt lat="41.930518940994915" lon="12.225053805587958"><ele>59.00000000000001</ele><time>2026-04-17T16:57:09Z</time></trkpt><trkpt lat="41.9305255543532" lon="12.22514132742793"><ele>59.0</ele><time>2026-04-17T16:57:10Z</time></trkpt><trkpt lat="41.930515598354965" lon="12.22522927213859"><ele>55.2</ele><time>2026-04-17T16:57:11Z</time></trkpt><trkpt lat="41.9304941039442" lon="12.225331453910487"><ele>51.400000000000006</ele><time>2026-04-17T16:57:12Z</time></trkpt><trkpt lat="41.93044648885089" lon="12.225419511086685"><ele>47.6</ele><time>2026-04-17T16:57:13Z</time></trkpt><trkpt lat="41.93037631223682" lon="12.225480220274699"><ele>43.8</ele><time>2026-04-17T16:57:14Z</time></trkpt><trkpt lat="41.93028464764843" lon="12.225562804241152"><ele>40.0</ele><time>2026-04-17T16:57:15Z</time></trkpt><trkpt lat="41.930175449975835" lon="12.225642908742014"><ele>40.4</ele><time>2026-04-17T16:57:16Z</time></trkpt><trkpt lat="41.930074682989954" lon="12.2257390481089"><ele>40.8</ele><time>2026-04-17T16:57:17Z</time></trkpt><trkpt lat="41.929994788949635" lon="12.225834144509426"><ele>41.2</ele><time>2026-04-17T16:57:18Z</time></trkpt><trkpt lat="41.929943590172485" lon="12.225935061911366"><ele>41.6</ele><time>2026-04-17T16:57:19Z</time></trkpt><trkpt lat="41.92987755345987" lon="12.22603343779102"><ele>42.0</ele><time>2026-04-17T16:57:20Z</time></trkpt><trkpt lat="41.929807101834975" lon="12.226129288363412"><ele>42.0</ele><time>2026-04-17T16:57:21Z</time></trkpt><trkpt lat="41.92976403929219" lon="12.226254249752985"><ele>42.0</ele><time>2026-04-17T16:57:22Z</time></trkpt><trkpt lat="41.92973555472759" lon="12.22637352366028"><ele>42.0</ele><time>2026-04-17T16:57:23Z</time></trkpt><trkpt lat="41.92973485296173" lon="12.226485015600602"><ele>42.0</ele><time>2026-04-17T16:57:24Z</time></trkpt><trkpt lat="41.929702102937384" lon="12.226558599251826"><ele>42.0</ele><time>2026-04-17T16:57:25Z</time></trkpt><trkpt lat="41.929655931124955" lon="12.226681022357216"><ele>42.0</ele><time>2026-04-17T16:57:27Z</time></trkpt><trkpt lat="41.92979485837717" lon="12.226834067749348"><ele>43.25</ele><time>2026-04-17T16:57:28Z</time></trkpt><trkpt lat="41.9298727832135" lon="12.22692952372392"><ele>44.5</ele><time>2026-04-17T16:57:29Z</time></trkpt><trkpt lat="41.929961570340154" lon="12.227049367050704"><ele>45.75</ele><time>2026-04-17T16:57:29.999Z</time></trkpt><trkpt lat="41.930062610155815" lon="12.227170524451315"><ele>47.0</ele><time>2026-04-17T16:57:30.999Z</time></trkpt><trkpt lat="41.930177329477516" lon="12.227293608412758"><ele>50.0</ele><time>2026-04-17T16:57:31.999Z</time></trkpt><trkpt lat="41.93029637086268" lon="12.227415323558636"><ele>53.0</ele><time>2026-04-17T16:57:32.999Z</time></trkpt><trkpt lat="41.93042643721248" lon="12.227549216008397"><ele>56.0</ele><time>2026-04-17T16:57:33.999Z</time></trkpt><trkpt lat="41.930565209625364" lon="12.227692754176367"><ele>56.0</ele><time>2026-04-17T16:57:34.999Z</time></trkpt><trkpt lat="41.93070672712903" lon="12.227838680214813"><ele>56.0</ele><time>2026-04-17T16:57:35.999Z</time></trkpt><trkpt lat="41.930846934071894" lon="12.22798223766683"><ele>56.0</ele><time>2026-04-17T16:57:36.999Z</time></trkpt><trkpt lat="41.93097433602995" lon="12.22811541964197"><ele>54.25</ele><time>2026-04-17T16:57:37.999Z</time></trkpt><trkpt lat="41.93108691284774" lon="12.228235243269053"><ele>52.5</ele><time>2026-04-17T16:57:38.999Z</time></trkpt><trkpt lat="41.93119743507674" lon="12.22835800604865"><ele>50.75</ele><time>2026-04-17T16:57:39.999Z</time></trkpt><trkpt lat="41.93131297310848" lon="12.228471392929285"><ele>49.0</ele><time>2026-04-17T16:57:40.999Z</time></trkpt><trkpt lat="41.93139243901396" lon="12.228623316165292"><ele>49.0</ele><time>2026-04-17T16:57:41.999Z</time></trkpt><trkpt lat="41.93146731630509" lon="12.22876750565033"><ele>49.0</ele><time>2026-04-17T16:57:42.999Z</time></trkpt><trkpt lat="41.93151335831194" lon="12.22892427174212"><ele>49.0</ele><time>2026-04-17T16:57:43.999Z</time></trkpt><trkpt lat="41.93154568361447" lon="12.229083111746824"><ele>49.0</ele><time>2026-04-17T16:57:44.999Z</time></trkpt><trkpt lat="41.93157933666992" lon="12.229276931473306"><ele>51.666666666666664</ele><time>2026-04-17T16:57:45.999Z</time></trkpt><trkpt lat="41.931616516714506" lon="12.229496400883272"><ele>54.33333333333333</ele><time>2026-04-17T16:57:46.999Z</time></trkpt><trkpt lat="41.93165462787008" lon="12.229729764271063"><ele>57.0</ele><time>2026-04-17T16:57:47.999Z</time></trkpt><trkpt lat="41.93169318764458" lon="12.229966376672579"><ele>59.66666666666667</ele><time>2026-04-17T16:57:48.999Z</time></trkpt><trkpt lat="41.93173700455" lon="12.2302125766041"><ele>62.333333333333336</ele><time>2026-04-17T16:57:49.999Z</time></trkpt><trkpt lat="41.93178673178785" lon="12.230468060501188"><ele>65.0</ele><time>2026-04-17T16:57:50.999Z</time></trkpt><trkpt lat="41.93183740018084" lon="12.230719595946109"><ele>65.66666666666667</ele><time>2026-04-17T16:57:51.999Z</time></trkpt><trkpt lat="41.9318806721441" lon="12.23092659850121"><ele>66.33333333333333</ele><time>2026-04-17T16:57:52.999Z</time></trkpt><trkpt lat="41.931927062625704" lon="12.23112453818571"><ele>67.0</ele><time>2026-04-17T16:57:53.999Z</time></trkpt><trkpt lat="41.9319820086442" lon="12.231314691669604"><ele>67.25</ele><time>2026-04-17T16:57:54.999Z</time></trkpt><trkpt lat="41.93203780770445" lon="12.231485228992296"><ele>67.5</ele><time>2026-04-17T16:57:55.999Z</time></trkpt><trkpt lat="41.932116425108006" lon="12.231642097576833"><ele>67.75</ele><time>2026-04-17T16:57:56.999Z</time></trkpt><trkpt lat="41.93220677661085" lon="12.231810043272237"><ele>68.0</ele><time>2026-04-17T16:57:57.999Z</time></trkpt><trkpt lat="41.93231915377685" lon="12.231983693559112"><ele>68.0</ele><time>2026-04-17T16:57:58.999Z</time></trkpt><trkpt lat="41.93242317352017" lon="12.232179799173327"><ele>68.0</ele><time>2026-04-17T16:57:59.999Z</time></trkpt><trkpt lat="41.932544700923025" lon="12.232370671163665"><ele>68.0</ele><time>2026-04-17T16:58:00.999Z</time></trkpt><trkpt lat="41.9326595151172" lon="12.232550081718275"><ele>68.75</ele><time>2026-04-17T16:58:01.999Z</time></trkpt><trkpt lat="41.93275713756891" lon="12.23270181737964"><ele>69.5</ele><time>2026-04-17T16:58:02.999Z</time></trkpt><trkpt lat="41.93284302727464" lon="12.232835773391047"><ele>70.25</ele><time>2026-04-17T16:58:03.999Z</time></trkpt><trkpt lat="41.93292178030272" lon="12.232959986086232"><ele>71.0</ele><time>2026-04-17T16:58:04.999Z</time></trkpt><trkpt lat="41.93299728691212" lon="12.233080682334563"><ele>71.25</ele><time>2026-04-17T16:58:05.999Z</time></trkpt><trkpt lat="41.93307304151121" lon="12.233207080306276"><ele>71.5</ele><time>2026-04-17T16:58:06.999Z</time></trkpt><trkpt lat="41.93315591357412" lon="12.23335443478308"><ele>71.75</ele><time>2026-04-17T16:58:07.998Z</time></trkpt><trkpt lat="41.933240779005565" lon="12.233519215889089"><ele>72.0</ele><time>2026-04-17T16:58:08.998Z</time></trkpt><trkpt lat="41.93332284281978" lon="12.233694938141339"><ele>72.5</ele><time>2026-04-17T16:58:09.998Z</time></trkpt><trkpt lat="41.93339738282453" lon="12.233856099490527"><ele>73.0</ele><time>2026-04-17T16:58:10.998Z</time></trkpt><trkpt lat="41.933478870383446" lon="12.233992910176822"><ele>73.5</ele><time>2026-04-17T16:58:11.998Z</time></trkpt><trkpt lat="41.93353862360695" lon="12.234124473587949"><ele>74.0</ele><time>2026-04-17T16:58:12.998Z</time></trkpt><trkpt lat="41.933582635602896" lon="12.23426647471161"><ele>74.2</ele><time>2026-04-17T16:58:13.998Z</time></trkpt><trkpt lat="41.93364118574886" lon="12.234398579249902"><ele>74.4</ele><time>2026-04-17T16:58:14.998Z</time></trkpt><trkpt lat="41.93369734789324" lon="12.234522606555448"><ele>74.6</ele><time>2026-04-17T16:58:15.998Z</time></trkpt><trkpt lat="41.93375017927386" lon="12.234638861836897"><ele>74.8</ele><time>2026-04-17T16:58:16.998Z</time></trkpt><trkpt lat="41.93380990615608" lon="12.234749396685164"><ele>75.0</ele><time>2026-04-17T16:58:17.998Z</time></trkpt><trkpt lat="41.93386242377202" lon="12.234856760152644"><ele>76.0</ele><time>2026-04-17T16:58:18.998Z</time></trkpt><trkpt lat="41.93391275001542" lon="12.23496703860103"><ele>77.0</ele><time>2026-04-17T16:58:19.998Z</time></trkpt><trkpt lat="41.9339638362357" lon="12.235081646921092"><ele>78.0</ele><time>2026-04-17T16:58:20.998Z</time></trkpt><trkpt lat="41.93401335922315" lon="12.235203629406257"><ele>79.0</ele><time>2026-04-17T16:58:21.998Z</time></trkpt><trkpt lat="41.93406750320295" lon="12.235332303977772"><ele>80.0</ele><time>2026-04-17T16:58:22.998Z</time></trkpt><trkpt lat="41.93412596312813" lon="12.23546242386766"><ele>80.0</ele><time>2026-04-17T16:58:23.998Z</time></trkpt><trkpt lat="41.93417392148271" lon="12.235583364299499"><ele>80.0</ele><time>2026-04-17T16:58:24.998Z</time></trkpt><trkpt lat="41.93421474662757" lon="12.235698551311083"><ele>80.0</ele><time>2026-04-17T16:58:25.998Z</time></trkpt><trkpt lat="41.93423964968288" lon="12.235815877025356"><ele>80.0</ele><time>2026-04-17T16:58:26.998Z</time></trkpt><trkpt lat="41.93426867393595" lon="12.235934370338558"><ele>80.0</ele><time>2026-04-17T16:58:27.998Z</time></trkpt><trkpt lat="41.93428885174711" lon="12.236062547815592"><ele>80.2</ele><time>2026-04-17T16:58:28.998Z</time></trkpt><trkpt lat="41.93430621348163" lon="12.236205259924748"><ele>80.4</ele><time>2026-04-17T16:58:29.998Z</time></trkpt><trkpt lat="41.93431756644663" lon="12.236340033380856"><ele>80.6</ele><time>2026-04-17T16:58:30.998Z</time></trkpt><trkpt lat="41.934325581134686" lon="12.236471901739435"><ele>80.8</ele><time>2026-04-17T16:58:31.998Z</time></trkpt><trkpt lat="41.93433083899239" lon="12.236607905676717"><ele>81.0</ele><time>2026-04-17T16:58:32.998Z</time></trkpt><trkpt lat="41.93433178070338" lon="12.23675942270398"><ele>80.6</ele><time>2026-04-17T16:58:33.998Z</time></trkpt><trkpt lat="41.93432738280013" lon="12.236905461859811"><ele>80.19999999999999</ele><time>2026-04-17T16:58:34.998Z</time></trkpt><trkpt lat="41.934315150217785" lon="12.237057621399938"><ele>79.80000000000001</ele><time>2026-04-17T16:58:35.998Z</time></trkpt><trkpt lat="41.93429399764609" lon="12.237194588438841"><ele>79.4</ele><time>2026-04-17T16:58:36.998Z</time></trkpt><trkpt lat="41.93425772502772" lon="12.237344147523363"><ele>79.0</ele><time>2026-04-17T16:58:37.998Z</time></trkpt><trkpt lat="41.934214956743055" lon="12.237504939865307"><ele>78.5</ele><time>2026-04-17T16:58:38.998Z</time></trkpt><trkpt lat="41.934168769444284" lon="12.23766926541365"><ele>78.0</ele><time>2026-04-17T16:58:39.998Z</time></trkpt><trkpt lat="41.934124972654466" lon="12.237822522694543"><ele>77.5</ele><time>2026-04-17T16:58:40.998Z</time></trkpt><trkpt lat="41.93408486804806" lon="12.237966074056752"><ele>77.0</ele><time>2026-04-17T16:58:41.998Z</time></trkpt><trkpt lat="41.93404643873904" lon="12.238111633581626"><ele>76.8</ele><time>2026-04-17T16:58:42.998Z</time></trkpt><trkpt lat="41.93401045558167" lon="12.238249131798058"><ele>76.6</ele><time>2026-04-17T16:58:43.998Z</time></trkpt><trkpt lat="41.93397976795682" lon="12.238373103072014"><ele>76.39999999999999</ele><time>2026-04-17T16:58:44.998Z</time></trkpt><trkpt lat="41.933950935745656" lon="12.238486857803531"><ele>76.2</ele><time>2026-04-17T16:58:45.998Z</time></trkpt><trkpt lat="41.93392325339615" lon="12.238591519047308"><ele>76.0</ele><time>2026-04-17T16:58:46.997Z</time></trkpt><trkpt lat="41.93389900841514" lon="12.238683228758399"><ele>76.0</ele><time>2026-04-17T16:58:47.997Z</time></trkpt><trkpt lat="41.9338922603972" lon="12.23876878615075"><ele>76.0</ele><time>2026-04-17T16:58:48.997Z</time></trkpt><trkpt lat="41.93383129061438" lon="12.238939140651103"><ele>76.0</ele><time>2026-04-17T16:58:50.997Z</time></trkpt><trkpt lat="41.933802405571214" lon="12.239045688822323"><ele>76.0</ele><time>2026-04-17T16:58:51.997Z</time></trkpt><trkpt lat="41.933764991740965" lon="12.239180766666252"><ele>76.0</ele><time>2026-04-17T16:58:52.997Z</time></trkpt><trkpt lat="41.93372274113901" lon="12.239325045390613"><ele>75.6</ele><time>2026-04-17T16:58:53.997Z</time></trkpt><trkpt lat="41.933681994111694" lon="12.239453324931919"><ele>75.19999999999999</ele><time>2026-04-17T16:58:54.997Z</time></trkpt><trkpt lat="41.933645206272026" lon="12.239550441648628"><ele>74.80000000000001</ele><time>2026-04-17T16:58:55.997Z</time></trkpt><trkpt lat="41.9336134538693" lon="12.239659197359952"><ele>74.4</ele><time>2026-04-17T16:58:56.997Z</time></trkpt><trkpt lat="41.93354631838007" lon="12.239742545891128"><ele>74.0</ele><time>2026-04-17T16:58:57.997Z</time></trkpt><trkpt lat="41.93346959458946" lon="12.239824474520013"><ele>73.75</ele><time>2026-04-17T16:58:58.997Z</time></trkpt><trkpt lat="41.93336528121069" lon="12.239867307174809"><ele>73.5</ele><time>2026-04-17T16:58:59.997Z</time></trkpt><trkpt lat="41.93326900405175" lon="12.239961747759097"><ele>73.25</ele><time>2026-04-17T16:59:00.997Z</time></trkpt><trkpt lat="41.93315061564857" lon="12.240029230451706"><ele>73.0</ele><time>2026-04-17T16:59:01.997Z</time></trkpt><trkpt lat="41.93305005987324" lon="12.240082275213933"><ele>73.0</ele><time>2026-04-17T16:59:02.997Z</time></trkpt><trkpt lat="41.93293532722857" lon="12.24011098950614"><ele>73.0</ele><time>2026-04-17T16:59:03.997Z</time></trkpt><trkpt lat="41.93282006922799" lon="12.240148639338106"><ele>73.0</ele><time>2026-04-17T16:59:04.997Z</time></trkpt><trkpt lat="41.932696116121065" lon="12.240178076878916"><ele>73.0</ele><time>2026-04-17T16:59:05.997Z</time></trkpt><trkpt lat="41.93257201924505" lon="12.240196516156006"><ele>72.75</ele><time>2026-04-17T16:59:06.997Z</time></trkpt><trkpt lat="41.93243930255629" lon="12.240225013701107"><ele>72.5</ele><time>2026-04-17T16:59:07.997Z</time></trkpt><trkpt lat="41.93230699171077" lon="12.240225630875042"><ele>72.25</ele><time>2026-04-17T16:59:08.997Z</time></trkpt><trkpt lat="41.93219337454186" lon="12.240226662796278"><ele>72.0</ele><time>2026-04-17T16:59:09.997Z</time></trkpt><trkpt lat="41.93208888454891" lon="12.240227687323781"><ele>72.0</ele><time>2026-04-17T16:59:10.997Z</time></trkpt><trkpt lat="41.93198614164098" lon="12.240234848873712"><ele>72.0</ele><time>2026-04-17T16:59:11.997Z</time></trkpt><trkpt lat="41.931879657711136" lon="12.240225401829052"><ele>72.0</ele><time>2026-04-17T16:59:13Z</time></trkpt><trkpt lat="41.93178777082608" lon="12.240234842169258"><ele>72.0</ele><time>2026-04-17T16:59:14Z</time></trkpt><trkpt lat="41.93170166357207" lon="12.240258998465231"><ele>72.0</ele><time>2026-04-17T16:59:15Z</time></trkpt><trkpt lat="41.93162083306146" lon="12.240305868144967"><ele>72.4</ele><time>2026-04-17T16:59:16Z</time></trkpt><trkpt lat="41.931533293591016" lon="12.24033028945357"><ele>72.80000000000001</ele><time>2026-04-17T16:59:17Z</time></trkpt><trkpt lat="41.93144748600656" lon="12.240365372983964"><ele>73.2</ele><time>2026-04-17T16:59:18Z</time></trkpt><trkpt lat="41.93135892134132" lon="12.240403108074137"><ele>73.60000000000001</ele><time>2026-04-17T16:59:19Z</time></trkpt><trkpt lat="41.93126721296997" lon="12.240435700803546"><ele>74.0</ele><time>2026-04-17T16:59:20Z</time></trkpt><trkpt lat="41.931173496786165" lon="12.240471748581282"><ele>74.0</ele><time>2026-04-17T16:59:21Z</time></trkpt><trkpt lat="41.931080409634525" lon="12.240509890278005"><ele>74.0</ele><time>2026-04-17T16:59:22Z</time></trkpt><trkpt lat="41.93098356574121" lon="12.240544703970786"><ele>74.0</ele><time>2026-04-17T16:59:23Z</time></trkpt><trkpt lat="41.930887668632295" lon="12.240580939955729"><ele>74.0</ele><time>2026-04-17T16:59:24Z</time></trkpt><trkpt lat="41.93078724150116" lon="12.24062154075381"><ele>74.0</ele><time>2026-04-17T16:59:25Z</time></trkpt><trkpt lat="41.93067922241592" lon="12.240664857650327"><ele>74.0</ele><time>2026-04-17T16:59:26Z</time></trkpt><trkpt lat="41.93056118630682" lon="12.24069529184695"><ele>74.0</ele><time>2026-04-17T16:59:27Z</time></trkpt><trkpt lat="41.9304356996736" lon="12.240743656288577"><ele>74.0</ele><time>2026-04-17T16:59:28Z</time></trkpt><trkpt lat="41.93032430363101" lon="12.24079271241683"><ele>74.0</ele><time>2026-04-17T16:59:29Z</time></trkpt><trkpt lat="41.93021680067746" lon="12.240842956512425"><ele>74.0</ele><time>2026-04-17T16:59:30Z</time></trkpt><trkpt lat="41.93009571015417" lon="12.240888332900466"><ele>74.0</ele><time>2026-04-17T16:59:31Z</time></trkpt><trkpt lat="41.929978247354484" lon="12.240918633898586"><ele>74.0</ele><time>2026-04-17T16:59:32Z</time></trkpt><trkpt lat="41.929870633826965" lon="12.24093898769537"><ele>74.0</ele><time>2026-04-17T16:59:33Z</time></trkpt><trkpt lat="41.9297621794646" lon="12.240925825279907"><ele>73.60000000000001</ele><time>2026-04-17T16:59:33.999Z</time></trkpt><trkpt lat="41.92965972681747" lon="12.240918114573248"><ele>73.2</ele><time>2026-04-17T16:59:34.999Z</time></trkpt><trkpt lat="41.92956000694283" lon="12.24090735964604"><ele>72.80000000000001</ele><time>2026-04-17T16:59:35.999Z</time></trkpt><trkpt lat="41.92945098799638" lon="12.240883015562046"><ele>72.4</ele><time>2026-04-17T16:59:36.999Z</time></trkpt><trkpt lat="41.929343587920684" lon="12.240861326662111"><ele>72.0</ele><time>2026-04-17T16:59:37.999Z</time></trkpt><trkpt lat="41.92923919302173" lon="12.240853241587129"><ele>72.2</ele><time>2026-04-17T16:59:38.999Z</time></trkpt><trkpt lat="41.92914170161422" lon="12.240813353499782"><ele>72.4</ele><time>2026-04-17T16:59:39.999Z</time></trkpt><trkpt lat="41.92904570575627" lon="12.240770562627647"><ele>72.6</ele><time>2026-04-17T16:59:40.999Z</time></trkpt><trkpt lat="41.92895682935503" lon="12.240696809216022"><ele>72.8</ele><time>2026-04-17T16:59:41.999Z</time></trkpt><trkpt lat="41.928861579575006" lon="12.240628945619518"><ele>73.0</ele><time>2026-04-17T16:59:42.999Z</time></trkpt><trkpt lat="41.92876667330433" lon="12.240587054423242"><ele>72.83333333333333</ele><time>2026-04-17T16:59:43.999Z</time></trkpt><trkpt lat="41.92869608081386" lon="12.240530381007009"><ele>72.66666666666666</ele><time>2026-04-17T16:59:44.999Z</time></trkpt><trkpt lat="41.928625952515475" lon="12.240474705088435"><ele>72.5</ele><time>2026-04-17T16:59:45.999Z</time></trkpt><trkpt lat="41.928565499555496" lon="12.240424587893642"><ele>72.33333333333333</ele><time>2026-04-17T16:59:46.999Z</time></trkpt><trkpt lat="41.928507148454365" lon="12.240380594219179"><ele>72.16666666666667</ele><time>2026-04-17T16:59:47.999Z</time></trkpt><trkpt lat="41.9284458614517" lon="12.240333264835636"><ele>72.0</ele><time>2026-04-17T16:59:48.999Z</time></trkpt><trkpt lat="41.92837433088363" lon="12.240287945315263"><ele>72.0</ele><time>2026-04-17T16:59:49.999Z</time></trkpt><trkpt lat="41.92830006222635" lon="12.240238080494168"><ele>72.0</ele><time>2026-04-17T16:59:50.999Z</time></trkpt><trkpt lat="41.928221172691686" lon="12.240183699433397"><ele>72.0</ele><time>2026-04-17T16:59:51.999Z</time></trkpt><trkpt lat="41.928138137293274" lon="12.240125793897066"><ele>72.0</ele><time>2026-04-17T16:59:52.999Z</time></trkpt><trkpt lat="41.92805275318462" lon="12.240061082695242"><ele>72.0</ele><time>2026-04-17T16:59:53.999Z</time></trkpt><trkpt lat="41.927960437226076" lon="12.239995041398421"><ele>72.0</ele><time>2026-04-17T16:59:54.999Z</time></trkpt><trkpt lat="41.927865965879214" lon="12.23992362011835"><ele>72.0</ele><time>2026-04-17T16:59:55.999Z</time></trkpt><trkpt lat="41.92777331068673" lon="12.239850350050075"><ele>72.0</ele><time>2026-04-17T16:59:56.999Z</time></trkpt><trkpt lat="41.92768248698128" lon="12.23978312123777"><ele>72.0</ele><time>2026-04-17T16:59:57.999Z</time></trkpt><trkpt lat="41.9275862570578" lon="12.239724903231817"><ele>72.0</ele><time>2026-04-17T16:59:58.999Z</time></trkpt><trkpt lat="41.927482739740185" lon="12.239663313080504"><ele>71.8</ele><time>2026-04-17T16:59:59.999Z</time></trkpt><trkpt lat="41.92737820773634" lon="12.23960498044229"><ele>71.6</ele><time>2026-04-17T17:00:00.999Z</time></trkpt><trkpt lat="41.92726665196456" lon="12.239558736036491"><ele>71.39999999999999</ele><time>2026-04-17T17:00:01.999Z</time></trkpt><trkpt lat="41.92715872389297" lon="12.239521052281237"><ele>71.2</ele><time>2026-04-17T17:00:02.999Z</time></trkpt><trkpt lat="41.927062129661074" lon="12.239488626446677"><ele>71.0</ele><time>2026-04-17T17:00:03.999Z</time></trkpt><trkpt lat="41.926973854914934" lon="12.239459692467117"><ele>71.0</ele><time>2026-04-17T17:00:04.999Z</time></trkpt><trkpt lat="41.92688243891041" lon="12.2394278889"><ele>71.0</ele><time>2026-04-17T17:00:05.999Z</time></trkpt><trkpt lat="41.92679002042123" lon="12.239392934230203"><ele>71.0</ele><time>2026-04-17T17:00:06.999Z</time></trkpt><trkpt lat="41.926708527076514" lon="12.23936187568584"><ele>71.0</ele><time>2026-04-17T17:00:07.999Z</time></trkpt><trkpt lat="41.92661265870562" lon="12.239317291762179"><ele>71.0</ele><time>2026-04-17T17:00:08.999Z</time></trkpt><trkpt lat="41.92652095722674" lon="12.239282320974247"><ele>71.16666666666667</ele><time>2026-04-17T17:00:09.999Z</time></trkpt><trkpt lat="41.9264312682289" lon="12.239245002805013"><ele>71.33333333333334</ele><time>2026-04-17T17:00:10.998Z</time></trkpt><trkpt lat="41.92634814352157" lon="12.23920578099339"><ele>71.5</ele><time>2026-04-17T17:00:11.998Z</time></trkpt><trkpt lat="41.92625601552617" lon="12.23915002761835"><ele>71.66666666666667</ele><time>2026-04-17T17:00:12.998Z</time></trkpt><trkpt lat="41.9261756994852" lon="12.23909849676009"><ele>71.83333333333333</ele><time>2026-04-17T17:00:13.999Z</time></trkpt><trkpt lat="41.926105955633005" lon="12.239053679561984"><ele>72.0</ele><time>2026-04-17T17:00:14.999Z</time></trkpt><trkpt lat="41.92601965568169" lon="12.239006245660946"><ele>72.0</ele><time>2026-04-17T17:00:15.999Z</time></trkpt><trkpt lat="41.92593679508129" lon="12.238951196485308"><ele>72.0</ele><time>2026-04-17T17:00:16.999Z</time></trkpt><trkpt lat="41.925847278665756" lon="12.238891114448863"><ele>72.0</ele><time>2026-04-17T17:00:17.999Z</time></trkpt><trkpt lat="41.92575579759316" lon="12.23882928953743"><ele>72.0</ele><time>2026-04-17T17:00:18.999Z</time></trkpt><trkpt lat="41.92565432441947" lon="12.23876436700663"><ele>72.0</ele><time>2026-04-17T17:00:19.999Z</time></trkpt><trkpt lat="41.9255519936276" lon="12.238694275511127"><ele>72.0</ele><time>2026-04-17T17:00:20.999Z</time></trkpt><trkpt lat="41.92544614205264" lon="12.23862157451806"><ele>72.0</ele><time>2026-04-17T17:00:21.999Z</time></trkpt><trkpt lat="41.92534779256302" lon="12.238564066865857"><ele>72.0</ele><time>2026-04-17T17:00:22.999Z</time></trkpt><trkpt lat="41.925252778448055" lon="12.238504151389312"><ele>72.0</ele><time>2026-04-17T17:00:23.999Z</time></trkpt><trkpt lat="41.925149080421406" lon="12.238437831215514"><ele>72.0</ele><time>2026-04-17T17:00:24.999Z</time></trkpt><trkpt lat="41.92504286643046" lon="12.238403490450297"><ele>72.0</ele><time>2026-04-17T17:00:25.999Z</time></trkpt><trkpt lat="41.92495431237979" lon="12.238378712955088"><ele>72.0</ele><time>2026-04-17T17:00:26.999Z</time></trkpt><trkpt lat="41.92485167306346" lon="12.238364371290963"><ele>72.0</ele><time>2026-04-17T17:00:27.999Z</time></trkpt><trkpt lat="41.924756905332515" lon="12.238353846353393"><ele>72.0</ele><time>2026-04-17T17:00:28.999Z</time></trkpt><trkpt lat="41.924647809590695" lon="12.238364197396807"><ele>72.0</ele><time>2026-04-17T17:00:29.999Z</time></trkpt><trkpt lat="41.924558077965614" lon="12.238396184116194"><ele>72.0</ele><time>2026-04-17T17:00:30.999Z</time></trkpt><trkpt lat="41.9244663011686" lon="12.238437170823211"><ele>72.0</ele><time>2026-04-17T17:00:31.999Z</time></trkpt><trkpt lat="41.92438422333017" lon="12.238474977073926"><ele>72.0</ele><time>2026-04-17T17:00:32.999Z</time></trkpt><trkpt lat="41.92430700508691" lon="12.238519199431124"><ele>72.0</ele><time>2026-04-17T17:00:33.999Z</time></trkpt><trkpt lat="41.924234504894585" lon="12.238538857523723"><ele>72.0</ele><time>2026-04-17T17:00:34.999Z</time></trkpt><trkpt lat="41.92418196924244" lon="12.238593999881477"><ele>72.0</ele><time>2026-04-17T17:00:35.999Z</time></trkpt><trkpt lat="41.92406854953303" lon="12.238662281645937"><ele>72.33333333333333</ele><time>2026-04-17T17:00:37.999Z</time></trkpt><trkpt lat="41.92400083101716" lon="12.23868688553174"><ele>72.66666666666667</ele><time>2026-04-17T17:00:38.999Z</time></trkpt><trkpt lat="41.92392362398706" lon="12.238737241196906"><ele>73.0</ele><time>2026-04-17T17:00:39.999Z</time></trkpt><trkpt lat="41.9238452110637" lon="12.238788518642762"><ele>73.33333333333334</ele><time>2026-04-17T17:00:40.999Z</time></trkpt><trkpt lat="41.92378542143307" lon="12.238827460111962"><ele>73.66666666666667</ele><time>2026-04-17T17:00:41.999Z</time></trkpt><trkpt lat="41.923707449269166" lon="12.238878243635382"><ele>74.0</ele><time>2026-04-17T17:00:42.999Z</time></trkpt><trkpt lat="41.92364498342678" lon="12.23891852009907"><ele>74.16666666666667</ele><time>2026-04-17T17:00:43.999Z</time></trkpt><trkpt lat="41.923529643457485" lon="12.238986290585135"><ele>74.33333333333334</ele><time>2026-04-17T17:00:45.999Z</time></trkpt><trkpt lat="41.92346580778762" lon="12.239014474170524"><ele>74.5</ele><time>2026-04-17T17:00:46.999Z</time></trkpt><trkpt lat="41.92339983514341" lon="12.23904141912468"><ele>74.66666666666667</ele><time>2026-04-17T17:00:47.999Z</time></trkpt><trkpt lat="41.92332858755799" lon="12.239060244643554"><ele>74.83333333333333</ele><time>2026-04-17T17:00:48.999Z</time></trkpt><trkpt lat="41.92325492259465" lon="12.239082518836499"><ele>75.0</ele><time>2026-04-17T17:00:49.998Z</time></trkpt><trkpt lat="41.92319193075593" lon="12.23910163754069"><ele>75.0</ele><time>2026-04-17T17:00:50.998Z</time></trkpt><trkpt lat="41.92309461099062" lon="12.239131228901643"><ele>75.0</ele><time>2026-04-17T17:00:52.998Z</time></trkpt><trkpt lat="41.923025054372594" lon="12.239152637418998"><ele>75.0</ele><time>2026-04-17T17:00:54.998Z</time></trkpt><trkpt lat="41.92293288677231" lon="12.239181005181598"><ele>75.0</ele><time>2026-04-17T17:00:56.998Z</time></trkpt><trkpt lat="41.922813165775445" lon="12.239239290837018"><ele>75.0</ele><time>2026-04-17T17:00:58.998Z</time></trkpt><trkpt lat="41.92272204586138" lon="12.239248398836883"><ele>75.0</ele><time>2026-04-17T17:00:59.998Z</time></trkpt><trkpt lat="41.9226365862313" lon="12.239279876130084"><ele>75.0</ele><time>2026-04-17T17:01:00.998Z</time></trkpt><trkpt lat="41.922549198347994" lon="12.239313868359078"><ele>75.0</ele><time>2026-04-17T17:01:01.998Z</time></trkpt><trkpt lat="41.92245536019054" lon="12.23935664264732"><ele>75.0</ele><time>2026-04-17T17:01:02.998Z</time></trkpt><trkpt lat="41.9223616720872" lon="12.23940771629916"><ele>75.0</ele><time>2026-04-17T17:01:03.998Z</time></trkpt><trkpt lat="41.92228281648536" lon="12.239456381730928"><ele>74.4</ele><time>2026-04-17T17:01:04.998Z</time></trkpt><trkpt lat="41.92220514709303" lon="12.23950756062682"><ele>73.8</ele><time>2026-04-17T17:01:05.998Z</time></trkpt><trkpt lat="41.92211934810775" lon="12.239564136027163"><ele>73.2</ele><time>2026-04-17T17:01:06.998Z</time></trkpt><trkpt lat="41.922037711974376" lon="12.239618024383226"><ele>72.6</ele><time>2026-04-17T17:01:07.998Z</time></trkpt><trkpt lat="41.92195011353662" lon="12.239674138148809"><ele>72.0</ele><time>2026-04-17T17:01:08.998Z</time></trkpt><trkpt lat="41.92186511906375" lon="12.239726323694034"><ele>72.0</ele><time>2026-04-17T17:01:09.998Z</time></trkpt><trkpt lat="41.92179111347168" lon="12.239771199774781"><ele>72.0</ele><time>2026-04-17T17:01:10.998Z</time></trkpt><trkpt lat="41.92172127950539" lon="12.239804507645216"><ele>72.0</ele><time>2026-04-17T17:01:11.998Z</time></trkpt><trkpt lat="41.92164942253308" lon="12.239838435202126"><ele>72.0</ele><time>2026-04-17T17:01:12.998Z</time></trkpt><trkpt lat="41.92157344926393" lon="12.239869307432116"><ele>72.0</ele><time>2026-04-17T17:01:13.998Z</time></trkpt><trkpt lat="41.92150109911454" lon="12.239890594876845"><ele>72.0</ele><time>2026-04-17T17:01:14.998Z</time></trkpt><trkpt lat="41.92143588631163" lon="12.239906175324839"><ele>71.5</ele><time>2026-04-17T17:01:15.998Z</time></trkpt><trkpt lat="41.92131254581026" lon="12.239929627476833"><ele>71.0</ele><time>2026-04-17T17:01:17.998Z</time></trkpt><trkpt lat="41.92124540510674" lon="12.239939541138927"><ele>70.5</ele><time>2026-04-17T17:01:19.001Z</time></trkpt><trkpt lat="41.92117394309765" lon="12.239949029149072"><ele>70.0</ele><time>2026-04-17T17:01:20.001Z</time></trkpt><trkpt lat="41.9211062861128" lon="12.239955296467338"><ele>69.5</ele><time>2026-04-17T17:01:21.001Z</time></trkpt><trkpt lat="41.92100041476344" lon="12.23997279060731"><ele>69.0</ele><time>2026-04-17T17:01:23.001Z</time></trkpt><trkpt lat="41.92091345100167" lon="12.239958189710135"><ele>68.8</ele><time>2026-04-17T17:01:25.001Z</time></trkpt><trkpt lat="41.92081267218285" lon="12.239949632444802"><ele>68.60000000000001</ele><time>2026-04-17T17:01:27.001Z</time></trkpt><trkpt lat="41.92073778775645" lon="12.23994802032608"><ele>68.4</ele><time>2026-04-17T17:01:28.001Z</time></trkpt><trkpt lat="41.920648209622264" lon="12.23993402192064"><ele>68.2</ele><time>2026-04-17T17:01:29.001Z</time></trkpt><trkpt lat="41.92055876758412" lon="12.239911141063097"><ele>68.0</ele><time>2026-04-17T17:01:30.001Z</time></trkpt><trkpt lat="41.9204587764901" lon="12.239876103629433"><ele>68.0</ele><time>2026-04-17T17:01:31.001Z</time></trkpt><trkpt lat="41.92036080095925" lon="12.239838120767686"><ele>68.0</ele><time>2026-04-17T17:01:32.001Z</time></trkpt><trkpt lat="41.920273084913816" lon="12.239804624095521"><ele>68.0</ele><time>2026-04-17T17:01:33.001Z</time></trkpt><trkpt lat="41.920202756606436" lon="12.239772396535185"><ele>68.0</ele><time>2026-04-17T17:01:34.001Z</time></trkpt><trkpt lat="41.920137186055044" lon="12.239739961086665"><ele>68.0</ele><time>2026-04-17T17:01:35.001Z</time></trkpt><trkpt lat="41.92006393309896" lon="12.239709674994943"><ele>68.0</ele><time>2026-04-17T17:01:36.001Z</time></trkpt><trkpt lat="41.91998481222536" lon="12.239671938594299"><ele>68.75</ele><time>2026-04-17T17:01:37Z</time></trkpt><trkpt lat="41.9198900705864" lon="12.239629716073496"><ele>69.5</ele><time>2026-04-17T17:01:38Z</time></trkpt><trkpt lat="41.919784528960335" lon="12.23958969651165"><ele>70.25</ele><time>2026-04-17T17:01:39Z</time></trkpt><trkpt lat="41.919662611998824" lon="12.239554064637701"><ele>71.0</ele><time>2026-04-17T17:01:40Z</time></trkpt><trkpt lat="41.91953272558091" lon="12.239516827262825"><ele>71.0</ele><time>2026-04-17T17:01:41Z</time></trkpt><trkpt lat="41.919402910061606" lon="12.2394922065474"><ele>71.0</ele><time>2026-04-17T17:01:42Z</time></trkpt><trkpt lat="41.91926715090106" lon="12.239479323092759"><ele>71.0</ele><time>2026-04-17T17:01:43Z</time></trkpt><trkpt lat="41.91913795777312" lon="12.239469109036802"><ele>71.0</ele><time>2026-04-17T17:01:44Z</time></trkpt><trkpt lat="41.919021396989564" lon="12.239463249630745"><ele>72.0</ele><time>2026-04-17T17:01:45Z</time></trkpt><trkpt lat="41.91890202667587" lon="12.239469606337416"><ele>73.0</ele><time>2026-04-17T17:01:46Z</time></trkpt><trkpt lat="41.91879818380223" lon="12.239465316587472"><ele>74.0</ele><time>2026-04-17T17:01:47Z</time></trkpt><trkpt lat="41.91870493070105" lon="12.239459059733619"><ele>75.0</ele><time>2026-04-17T17:01:48Z</time></trkpt><trkpt lat="41.918622421158354" lon="12.23944572588296"><ele>76.0</ele><time>2026-04-17T17:01:49Z</time></trkpt><trkpt lat="41.91855621286966" lon="12.239428874129542"><ele>76.0</ele><time>2026-04-17T17:01:50Z</time></trkpt><trkpt lat="41.91848593010032" lon="12.239399111939342"><ele>76.0</ele><time>2026-04-17T17:01:51Z</time></trkpt><trkpt lat="41.918420300909034" lon="12.239334149671032"><ele>76.0</ele><time>2026-04-17T17:01:52Z</time></trkpt><trkpt lat="41.91833280472194" lon="12.239352966479851"><ele>76.0</ele><time>2026-04-17T17:01:53Z</time></trkpt><trkpt lat="41.918251304866565" lon="12.23939001789099"><ele>76.0</ele><time>2026-04-17T17:01:54Z</time></trkpt><trkpt lat="41.918163073576835" lon="12.239426215855516"><ele>76.0</ele><time>2026-04-17T17:01:55Z</time></trkpt><trkpt lat="41.91806507669126" lon="12.239436443332329"><ele>76.16666666666666</ele><time>2026-04-17T17:01:56Z</time></trkpt><trkpt lat="41.91798008904788" lon="12.239406790003349"><ele>76.33333333333333</ele><time>2026-04-17T17:01:57Z</time></trkpt><trkpt lat="41.91791118105911" lon="12.23942052500227"><ele>76.5</ele><time>2026-04-17T17:01:58Z</time></trkpt><trkpt lat="41.91780658504342" lon="12.239396454172104"><ele>76.66666666666667</ele><time>2026-04-17T17:02:00Z</time></trkpt><trkpt lat="41.917742738336045" lon="12.239358192148565"><ele>76.83333333333334</ele><time>2026-04-17T17:02:03Z</time></trkpt><trkpt lat="41.91766741289146" lon="12.239343125015312"><ele>77.0</ele><time>2026-04-17T17:02:07Z</time></trkpt><trkpt lat="41.91760548577441" lon="12.239584423766631"><ele>76.6</ele><time>2026-04-17T17:02:08Z</time></trkpt><trkpt lat="41.91756340369252" lon="12.239706998430021"><ele>76.2</ele><time>2026-04-17T17:02:09Z</time></trkpt><trkpt lat="41.917521084595144" lon="12.239814145249227"><ele>75.8</ele><time>2026-04-17T17:02:10Z</time></trkpt><trkpt lat="41.91746603085442" lon="12.239944696251088"><ele>75.4</ele><time>2026-04-17T17:02:11Z</time></trkpt><trkpt lat="41.91740001826604" lon="12.240094949885554"><ele>75.0</ele><time>2026-04-17T17:02:12Z</time></trkpt><trkpt lat="41.91732524623957" lon="12.24025896617127"><ele>75.0</ele><time>2026-04-17T17:02:13Z</time></trkpt><trkpt lat="41.91724493271363" lon="12.240426215837465"><ele>75.0</ele><time>2026-04-17T17:02:14Z</time></trkpt><trkpt lat="41.917159139410934" lon="12.240604232087321"><ele>75.0</ele><time>2026-04-17T17:02:14.999Z</time></trkpt><trkpt lat="41.91707929189016" lon="12.240765813651917"><ele>75.25</ele><time>2026-04-17T17:02:15.999Z</time></trkpt><trkpt lat="41.9170059103553" lon="12.240903186318254"><ele>75.5</ele><time>2026-04-17T17:02:16.999Z</time></trkpt><trkpt lat="41.91693526426157" lon="12.241034412258506"><ele>75.75</ele><time>2026-04-17T17:02:17.999Z</time></trkpt><trkpt lat="41.91685703126892" lon="12.241181344252619"><ele>76.0</ele><time>2026-04-17T17:02:18.999Z</time></trkpt><trkpt lat="41.91677251287102" lon="12.241341815929937"><ele>76.0</ele><time>2026-04-17T17:02:19.999Z</time></trkpt><trkpt lat="41.9166791183289" lon="12.241513818306467"><ele>76.0</ele><time>2026-04-17T17:02:20.999Z</time></trkpt><trkpt lat="41.91657629073754" lon="12.241697925745147"><ele>76.0</ele><time>2026-04-17T17:02:21.999Z</time></trkpt><trkpt lat="41.91645502283377" lon="12.241870155031059"><ele>76.0</ele><time>2026-04-17T17:02:22.999Z</time></trkpt><trkpt lat="41.916345076740186" lon="12.242062682963082"><ele>76.0</ele><time>2026-04-17T17:02:23.999Z</time></trkpt><trkpt lat="41.91623267273106" lon="12.2422612763586"><ele>76.0</ele><time>2026-04-17T17:02:24.999Z</time></trkpt><trkpt lat="41.91611849916404" lon="12.242464606281038"><ele>75.66666666666666</ele><time>2026-04-17T17:02:25.999Z</time></trkpt><trkpt lat="41.91599869202015" lon="12.242677968850256"><ele>75.33333333333333</ele><time>2026-04-17T17:02:26.999Z</time></trkpt><trkpt lat="41.91588183590041" lon="12.242886181259635"><ele>75.0</ele><time>2026-04-17T17:02:27.999Z</time></trkpt><trkpt lat="41.91576920572036" lon="12.243087181789042"><ele>74.66666666666667</ele><time>2026-04-17T17:02:28.999Z</time></trkpt><trkpt lat="41.915664864329216" lon="12.243272685311425"><ele>74.33333333333334</ele><time>2026-04-17T17:02:29.999Z</time></trkpt><trkpt lat="41.91558153708935" lon="12.243456129523336"><ele>74.0</ele><time>2026-04-17T17:02:30.999Z</time></trkpt><trkpt lat="41.915479968976484" lon="12.243603258677103"><ele>74.0</ele><time>2026-04-17T17:02:31.999Z</time></trkpt><trkpt lat="41.915384331278055" lon="12.243772899831987"><ele>74.0</ele><time>2026-04-17T17:02:32.999Z</time></trkpt><trkpt lat="41.91529961971803" lon="12.243955196001833"><ele>74.0</ele><time>2026-04-17T17:02:33.999Z</time></trkpt><trkpt lat="41.91520117650847" lon="12.24412471386383"><ele>73.66666666666667</ele><time>2026-04-17T17:02:34.999Z</time></trkpt><trkpt lat="41.915089141951114" lon="12.24429375424604"><ele>73.33333333333333</ele><time>2026-04-17T17:02:35.999Z</time></trkpt><trkpt lat="41.91499470266371" lon="12.244494857978298"><ele>73.0</ele><time>2026-04-17T17:02:36.999Z</time></trkpt><trkpt lat="41.914872539066565" lon="12.2446735014379"><ele>73.0</ele><time>2026-04-17T17:02:37.999Z</time></trkpt><trkpt lat="41.9147609327677" lon="12.244869988909862"><ele>73.0</ele><time>2026-04-17T17:02:38.999Z</time></trkpt><trkpt lat="41.914649519097374" lon="12.245070443358241"><ele>73.0</ele><time>2026-04-17T17:02:39.999Z</time></trkpt><trkpt lat="41.91454824808845" lon="12.245253643254985"><ele>73.0</ele><time>2026-04-17T17:02:40.999Z</time></trkpt><trkpt lat="41.91445352204853" lon="12.245430665909481"><ele>73.0</ele><time>2026-04-17T17:02:41.999Z</time></trkpt><trkpt lat="41.91436323082698" lon="12.245606141232706"><ele>73.0</ele><time>2026-04-17T17:02:42.999Z</time></trkpt><trkpt lat="41.914279046970755" lon="12.245780076599408"><ele>73.33333333333333</ele><time>2026-04-17T17:02:43.999Z</time></trkpt><trkpt lat="41.9141975586848" lon="12.24596934923821"><ele>73.66666666666667</ele><time>2026-04-17T17:02:44.999Z</time></trkpt><trkpt lat="41.91411683854082" lon="12.246172245647916"><ele>74.0</ele><time>2026-04-17T17:02:45.999Z</time></trkpt><trkpt lat="41.91403888030498" lon="12.246383359032132"><ele>74.0</ele><time>2026-04-17T17:02:46.999Z</time></trkpt><trkpt lat="41.91395725155347" lon="12.246606179270902"><ele>74.0</ele><time>2026-04-17T17:02:47.999Z</time></trkpt><trkpt lat="41.91387838022332" lon="12.246819503113317"><ele>74.0</ele><time>2026-04-17T17:02:48.999Z</time></trkpt><trkpt lat="41.91380726162157" lon="12.247010181127273"><ele>74.0</ele><time>2026-04-17T17:02:49.999Z</time></trkpt><trkpt lat="41.913743950418365" lon="12.247179026584405"><ele>74.0</ele><time>2026-04-17T17:02:50.999Z</time></trkpt><trkpt lat="41.91369162389364" lon="12.247318576309382"><ele>74.0</ele><time>2026-04-17T17:02:51.999Z</time></trkpt><trkpt lat="41.91366528674808" lon="12.247428216650363"><ele>74.0</ele><time>2026-04-17T17:02:52.998Z</time></trkpt><trkpt lat="41.91363377137534" lon="12.24750202123224"><ele>74.0</ele><time>2026-04-17T17:02:53.998Z</time></trkpt><trkpt lat="41.91359164060262" lon="12.247618955538087"><ele>73.2</ele><time>2026-04-17T17:02:55.998Z</time></trkpt><trkpt lat="41.913549633036176" lon="12.247736434897277"><ele>72.4</ele><time>2026-04-17T17:02:57.998Z</time></trkpt><trkpt lat="41.913495276499496" lon="12.247881904944082"><ele>71.6</ele><time>2026-04-17T17:02:59.998Z</time></trkpt><trkpt lat="41.91345983563831" lon="12.247975339735902"><ele>70.8</ele><time>2026-04-17T17:03:00.998Z</time></trkpt><trkpt lat="41.9134216523198" lon="12.248077702924261"><ele>70.0</ele><time>2026-04-17T17:03:01.998Z</time></trkpt><trkpt lat="41.913379122736686" lon="12.24819392844621"><ele>70.0</ele><time>2026-04-17T17:03:02.998Z</time></trkpt><trkpt lat="41.91332872769563" lon="12.248320129772166"><ele>70.0</ele><time>2026-04-17T17:03:03.998Z</time></trkpt><trkpt lat="41.91327386986436" lon="12.248449373519579"><ele>70.0</ele><time>2026-04-17T17:03:04.998Z</time></trkpt><trkpt lat="41.9132277602977" lon="12.248587780511475"><ele>70.0</ele><time>2026-04-17T17:03:05.998Z</time></trkpt><trkpt lat="41.913177278985565" lon="12.248727642637306"><ele>70.0</ele><time>2026-04-17T17:03:06.998Z</time></trkpt><trkpt lat="41.913121513376026" lon="12.248866595698614"><ele>69.6</ele><time>2026-04-17T17:03:07.998Z</time></trkpt><trkpt lat="41.91306378273164" lon="12.249008828034485"><ele>69.2</ele><time>2026-04-17T17:03:08.998Z</time></trkpt><trkpt lat="41.9130122954705" lon="12.249128509327454"><ele>68.8</ele><time>2026-04-17T17:03:09.998Z</time></trkpt><trkpt lat="41.91296404561672" lon="12.249227324624236"><ele>68.4</ele><time>2026-04-17T17:03:10.998Z</time></trkpt><trkpt lat="41.91293713427413" lon="12.249336912527529"><ele>68.0</ele><time>2026-04-17T17:03:11.998Z</time></trkpt><trkpt lat="41.912886337781615" lon="12.249461830256767"><ele>68.0</ele><time>2026-04-17T17:03:12.998Z</time></trkpt><trkpt lat="41.91282491504658" lon="12.249535308246843"><ele>68.0</ele><time>2026-04-17T17:03:13.998Z</time></trkpt><trkpt lat="41.91274896648566" lon="12.24959952017487"><ele>68.0</ele><time>2026-04-17T17:03:14.998Z</time></trkpt><trkpt lat="41.91268227572196" lon="12.24969465475128"><ele>68.0</ele><time>2026-04-17T17:03:15.998Z</time></trkpt><trkpt lat="41.91260912395667" lon="12.24981249461582"><ele>68.0</ele><time>2026-04-17T17:03:16.998Z</time></trkpt><trkpt lat="41.912512064301104" lon="12.249919185679007"><ele>68.0</ele><time>2026-04-17T17:03:17.998Z</time></trkpt><trkpt lat="41.91239223146036" lon="12.24999777368305"><ele>68.0</ele><time>2026-04-17T17:03:18.998Z</time></trkpt><trkpt lat="41.91226669936819" lon="12.250088878036703"><ele>68.0</ele><time>2026-04-17T17:03:19.998Z</time></trkpt><trkpt lat="41.91213564736546" lon="12.250205593401885"><ele>68.0</ele><time>2026-04-17T17:03:20.998Z</time></trkpt><trkpt lat="41.912016893161926" lon="12.25035100790352"><ele>68.0</ele><time>2026-04-17T17:03:21.998Z</time></trkpt><trkpt lat="41.91191204255997" lon="12.250496693151597"><ele>68.0</ele><time>2026-04-17T17:03:22.998Z</time></trkpt><trkpt lat="41.91182849727295" lon="12.2506556295573"><ele>68.0</ele><time>2026-04-17T17:03:23.998Z</time></trkpt><trkpt lat="41.911754954389274" lon="12.250844392943915"><ele>67.66666666666667</ele><time>2026-04-17T17:03:25.001Z</time></trkpt><trkpt lat="41.911686799807065" lon="12.251047400943113"><ele>67.33333333333333</ele><time>2026-04-17T17:03:26.001Z</time></trkpt><trkpt lat="41.911625945279646" lon="12.251266906007091"><ele>67.0</ele><time>2026-04-17T17:03:27.001Z</time></trkpt><trkpt lat="41.911563351767725" lon="12.251503156984125"><ele>66.5</ele><time>2026-04-17T17:03:28.001Z</time></trkpt><trkpt lat="41.91149977550876" lon="12.251708685006141"><ele>66.0</ele><time>2026-04-17T17:03:29.001Z</time></trkpt><trkpt lat="41.911438709510605" lon="12.251890735221435"><ele>65.5</ele><time>2026-04-17T17:03:30.001Z</time></trkpt><trkpt lat="41.91138374156363" lon="12.252051071729701"><ele>65.0</ele><time>2026-04-17T17:03:31.001Z</time></trkpt><trkpt lat="41.91133154632365" lon="12.252191367888198"><ele>65.0</ele><time>2026-04-17T17:03:32.001Z</time></trkpt><trkpt lat="41.9112894574477" lon="12.252308131473677"><ele>65.0</ele><time>2026-04-17T17:03:33.001Z</time></trkpt><trkpt lat="41.91125169072868" lon="12.252411089421118"><ele>65.0</ele><time>2026-04-17T17:03:34.001Z</time></trkpt><trkpt lat="41.91119640655107" lon="12.252491406799717"><ele>65.0</ele><time>2026-04-17T17:03:35.001Z</time></trkpt><trkpt lat="41.91118090975176" lon="12.252577515596194"><ele>65.0</ele><time>2026-04-17T17:03:36.001Z</time></trkpt><trkpt lat="41.911032933980486" lon="12.252505023591405"><ele>65.0</ele><time>2026-04-17T17:03:37.001Z</time></trkpt><trkpt lat="41.91094701627051" lon="12.252498862478475"><ele>65.0</ele><time>2026-04-17T17:03:38.001Z</time></trkpt><trkpt lat="41.910856317827175" lon="12.2524915006954"><ele>65.0</ele><time>2026-04-17T17:03:39Z</time></trkpt><trkpt lat="41.91077353402946" lon="12.252485058376534"><ele>65.0</ele><time>2026-04-17T17:03:40Z</time></trkpt><trkpt lat="41.910692948339126" lon="12.252477469180873"><ele>65.0</ele><time>2026-04-17T17:03:41Z</time></trkpt><trkpt lat="41.91062600294142" lon="12.252482706409124"><ele>65.0</ele><time>2026-04-17T17:03:42Z</time></trkpt><trkpt lat="41.910535395092204" lon="12.252451805296172"><ele>63.25</ele><time>2026-04-17T17:03:46Z</time></trkpt><trkpt lat="41.910450215002456" lon="12.252661700485714"><ele>61.5</ele><time>2026-04-17T17:03:48Z</time></trkpt><trkpt lat="41.910482941880936" lon="12.252777239327106"><ele>59.75</ele><time>2026-04-17T17:03:49Z</time></trkpt><trkpt lat="41.9105151972408" lon="12.252904165028932"><ele>58.0</ele><time>2026-04-17T17:03:50Z</time></trkpt><trkpt lat="41.91055727894442" lon="12.253025089167826"><ele>58.25</ele><time>2026-04-17T17:03:51Z</time></trkpt><trkpt lat="41.91059165023642" lon="12.253159592390945"><ele>58.5</ele><time>2026-04-17T17:03:52Z</time></trkpt><trkpt lat="41.910635860463444" lon="12.25330292620432"><ele>58.75</ele><time>2026-04-17T17:03:53Z</time></trkpt><trkpt lat="41.910654747339905" lon="12.253469069908363"><ele>59.0</ele><time>2026-04-17T17:03:54Z</time></trkpt><trkpt lat="41.9106486502493" lon="12.253670694769022"><ele>59.0</ele><time>2026-04-17T17:03:55Z</time></trkpt><trkpt lat="41.91062917834198" lon="12.253877516171965"><ele>59.0</ele><time>2026-04-17T17:03:56Z</time></trkpt><trkpt lat="41.91059866918663" lon="12.254108214690579"><ele>59.0</ele><time>2026-04-17T17:03:57Z</time></trkpt><trkpt lat="41.91057135021797" lon="12.254359413164956"><ele>58.333333333333336</ele><time>2026-04-17T17:03:58Z</time></trkpt><trkpt lat="41.91054215476811" lon="12.254636451918472"><ele>57.66666666666667</ele><time>2026-04-17T17:03:59Z</time></trkpt><trkpt lat="41.91052051972864" lon="12.254902149627007"><ele>57.0</ele><time>2026-04-17T17:04:00Z</time></trkpt><trkpt lat="41.910495476121" lon="12.255189963981886"><ele>56.0</ele><time>2026-04-17T17:04:01Z</time></trkpt><trkpt lat="41.91046672690482" lon="12.255489105551389"><ele>55.0</ele><time>2026-04-17T17:04:02Z</time></trkpt><trkpt lat="41.91043868294159" lon="12.255812221784906"><ele>50.5</ele><time>2026-04-17T17:04:03Z</time></trkpt><trkpt lat="41.91040498776905" lon="12.25614058925246"><ele>46.0</ele><time>2026-04-17T17:04:04Z</time></trkpt><trkpt lat="41.91036820093639" lon="12.256465632515061"><ele>43.5</ele><time>2026-04-17T17:04:05Z</time></trkpt><trkpt lat="41.91033332740888" lon="12.256785443678838"><ele>41.0</ele><time>2026-04-17T17:04:06Z</time></trkpt><trkpt lat="41.91029977465716" lon="12.257097869090815"><ele>39.666666666666664</ele><time>2026-04-17T17:04:07Z</time></trkpt><trkpt lat="41.910267415872994" lon="12.257401868958883"><ele>38.333333333333336</ele><time>2026-04-17T17:04:08Z</time></trkpt><trkpt lat="41.91023811922298" lon="12.257695133073502"><ele>37.0</ele><time>2026-04-17T17:04:09Z</time></trkpt><trkpt lat="41.91020743442146" lon="12.257984434463829"><ele>36.0</ele><time>2026-04-17T17:04:10Z</time></trkpt><trkpt lat="41.910173479401706" lon="12.258265959673903"><ele>35.0</ele><time>2026-04-17T17:04:11Z</time></trkpt><trkpt lat="41.91013990799824" lon="12.258548639272027"><ele>34.0</ele><time>2026-04-17T17:04:12Z</time></trkpt><trkpt lat="41.91010245873082" lon="12.258833039773904"><ele>36.66666666666667</ele><time>2026-04-17T17:04:13Z</time></trkpt><trkpt lat="41.910057824651275" lon="12.259114786906997"><ele>39.333333333333336</ele><time>2026-04-17T17:04:14Z</time></trkpt><trkpt lat="41.90999791057726" lon="12.259390520662759"><ele>42.0</ele><time>2026-04-17T17:04:15Z</time></trkpt><trkpt lat="41.90991448599938" lon="12.259653231338653"><ele>39.666666666666664</ele><time>2026-04-17T17:04:16Z</time></trkpt><trkpt lat="41.90981197418673" lon="12.259906386422443"><ele>37.33333333333333</ele><time>2026-04-17T17:04:16.999Z</time></trkpt><trkpt lat="41.9096919794643" lon="12.26014568685732"><ele>35.0</ele><time>2026-04-17T17:04:17.999Z</time></trkpt><trkpt lat="41.90956824882144" lon="12.260379479680978"><ele>35.0</ele><time>2026-04-17T17:04:18.999Z</time></trkpt><trkpt lat="41.909430074012256" lon="12.260602942484391"><ele>35.0</ele><time>2026-04-17T17:04:19.999Z</time></trkpt><trkpt lat="41.90928789443247" lon="12.260812354235323"><ele>35.0</ele><time>2026-04-17T17:04:20.999Z</time></trkpt><trkpt lat="41.90913345749814" lon="12.261022692184248"><ele>34.666666666666664</ele><time>2026-04-17T17:04:21.999Z</time></trkpt><trkpt lat="41.90897605391712" lon="12.261226556805843"><ele>34.333333333333336</ele><time>2026-04-17T17:04:22.999Z</time></trkpt><trkpt lat="41.908815940079165" lon="12.261433040857652"><ele>34.0</ele><time>2026-04-17T17:04:23.999Z</time></trkpt><trkpt lat="41.90865894175299" lon="12.26164247215324"><ele>30.666666666666668</ele><time>2026-04-17T17:04:24.999Z</time></trkpt><trkpt lat="41.90850110726286" lon="12.261848552265352"><ele>27.333333333333336</ele><time>2026-04-17T17:04:25.999Z</time></trkpt><trkpt lat="41.90834403805636" lon="12.262052595777902"><ele>24.0</ele><time>2026-04-17T17:04:26.999Z</time></trkpt><trkpt lat="41.9081856199309" lon="12.26226207270654"><ele>23.0</ele><time>2026-04-17T17:04:27.999Z</time></trkpt><trkpt lat="41.90802403311361" lon="12.26247045961198"><ele>22.0</ele><time>2026-04-17T17:04:28.999Z</time></trkpt><trkpt lat="41.90786447322762" lon="12.262677653619312"><ele>21.0</ele><time>2026-04-17T17:04:29.999Z</time></trkpt><trkpt lat="41.90771211392759" lon="12.262890021991785"><ele>21.0</ele><time>2026-04-17T17:04:30.999Z</time></trkpt><trkpt lat="41.90757018262573" lon="12.263106897590204"><ele>21.0</ele><time>2026-04-17T17:04:31.999Z</time></trkpt><trkpt lat="41.90744376517228" lon="12.263322235866235"><ele>21.0</ele><time>2026-04-17T17:04:32.999Z</time></trkpt><trkpt lat="41.90732758045147" lon="12.263527825806053"><ele>20.666666666666668</ele><time>2026-04-17T17:04:33.999Z</time></trkpt><trkpt lat="41.907223893573565" lon="12.263725694511526"><ele>20.333333333333336</ele><time>2026-04-17T17:04:34.999Z</time></trkpt><trkpt lat="41.90712659215079" lon="12.263927999329157"><ele>20.0</ele><time>2026-04-17T17:04:35.999Z</time></trkpt><trkpt lat="41.907033768674026" lon="12.264133450642715"><ele>20.0</ele><time>2026-04-17T17:04:36.999Z</time></trkpt><trkpt lat="41.906949420901874" lon="12.264333267368814"><ele>20.0</ele><time>2026-04-17T17:04:37.999Z</time></trkpt><trkpt lat="41.906876337999165" lon="12.264532404859304"><ele>20.0</ele><time>2026-04-17T17:04:38.999Z</time></trkpt><trkpt lat="41.906806739118124" lon="12.264729295177023"><ele>19.0</ele><time>2026-04-17T17:04:39.999Z</time></trkpt><trkpt lat="41.90673089058563" lon="12.264927735760319"><ele>18.0</ele><time>2026-04-17T17:04:40.999Z</time></trkpt><trkpt lat="41.90665770589834" lon="12.265114760484499"><ele>17.0</ele><time>2026-04-17T17:04:41.999Z</time></trkpt><trkpt lat="41.906589614610894" lon="12.265296549403704"><ele>17.0</ele><time>2026-04-17T17:04:42.999Z</time></trkpt><trkpt lat="41.90651907943977" lon="12.265484011164993"><ele>17.0</ele><time>2026-04-17T17:04:43.999Z</time></trkpt><trkpt lat="41.9064473313988" lon="12.2656839370289"><ele>17.0</ele><time>2026-04-17T17:04:44.999Z</time></trkpt><trkpt lat="41.90637456244688" lon="12.265897547138726"><ele>17.0</ele><time>2026-04-17T17:04:45.999Z</time></trkpt><trkpt lat="41.906299002677436" lon="12.266112441373725"><ele>17.0</ele><time>2026-04-17T17:04:46.999Z</time></trkpt><trkpt lat="41.90622375331944" lon="12.26633227810183"><ele>17.0</ele><time>2026-04-17T17:04:47.999Z</time></trkpt><trkpt lat="41.90614717415293" lon="12.266550204063043"><ele>17.0</ele><time>2026-04-17T17:04:48.999Z</time></trkpt><trkpt lat="41.90606397132134" lon="12.266782378044462"><ele>17.0</ele><time>2026-04-17T17:04:49.999Z</time></trkpt><trkpt lat="41.90598391922241" lon="12.267008268807917"><ele>17.0</ele><time>2026-04-17T17:04:50.999Z</time></trkpt><trkpt lat="41.9058992409826" lon="12.267244692387468"><ele>18.666666666666668</ele><time>2026-04-17T17:04:51.999Z</time></trkpt><trkpt lat="41.90581430629982" lon="12.267482613498174"><ele>20.333333333333332</ele><time>2026-04-17T17:04:52.999Z</time></trkpt><trkpt lat="41.90573043098911" lon="12.267715538898045"><ele>22.0</ele><time>2026-04-17T17:04:53.999Z</time></trkpt><trkpt lat="41.905654102243666" lon="12.267920282100677"><ele>22.333333333333332</ele><time>2026-04-17T17:04:54.998Z</time></trkpt><trkpt lat="41.905584142839366" lon="12.268119921002286"><ele>22.666666666666668</ele><time>2026-04-17T17:04:55.998Z</time></trkpt><trkpt lat="41.90551314246803" lon="12.268312830665721"><ele>23.0</ele><time>2026-04-17T17:04:56.998Z</time></trkpt><trkpt lat="41.90544428114501" lon="12.26850101385707"><ele>23.0</ele><time>2026-04-17T17:04:57.998Z</time></trkpt><trkpt lat="41.905376043959635" lon="12.268687871523108"><ele>23.0</ele><time>2026-04-17T17:04:58.998Z</time></trkpt><trkpt lat="41.90530235242512" lon="12.26888134969386"><ele>23.0</ele><time>2026-04-17T17:04:59.998Z</time></trkpt><trkpt lat="41.90522442791335" lon="12.269070637683166"><ele>24.333333333333336</ele><time>2026-04-17T17:05:00.998Z</time></trkpt><trkpt lat="41.905133255152556" lon="12.269259069360048"><ele>25.666666666666668</ele><time>2026-04-17T17:05:01.998Z</time></trkpt><trkpt lat="41.90503380530415" lon="12.269429124897815"><ele>27.0</ele><time>2026-04-17T17:05:02.998Z</time></trkpt><trkpt lat="41.90493338666341" lon="12.269592513230062"><ele>27.25</ele><time>2026-04-17T17:05:03.998Z</time></trkpt><trkpt lat="41.90483687434292" lon="12.269739358629517"><ele>27.5</ele><time>2026-04-17T17:05:04.998Z</time></trkpt><trkpt lat="41.90474120125724" lon="12.269881533342309"><ele>27.75</ele><time>2026-04-17T17:05:05.998Z</time></trkpt><trkpt lat="41.904638240613096" lon="12.270017687324653"><ele>28.0</ele><time>2026-04-17T17:05:06.998Z</time></trkpt><trkpt lat="41.904524883299736" lon="12.270144702478602"><ele>28.333333333333336</ele><time>2026-04-17T17:05:07.998Z</time></trkpt><trkpt lat="41.90439077330626" lon="12.270242938303616"><ele>28.666666666666664</ele><time>2026-04-17T17:05:08.998Z</time></trkpt><trkpt lat="41.90423278438945" lon="12.27031910160977"><ele>29.0</ele><time>2026-04-17T17:05:09.998Z</time></trkpt><trkpt lat="41.904066661418796" lon="12.270372627720125"><ele>30.0</ele><time>2026-04-17T17:05:10.998Z</time></trkpt><trkpt lat="41.903895476593924" lon="12.270432349640465"><ele>31.0</ele><time>2026-04-17T17:05:11.998Z</time></trkpt><trkpt lat="41.90373026466577" lon="12.270519388716046"><ele>32.0</ele><time>2026-04-17T17:05:12.998Z</time></trkpt><trkpt lat="41.90359495846285" lon="12.270620600356688"><ele>32.0</ele><time>2026-04-17T17:05:13.998Z</time></trkpt><trkpt lat="41.903492577573346" lon="12.27073345220154"><ele>32.0</ele><time>2026-04-17T17:05:14.998Z</time></trkpt><trkpt lat="41.9034238690663" lon="12.270839867368823"><ele>32.0</ele><time>2026-04-17T17:05:15.998Z</time></trkpt><trkpt lat="41.9033893401747" lon="12.270929980854758"><ele>32.0</ele><time>2026-04-17T17:05:16.998Z</time></trkpt><trkpt lat="41.90337715698087" lon="12.271033367459125"><ele>32.0</ele><time>2026-04-17T17:05:17.998Z</time></trkpt><trkpt lat="41.90337766944857" lon="12.271134721401012"><ele>32.83333333333333</ele><time>2026-04-17T17:05:18.998Z</time></trkpt><trkpt lat="41.90338011926346" lon="12.271224029468197"><ele>33.666666666666664</ele><time>2026-04-17T17:05:19.998Z</time></trkpt><trkpt lat="41.90337811034933" lon="12.27133294421411"><ele>34.5</ele><time>2026-04-17T17:05:20.998Z</time></trkpt><trkpt lat="41.903372620082905" lon="12.271441394561487"><ele>35.333333333333336</ele><time>2026-04-17T17:05:21.998Z</time></trkpt><trkpt lat="41.90336406544273" lon="12.27158864896882"><ele>36.16666666666667</ele><time>2026-04-17T17:05:22.998Z</time></trkpt><trkpt lat="41.90335100630782" lon="12.271726573549653"><ele>37.0</ele><time>2026-04-17T17:05:23.998Z</time></trkpt><trkpt lat="41.90334403384283" lon="12.271836550538312"><ele>37.2</ele><time>2026-04-17T17:05:24.998Z</time></trkpt><trkpt lat="41.90334072477712" lon="12.271927806452657"><ele>37.400000000000006</ele><time>2026-04-17T17:05:25.998Z</time></trkpt><trkpt lat="41.903329929307866" lon="12.272108494559017"><ele>37.599999999999994</ele><time>2026-04-17T17:05:27.998Z</time></trkpt><trkpt lat="41.903319386003616" lon="12.272215075410294"><ele>37.8</ele><time>2026-04-17T17:05:28.998Z</time></trkpt><trkpt lat="41.90330770017925" lon="12.272345868088895"><ele>38.0</ele><time>2026-04-17T17:05:30Z</time></trkpt><trkpt lat="41.903275038412666" lon="12.272497613451835"><ele>39.5</ele><time>2026-04-17T17:05:31Z</time></trkpt><trkpt lat="41.90322066946271" lon="12.272651298288316"><ele>41.0</ele><time>2026-04-17T17:05:32Z</time></trkpt><trkpt lat="41.90315415164527" lon="12.272810679917292"><ele>42.5</ele><time>2026-04-17T17:05:33Z</time></trkpt><trkpt lat="41.90309972931575" lon="12.272977108303293"><ele>44.0</ele><time>2026-04-17T17:05:34Z</time></trkpt><trkpt lat="41.90305031025662" lon="12.273158230044938"><ele>44.666666666666664</ele><time>2026-04-17T17:05:35Z</time></trkpt><trkpt lat="41.9030056918599" lon="12.273350325296837"><ele>45.333333333333336</ele><time>2026-04-17T17:05:36Z</time></trkpt><trkpt lat="41.90296710968529" lon="12.273554816595588"><ele>46.0</ele><time>2026-04-17T17:05:37Z</time></trkpt><trkpt lat="41.90292373702027" lon="12.273762846795837"><ele>47.66666666666667</ele><time>2026-04-17T17:05:38Z</time></trkpt><trkpt lat="41.902892399842166" lon="12.2739891374124"><ele>49.333333333333336</ele><time>2026-04-17T17:05:39Z</time></trkpt><trkpt lat="41.90286238230271" lon="12.274222156551144"><ele>51.0</ele><time>2026-04-17T17:05:40Z</time></trkpt><trkpt lat="41.90284361546794" lon="12.274461143008262"><ele>51.0</ele><time>2026-04-17T17:05:41Z</time></trkpt><trkpt lat="41.902839168234586" lon="12.274708553052005"><ele>51.0</ele><time>2026-04-17T17:05:42Z</time></trkpt><trkpt lat="41.90285864463352" lon="12.274961085306797"><ele>51.0</ele><time>2026-04-17T17:05:43Z</time></trkpt><trkpt lat="41.902891585308865" lon="12.27521479715049"><ele>55.33333333333333</ele><time>2026-04-17T17:05:44Z</time></trkpt><trkpt lat="41.90292616579703" lon="12.275473265018688"><ele>59.666666666666664</ele><time>2026-04-17T17:05:45Z</time></trkpt><trkpt lat="41.902956444173796" lon="12.275744010615798"><ele>64.0</ele><time>2026-04-17T17:05:46Z</time></trkpt><trkpt lat="41.90299419937662" lon="12.276016217309818"><ele>65.66666666666666</ele><time>2026-04-17T17:05:47Z</time></trkpt><trkpt lat="41.903031951928575" lon="12.276262765518759"><ele>67.33333333333333</ele><time>2026-04-17T17:05:48Z</time></trkpt><trkpt lat="41.9030642046091" lon="12.276503637764426"><ele>69.0</ele><time>2026-04-17T17:05:49Z</time></trkpt><trkpt lat="41.90309007743411" lon="12.276753292517075"><ele>69.66666666666667</ele><time>2026-04-17T17:05:50Z</time></trkpt><trkpt lat="41.90311553422952" lon="12.27698793878132"><ele>70.33333333333334</ele><time>2026-04-17T17:05:51Z</time></trkpt><trkpt lat="41.90313066448469" lon="12.277219105362079"><ele>71.0</ele><time>2026-04-17T17:05:52Z</time></trkpt><trkpt lat="41.90313734236852" lon="12.277460481241373"><ele>71.0</ele><time>2026-04-17T17:05:53Z</time></trkpt><trkpt lat="41.90314148486162" lon="12.277718912743374"><ele>71.0</ele><time>2026-04-17T17:05:54Z</time></trkpt><trkpt lat="41.90314269260287" lon="12.277989374509646"><ele>71.0</ele><time>2026-04-17T17:05:55Z</time></trkpt><trkpt lat="41.90314766117104" lon="12.27827330220198"><ele>69.5</ele><time>2026-04-17T17:05:56Z</time></trkpt><trkpt lat="41.903153843286454" lon="12.278577965740714"><ele>68.0</ele><time>2026-04-17T17:05:57Z</time></trkpt><trkpt lat="41.90315867899402" lon="12.278888696611645"><ele>66.66666666666667</ele><time>2026-04-17T17:05:58Z</time></trkpt><trkpt lat="41.90314580527886" lon="12.279198074877458"><ele>65.33333333333333</ele><time>2026-04-17T17:05:59Z</time></trkpt><trkpt lat="41.90314977467113" lon="12.279484971554458"><ele>64.0</ele><time>2026-04-17T17:06:00Z</time></trkpt><trkpt lat="41.9031548359207" lon="12.279751852144635"><ele>64.33333333333333</ele><time>2026-04-17T17:06:01Z</time></trkpt><trkpt lat="41.90315849554453" lon="12.280008098951114"><ele>64.66666666666667</ele><time>2026-04-17T17:06:02Z</time></trkpt><trkpt lat="41.90316269266724" lon="12.280249342396496"><ele>65.0</ele><time>2026-04-17T17:06:03Z</time></trkpt><trkpt lat="41.90316657249272" lon="12.28047452946169"><ele>66.33333333333334</ele><time>2026-04-17T17:06:04Z</time></trkpt><trkpt lat="41.90317004365244" lon="12.280701890280785"><ele>67.66666666666667</ele><time>2026-04-17T17:06:05Z</time></trkpt><trkpt lat="41.90317345999848" lon="12.280930377029373"><ele>69.0</ele><time>2026-04-17T17:06:06Z</time></trkpt><trkpt lat="41.90317647692209" lon="12.281158927483432"><ele>69.0</ele><time>2026-04-17T17:06:07Z</time></trkpt><trkpt lat="41.9031786048983" lon="12.281379172586634"><ele>69.0</ele><time>2026-04-17T17:06:08Z</time></trkpt><trkpt lat="41.90318040102341" lon="12.281565071163106"><ele>69.0</ele><time>2026-04-17T17:06:09Z</time></trkpt><trkpt lat="41.90318200267338" lon="12.281743484741574"><ele>69.0</ele><time>2026-04-17T17:06:10Z</time></trkpt><trkpt lat="41.90318308768911" lon="12.281919022937787"><ele>70.25</ele><time>2026-04-17T17:06:11Z</time></trkpt><trkpt lat="41.90318513827466" lon="12.282094636940796"><ele>71.5</ele><time>2026-04-17T17:06:12Z</time></trkpt><trkpt lat="41.903187298921075" lon="12.282277374972766"><ele>72.75</ele><time>2026-04-17T17:06:13Z</time></trkpt><trkpt lat="41.90318952877232" lon="12.282459052091601"><ele>74.0</ele><time>2026-04-17T17:06:14Z</time></trkpt><trkpt lat="41.9031919252474" lon="12.282619951373842"><ele>74.4</ele><time>2026-04-17T17:06:15Z</time></trkpt><trkpt lat="41.90319460887498" lon="12.28276494735009"><ele>74.80000000000001</ele><time>2026-04-17T17:06:16Z</time></trkpt><trkpt lat="41.90319736366439" lon="12.282913400385729"><ele>75.19999999999999</ele><time>2026-04-17T17:06:17Z</time></trkpt><trkpt lat="41.90320113695096" lon="12.283064737803585"><ele>75.6</ele><time>2026-04-17T17:06:18Z</time></trkpt><trkpt lat="41.9032054372295" lon="12.283219391402984"><ele>76.0</ele><time>2026-04-17T17:06:19Z</time></trkpt><trkpt lat="41.90320995610969" lon="12.283381906831462"><ele>76.0</ele><time>2026-04-17T17:06:19.999Z</time></trkpt><trkpt lat="41.90321555757861" lon="12.283557004356645"><ele>76.0</ele><time>2026-04-17T17:06:20.999Z</time></trkpt><trkpt lat="41.90322165149472" lon="12.283733894194597"><ele>76.0</ele><time>2026-04-17T17:06:21.999Z</time></trkpt><trkpt lat="41.903230466741974" lon="12.28390375182826"><ele>76.0</ele><time>2026-04-17T17:06:22.999Z</time></trkpt><trkpt lat="41.903240435268465" lon="12.284081652844426"><ele>75.5</ele><time>2026-04-17T17:06:23.999Z</time></trkpt><trkpt lat="41.903252699265266" lon="12.284252297156348"><ele>75.0</ele><time>2026-04-17T17:06:24.999Z</time></trkpt><trkpt lat="41.90328371374803" lon="12.284418236210731"><ele>74.5</ele><time>2026-04-17T17:06:25.999Z</time></trkpt><trkpt lat="41.90329338310293" lon="12.284578312842838"><ele>74.0</ele><time>2026-04-17T17:06:26.999Z</time></trkpt><trkpt lat="41.903301438471125" lon="12.284732075894166"><ele>73.60000000000001</ele><time>2026-04-17T17:06:27.999Z</time></trkpt><trkpt lat="41.90331199414613" lon="12.284880016408064"><ele>73.2</ele><time>2026-04-17T17:06:28.999Z</time></trkpt><trkpt lat="41.90330722991701" lon="12.285026399832448"><ele>72.80000000000001</ele><time>2026-04-17T17:06:29.999Z</time></trkpt><trkpt lat="41.90331757172785" lon="12.285173221041418"><ele>72.4</ele><time>2026-04-17T17:06:30.999Z</time></trkpt><trkpt lat="41.903328041639355" lon="12.285321860833848"><ele>72.0</ele><time>2026-04-17T17:06:31.999Z</time></trkpt><trkpt lat="41.90333954568111" lon="12.285485182017258"><ele>70.66666666666667</ele><time>2026-04-17T17:06:32.999Z</time></trkpt><trkpt lat="41.90337182011102" lon="12.285668820172896"><ele>69.33333333333334</ele><time>2026-04-17T17:06:33.999Z</time></trkpt><trkpt lat="41.90337484899176" lon="12.285884073503725"><ele>68.0</ele><time>2026-04-17T17:06:34.999Z</time></trkpt><trkpt lat="41.90340180585967" lon="12.286095591204614"><ele>68.66666666666667</ele><time>2026-04-17T17:06:35.999Z</time></trkpt><trkpt lat="41.90344464937636" lon="12.286297436365249"><ele>69.33333333333333</ele><time>2026-04-17T17:06:36.999Z</time></trkpt><trkpt lat="41.903496079044686" lon="12.286503888230792"><ele>70.0</ele><time>2026-04-17T17:06:37.999Z</time></trkpt><trkpt lat="41.903547477672916" lon="12.28670178123053"><ele>67.66666666666666</ele><time>2026-04-17T17:06:38.999Z</time></trkpt><trkpt lat="41.90359369639618" lon="12.286894758855443"><ele>65.33333333333333</ele><time>2026-04-17T17:06:39.999Z</time></trkpt><trkpt lat="41.9036400850359" lon="12.28710257622084"><ele>63.0</ele><time>2026-04-17T17:06:40.999Z</time></trkpt><trkpt lat="41.90365258235979" lon="12.287325700420615"><ele>62.33333333333333</ele><time>2026-04-17T17:06:41.999Z</time></trkpt><trkpt lat="41.90363168196467" lon="12.287546147375574"><ele>61.666666666666664</ele><time>2026-04-17T17:06:42.999Z</time></trkpt><trkpt lat="41.903634935915086" lon="12.287787249619981"><ele>61.0</ele><time>2026-04-17T17:06:43.999Z</time></trkpt><trkpt lat="41.903606040678625" lon="12.288028293296165"><ele>62.33333333333333</ele><time>2026-04-17T17:06:44.999Z</time></trkpt><trkpt lat="41.90359792474578" lon="12.28825555078168"><ele>63.66666666666667</ele><time>2026-04-17T17:06:45.999Z</time></trkpt><trkpt lat="41.903596830102174" lon="12.28847745483641"><ele>65.0</ele><time>2026-04-17T17:06:46.999Z</time></trkpt><trkpt lat="41.903600280344115" lon="12.288702341661237"><ele>65.33333333333334</ele><time>2026-04-17T17:06:47.999Z</time></trkpt><trkpt lat="41.90362570765506" lon="12.288935564272137"><ele>65.66666666666667</ele><time>2026-04-17T17:06:48.999Z</time></trkpt><trkpt lat="41.90364371387884" lon="12.289180189122687"><ele>66.0</ele><time>2026-04-17T17:06:49.999Z</time></trkpt><trkpt lat="41.903647884894426" lon="12.289430524672047"><ele>66.0</ele><time>2026-04-17T17:06:50.999Z</time></trkpt><trkpt lat="41.90366635153227" lon="12.289656773596237"><ele>66.0</ele><time>2026-04-17T17:06:51.999Z</time></trkpt><trkpt lat="41.903680992556254" lon="12.289865489578242"><ele>66.0</ele><time>2026-04-17T17:06:52.999Z</time></trkpt><trkpt lat="41.90369625958468" lon="12.290072665143308"><ele>64.25</ele><time>2026-04-17T17:06:53.999Z</time></trkpt><trkpt lat="41.90371097759925" lon="12.290265182934403"><ele>62.5</ele><time>2026-04-17T17:06:54.999Z</time></trkpt><trkpt lat="41.90372342335577" lon="12.290448790615946"><ele>60.75</ele><time>2026-04-17T17:06:55.999Z</time></trkpt><trkpt lat="41.90373465277387" lon="12.290631298378562"><ele>59.0</ele><time>2026-04-17T17:06:56.999Z</time></trkpt><trkpt lat="41.90374522769461" lon="12.290816311393336"><ele>58.75</ele><time>2026-04-17T17:06:57.999Z</time></trkpt><trkpt lat="41.903756028155804" lon="12.291005270464433"><ele>58.5</ele><time>2026-04-17T17:06:58.998Z</time></trkpt><trkpt lat="41.90376793535341" lon="12.291191743934593"><ele>58.25</ele><time>2026-04-17T17:06:59.998Z</time></trkpt><trkpt lat="41.90377936008012" lon="12.291365457621051"><ele>58.0</ele><time>2026-04-17T17:07:00.998Z</time></trkpt><trkpt lat="41.903794250566314" lon="12.291545215285117"><ele>57.5</ele><time>2026-04-17T17:07:01.998Z</time></trkpt><trkpt lat="41.90381621881529" lon="12.291728172474173"><ele>57.0</ele><time>2026-04-17T17:07:02.998Z</time></trkpt><trkpt lat="41.90384399501828" lon="12.291914564481264"><ele>56.5</ele><time>2026-04-17T17:07:03.998Z</time></trkpt><trkpt lat="41.90387604667268" lon="12.292089966257722"><ele>56.0</ele><time>2026-04-17T17:07:04.998Z</time></trkpt><trkpt lat="41.90390626199424" lon="12.292251506255319"><ele>54.75</ele><time>2026-04-17T17:07:05.998Z</time></trkpt><trkpt lat="41.903954489805635" lon="12.292404255285682"><ele>53.5</ele><time>2026-04-17T17:07:06.998Z</time></trkpt><trkpt lat="41.903987816821406" lon="12.29256724737235"><ele>52.25</ele><time>2026-04-17T17:07:07.998Z</time></trkpt><trkpt lat="41.90402423981613" lon="12.292730507634044"><ele>51.0</ele><time>2026-04-17T17:07:08.998Z</time></trkpt><trkpt lat="41.90406389506848" lon="12.2929028723525"><ele>51.0</ele><time>2026-04-17T17:07:09.998Z</time></trkpt><trkpt lat="41.90411245517857" lon="12.293081857850176"><ele>51.0</ele><time>2026-04-17T17:07:10.998Z</time></trkpt><trkpt lat="41.90417123891405" lon="12.293254166258542"><ele>51.0</ele><time>2026-04-17T17:07:11.998Z</time></trkpt><trkpt lat="41.90423749383862" lon="12.293404132626833"><ele>51.0</ele><time>2026-04-17T17:07:12.998Z</time></trkpt><trkpt lat="41.9042806660963" lon="12.29355651212145"><ele>50.75</ele><time>2026-04-17T17:07:13.998Z</time></trkpt><trkpt lat="41.90433259644269" lon="12.29368853837809"><ele>50.5</ele><time>2026-04-17T17:07:14.998Z</time></trkpt><trkpt lat="41.904380047231136" lon="12.293808372371336"><ele>50.25</ele><time>2026-04-17T17:07:15.998Z</time></trkpt><trkpt lat="41.904433480423414" lon="12.293937771904385"><ele>50.0</ele><time>2026-04-17T17:07:16.998Z</time></trkpt><trkpt lat="41.904494596359505" lon="12.294095046210499"><ele>50.0</ele><time>2026-04-17T17:07:17.998Z</time></trkpt><trkpt lat="41.90456229626905" lon="12.294281607620862"><ele>50.0</ele><time>2026-04-17T17:07:18.998Z</time></trkpt><trkpt lat="41.904638841168" lon="12.29448830646833"><ele>50.0</ele><time>2026-04-17T17:07:19.998Z</time></trkpt><trkpt lat="41.90471794477351" lon="12.294712186609093"><ele>53.333333333333336</ele><time>2026-04-17T17:07:20.998Z</time></trkpt><trkpt lat="41.904814866624484" lon="12.29494453425082"><ele>56.66666666666667</ele><time>2026-04-17T17:07:21.998Z</time></trkpt><trkpt lat="41.904882527796985" lon="12.295181126462918"><ele>60.0</ele><time>2026-04-17T17:07:22.998Z</time></trkpt><trkpt lat="41.90494713879269" lon="12.295384275379371"><ele>60.0</ele><time>2026-04-17T17:07:23.998Z</time></trkpt><trkpt lat="41.904998647651915" lon="12.295584043399465"><ele>60.0</ele><time>2026-04-17T17:07:24.998Z</time></trkpt><trkpt lat="41.905029628512374" lon="12.295773632318483"><ele>60.0</ele><time>2026-04-17T17:07:25.998Z</time></trkpt><trkpt lat="41.90504221246293" lon="12.295966005095027"><ele>60.0</ele><time>2026-04-17T17:07:26.998Z</time></trkpt><trkpt lat="41.90503946572119" lon="12.29616034148392"><ele>62.33333333333333</ele><time>2026-04-17T17:07:27.998Z</time></trkpt><trkpt lat="41.904999356014564" lon="12.296353715567276"><ele>64.66666666666666</ele><time>2026-04-17T17:07:28.998Z</time></trkpt><trkpt lat="41.904957109958865" lon="12.296553341002703"><ele>67.0</ele><time>2026-04-17T17:07:29.998Z</time></trkpt><trkpt lat="41.90490503068055" lon="12.296761990675542"><ele>67.33333333333333</ele><time>2026-04-17T17:07:30.998Z</time></trkpt><trkpt lat="41.90484747964464" lon="12.29698336460685"><ele>67.66666666666667</ele><time>2026-04-17T17:07:31.998Z</time></trkpt><trkpt lat="41.90480466942745" lon="12.297220454064727"><ele>68.0</ele><time>2026-04-17T17:07:32.998Z</time></trkpt><trkpt lat="41.904735920903576" lon="12.297440279034795"><ele>68.66666666666667</ele><time>2026-04-17T17:07:33.998Z</time></trkpt><trkpt lat="41.90468435756126" lon="12.297670473525171"><ele>69.33333333333333</ele><time>2026-04-17T17:07:35Z</time></trkpt><trkpt lat="41.904628716418856" lon="12.297910532440104"><ele>70.0</ele><time>2026-04-17T17:07:36Z</time></trkpt><trkpt lat="41.9045935917032" lon="12.29813414388854"><ele>70.66666666666666</ele><time>2026-04-17T17:07:37Z</time></trkpt><trkpt lat="41.904543938661504" lon="12.298350133512324"><ele>71.33333333333333</ele><time>2026-04-17T17:07:38Z</time></trkpt><trkpt lat="41.904487980813514" lon="12.298568285715854"><ele>72.0</ele><time>2026-04-17T17:07:39Z</time></trkpt><trkpt lat="41.90442696150143" lon="12.298795159337798"><ele>72.0</ele><time>2026-04-17T17:07:40Z</time></trkpt><trkpt lat="41.90436373990806" lon="12.299036477782861"><ele>72.0</ele><time>2026-04-17T17:07:41Z</time></trkpt><trkpt lat="41.904280046762516" lon="12.2992791414748"><ele>72.0</ele><time>2026-04-17T17:07:42Z</time></trkpt><trkpt lat="41.904225638015525" lon="12.29954255089982"><ele>74.0</ele><time>2026-04-17T17:07:43Z</time></trkpt><trkpt lat="41.90415319583689" lon="12.299802889119906"><ele>76.0</ele><time>2026-04-17T17:07:44Z</time></trkpt><trkpt lat="41.904080682756614" lon="12.300084505605806"><ele>78.0</ele><time>2026-04-17T17:07:45Z</time></trkpt><trkpt lat="41.90399435183927" lon="12.300344788436306"><ele>77.0</ele><time>2026-04-17T17:07:46Z</time></trkpt><trkpt lat="41.903921195016736" lon="12.3006208991072"><ele>76.0</ele><time>2026-04-17T17:07:47Z</time></trkpt><trkpt lat="41.903852057911486" lon="12.300881517361061"><ele>75.0</ele><time>2026-04-17T17:07:48Z</time></trkpt><trkpt lat="41.903784705028286" lon="12.30113455594143"><ele>75.0</ele><time>2026-04-17T17:07:49Z</time></trkpt><trkpt lat="41.90371965558701" lon="12.301378941247235"><ele>75.0</ele><time>2026-04-17T17:07:50Z</time></trkpt><trkpt lat="41.90365795077676" lon="12.301610754012936"><ele>75.0</ele><time>2026-04-17T17:07:51Z</time></trkpt><trkpt lat="41.90358962739418" lon="12.301842900972789"><ele>75.0</ele><time>2026-04-17T17:07:52Z</time></trkpt><trkpt lat="41.90352411078288" lon="12.302074447524591"><ele>75.0</ele><time>2026-04-17T17:07:53Z</time></trkpt><trkpt lat="41.903411602548935" lon="12.302264893471047"><ele>75.0</ele><time>2026-04-17T17:07:54Z</time></trkpt><trkpt lat="41.90329257680343" lon="12.302468410492764"><ele>75.0</ele><time>2026-04-17T17:07:55Z</time></trkpt><trkpt lat="41.90317256552044" lon="12.302694092258452"><ele>75.0</ele><time>2026-04-17T17:07:56Z</time></trkpt><trkpt lat="41.90303423807651" lon="12.302921053822827"><ele>75.0</ele><time>2026-04-17T17:07:57Z</time></trkpt><trkpt lat="41.90288633127668" lon="12.303131577880928"><ele>75.0</ele><time>2026-04-17T17:07:58Z</time></trkpt><trkpt lat="41.90275638242414" lon="12.303341900448569"><ele>75.0</ele><time>2026-04-17T17:07:59Z</time></trkpt><trkpt lat="41.90262951116883" lon="12.303546507352168"><ele>75.0</ele><time>2026-04-17T17:08:00Z</time></trkpt><trkpt lat="41.902502211905464" lon="12.303748459534216"><ele>74.0</ele><time>2026-04-17T17:08:01Z</time></trkpt><trkpt lat="41.90236954086566" lon="12.303937804225848"><ele>73.0</ele><time>2026-04-17T17:08:02Z</time></trkpt><trkpt lat="41.902232211663794" lon="12.30411988551485"><ele>72.0</ele><time>2026-04-17T17:08:03Z</time></trkpt><trkpt lat="41.902101645754406" lon="12.304287847657465"><ele>72.0</ele><time>2026-04-17T17:08:04Z</time></trkpt><trkpt lat="41.9019785530585" lon="12.304453967928444"><ele>72.0</ele><time>2026-04-17T17:08:05Z</time></trkpt><trkpt lat="41.90186366569063" lon="12.304623242285997"><ele>72.0</ele><time>2026-04-17T17:08:06Z</time></trkpt><trkpt lat="41.90175580645067" lon="12.30481656013175"><ele>69.33333333333333</ele><time>2026-04-17T17:08:07Z</time></trkpt><trkpt lat="41.90165755983122" lon="12.305023955671885"><ele>66.66666666666666</ele><time>2026-04-17T17:08:08Z</time></trkpt><trkpt lat="41.901572459339974" lon="12.30525504131225"><ele>64.0</ele><time>2026-04-17T17:08:09Z</time></trkpt><trkpt lat="41.901496553726105" lon="12.305503308302873"><ele>61.33333333333333</ele><time>2026-04-17T17:08:10Z</time></trkpt><trkpt lat="41.901433845123385" lon="12.305771427931935"><ele>58.66666666666667</ele><time>2026-04-17T17:08:11Z</time></trkpt><trkpt lat="41.9013765343435" lon="12.30605115255114"><ele>56.0</ele><time>2026-04-17T17:08:12Z</time></trkpt><trkpt lat="41.90131812719348" lon="12.306340262054816"><ele>53.0</ele><time>2026-04-17T17:08:13Z</time></trkpt><trkpt lat="41.90126033868967" lon="12.306627004733928"><ele>50.0</ele><time>2026-04-17T17:08:14Z</time></trkpt><trkpt lat="41.90120470451885" lon="12.306903057861675"><ele>47.0</ele><time>2026-04-17T17:08:15Z</time></trkpt><trkpt lat="41.90115195858374" lon="12.30716477971793"><ele>46.666666666666664</ele><time>2026-04-17T17:08:16Z</time></trkpt><trkpt lat="41.901098831527705" lon="12.30742839325492"><ele>46.333333333333336</ele><time>2026-04-17T17:08:17Z</time></trkpt><trkpt lat="41.90104628303114" lon="12.307689135524868"><ele>46.0</ele><time>2026-04-17T17:08:18Z</time></trkpt><trkpt lat="41.900990816355595" lon="12.307960167081946"><ele>45.66666666666667</ele><time>2026-04-17T17:08:19Z</time></trkpt><trkpt lat="41.90093579167876" lon="12.30823320186937"><ele>45.333333333333336</ele><time>2026-04-17T17:08:20Z</time></trkpt><trkpt lat="41.90088037862694" lon="12.308510689986292"><ele>45.0</ele><time>2026-04-17T17:08:21Z</time></trkpt><trkpt lat="41.90082496279622" lon="12.308791447594768"><ele>46.0</ele><time>2026-04-17T17:08:22Z</time></trkpt><trkpt lat="41.90076934647148" lon="12.309075231723483"><ele>47.0</ele><time>2026-04-17T17:08:23Z</time></trkpt><trkpt lat="41.90071316658309" lon="12.309363262660318"><ele>48.0</ele><time>2026-04-17T17:08:23.999Z</time></trkpt><trkpt lat="41.9006570935284" lon="12.309632494858736"><ele>48.0</ele><time>2026-04-17T17:08:24.999Z</time></trkpt><trkpt lat="41.900604980904" lon="12.309897593648389"><ele>48.0</ele><time>2026-04-17T17:08:25.999Z</time></trkpt><trkpt lat="41.90054828890301" lon="12.310156388747316"><ele>48.0</ele><time>2026-04-17T17:08:26.999Z</time></trkpt><trkpt lat="41.900489062324304" lon="12.310414707160346"><ele>47.666666666666664</ele><time>2026-04-17T17:08:27.999Z</time></trkpt><trkpt lat="41.90042168701754" lon="12.310670497373255"><ele>47.33333333333333</ele><time>2026-04-17T17:08:28.999Z</time></trkpt><trkpt lat="41.90034844395679" lon="12.310922444354041"><ele>47.0</ele><time>2026-04-17T17:08:29.999Z</time></trkpt><trkpt lat="41.90027109937608" lon="12.311173616892285"><ele>47.666666666666664</ele><time>2026-04-17T17:08:30.999Z</time></trkpt><trkpt lat="41.90019000486845" lon="12.311427002195972"><ele>48.33333333333333</ele><time>2026-04-17T17:08:31.999Z</time></trkpt><trkpt lat="41.90010319470024" lon="12.311689444824008"><ele>49.0</ele><time>2026-04-17T17:08:32.999Z</time></trkpt><trkpt lat="41.90001230564352" lon="12.311950404586343"><ele>51.33333333333333</ele><time>2026-04-17T17:08:33.999Z</time></trkpt><trkpt lat="41.899917102943206" lon="12.312218190580099"><ele>53.66666666666667</ele><time>2026-04-17T17:08:34.999Z</time></trkpt><trkpt lat="41.89981744534136" lon="12.312485848031464"><ele>56.0</ele><time>2026-04-17T17:08:35.999Z</time></trkpt><trkpt lat="41.899714125979045" lon="12.312756962647295"><ele>56.0</ele><time>2026-04-17T17:08:36.999Z</time></trkpt><trkpt lat="41.89961159546345" lon="12.313029202098111"><ele>56.0</ele><time>2026-04-17T17:08:37.999Z</time></trkpt><trkpt lat="41.89950904177636" lon="12.313305815402801"><ele>58.0</ele><time>2026-04-17T17:08:38.999Z</time></trkpt><trkpt lat="41.899406566539284" lon="12.313586103027088"><ele>60.0</ele><time>2026-04-17T17:08:39.999Z</time></trkpt><trkpt lat="41.899307304213714" lon="12.313866136049903"><ele>60.5</ele><time>2026-04-17T17:08:40.999Z</time></trkpt><trkpt lat="41.89920946856907" lon="12.314150111051108"><ele>61.0</ele><time>2026-04-17T17:08:41.999Z</time></trkpt><trkpt lat="41.89911349932288" lon="12.314431455144694"><ele>61.0</ele><time>2026-04-17T17:08:42.999Z</time></trkpt><trkpt lat="41.89901841158599" lon="12.314712512688565"><ele>61.0</ele><time>2026-04-17T17:08:43.999Z</time></trkpt><trkpt lat="41.898929006807" lon="12.314979152369697"><ele>61.0</ele><time>2026-04-17T17:08:44.999Z</time></trkpt><trkpt lat="41.898847116887374" lon="12.315225437819786"><ele>62.33333333333333</ele><time>2026-04-17T17:08:45.999Z</time></trkpt><trkpt lat="41.898768826203806" lon="12.315457869318315"><ele>63.66666666666667</ele><time>2026-04-17T17:08:46.999Z</time></trkpt><trkpt lat="41.898707114038324" lon="12.315670848636309"><ele>65.0</ele><time>2026-04-17T17:08:47.999Z</time></trkpt><trkpt lat="41.898629724734434" lon="12.315859570723235"><ele>64.66666666666667</ele><time>2026-04-17T17:08:48.999Z</time></trkpt><trkpt lat="41.898532121094775" lon="12.316028393128493"><ele>64.33333333333333</ele><time>2026-04-17T17:08:49.999Z</time></trkpt><trkpt lat="41.89847849092644" lon="12.31620743990771"><ele>64.0</ele><time>2026-04-17T17:08:50.999Z</time></trkpt><trkpt lat="41.89827281014243" lon="12.316292484838996"><ele>65.66666666666666</ele><time>2026-04-17T17:08:51.999Z</time></trkpt><trkpt lat="41.898138751336454" lon="12.316430355434086"><ele>67.33333333333333</ele><time>2026-04-17T17:08:52.999Z</time></trkpt><trkpt lat="41.89801484265466" lon="12.316602972929452"><ele>69.0</ele><time>2026-04-17T17:08:53.999Z</time></trkpt><trkpt lat="41.89788971815848" lon="12.316785376238157"><ele>69.0</ele><time>2026-04-17T17:08:54.999Z</time></trkpt><trkpt lat="41.897764833876586" lon="12.31695458900129"><ele>69.0</ele><time>2026-04-17T17:08:55.999Z</time></trkpt><trkpt lat="41.897639813811814" lon="12.317116164543545"><ele>69.0</ele><time>2026-04-17T17:08:56.999Z</time></trkpt><trkpt lat="41.89750571537886" lon="12.31726834843494"><ele>68.33333333333333</ele><time>2026-04-17T17:08:57.999Z</time></trkpt><trkpt lat="41.897363378568876" lon="12.317418074994869"><ele>67.66666666666666</ele><time>2026-04-17T17:08:58.999Z</time></trkpt><trkpt lat="41.89722137501262" lon="12.317551960316564"><ele>67.0</ele><time>2026-04-17T17:08:59.999Z</time></trkpt><trkpt lat="41.897091880115404" lon="12.31766096078757"><ele>67.0</ele><time>2026-04-17T17:09:00.999Z</time></trkpt><trkpt lat="41.89696660908173" lon="12.31775762246542"><ele>67.0</ele><time>2026-04-17T17:09:01.999Z</time></trkpt><trkpt lat="41.896836026604326" lon="12.317838261999595"><ele>67.0</ele><time>2026-04-17T17:09:02.998Z</time></trkpt><trkpt lat="41.896691171944255" lon="12.317901662995588"><ele>67.0</ele><time>2026-04-17T17:09:03.998Z</time></trkpt><trkpt lat="41.8965364557476" lon="12.317972733200895"><ele>68.33333333333333</ele><time>2026-04-17T17:09:04.998Z</time></trkpt><trkpt lat="41.89636909489604" lon="12.318042047672831"><ele>69.66666666666667</ele><time>2026-04-17T17:09:05.998Z</time></trkpt><trkpt lat="41.896199005089855" lon="12.318114096201274"><ele>71.0</ele><time>2026-04-17T17:09:06.998Z</time></trkpt><trkpt lat="41.89602169379894" lon="12.318193926450398"><ele>70.33333333333334</ele><time>2026-04-17T17:09:07.998Z</time></trkpt><trkpt lat="41.89584084800757" lon="12.318282335820491"><ele>69.66666666666667</ele><time>2026-04-17T17:09:08.998Z</time></trkpt><trkpt lat="41.895664797412834" lon="12.318388659818835"><ele>69.0</ele><time>2026-04-17T17:09:09.998Z</time></trkpt><trkpt lat="41.89549777096637" lon="12.31850344909598"><ele>69.0</ele><time>2026-04-17T17:09:10.998Z</time></trkpt><trkpt lat="41.89533691418365" lon="12.318620584480849"><ele>69.0</ele><time>2026-04-17T17:09:11.998Z</time></trkpt><trkpt lat="41.895177035643634" lon="12.318727583138685"><ele>69.0</ele><time>2026-04-17T17:09:12.998Z</time></trkpt><trkpt lat="41.89501079679884" lon="12.31882330404883"><ele>69.66666666666667</ele><time>2026-04-17T17:09:13.998Z</time></trkpt><trkpt lat="41.89483215664076" lon="12.318910939732184"><ele>70.33333333333334</ele><time>2026-04-17T17:09:14.998Z</time></trkpt><trkpt lat="41.89464181277775" lon="12.318994434215456"><ele>71.0</ele><time>2026-04-17T17:09:15.998Z</time></trkpt><trkpt lat="41.894450876152234" lon="12.319063591458999"><ele>71.0</ele><time>2026-04-17T17:09:16.998Z</time></trkpt><trkpt lat="41.89426087489612" lon="12.319125161113618"><ele>71.0</ele><time>2026-04-17T17:09:17.998Z</time></trkpt><trkpt lat="41.89406345912031" lon="12.319198220305424"><ele>71.0</ele><time>2026-04-17T17:09:18.998Z</time></trkpt><trkpt lat="41.89388068189812" lon="12.319261273711268"><ele>70.33333333333334</ele><time>2026-04-17T17:09:19.998Z</time></trkpt><trkpt lat="41.893710625605216" lon="12.319318403859384"><ele>69.66666666666667</ele><time>2026-04-17T17:09:20.998Z</time></trkpt><trkpt lat="41.89355896677364" lon="12.319371010994772"><ele>69.0</ele><time>2026-04-17T17:09:21.998Z</time></trkpt><trkpt lat="41.89342451460132" lon="12.319422151922478"><ele>70.0</ele><time>2026-04-17T17:09:22.998Z</time></trkpt><trkpt lat="41.89328681262786" lon="12.319501537213204"><ele>71.0</ele><time>2026-04-17T17:09:23.998Z</time></trkpt><trkpt lat="41.89315019623793" lon="12.31959975861194"><ele>72.0</ele><time>2026-04-17T17:09:24.998Z</time></trkpt><trkpt lat="41.89300796729114" lon="12.319720761264032"><ele>71.66666666666667</ele><time>2026-04-17T17:09:25.998Z</time></trkpt><trkpt lat="41.892868386108226" lon="12.319867392893244"><ele>71.33333333333334</ele><time>2026-04-17T17:09:26.998Z</time></trkpt><trkpt lat="41.892730390265946" lon="12.320031517054012"><ele>71.0</ele><time>2026-04-17T17:09:27.998Z</time></trkpt><trkpt lat="41.892582089346234" lon="12.320204505609405"><ele>71.0</ele><time>2026-04-17T17:09:28.998Z</time></trkpt><trkpt lat="41.89242355155592" lon="12.320375262745001"><ele>71.0</ele><time>2026-04-17T17:09:29.998Z</time></trkpt><trkpt lat="41.892260394848286" lon="12.320555361818638"><ele>71.0</ele><time>2026-04-17T17:09:30.998Z</time></trkpt><trkpt lat="41.89209876839519" lon="12.320740982086585"><ele>69.33333333333334</ele><time>2026-04-17T17:09:31.998Z</time></trkpt><trkpt lat="41.89193391358632" lon="12.320929700119825"><ele>67.66666666666667</ele><time>2026-04-17T17:09:32.998Z</time></trkpt><trkpt lat="41.8917806795886" lon="12.32110798119252"><ele>66.0</ele><time>2026-04-17T17:09:33.998Z</time></trkpt><trkpt lat="41.89163628830235" lon="12.321280060591539"><ele>65.66666666666667</ele><time>2026-04-17T17:09:34.998Z</time></trkpt><trkpt lat="41.89148827327811" lon="12.321448518031968"><ele>65.33333333333334</ele><time>2026-04-17T17:09:35.998Z</time></trkpt><trkpt lat="41.89133821371168" lon="12.321618559580283"><ele>65.0</ele><time>2026-04-17T17:09:36.998Z</time></trkpt><trkpt lat="41.891189005984174" lon="12.321787712291195"><ele>65.0</ele><time>2026-04-17T17:09:37.998Z</time></trkpt><trkpt lat="41.89104020604764" lon="12.321956429990594"><ele>65.0</ele><time>2026-04-17T17:09:38.998Z</time></trkpt><trkpt lat="41.890893431234936" lon="12.322118237831885"><ele>65.0</ele><time>2026-04-17T17:09:39.998Z</time></trkpt><trkpt lat="41.89073825359071" lon="12.322273756849834"><ele>65.0</ele><time>2026-04-17T17:09:41Z</time></trkpt><trkpt lat="41.89057709705551" lon="12.322417762325044"><ele>65.0</ele><time>2026-04-17T17:09:42Z</time></trkpt><trkpt lat="41.89040279644508" lon="12.322556163728585"><ele>65.0</ele><time>2026-04-17T17:09:43Z</time></trkpt><trkpt lat="41.8902260476654" lon="12.322688261033543"><ele>64.66666666666667</ele><time>2026-04-17T17:09:44Z</time></trkpt><trkpt lat="41.890043059244874" lon="12.322824488266281"><ele>64.33333333333333</ele><time>2026-04-17T17:09:45Z</time></trkpt><trkpt lat="41.88985533771043" lon="12.322966472745781"><ele>64.0</ele><time>2026-04-17T17:09:46Z</time></trkpt><trkpt lat="41.88966891895959" lon="12.323112816801398"><ele>64.0</ele><time>2026-04-17T17:09:47Z</time></trkpt><trkpt lat="41.88948257430401" lon="12.323261006526817"><ele>64.0</ele><time>2026-04-17T17:09:48Z</time></trkpt><trkpt lat="41.889294001650924" lon="12.323407232184861"><ele>64.0</ele><time>2026-04-17T17:09:49Z</time></trkpt><trkpt lat="41.8891087452866" lon="12.323554150795106"><ele>63.0</ele><time>2026-04-17T17:09:50Z</time></trkpt><trkpt lat="41.88892632964449" lon="12.323694843377966"><ele>62.0</ele><time>2026-04-17T17:09:51Z</time></trkpt><trkpt lat="41.88874630805375" lon="12.323829748431846"><ele>61.0</ele><time>2026-04-17T17:09:52Z</time></trkpt><trkpt lat="41.88856685381371" lon="12.323966439182717"><ele>58.666666666666664</ele><time>2026-04-17T17:09:53Z</time></trkpt><trkpt lat="41.88838620560995" lon="12.324100561077982"><ele>56.33333333333333</ele><time>2026-04-17T17:09:54Z</time></trkpt><trkpt lat="41.88820867457012" lon="12.324235350837055"><ele>54.0</ele><time>2026-04-17T17:09:55Z</time></trkpt><trkpt lat="41.888020998075504" lon="12.324379614355006"><ele>54.0</ele><time>2026-04-17T17:09:56Z</time></trkpt><trkpt lat="41.887832360430366" lon="12.324525524332508"><ele>54.0</ele><time>2026-04-17T17:09:57Z</time></trkpt><trkpt lat="41.88764377246658" lon="12.324670827221162"><ele>54.0</ele><time>2026-04-17T17:09:58Z</time></trkpt><trkpt lat="41.88745904025289" lon="12.324811830403727"><ele>53.33333333333333</ele><time>2026-04-17T17:09:59Z</time></trkpt><trkpt lat="41.8872794900604" lon="12.324943956389227"><ele>52.666666666666664</ele><time>2026-04-17T17:10:00Z</time></trkpt><trkpt lat="41.88710395914691" lon="12.325082138516716"><ele>52.0</ele><time>2026-04-17T17:10:01Z</time></trkpt><trkpt lat="41.88693270662892" lon="12.325215424567642"><ele>50.0</ele><time>2026-04-17T17:10:02Z</time></trkpt><trkpt lat="41.88675993969154" lon="12.325350382703334"><ele>48.0</ele><time>2026-04-17T17:10:03Z</time></trkpt><trkpt lat="41.88658605364846" lon="12.325477775352335"><ele>46.0</ele><time>2026-04-17T17:10:04Z</time></trkpt><trkpt lat="41.88641491027486" lon="12.32559819671921"><ele>46.0</ele><time>2026-04-17T17:10:05Z</time></trkpt><trkpt lat="41.88623651899191" lon="12.325699907257302"><ele>46.0</ele><time>2026-04-17T17:10:06Z</time></trkpt><trkpt lat="41.88604961189858" lon="12.325783256909205"><ele>46.0</ele><time>2026-04-17T17:10:07Z</time></trkpt><trkpt lat="41.88587947389161" lon="12.32583807680637"><ele>45.66666666666667</ele><time>2026-04-17T17:10:08Z</time></trkpt><trkpt lat="41.88571196062554" lon="12.325886507748473"><ele>45.333333333333336</ele><time>2026-04-17T17:10:09Z</time></trkpt><trkpt lat="41.885563011553536" lon="12.325926142064628"><ele>45.0</ele><time>2026-04-17T17:10:10Z</time></trkpt><trkpt lat="41.88542631784798" lon="12.325961227474187"><ele>45.0</ele><time>2026-04-17T17:10:11Z</time></trkpt><trkpt lat="41.885298366585204" lon="12.325992142681386"><ele>45.0</ele><time>2026-04-17T17:10:12Z</time></trkpt><trkpt lat="41.88517885878076" lon="12.326023551749804"><ele>45.0</ele><time>2026-04-17T17:10:13Z</time></trkpt><trkpt lat="41.88507579412274" lon="12.326056633238144"><ele>45.0</ele><time>2026-04-17T17:10:14Z</time></trkpt><trkpt lat="41.88497464487768" lon="12.326111080508234"><ele>45.4</ele><time>2026-04-17T17:10:15Z</time></trkpt><trkpt lat="41.884877438859306" lon="12.326194343656688"><ele>45.8</ele><time>2026-04-17T17:10:16Z</time></trkpt><trkpt lat="41.8848013002577" lon="12.326300786116782"><ele>46.2</ele><time>2026-04-17T17:10:17Z</time></trkpt><trkpt lat="41.88475086061842" lon="12.326428336591617"><ele>46.6</ele><time>2026-04-17T17:10:18Z</time></trkpt><trkpt lat="41.884731107992835" lon="12.326572994124241"><ele>47.0</ele><time>2026-04-17T17:10:19Z</time></trkpt><trkpt lat="41.884739960572844" lon="12.326723941246462"><ele>46.2</ele><time>2026-04-17T17:10:20Z</time></trkpt><trkpt lat="41.88476825061562" lon="12.326856217685743"><ele>45.400000000000006</ele><time>2026-04-17T17:10:21Z</time></trkpt><trkpt lat="41.884816025344705" lon="12.326975615705546"><ele>44.599999999999994</ele><time>2026-04-17T17:10:22Z</time></trkpt><trkpt lat="41.8849128567103" lon="12.327039639754247"><ele>43.8</ele><time>2026-04-17T17:10:23Z</time></trkpt><trkpt lat="41.88498980958944" lon="12.327147048046404"><ele>43.0</ele><time>2026-04-17T17:10:24Z</time></trkpt><trkpt lat="41.88510843180526" lon="12.327208358775184"><ele>42.25</ele><time>2026-04-17T17:10:25Z</time></trkpt><trkpt lat="41.88522641667167" lon="12.327273897198697"><ele>41.5</ele><time>2026-04-17T17:10:26Z</time></trkpt><trkpt lat="41.88533235853933" lon="12.327358023173383"><ele>40.75</ele><time>2026-04-17T17:10:27Z</time></trkpt><trkpt lat="41.8854196623863" lon="12.327459961647506"><ele>40.0</ele><time>2026-04-17T17:10:28Z</time></trkpt><trkpt lat="41.885491808825144" lon="12.327579889496102"><ele>40.0</ele><time>2026-04-17T17:10:29Z</time></trkpt><trkpt lat="41.88553904158788" lon="12.327728412174169"><ele>40.0</ele><time>2026-04-17T17:10:29.999Z</time></trkpt><trkpt lat="41.88557200054404" lon="12.327887701484276"><ele>40.0</ele><time>2026-04-17T17:10:30.999Z</time></trkpt><trkpt lat="41.88558840214896" lon="12.328062695048647"><ele>40.0</ele><time>2026-04-17T17:10:31.999Z</time></trkpt><trkpt lat="41.88559826439936" lon="12.328261716721048"><ele>38.66666666666667</ele><time>2026-04-17T17:10:32.999Z</time></trkpt><trkpt lat="41.88560713338216" lon="12.328484980458224"><ele>37.333333333333336</ele><time>2026-04-17T17:10:33.999Z</time></trkpt><trkpt lat="41.88560894929017" lon="12.328715107425754"><ele>36.0</ele><time>2026-04-17T17:10:34.999Z</time></trkpt><trkpt lat="41.885613616200146" lon="12.328951605530078"><ele>36.0</ele><time>2026-04-17T17:10:35.999Z</time></trkpt><trkpt lat="41.885619065370804" lon="12.329201938943337"><ele>36.0</ele><time>2026-04-17T17:10:36.999Z</time></trkpt><trkpt lat="41.885624102998996" lon="12.329444899589747"><ele>36.0</ele><time>2026-04-17T17:10:37.999Z</time></trkpt><trkpt lat="41.88562484024308" lon="12.329676918684195"><ele>36.0</ele><time>2026-04-17T17:10:38.999Z</time></trkpt><trkpt lat="41.88562241521374" lon="12.329907059643473"><ele>36.0</ele><time>2026-04-17T17:10:39.999Z</time></trkpt><trkpt lat="41.885614843693155" lon="12.330121576478861"><ele>36.0</ele><time>2026-04-17T17:10:40.999Z</time></trkpt><trkpt lat="41.885601014520944" lon="12.33031473616931"><ele>35.5</ele><time>2026-04-17T17:10:41.999Z</time></trkpt><trkpt lat="41.88555719913991" lon="12.330621886066044"><ele>35.0</ele><time>2026-04-17T17:10:43.999Z</time></trkpt><trkpt lat="41.88553957731451" lon="12.330749323846291"><ele>34.5</ele><time>2026-04-17T17:10:44.999Z</time></trkpt><trkpt lat="41.8855259739523" lon="12.330865425458088"><ele>34.0</ele><time>2026-04-17T17:10:45.999Z</time></trkpt><trkpt lat="41.885356929278394" lon="12.330942143623856"><ele>34.0</ele><time>2026-04-17T17:10:46.999Z</time></trkpt><trkpt lat="41.8852546784281" lon="12.331029596890042"><ele>34.0</ele><time>2026-04-17T17:10:47.999Z</time></trkpt><trkpt lat="41.88514663167414" lon="12.33112263133984"><ele>34.0</ele><time>2026-04-17T17:10:48.999Z</time></trkpt><trkpt lat="41.885031399048714" lon="12.331235024180867"><ele>34.0</ele><time>2026-04-17T17:10:49.999Z</time></trkpt><trkpt lat="41.88491625965013" lon="12.331355814053873"><ele>34.0</ele><time>2026-04-17T17:10:50.999Z</time></trkpt><trkpt lat="41.88481512433075" lon="12.331480302950721"><ele>34.0</ele><time>2026-04-17T17:10:51.999Z</time></trkpt><trkpt lat="41.8847272064409" lon="12.331595963774433"><ele>34.0</ele><time>2026-04-17T17:10:52.999Z</time></trkpt><trkpt lat="41.88464805818666" lon="12.331715999207384"><ele>34.0</ele><time>2026-04-17T17:10:53.999Z</time></trkpt><trkpt lat="41.884573809558184" lon="12.331850388089277"><ele>34.0</ele><time>2026-04-17T17:10:54.999Z</time></trkpt><trkpt lat="41.884482900355735" lon="12.331986279227712"><ele>34.0</ele><time>2026-04-17T17:10:55.999Z</time></trkpt><trkpt lat="41.88442065973335" lon="12.332170324551694"><ele>34.0</ele><time>2026-04-17T17:10:56.999Z</time></trkpt><trkpt lat="41.8843403745885" lon="12.332349567307277"><ele>34.0</ele><time>2026-04-17T17:10:57.999Z</time></trkpt><trkpt lat="41.88426971697142" lon="12.332518616451448"><ele>33.5</ele><time>2026-04-17T17:10:58.999Z</time></trkpt><trkpt lat="41.884203459664676" lon="12.332664107443392"><ele>33.0</ele><time>2026-04-17T17:10:59.999Z</time></trkpt><trkpt lat="41.884129058059926" lon="12.33280275340028"><ele>32.5</ele><time>2026-04-17T17:11:00.999Z</time></trkpt><trkpt lat="41.88405972777923" lon="12.332928794305744"><ele>32.0</ele><time>2026-04-17T17:11:01.999Z</time></trkpt><trkpt lat="41.883996506112275" lon="12.333041246633451"><ele>31.6</ele><time>2026-04-17T17:11:02.999Z</time></trkpt><trkpt lat="41.88394190172485" lon="12.333135208744112"><ele>31.200000000000003</ele><time>2026-04-17T17:11:03.999Z</time></trkpt><trkpt lat="41.883903158167755" lon="12.333202334845854"><ele>30.8</ele><time>2026-04-17T17:11:04.999Z</time></trkpt><trkpt lat="41.88386239488445" lon="12.333276431592141"><ele>30.4</ele><time>2026-04-17T17:11:07.999Z</time></trkpt><trkpt lat="41.8839554406801" lon="12.333430572556503"><ele>30.0</ele><time>2026-04-17T17:11:20.998Z</time></trkpt><trkpt lat="41.88403246475713" lon="12.333468282469628"><ele>30.0</ele><time>2026-04-17T17:11:21.998Z</time></trkpt><trkpt lat="41.88412903087239" lon="12.333509645733933"><ele>30.0</ele><time>2026-04-17T17:11:22.998Z</time></trkpt><trkpt lat="41.884222133011384" lon="12.333575361475825"><ele>30.0</ele><time>2026-04-17T17:11:23.998Z</time></trkpt><trkpt lat="41.884315920493634" lon="12.333661822206608"><ele>30.0</ele><time>2026-04-17T17:11:24.998Z</time></trkpt><trkpt lat="41.88442520288735" lon="12.333761048623328"><ele>30.333333333333336</ele><time>2026-04-17T17:11:25.998Z</time></trkpt><trkpt lat="41.8845441546914" lon="12.33388347990831"><ele>30.666666666666668</ele><time>2026-04-17T17:11:26.998Z</time></trkpt><trkpt lat="41.884663625830974" lon="12.334005657317531"><ele>31.0</ele><time>2026-04-17T17:11:27.998Z</time></trkpt><trkpt lat="41.884787153778376" lon="12.334153415114518"><ele>31.25</ele><time>2026-04-17T17:11:28.998Z</time></trkpt><trkpt lat="41.88490278588762" lon="12.334282243552439"><ele>31.5</ele><time>2026-04-17T17:11:29.998Z</time></trkpt><trkpt lat="41.88498641113374" lon="12.334398982310256"><ele>31.75</ele><time>2026-04-17T17:11:30.998Z</time></trkpt><trkpt lat="41.88510118607652" lon="12.334520466642605"><ele>32.0</ele><time>2026-04-17T17:11:31.998Z</time></trkpt><trkpt lat="41.885199547417756" lon="12.334621670195311"><ele>32.5</ele><time>2026-04-17T17:11:32.998Z</time></trkpt><trkpt lat="41.88528489984121" lon="12.334709238193783"><ele>33.0</ele><time>2026-04-17T17:11:33.998Z</time></trkpt><trkpt lat="41.885382014289604" lon="12.334812047185393"><ele>33.5</ele><time>2026-04-17T17:11:34.998Z</time></trkpt><trkpt lat="41.88547977109155" lon="12.33492657371107"><ele>34.0</ele><time>2026-04-17T17:11:35.998Z</time></trkpt><trkpt lat="41.88558922672407" lon="12.33503755031253"><ele>34.0</ele><time>2026-04-17T17:11:36.998Z</time></trkpt><trkpt lat="41.88570202036821" lon="12.33513987482383"><ele>34.0</ele><time>2026-04-17T17:11:37.998Z</time></trkpt><trkpt lat="41.88580368647733" lon="12.33522255048522"><ele>34.0</ele><time>2026-04-17T17:11:38.998Z</time></trkpt><trkpt lat="41.885912126556214" lon="12.335296702164047"><ele>34.0</ele><time>2026-04-17T17:11:39.998Z</time></trkpt><trkpt lat="41.88602566678372" lon="12.335354445151479"><ele>34.75</ele><time>2026-04-17T17:11:40.998Z</time></trkpt><trkpt lat="41.88614487103087" lon="12.335386280349637"><ele>35.5</ele><time>2026-04-17T17:11:41.998Z</time></trkpt><trkpt lat="41.886268879950414" lon="12.335393488896923"><ele>36.25</ele><time>2026-04-17T17:11:42.998Z</time></trkpt><trkpt lat="41.88639784482506" lon="12.335376047248634"><ele>37.0</ele><time>2026-04-17T17:11:43.998Z</time></trkpt><trkpt lat="41.88652223501618" lon="12.335347692097502"><ele>37.0</ele><time>2026-04-17T17:11:44.998Z</time></trkpt><trkpt lat="41.88665088125869" lon="12.335310905247056"><ele>37.0</ele><time>2026-04-17T17:11:45.998Z</time></trkpt><trkpt lat="41.88678219021738" lon="12.335269436579283"><ele>37.0</ele><time>2026-04-17T17:11:47Z</time></trkpt><trkpt lat="41.88692106230101" lon="12.335226559730911"><ele>37.0</ele><time>2026-04-17T17:11:48Z</time></trkpt><trkpt lat="41.8870668390155" lon="12.335181096038763"><ele>36.66666666666667</ele><time>2026-04-17T17:11:49Z</time></trkpt><trkpt lat="41.887215861540604" lon="12.335128562829004"><ele>36.333333333333336</ele><time>2026-04-17T17:11:50Z</time></trkpt><trkpt lat="41.8873676800124" lon="12.335060638838696"><ele>36.0</ele><time>2026-04-17T17:11:51Z</time></trkpt><trkpt lat="41.88751426601636" lon="12.334979362825633"><ele>35.666666666666664</ele><time>2026-04-17T17:11:52Z</time></trkpt><trkpt lat="41.88766954440149" lon="12.334895854352583"><ele>35.33333333333333</ele><time>2026-04-17T17:11:53Z</time></trkpt><trkpt lat="41.88782859805648" lon="12.334811282433364"><ele>35.0</ele><time>2026-04-17T17:11:54Z</time></trkpt><trkpt lat="41.8879911913554" lon="12.334719435307063"><ele>36.0</ele><time>2026-04-17T17:11:55Z</time></trkpt><trkpt lat="41.88814189356239" lon="12.33463209335865"><ele>37.0</ele><time>2026-04-17T17:11:56Z</time></trkpt><trkpt lat="41.88828517548806" lon="12.334553825822471"><ele>38.0</ele><time>2026-04-17T17:11:57Z</time></trkpt><trkpt lat="41.88842840759917" lon="12.334486397586096"><ele>38.0</ele><time>2026-04-17T17:11:58Z</time></trkpt><trkpt lat="41.888577940223" lon="12.334431696497923"><ele>38.0</ele><time>2026-04-17T17:11:59Z</time></trkpt><trkpt lat="41.88873474201308" lon="12.334411449844074"><ele>38.0</ele><time>2026-04-17T17:12:00Z</time></trkpt><trkpt lat="41.888903177117506" lon="12.33441915150345"><ele>38.0</ele><time>2026-04-17T17:12:01Z</time></trkpt><trkpt lat="41.889077524641564" lon="12.334441262479395"><ele>38.0</ele><time>2026-04-17T17:12:02Z</time></trkpt><trkpt lat="41.889237264829156" lon="12.334461453968569"><ele>38.0</ele><time>2026-04-17T17:12:03Z</time></trkpt><trkpt lat="41.88939744698148" lon="12.334475028203904"><ele>37.33333333333333</ele><time>2026-04-17T17:12:04Z</time></trkpt><trkpt lat="41.88955825592615" lon="12.334486979645561"><ele>36.666666666666664</ele><time>2026-04-17T17:12:05Z</time></trkpt><trkpt lat="41.88972099751704" lon="12.334497646279237"><ele>36.0</ele><time>2026-04-17T17:12:06Z</time></trkpt><trkpt lat="41.8898849605618" lon="12.33451036511461"><ele>36.0</ele><time>2026-04-17T17:12:07Z</time></trkpt><trkpt lat="41.890055783549926" lon="12.334528591158595"><ele>36.0</ele><time>2026-04-17T17:12:08Z</time></trkpt><trkpt lat="41.89023734472139" lon="12.334548638012832"><ele>36.0</ele><time>2026-04-17T17:12:09Z</time></trkpt><trkpt lat="41.89042417632335" lon="12.334563462782524"><ele>35.666666666666664</ele><time>2026-04-17T17:12:10Z</time></trkpt><trkpt lat="41.890606279957105" lon="12.334576280627203"><ele>35.33333333333333</ele><time>2026-04-17T17:12:11Z</time></trkpt><trkpt lat="41.890783048787696" lon="12.334589663337841"><ele>35.0</ele><time>2026-04-17T17:12:12Z</time></trkpt><trkpt lat="41.890952896272644" lon="12.33460984812082"><ele>35.0</ele><time>2026-04-17T17:12:13Z</time></trkpt><trkpt lat="41.89111816081686" lon="12.334649518315162"><ele>35.0</ele><time>2026-04-17T17:12:14Z</time></trkpt><trkpt lat="41.891282869586014" lon="12.334723284637372"><ele>35.0</ele><time>2026-04-17T17:12:15Z</time></trkpt><trkpt lat="41.891446898369416" lon="12.334828362704236"><ele>35.0</ele><time>2026-04-17T17:12:16Z</time></trkpt><trkpt lat="41.891614472148326" lon="12.334949026582288"><ele>35.0</ele><time>2026-04-17T17:12:17Z</time></trkpt><trkpt lat="41.891787115314294" lon="12.335072436167348"><ele>35.0</ele><time>2026-04-17T17:12:18Z</time></trkpt><trkpt lat="41.89194952638819" lon="12.335185444181317"><ele>36.33333333333333</ele><time>2026-04-17T17:12:19Z</time></trkpt><trkpt lat="41.89210062129237" lon="12.33529061386845"><ele>37.666666666666664</ele><time>2026-04-17T17:12:20Z</time></trkpt><trkpt lat="41.89224970739697" lon="12.335398073193067"><ele>39.0</ele><time>2026-04-17T17:12:21Z</time></trkpt><trkpt lat="41.8923996012852" lon="12.33550286992981"><ele>37.666666666666664</ele><time>2026-04-17T17:12:22Z</time></trkpt><trkpt lat="41.892552395724564" lon="12.335605960275595"><ele>36.33333333333333</ele><time>2026-04-17T17:12:23Z</time></trkpt><trkpt lat="41.89270729122181" lon="12.335711128626906"><ele>35.0</ele><time>2026-04-17T17:12:24Z</time></trkpt><trkpt lat="41.892863360380964" lon="12.335818510555995"><ele>35.0</ele><time>2026-04-17T17:12:25Z</time></trkpt><trkpt lat="41.89301886197619" lon="12.335923675177055"><ele>35.0</ele><time>2026-04-17T17:12:26Z</time></trkpt><trkpt lat="41.893173939933895" lon="12.336028096381664"><ele>35.0</ele><time>2026-04-17T17:12:27Z</time></trkpt><trkpt lat="41.89332911092024" lon="12.336137421832378"><ele>35.0</ele><time>2026-04-17T17:12:28Z</time></trkpt><trkpt lat="41.893487727711644" lon="12.336243774060412"><ele>35.0</ele><time>2026-04-17T17:12:29Z</time></trkpt><trkpt lat="41.89364819529406" lon="12.336344084424526"><ele>35.0</ele><time>2026-04-17T17:12:30Z</time></trkpt><trkpt lat="41.893811648547796" lon="12.336434914566707"><ele>35.33333333333333</ele><time>2026-04-17T17:12:31Z</time></trkpt><trkpt lat="41.89398126269204" lon="12.336516965891292"><ele>35.666666666666664</ele><time>2026-04-17T17:12:32Z</time></trkpt><trkpt lat="41.894150231674985" lon="12.336585960797683"><ele>36.0</ele><time>2026-04-17T17:12:33Z</time></trkpt><trkpt lat="41.89430311665639" lon="12.33664149578472"><ele>37.333333333333336</ele><time>2026-04-17T17:12:34Z</time></trkpt><trkpt lat="41.89444954785428" lon="12.336718138259561"><ele>38.66666666666667</ele><time>2026-04-17T17:12:35Z</time></trkpt><trkpt lat="41.89459478326911" lon="12.336768835026035"><ele>40.0</ele><time>2026-04-17T17:12:35.999Z</time></trkpt><trkpt lat="41.89472599723506" lon="12.336854716793988"><ele>40.0</ele><time>2026-04-17T17:12:36.999Z</time></trkpt><trkpt lat="41.8948481973559" lon="12.336960995769603"><ele>40.0</ele><time>2026-04-17T17:12:37.999Z</time></trkpt><trkpt lat="41.89495276655877" lon="12.337096155320875"><ele>40.0</ele><time>2026-04-17T17:12:38.999Z</time></trkpt><trkpt lat="41.895045978700495" lon="12.337246626945682"><ele>40.0</ele><time>2026-04-17T17:12:39.999Z</time></trkpt><trkpt lat="41.89512702893394" lon="12.337406205149174"><ele>42.333333333333336</ele><time>2026-04-17T17:12:40.999Z</time></trkpt><trkpt lat="41.89520672681436" lon="12.337571164704658"><ele>44.666666666666664</ele><time>2026-04-17T17:12:41.999Z</time></trkpt><trkpt lat="41.89529270183833" lon="12.337743183828302"><ele>47.0</ele><time>2026-04-17T17:12:42.999Z</time></trkpt><trkpt lat="41.89537072190219" lon="12.337921186826346"><ele>45.75</ele><time>2026-04-17T17:12:43.999Z</time></trkpt><trkpt lat="41.89544075359072" lon="12.338087801702569"><ele>44.5</ele><time>2026-04-17T17:12:44.999Z</time></trkpt><trkpt lat="41.895511846071194" lon="12.338242620966296"><ele>43.25</ele><time>2026-04-17T17:12:45.999Z</time></trkpt><trkpt lat="41.8955923123016" lon="12.338377885957904"><ele>42.0</ele><time>2026-04-17T17:12:46.999Z</time></trkpt><trkpt lat="41.89569118997447" lon="12.338505069545803"><ele>42.0</ele><time>2026-04-17T17:12:47.999Z</time></trkpt><trkpt lat="41.89581227839606" lon="12.338620456113036"><ele>42.0</ele><time>2026-04-17T17:12:48.999Z</time></trkpt><trkpt lat="41.8959594113755" lon="12.338754085523075"><ele>42.0</ele><time>2026-04-17T17:12:49.999Z</time></trkpt><trkpt lat="41.89613443332727" lon="12.338904800329345"><ele>42.333333333333336</ele><time>2026-04-17T17:12:50.999Z</time></trkpt><trkpt lat="41.896305819208315" lon="12.339052266951146"><ele>42.66666666666667</ele><time>2026-04-17T17:12:51.999Z</time></trkpt><trkpt lat="41.89647679255088" lon="12.339207733922128"><ele>43.0</ele><time>2026-04-17T17:12:52.999Z</time></trkpt><trkpt lat="41.8966620987539" lon="12.339361635152988"><ele>43.333333333333336</ele><time>2026-04-17T17:12:53.999Z</time></trkpt><trkpt lat="41.896820517742455" lon="12.339531426923358"><ele>43.666666666666664</ele><time>2026-04-17T17:12:54.999Z</time></trkpt><trkpt lat="41.89697119794184" lon="12.339698096577125"><ele>44.0</ele><time>2026-04-17T17:12:55.999Z</time></trkpt><trkpt lat="41.89711712088379" lon="12.339864718009068"><ele>44.0</ele><time>2026-04-17T17:12:56.999Z</time></trkpt><trkpt lat="41.89726975297464" lon="12.34004459448193"><ele>44.0</ele><time>2026-04-17T17:12:57.999Z</time></trkpt><trkpt lat="41.897429932415" lon="12.34023071149304"><ele>44.0</ele><time>2026-04-17T17:12:58.999Z</time></trkpt><trkpt lat="41.897596626057826" lon="12.340417323448666"><ele>42.666666666666664</ele><time>2026-04-17T17:12:59.999Z</time></trkpt><trkpt lat="41.89776052777317" lon="12.340599800780247"><ele>41.333333333333336</ele><time>2026-04-17T17:13:00.999Z</time></trkpt><trkpt lat="41.89792370781589" lon="12.340779870048506"><ele>40.0</ele><time>2026-04-17T17:13:01.999Z</time></trkpt><trkpt lat="41.89809289541561" lon="12.34096441091876"><ele>40.0</ele><time>2026-04-17T17:13:02.999Z</time></trkpt><trkpt lat="41.89826801335429" lon="12.34115321711068"><ele>40.0</ele><time>2026-04-17T17:13:03.999Z</time></trkpt><trkpt lat="41.898441003119586" lon="12.34134146578773"><ele>40.0</ele><time>2026-04-17T17:13:04.999Z</time></trkpt><trkpt lat="41.89861678765521" lon="12.34153680203933"><ele>39.0</ele><time>2026-04-17T17:13:05.999Z</time></trkpt><trkpt lat="41.89878401281125" lon="12.341730551416598"><ele>38.0</ele><time>2026-04-17T17:13:06.999Z</time></trkpt><trkpt lat="41.898938317706936" lon="12.34190846044512"><ele>37.0</ele><time>2026-04-17T17:13:07.999Z</time></trkpt><trkpt lat="41.8990832360757" lon="12.342082714365565"><ele>36.66666666666667</ele><time>2026-04-17T17:13:08.999Z</time></trkpt><trkpt lat="41.89922879832407" lon="12.342249587600298"><ele>36.333333333333336</ele><time>2026-04-17T17:13:09.999Z</time></trkpt><trkpt lat="41.899371345476204" lon="12.34240521880996"><ele>36.0</ele><time>2026-04-17T17:13:10.999Z</time></trkpt><trkpt lat="41.89951872220997" lon="12.34255569997269"><ele>37.0</ele><time>2026-04-17T17:13:11.999Z</time></trkpt><trkpt lat="41.899668669596636" lon="12.342680247145474"><ele>38.0</ele><time>2026-04-17T17:13:12.999Z</time></trkpt><trkpt lat="41.89983699781806" lon="12.342798207540703"><ele>39.0</ele><time>2026-04-17T17:13:13.999Z</time></trkpt><trkpt lat="41.900015142908494" lon="12.342909626314079"><ele>38.333333333333336</ele><time>2026-04-17T17:13:14.998Z</time></trkpt><trkpt lat="41.900204195529106" lon="12.343017165915276"><ele>37.66666666666667</ele><time>2026-04-17T17:13:15.998Z</time></trkpt><trkpt lat="41.900393821009004" lon="12.343125045960345"><ele>37.0</ele><time>2026-04-17T17:13:16.998Z</time></trkpt><trkpt lat="41.900588456825126" lon="12.343236792106744"><ele>37.0</ele><time>2026-04-17T17:13:17.998Z</time></trkpt><trkpt lat="41.900772450187326" lon="12.34333779898213"><ele>37.0</ele><time>2026-04-17T17:13:18.998Z</time></trkpt><trkpt lat="41.90095438176785" lon="12.343440609653138"><ele>37.0</ele><time>2026-04-17T17:13:19.998Z</time></trkpt><trkpt lat="41.90113819976432" lon="12.343549388948585"><ele>36.333333333333336</ele><time>2026-04-17T17:13:20.998Z</time></trkpt><trkpt lat="41.90131845047047" lon="12.343661015741226"><ele>35.666666666666664</ele><time>2026-04-17T17:13:21.998Z</time></trkpt><trkpt lat="41.901485106231185" lon="12.34377549417037"><ele>35.0</ele><time>2026-04-17T17:13:22.998Z</time></trkpt><trkpt lat="41.90164317985356" lon="12.343905966063195"><ele>37.33333333333333</ele><time>2026-04-17T17:13:23.998Z</time></trkpt><trkpt lat="41.90179767222008" lon="12.34406137037308"><ele>39.666666666666664</ele><time>2026-04-17T17:13:24.998Z</time></trkpt><trkpt lat="41.90194744610427" lon="12.34423782198162"><ele>42.0</ele><time>2026-04-17T17:13:25.998Z</time></trkpt><trkpt lat="41.90209444303558" lon="12.344415267321079"><ele>42.0</ele><time>2026-04-17T17:13:26.998Z</time></trkpt><trkpt lat="41.902238872123746" lon="12.344587114151542"><ele>42.0</ele><time>2026-04-17T17:13:27.998Z</time></trkpt><trkpt lat="41.902365100783875" lon="12.344748107713187"><ele>42.0</ele><time>2026-04-17T17:13:28.998Z</time></trkpt><trkpt lat="41.90253423295784" lon="12.34489696270243"><ele>41.666666666666664</ele><time>2026-04-17T17:13:29.998Z</time></trkpt><trkpt lat="41.90267788512477" lon="12.345049604427336"><ele>41.33333333333333</ele><time>2026-04-17T17:13:30.998Z</time></trkpt><trkpt lat="41.90282608049552" lon="12.345205009848586"><ele>41.0</ele><time>2026-04-17T17:13:31.998Z</time></trkpt><trkpt lat="41.90297605367115" lon="12.345368043605065"><ele>41.0</ele><time>2026-04-17T17:13:32.998Z</time></trkpt><trkpt lat="41.90311102144534" lon="12.345515133219"><ele>41.0</ele><time>2026-04-17T17:13:33.998Z</time></trkpt><trkpt lat="41.903242725572866" lon="12.345659692974184"><ele>41.0</ele><time>2026-04-17T17:13:34.998Z</time></trkpt><trkpt lat="41.903379539995164" lon="12.345810756197194"><ele>44.666666666666664</ele><time>2026-04-17T17:13:35.998Z</time></trkpt><trkpt lat="41.903521465682644" lon="12.345964620426837"><ele>48.33333333333333</ele><time>2026-04-17T17:13:36.998Z</time></trkpt><trkpt lat="41.90366511932305" lon="12.346120278099443"><ele>52.0</ele><time>2026-04-17T17:13:37.998Z</time></trkpt><trkpt lat="41.90379770446263" lon="12.346265148113602"><ele>49.33333333333333</ele><time>2026-04-17T17:13:38.998Z</time></trkpt><trkpt lat="41.90392307982224" lon="12.346404637212002"><ele>46.666666666666664</ele><time>2026-04-17T17:13:39.998Z</time></trkpt><trkpt lat="41.90403834875211" lon="12.346530187321624"><ele>44.0</ele><time>2026-04-17T17:13:40.998Z</time></trkpt><trkpt lat="41.90415264763921" lon="12.346648043249354"><ele>44.0</ele><time>2026-04-17T17:13:41.998Z</time></trkpt><trkpt lat="41.90427242745609" lon="12.346760343827135"><ele>44.0</ele><time>2026-04-17T17:13:42.998Z</time></trkpt><trkpt lat="41.904399078972375" lon="12.34686376018094"><ele>44.0</ele><time>2026-04-17T17:13:43.998Z</time></trkpt><trkpt lat="41.90453717249074" lon="12.346956709271508"><ele>44.0</ele><time>2026-04-17T17:13:44.998Z</time></trkpt><trkpt lat="41.90468822850185" lon="12.347002733444242"><ele>44.0</ele><time>2026-04-17T17:13:45.998Z</time></trkpt><trkpt lat="41.90485962255448" lon="12.347035786016027"><ele>44.0</ele><time>2026-04-17T17:13:46.998Z</time></trkpt><trkpt lat="41.90503380378556" lon="12.347051121296099"><ele>44.0</ele><time>2026-04-17T17:13:47.998Z</time></trkpt><trkpt lat="41.905203659190235" lon="12.347062576302365"><ele>42.0</ele><time>2026-04-17T17:13:48.998Z</time></trkpt><trkpt lat="41.90535379994548" lon="12.347072184997884"><ele>40.0</ele><time>2026-04-17T17:13:49.998Z</time></trkpt><trkpt lat="41.90550240331106" lon="12.34708908961758"><ele>38.0</ele><time>2026-04-17T17:13:50.998Z</time></trkpt><trkpt lat="41.90564939936809" lon="12.347132151589488"><ele>38.0</ele><time>2026-04-17T17:13:51.998Z</time></trkpt><trkpt lat="41.905785523365005" lon="12.347188824706995"><ele>38.0</ele><time>2026-04-17T17:13:53Z</time></trkpt><trkpt lat="41.90590702475332" lon="12.347271401899503"><ele>38.0</ele><time>2026-04-17T17:13:54Z</time></trkpt><trkpt lat="41.906021282114146" lon="12.347385244311527"><ele>38.0</ele><time>2026-04-17T17:13:55Z</time></trkpt><trkpt lat="41.90613553618329" lon="12.347529738533837"><ele>38.33333333333333</ele><time>2026-04-17T17:13:56Z</time></trkpt><trkpt lat="41.90624983940052" lon="12.347690039457325"><ele>38.666666666666664</ele><time>2026-04-17T17:13:57Z</time></trkpt><trkpt lat="41.90636790356324" lon="12.347862870794778"><ele>39.0</ele><time>2026-04-17T17:13:58Z</time></trkpt><trkpt lat="41.9064789524964" lon="12.34802086056431"><ele>39.0</ele><time>2026-04-17T17:13:59Z</time></trkpt><trkpt lat="41.90658275397056" lon="12.348159009320234"><ele>39.0</ele><time>2026-04-17T17:14:00Z</time></trkpt><trkpt lat="41.90668497321949" lon="12.348294299265003"><ele>39.0</ele><time>2026-04-17T17:14:01Z</time></trkpt><trkpt lat="41.90678354718433" lon="12.348424132741222"><ele>39.0</ele><time>2026-04-17T17:14:02Z</time></trkpt><trkpt lat="41.90687936877492" lon="12.348554195706217"><ele>39.75</ele><time>2026-04-17T17:14:03Z</time></trkpt><trkpt lat="41.906973092568855" lon="12.348684180007195"><ele>40.5</ele><time>2026-04-17T17:14:04Z</time></trkpt><trkpt lat="41.90707207692504" lon="12.34880658811649"><ele>41.25</ele><time>2026-04-17T17:14:05Z</time></trkpt><trkpt lat="41.90716604504626" lon="12.348932713972074"><ele>42.0</ele><time>2026-04-17T17:14:06Z</time></trkpt><trkpt lat="41.907247650772774" lon="12.3490319650593"><ele>42.0</ele><time>2026-04-17T17:14:07Z</time></trkpt><trkpt lat="41.907330801300695" lon="12.349095154670861"><ele>42.0</ele><time>2026-04-17T17:14:08Z</time></trkpt><trkpt lat="41.90743317552097" lon="12.349145451823414"><ele>42.0</ele><time>2026-04-17T17:14:09Z</time></trkpt><trkpt lat="41.90754353546642" lon="12.349167948787303"><ele>42.0</ele><time>2026-04-17T17:14:10Z</time></trkpt><trkpt lat="41.90766809336775" lon="12.349196697364885"><ele>42.0</ele><time>2026-04-17T17:14:11Z</time></trkpt><trkpt lat="41.90780081210273" lon="12.349203928828326"><ele>42.25</ele><time>2026-04-17T17:14:12Z</time></trkpt><trkpt lat="41.90793591504578" lon="12.349204059860323"><ele>42.5</ele><time>2026-04-17T17:14:13Z</time></trkpt><trkpt lat="41.90807513995496" lon="12.349192085235602"><ele>42.75</ele><time>2026-04-17T17:14:14Z</time></trkpt><trkpt lat="41.908199100543406" lon="12.349179230545872"><ele>43.0</ele><time>2026-04-17T17:14:15Z</time></trkpt><trkpt lat="41.908316979529225" lon="12.349172640738816"><ele>42.75</ele><time>2026-04-17T17:14:16Z</time></trkpt><trkpt lat="41.908436670986674" lon="12.349168099188828"><ele>42.5</ele><time>2026-04-17T17:14:17Z</time></trkpt><trkpt lat="41.90855924744897" lon="12.349160178341977"><ele>42.25</ele><time>2026-04-17T17:14:18Z</time></trkpt><trkpt lat="41.908690962759856" lon="12.349155837045132"><ele>42.0</ele><time>2026-04-17T17:14:19Z</time></trkpt><trkpt lat="41.90882604553154" lon="12.34915826295798"><ele>42.0</ele><time>2026-04-17T17:14:20Z</time></trkpt><trkpt lat="41.908947277324074" lon="12.349165687755006"><ele>42.0</ele><time>2026-04-17T17:14:21Z</time></trkpt><trkpt lat="41.909047783882194" lon="12.34917646203989"><ele>42.0</ele><time>2026-04-17T17:14:22Z</time></trkpt><trkpt lat="41.909138852302775" lon="12.349184974289225"><ele>42.0</ele><time>2026-04-17T17:14:23Z</time></trkpt><trkpt lat="41.90922527137673" lon="12.349197681765611"><ele>42.0</ele><time>2026-04-17T17:14:24Z</time></trkpt><trkpt lat="41.90930858547759" lon="12.349212232103255"><ele>42.2</ele><time>2026-04-17T17:14:25Z</time></trkpt><trkpt lat="41.90938341914731" lon="12.349224783035828"><ele>42.400000000000006</ele><time>2026-04-17T17:14:26Z</time></trkpt><trkpt lat="41.90950698812092" lon="12.349233503636048"><ele>42.599999999999994</ele><time>2026-04-17T17:14:28Z</time></trkpt><trkpt lat="41.9096340574228" lon="12.3492622333849"><ele>42.8</ele><time>2026-04-17T17:14:30Z</time></trkpt><trkpt lat="41.909705842827535" lon="12.349275959913754"><ele>43.0</ele><time>2026-04-17T17:14:31Z</time></trkpt><trkpt lat="41.90980072695138" lon="12.349299621148027"><ele>43.00000000000001</ele><time>2026-04-17T17:14:32Z</time></trkpt><trkpt lat="41.90989448842277" lon="12.349329239941666"><ele>43.0</ele><time>2026-04-17T17:14:33Z</time></trkpt><trkpt lat="41.90996431674928" lon="12.349355041032599"><ele>43.0</ele><time>2026-04-17T17:14:34Z</time></trkpt><trkpt lat="41.91002705787901" lon="12.349380056160975"><ele>43.0</ele><time>2026-04-17T17:14:35Z</time></trkpt><trkpt lat="41.9100867863884" lon="12.349412232628843"><ele>43.0</ele><time>2026-04-17T17:14:36Z</time></trkpt><trkpt lat="41.91014753671837" lon="12.349453121065997"><ele>43.00000000000001</ele><time>2026-04-17T17:14:37Z</time></trkpt><trkpt lat="41.910207787848165" lon="12.349495906652868"><ele>43.0</ele><time>2026-04-17T17:14:38Z</time></trkpt><trkpt lat="41.910268605334444" lon="12.349555978584547"><ele>43.66666666666667</ele><time>2026-04-17T17:14:39Z</time></trkpt><trkpt lat="41.91033246376049" lon="12.349637092714147"><ele>44.333333333333336</ele><time>2026-04-17T17:14:40Z</time></trkpt><trkpt lat="41.910390936063905" lon="12.349724930502475"><ele>45.0</ele><time>2026-04-17T17:14:41Z</time></trkpt><trkpt lat="41.910448250628626" lon="12.349800854595658"><ele>45.666666666666664</ele><time>2026-04-17T17:14:41.999Z</time></trkpt><trkpt lat="41.91050198195219" lon="12.349877359745092"><ele>46.33333333333333</ele><time>2026-04-17T17:14:42.999Z</time></trkpt><trkpt lat="41.91055380422755" lon="12.349961613680406"><ele>47.0</ele><time>2026-04-17T17:14:43.999Z</time></trkpt><trkpt lat="41.91061055455676" lon="12.350046121986024"><ele>47.0</ele><time>2026-04-17T17:14:44.999Z</time></trkpt><trkpt lat="41.910673032545354" lon="12.350131479543226"><ele>47.0</ele><time>2026-04-17T17:14:45.999Z</time></trkpt><trkpt lat="41.910728129814835" lon="12.350219796095184"><ele>47.0</ele><time>2026-04-17T17:14:46.999Z</time></trkpt><trkpt lat="41.91079118863092" lon="12.350315659448853"><ele>47.0</ele><time>2026-04-17T17:14:47.999Z</time></trkpt><trkpt lat="41.910857195171594" lon="12.350406109154708"><ele>47.0</ele><time>2026-04-17T17:14:48.999Z</time></trkpt><trkpt lat="41.910923018264874" lon="12.35049827831649"><ele>46.2</ele><time>2026-04-17T17:14:49.999Z</time></trkpt><trkpt lat="41.91099660198801" lon="12.350597195549463"><ele>45.400000000000006</ele><time>2026-04-17T17:14:50.999Z</time></trkpt><trkpt lat="41.911073608378096" lon="12.350684001506979"><ele>44.599999999999994</ele><time>2026-04-17T17:14:51.999Z</time></trkpt><trkpt lat="41.91114890921687" lon="12.350776816474736"><ele>43.8</ele><time>2026-04-17T17:14:52.999Z</time></trkpt><trkpt lat="41.911230812210235" lon="12.350836783396513"><ele>43.0</ele><time>2026-04-17T17:14:53.999Z</time></trkpt><trkpt lat="41.911318729683465" lon="12.350867024686371"><ele>43.00000000000001</ele><time>2026-04-17T17:14:54.999Z</time></trkpt><trkpt lat="41.91138826350554" lon="12.350899692201379"><ele>43.0</ele><time>2026-04-17T17:14:55.999Z</time></trkpt><trkpt lat="41.91146569354785" lon="12.350927541792608"><ele>43.0</ele><time>2026-04-17T17:14:56.999Z</time></trkpt><trkpt lat="41.911533110753844" lon="12.350980491957033"><ele>43.0</ele><time>2026-04-17T17:14:57.999Z</time></trkpt><trkpt lat="41.91160559708404" lon="12.351012385943267"><ele>43.0</ele><time>2026-04-17T17:14:58.999Z</time></trkpt><trkpt lat="41.91166661199307" lon="12.351039232503295"><ele>43.00000000000001</ele><time>2026-04-17T17:14:59.999Z</time></trkpt><trkpt lat="41.91172668747021" lon="12.351065665708946"><ele>43.0</ele><time>2026-04-17T17:15:00.999Z</time></trkpt><trkpt lat="41.911852552335105" lon="12.351118657854629"><ele>42.66666666666667</ele><time>2026-04-17T17:15:02.999Z</time></trkpt><trkpt lat="41.91191950660007" lon="12.351147075738321"><ele>42.333333333333336</ele><time>2026-04-17T17:15:03.999Z</time></trkpt><trkpt lat="41.911992602742636" lon="12.351155593075575"><ele>42.0</ele><time>2026-04-17T17:15:04.999Z</time></trkpt><trkpt lat="41.91206416165181" lon="12.351188791249857"><ele>41.666666666666664</ele><time>2026-04-17T17:15:05.999Z</time></trkpt><trkpt lat="41.91213636620273" lon="12.351219564619008"><ele>41.33333333333333</ele><time>2026-04-17T17:15:06.999Z</time></trkpt><trkpt lat="41.91221419443945" lon="12.35125375248998"><ele>41.0</ele><time>2026-04-17T17:15:07.999Z</time></trkpt><trkpt lat="41.912294651943256" lon="12.3512857519338"><ele>41.0</ele><time>2026-04-17T17:15:08.999Z</time></trkpt><trkpt lat="41.912379822733705" lon="12.351325365817972"><ele>41.0</ele><time>2026-04-17T17:15:09.999Z</time></trkpt><trkpt lat="41.9124453238194" lon="12.351352263893618"><ele>41.0</ele><time>2026-04-17T17:15:10.999Z</time></trkpt><trkpt lat="41.91251779643925" lon="12.351378832079815"><ele>41.0</ele><time>2026-04-17T17:15:11.999Z</time></trkpt><trkpt lat="41.91258970610451" lon="12.351406454486911"><ele>41.0</ele><time>2026-04-17T17:15:12.999Z</time></trkpt><trkpt lat="41.912666364004764" lon="12.351438038920412"><ele>41.0</ele><time>2026-04-17T17:15:13.999Z</time></trkpt><trkpt lat="41.91274945248657" lon="12.351479949245421"><ele>42.25</ele><time>2026-04-17T17:15:14.999Z</time></trkpt><trkpt lat="41.91284633559662" lon="12.351516699819145"><ele>43.5</ele><time>2026-04-17T17:15:15.999Z</time></trkpt><trkpt lat="41.912947789118874" lon="12.351586074908322"><ele>44.75</ele><time>2026-04-17T17:15:16.999Z</time></trkpt><trkpt lat="41.91306158511306" lon="12.351634967128934"><ele>46.0</ele><time>2026-04-17T17:15:17.999Z</time></trkpt><trkpt lat="41.9131752523169" lon="12.35168296317093"><ele>46.0</ele><time>2026-04-17T17:15:18.999Z</time></trkpt><trkpt lat="41.91329090904139" lon="12.35173179929053"><ele>46.0</ele><time>2026-04-17T17:15:19.998Z</time></trkpt><trkpt lat="41.91340797932139" lon="12.351781232283393"><ele>46.0</ele><time>2026-04-17T17:15:20.998Z</time></trkpt><trkpt lat="41.913525476948855" lon="12.35180509878309"><ele>46.0</ele><time>2026-04-17T17:15:21.998Z</time></trkpt><trkpt lat="41.91363708933999" lon="12.351848926939656"><ele>46.0</ele><time>2026-04-17T17:15:22.998Z</time></trkpt><trkpt lat="41.913749222240575" lon="12.3518847867997"><ele>46.0</ele><time>2026-04-17T17:15:23.998Z</time></trkpt><trkpt lat="41.91386252876044" lon="12.351901173591882"><ele>46.0</ele><time>2026-04-17T17:15:24.998Z</time></trkpt><trkpt lat="41.913975358004855" lon="12.351913625946269"><ele>46.0</ele><time>2026-04-17T17:15:25.998Z</time></trkpt><trkpt lat="41.91409052080978" lon="12.35192183374939"><ele>46.0</ele><time>2026-04-17T17:15:26.998Z</time></trkpt><trkpt lat="41.914201298110555" lon="12.351926187576565"><ele>46.0</ele><time>2026-04-17T17:15:27.998Z</time></trkpt><trkpt lat="41.914296774651895" lon="12.351930456769196"><ele>46.0</ele><time>2026-04-17T17:15:28.998Z</time></trkpt><trkpt lat="41.91439550998048" lon="12.351938866215148"><ele>46.0</ele><time>2026-04-17T17:15:29.998Z</time></trkpt><trkpt lat="41.91448243296117" lon="12.351944453916946"><ele>46.0</ele><time>2026-04-17T17:15:30.998Z</time></trkpt><trkpt lat="41.91456275124009" lon="12.351952251663839"><ele>46.0</ele><time>2026-04-17T17:15:31.998Z</time></trkpt><trkpt lat="41.91463753656534" lon="12.351960663117318"><ele>46.0</ele><time>2026-04-17T17:15:32.998Z</time></trkpt><trkpt lat="41.91470553578925" lon="12.351967534176621"><ele>46.0</ele><time>2026-04-17T17:15:33.998Z</time></trkpt><trkpt lat="41.914773889510826" lon="12.352019949923468"><ele>46.0</ele><time>2026-04-17T17:15:35.998Z</time></trkpt><trkpt lat="41.91479524513332" lon="12.352112128355678"><ele>46.0</ele><time>2026-04-17T17:15:37.998Z</time></trkpt><trkpt lat="41.91475328142727" lon="12.352203035799754"><ele>46.0</ele><time>2026-04-17T17:15:40.998Z</time></trkpt><trkpt lat="41.914832431079525" lon="12.352225929355798"><ele>46.0</ele><time>2026-04-17T17:15:41.998Z</time></trkpt><trkpt lat="41.91500645501172" lon="12.35204815259281"><ele>46.0</ele><time>2026-04-17T17:20:57.999Z</time></trkpt><trkpt lat="41.91507465399222" lon="12.351985804593644"><ele>46.0</ele><time>2026-04-17T17:21:00.999Z</time></trkpt><trkpt lat="41.91519933884689" lon="12.351989730550567"><ele>46.0</ele><time>2026-04-17T17:21:02.999Z</time></trkpt><trkpt lat="41.91527821309023" lon="12.351998274055346"><ele>46.16666666666667</ele><time>2026-04-17T17:21:03.999Z</time></trkpt><trkpt lat="41.91535850374468" lon="12.352010226383223"><ele>46.333333333333336</ele><time>2026-04-17T17:21:04.999Z</time></trkpt><trkpt lat="41.91544307705965" lon="12.352014679014955"><ele>46.5</ele><time>2026-04-17T17:21:05.999Z</time></trkpt><trkpt lat="41.91552312685286" lon="12.352023672488022"><ele>46.666666666666664</ele><time>2026-04-17T17:21:06.999Z</time></trkpt><trkpt lat="41.91560854965942" lon="12.352033524492905"><ele>46.83333333333333</ele><time>2026-04-17T17:21:07.999Z</time></trkpt><trkpt lat="41.91570891589155" lon="12.35203603234834"><ele>47.0</ele><time>2026-04-17T17:21:08.999Z</time></trkpt><trkpt lat="41.915797269592495" lon="12.352042656073083"><ele>47.0</ele><time>2026-04-17T17:21:09.999Z</time></trkpt><trkpt lat="41.91588027448953" lon="12.352051259355823"><ele>47.0</ele><time>2026-04-17T17:21:10.999Z</time></trkpt><trkpt lat="41.91596156606739" lon="12.352066537764838"><ele>47.0</ele><time>2026-04-17T17:21:11.999Z</time></trkpt><trkpt lat="41.916035132301005" lon="12.352088883994123"><ele>47.0</ele><time>2026-04-17T17:21:12.999Z</time></trkpt><trkpt lat="41.91611233217294" lon="12.352117758827937"><ele>47.0</ele><time>2026-04-17T17:21:13.999Z</time></trkpt><trkpt lat="41.916181261258394" lon="12.35215561448809"><ele>47.0</ele><time>2026-04-17T17:21:14.999Z</time></trkpt><trkpt lat="41.91625135968629" lon="12.352199317637458"><ele>46.0</ele><time>2026-04-17T17:21:15.999Z</time></trkpt><trkpt lat="41.9163270952919" lon="12.352240016988357"><ele>45.0</ele><time>2026-04-17T17:21:16.999Z</time></trkpt><trkpt lat="41.916413145636085" lon="12.35227764771759"><ele>44.0</ele><time>2026-04-17T17:21:17.999Z</time></trkpt><trkpt lat="41.91650814557016" lon="12.352325083154568"><ele>43.0</ele><time>2026-04-17T17:21:18.999Z</time></trkpt><trkpt lat="41.91660973462607" lon="12.352382424730216"><ele>42.0</ele><time>2026-04-17T17:21:19.999Z</time></trkpt><trkpt lat="41.916705758621134" lon="12.352436798641465"><ele>42.0</ele><time>2026-04-17T17:21:20.999Z</time></trkpt><trkpt lat="41.916803701794606" lon="12.35249555294219"><ele>42.0</ele><time>2026-04-17T17:21:21.999Z</time></trkpt><trkpt lat="41.91689941268245" lon="12.3525570178399"><ele>42.0</ele><time>2026-04-17T17:21:22.998Z</time></trkpt><trkpt lat="41.916998686309434" lon="12.352613981030622"><ele>42.0</ele><time>2026-04-17T17:21:23.998Z</time></trkpt><trkpt lat="41.91710216107706" lon="12.352667675956633"><ele>42.0</ele><time>2026-04-17T17:21:24.998Z</time></trkpt><trkpt lat="41.917207722343484" lon="12.352728146704928"><ele>42.0</ele><time>2026-04-17T17:21:25.998Z</time></trkpt><trkpt lat="41.917319005088615" lon="12.35279180544125"><ele>42.0</ele><time>2026-04-17T17:21:26.998Z</time></trkpt><trkpt lat="41.917422695256" lon="12.352848470142812"><ele>42.0</ele><time>2026-04-17T17:21:27.998Z</time></trkpt><trkpt lat="41.917525256375356" lon="12.352907897523764"><ele>42.0</ele><time>2026-04-17T17:21:28.998Z</time></trkpt><trkpt lat="41.91763505688829" lon="12.352964797613122"><ele>42.0</ele><time>2026-04-17T17:21:29.998Z</time></trkpt><trkpt lat="41.91774287086962" lon="12.35302196796552"><ele>42.0</ele><time>2026-04-17T17:21:30.998Z</time></trkpt><trkpt lat="41.91784340719066" lon="12.353101015247962"><ele>42.0</ele><time>2026-04-17T17:21:31.998Z</time></trkpt><trkpt lat="41.917949498784765" lon="12.353136228316462"><ele>42.0</ele><time>2026-04-17T17:21:32.998Z</time></trkpt><trkpt lat="41.918055355932914" lon="12.353202076167586"><ele>42.0</ele><time>2026-04-17T17:21:33.998Z</time></trkpt><trkpt lat="41.91816267680298" lon="12.353270724367063"><ele>42.0</ele><time>2026-04-17T17:21:34.998Z</time></trkpt><trkpt lat="41.91826651566454" lon="12.353332818377135"><ele>42.0</ele><time>2026-04-17T17:21:35.998Z</time></trkpt><trkpt lat="41.91837010133524" lon="12.353387732880476"><ele>42.0</ele><time>2026-04-17T17:21:36.998Z</time></trkpt><trkpt lat="41.91847758091551" lon="12.353448982886388"><ele>42.0</ele><time>2026-04-17T17:21:37.998Z</time></trkpt><trkpt lat="41.9185849968309" lon="12.3535084164958"><ele>42.0</ele><time>2026-04-17T17:21:38.998Z</time></trkpt><trkpt lat="41.91869151580558" lon="12.353567398209863"><ele>42.0</ele><time>2026-04-17T17:21:39.998Z</time></trkpt><trkpt lat="41.918801808695406" lon="12.35362991683771"><ele>42.0</ele><time>2026-04-17T17:21:40.998Z</time></trkpt><trkpt lat="41.91891850138576" lon="12.35369762630177"><ele>42.0</ele><time>2026-04-17T17:21:41.998Z</time></trkpt><trkpt lat="41.9190343158863" lon="12.35376358964529"><ele>42.0</ele><time>2026-04-17T17:21:42.998Z</time></trkpt><trkpt lat="41.9191454494436" lon="12.353822492339543"><ele>42.0</ele><time>2026-04-17T17:21:43.998Z</time></trkpt><trkpt lat="41.91924437118999" lon="12.353882476213121"><ele>42.0</ele><time>2026-04-17T17:21:44.998Z</time></trkpt><trkpt lat="41.919345800139205" lon="12.353933149731812"><ele>42.6</ele><time>2026-04-17T17:21:45.998Z</time></trkpt><trkpt lat="41.919432083716075" lon="12.353984937903123"><ele>43.2</ele><time>2026-04-17T17:21:46.998Z</time></trkpt><trkpt lat="41.91952428321846" lon="12.354026049498263"><ele>43.8</ele><time>2026-04-17T17:21:47.998Z</time></trkpt><trkpt lat="41.91961658384118" lon="12.35406934735928"><ele>44.4</ele><time>2026-04-17T17:21:48.998Z</time></trkpt><trkpt lat="41.9197107581433" lon="12.35411109245742"><ele>45.0</ele><time>2026-04-17T17:21:49.998Z</time></trkpt><trkpt lat="41.919801463474705" lon="12.35417053215717"><ele>45.0</ele><time>2026-04-17T17:21:50.998Z</time></trkpt><trkpt lat="41.91989590723003" lon="12.354249770921765"><ele>45.0</ele><time>2026-04-17T17:21:51.998Z</time></trkpt><trkpt lat="41.91998700896696" lon="12.354337169409396"><ele>45.0</ele><time>2026-04-17T17:21:52.998Z</time></trkpt><trkpt lat="41.920079582994326" lon="12.354420095274207"><ele>45.0</ele><time>2026-04-17T17:21:53.998Z</time></trkpt><trkpt lat="41.92015415198711" lon="12.354502014925966"><ele>45.0</ele><time>2026-04-17T17:21:54.998Z</time></trkpt><trkpt lat="41.92022790335543" lon="12.354592011209638"><ele>44.666666666666664</ele><time>2026-04-17T17:21:55.998Z</time></trkpt><trkpt lat="41.92028661522965" lon="12.354669999574035"><ele>44.333333333333336</ele><time>2026-04-17T17:21:56.998Z</time></trkpt><trkpt lat="41.9203370090756" lon="12.354737389119185"><ele>44.0</ele><time>2026-04-17T17:21:57.998Z</time></trkpt><trkpt lat="41.92037370897889" lon="12.354807715089441"><ele>43.66666666666667</ele><time>2026-04-17T17:21:58.998Z</time></trkpt><trkpt lat="41.92040283020449" lon="12.354892253811473"><ele>43.333333333333336</ele><time>2026-04-17T17:21:59.998Z</time></trkpt><trkpt lat="41.92041165911927" lon="12.354994724306515"><ele>43.0</ele><time>2026-04-17T17:22:00.997Z</time></trkpt><trkpt lat="41.920395535619136" lon="12.355111283592008"><ele>43.0</ele><time>2026-04-17T17:22:01.997Z</time></trkpt><trkpt lat="41.92040777804551" lon="12.355257175426303"><ele>43.0</ele><time>2026-04-17T17:22:02.997Z</time></trkpt><trkpt lat="41.92040134241555" lon="12.355400806874346"><ele>43.0</ele><time>2026-04-17T17:22:03.997Z</time></trkpt><trkpt lat="41.92039387596538" lon="12.355535797795769"><ele>43.0</ele><time>2026-04-17T17:22:04.997Z</time></trkpt><trkpt lat="41.92040022710185" lon="12.35566430931593"><ele>43.0</ele><time>2026-04-17T17:22:05.997Z</time></trkpt><trkpt lat="41.92040578208452" lon="12.35579281132794"><ele>43.0</ele><time>2026-04-17T17:22:06.997Z</time></trkpt><trkpt lat="41.92040752614329" lon="12.355921684966585"><ele>43.0</ele><time>2026-04-17T17:22:07.997Z</time></trkpt><trkpt lat="41.920404392127246" lon="12.356058668817807"><ele>43.0</ele><time>2026-04-17T17:22:08.997Z</time></trkpt><trkpt lat="41.92039969112364" lon="12.356206104339714"><ele>43.0</ele><time>2026-04-17T17:22:09.997Z</time></trkpt><trkpt lat="41.92038488603983" lon="12.356354316287408"><ele>43.0</ele><time>2026-04-17T17:22:10.997Z</time></trkpt><trkpt lat="41.92037342725925" lon="12.356506980375528"><ele>42.599999999999994</ele><time>2026-04-17T17:22:11.997Z</time></trkpt><trkpt lat="41.92036114767061" lon="12.356646024222842"><ele>42.199999999999996</ele><time>2026-04-17T17:22:12.997Z</time></trkpt><trkpt lat="41.92034884489754" lon="12.356773162645132"><ele>41.8</ele><time>2026-04-17T17:22:13.997Z</time></trkpt><trkpt lat="41.92033918864612" lon="12.356912151150842"><ele>41.4</ele><time>2026-04-17T17:22:14.997Z</time></trkpt><trkpt lat="41.920327731350135" lon="12.357038931914044"><ele>41.0</ele><time>2026-04-17T17:22:15.997Z</time></trkpt><trkpt lat="41.9203195896593" lon="12.357145617216002"><ele>41.0</ele><time>2026-04-17T17:22:16.997Z</time></trkpt><trkpt lat="41.92031103136713" lon="12.357243270301515"><ele>41.0</ele><time>2026-04-17T17:22:17.997Z</time></trkpt><trkpt lat="41.92029924871474" lon="12.357337939732876"><ele>41.0</ele><time>2026-04-17T17:22:19Z</time></trkpt><trkpt lat="41.92026941594386" lon="12.357462616686844"><ele>41.0</ele><time>2026-04-17T17:22:21Z</time></trkpt><trkpt lat="41.92019528752762" lon="12.357552220097379"><ele>41.0</ele><time>2026-04-17T17:22:23Z</time></trkpt><trkpt lat="41.92013384085145" lon="12.357583704713418"><ele>41.0</ele><time>2026-04-17T17:22:24Z</time></trkpt><trkpt lat="41.92006374191783" lon="12.35759840779915"><ele>41.199999999999996</ele><time>2026-04-17T17:22:25Z</time></trkpt><trkpt lat="41.919982638817146" lon="12.357618034581833"><ele>41.4</ele><time>2026-04-17T17:22:26Z</time></trkpt><trkpt lat="41.91988253385315" lon="12.3576529606498"><ele>41.6</ele><time>2026-04-17T17:22:27Z</time></trkpt><trkpt lat="41.9197729858449" lon="12.35769884254606"><ele>41.8</ele><time>2026-04-17T17:22:28Z</time></trkpt><trkpt lat="41.91964842041281" lon="12.357748266480854"><ele>42.0</ele><time>2026-04-17T17:22:29Z</time></trkpt><trkpt lat="41.91952921440522" lon="12.357796215073446"><ele>42.0</ele><time>2026-04-17T17:22:30Z</time></trkpt><trkpt lat="41.91941644560674" lon="12.357837128131345"><ele>42.0</ele><time>2026-04-17T17:22:31Z</time></trkpt><trkpt lat="41.919311355562556" lon="12.357871547874833"><ele>42.0</ele><time>2026-04-17T17:22:32Z</time></trkpt><trkpt lat="41.919228936998394" lon="12.35790861367253"><ele>42.0</ele><time>2026-04-17T17:22:33Z</time></trkpt><trkpt lat="41.91915030195786" lon="12.35794784406297"><ele>42.0</ele><time>2026-04-17T17:22:34Z</time></trkpt><trkpt lat="41.91906725590551" lon="12.357972665948028"><ele>42.25</ele><time>2026-04-17T17:22:35Z</time></trkpt><trkpt lat="41.91897874993895" lon="12.358004181435815"><ele>42.5</ele><time>2026-04-17T17:22:36Z</time></trkpt><trkpt lat="41.918865570821595" lon="12.358047467406001"><ele>42.75</ele><time>2026-04-17T17:22:37Z</time></trkpt><trkpt lat="41.91874880399737" lon="12.358091628594803"><ele>43.0</ele><time>2026-04-17T17:22:38Z</time></trkpt><trkpt lat="41.918614578663586" lon="12.358137045430032"><ele>42.75</ele><time>2026-04-17T17:22:39Z</time></trkpt><trkpt lat="41.91847926583528" lon="12.358190094177248"><ele>42.5</ele><time>2026-04-17T17:22:40Z</time></trkpt><trkpt lat="41.91833761436906" lon="12.35824225469693"><ele>42.25</ele><time>2026-04-17T17:22:41Z</time></trkpt><trkpt lat="41.918213036637916" lon="12.358292031594237"><ele>42.0</ele><time>2026-04-17T17:22:42Z</time></trkpt><trkpt lat="41.91809764041029" lon="12.358330618409713"><ele>42.0</ele><time>2026-04-17T17:22:43Z</time></trkpt><trkpt lat="41.91797476828106" lon="12.358364712055973"><ele>42.0</ele><time>2026-04-17T17:22:44Z</time></trkpt><trkpt lat="41.91784601662342" lon="12.35839311441768"><ele>42.0</ele><time>2026-04-17T17:22:45Z</time></trkpt><trkpt lat="41.91771637712062" lon="12.358418963242398"><ele>42.0</ele><time>2026-04-17T17:22:46Z</time></trkpt><trkpt lat="41.917574107685105" lon="12.35844957045985"><ele>41.5</ele><time>2026-04-17T17:22:46.999Z</time></trkpt><trkpt lat="41.917425500119634" lon="12.358482932876683"><ele>41.0</ele><time>2026-04-17T17:22:47.999Z</time></trkpt><trkpt lat="41.917292309214034" lon="12.358506593143629"><ele>40.5</ele><time>2026-04-17T17:22:48.999Z</time></trkpt><trkpt lat="41.9171716126356" lon="12.358528554349345"><ele>40.0</ele><time>2026-04-17T17:22:49.999Z</time></trkpt><trkpt lat="41.91705929969231" lon="12.358553176896754"><ele>40.0</ele><time>2026-04-17T17:22:50.999Z</time></trkpt><trkpt lat="41.91696151576637" lon="12.358582538806294"><ele>40.0</ele><time>2026-04-17T17:22:51.999Z</time></trkpt><trkpt lat="41.91687246263584" lon="12.358597200545061"><ele>40.0</ele><time>2026-04-17T17:22:52.999Z</time></trkpt><trkpt lat="41.916800221067014" lon="12.35866850314319"><ele>40.0</ele><time>2026-04-17T17:22:53.999Z</time></trkpt><trkpt lat="41.91670833125931" lon="12.358721355833"><ele>40.0</ele><time>2026-04-17T17:22:54.999Z</time></trkpt><trkpt lat="41.91664990409977" lon="12.35887303331561"><ele>42.25</ele><time>2026-04-17T17:22:55.999Z</time></trkpt><trkpt lat="41.916558624780265" lon="12.358976739893944"><ele>44.5</ele><time>2026-04-17T17:22:56.999Z</time></trkpt><trkpt lat="41.91648562276498" lon="12.35911017723953"><ele>46.75</ele><time>2026-04-17T17:22:57.999Z</time></trkpt><trkpt lat="41.91639829024259" lon="12.359237616930447"><ele>49.0</ele><time>2026-04-17T17:22:58.999Z</time></trkpt><trkpt lat="41.91631558931639" lon="12.35935734962347"><ele>49.0</ele><time>2026-04-17T17:22:59.999Z</time></trkpt><trkpt lat="41.91624094856738" lon="12.35946315025286"><ele>49.0</ele><time>2026-04-17T17:23:00.999Z</time></trkpt><trkpt lat="41.916178421878826" lon="12.359585201136689"><ele>49.0</ele><time>2026-04-17T17:23:01.999Z</time></trkpt><trkpt lat="41.91613130244413" lon="12.359732310536394"><ele>49.0</ele><time>2026-04-17T17:23:02.999Z</time></trkpt><trkpt lat="41.91609514799761" lon="12.359888394027672"><ele>51.75</ele><time>2026-04-17T17:23:03.999Z</time></trkpt><trkpt lat="41.91607112824231" lon="12.36005275496143"><ele>54.5</ele><time>2026-04-17T17:23:04.999Z</time></trkpt><trkpt lat="41.9160564167687" lon="12.36020868349541"><ele>57.25</ele><time>2026-04-17T17:23:05.999Z</time></trkpt><trkpt lat="41.91606653173389" lon="12.360358349877652"><ele>60.0</ele><time>2026-04-17T17:23:06.999Z</time></trkpt><trkpt lat="41.9160939982634" lon="12.360507161774088"><ele>61.2</ele><time>2026-04-17T17:23:07.999Z</time></trkpt><trkpt lat="41.91613783238626" lon="12.360657433575692"><ele>62.4</ele><time>2026-04-17T17:23:08.999Z</time></trkpt><trkpt lat="41.91617964692845" lon="12.360797759710874"><ele>63.599999999999994</ele><time>2026-04-17T17:23:09.999Z</time></trkpt><trkpt lat="41.916216260927214" lon="12.360920682085352"><ele>64.8</ele><time>2026-04-17T17:23:10.999Z</time></trkpt><trkpt lat="41.91624592313481" lon="12.361026756107147"><ele>66.0</ele><time>2026-04-17T17:23:11.999Z</time></trkpt><trkpt lat="41.91626568674154" lon="12.361122924267486"><ele>66.0</ele><time>2026-04-17T17:23:12.999Z</time></trkpt><trkpt lat="41.91625609398175" lon="12.361217048698334"><ele>66.0</ele><time>2026-04-17T17:23:13.999Z</time></trkpt><trkpt lat="41.91623154145258" lon="12.36130404401505"><ele>66.0</ele><time>2026-04-17T17:23:14.999Z</time></trkpt><trkpt lat="41.916187513613735" lon="12.361398036469188"><ele>66.0</ele><time>2026-04-17T17:23:15.999Z</time></trkpt><trkpt lat="41.91614009995742" lon="12.36152382476849"><ele>66.0</ele><time>2026-04-17T17:23:16.999Z</time></trkpt><trkpt lat="41.91605981034379" lon="12.36164052276954"><ele>66.0</ele><time>2026-04-17T17:23:17.999Z</time></trkpt><trkpt lat="41.91597082688513" lon="12.361766493647297"><ele>66.75</ele><time>2026-04-17T17:23:18.999Z</time></trkpt><trkpt lat="41.91585801071251" lon="12.361877981957583"><ele>67.5</ele><time>2026-04-17T17:23:19.999Z</time></trkpt><trkpt lat="41.91574952353639" lon="12.36199762259411"><ele>68.25</ele><time>2026-04-17T17:23:20.999Z</time></trkpt><trkpt lat="41.915652292918715" lon="12.362128067014178"><ele>69.0</ele><time>2026-04-17T17:23:21.999Z</time></trkpt><trkpt lat="41.91554396369899" lon="12.36224118039281"><ele>71.25</ele><time>2026-04-17T17:23:22.999Z</time></trkpt><trkpt lat="41.91543273250732" lon="12.362357445825069"><ele>73.5</ele><time>2026-04-17T17:23:23.998Z</time></trkpt><trkpt lat="41.91532301386342" lon="12.362469644323765"><ele>75.75</ele><time>2026-04-17T17:23:24.998Z</time></trkpt><trkpt lat="41.91522680255718" lon="12.362567847318525"><ele>78.0</ele><time>2026-04-17T17:23:25.998Z</time></trkpt><trkpt lat="41.91513141151267" lon="12.362659198320655"><ele>78.0</ele><time>2026-04-17T17:23:26.998Z</time></trkpt><trkpt lat="41.91504311733659" lon="12.36274915898298"><ele>78.0</ele><time>2026-04-17T17:23:27.998Z</time></trkpt><trkpt lat="41.914958515609044" lon="12.362825405355672"><ele>78.0</ele><time>2026-04-17T17:23:28.998Z</time></trkpt><trkpt lat="41.91487886904864" lon="12.362896743778768"><ele>78.0</ele><time>2026-04-17T17:23:29.998Z</time></trkpt><trkpt lat="41.91479633276172" lon="12.362977074358103"><ele>78.0</ele><time>2026-04-17T17:23:30.998Z</time></trkpt><trkpt lat="41.91472097818964" lon="12.363051389127204"><ele>78.0</ele><time>2026-04-17T17:23:31.998Z</time></trkpt><trkpt lat="41.914657406621764" lon="12.36312225092649"><ele>78.0</ele><time>2026-04-17T17:23:32.998Z</time></trkpt><trkpt lat="41.91460500432242" lon="12.363219470710012"><ele>78.0</ele><time>2026-04-17T17:23:33.998Z</time></trkpt><trkpt lat="41.91456469619787" lon="12.363335718822583"><ele>78.0</ele><time>2026-04-17T17:23:34.998Z</time></trkpt><trkpt lat="41.91453663168269" lon="12.363469741789542"><ele>78.0</ele><time>2026-04-17T17:23:35.998Z</time></trkpt><trkpt lat="41.91450501946581" lon="12.363596329888628"><ele>78.0</ele><time>2026-04-17T17:23:36.998Z</time></trkpt><trkpt lat="41.914481245314505" lon="12.363749930740111"><ele>78.0</ele><time>2026-04-17T17:23:37.998Z</time></trkpt><trkpt lat="41.914458853947956" lon="12.363910129247204"><ele>78.0</ele><time>2026-04-17T17:23:38.998Z</time></trkpt><trkpt lat="41.91443583831458" lon="12.364053572180852"><ele>78.0</ele><time>2026-04-17T17:23:39.998Z</time></trkpt><trkpt lat="41.91441298257573" lon="12.364203058255034"><ele>77.6</ele><time>2026-04-17T17:23:40.998Z</time></trkpt><trkpt lat="41.914392837268444" lon="12.364331323432495"><ele>77.19999999999999</ele><time>2026-04-17T17:23:41.998Z</time></trkpt><trkpt lat="41.914377919909434" lon="12.364456185728857"><ele>76.8</ele><time>2026-04-17T17:23:42.998Z</time></trkpt><trkpt lat="41.914363298225176" lon="12.364678544297975"><ele>76.39999999999999</ele><time>2026-04-17T17:23:44.998Z</time></trkpt><trkpt lat="41.91436526099461" lon="12.364801284069292"><ele>76.0</ele><time>2026-04-17T17:23:45.998Z</time></trkpt><trkpt lat="41.91438032592009" lon="12.364931499927199"><ele>76.0</ele><time>2026-04-17T17:23:46.998Z</time></trkpt><trkpt lat="41.91440809550484" lon="12.365060831976137"><ele>76.0</ele><time>2026-04-17T17:23:47.998Z</time></trkpt><trkpt lat="41.91444376877032" lon="12.365195762716985"><ele>76.0</ele><time>2026-04-17T17:23:48.998Z</time></trkpt><trkpt lat="41.91449413405189" lon="12.365327992409767"><ele>76.0</ele><time>2026-04-17T17:23:49.998Z</time></trkpt><trkpt lat="41.914535369566494" lon="12.36545105605577"><ele>76.0</ele><time>2026-04-17T17:23:50.998Z</time></trkpt><trkpt lat="41.91457286152336" lon="12.365555736643568"><ele>76.66666666666666</ele><time>2026-04-17T17:23:51.998Z</time></trkpt><trkpt lat="41.914612769019776" lon="12.365656084343556"><ele>77.33333333333333</ele><time>2026-04-17T17:23:52.998Z</time></trkpt><trkpt lat="41.914646702741976" lon="12.36575703105023"><ele>78.0</ele><time>2026-04-17T17:23:53.998Z</time></trkpt><trkpt lat="41.91468690556019" lon="12.365854802955807"><ele>78.66666666666667</ele><time>2026-04-17T17:23:54.998Z</time></trkpt><trkpt lat="41.914729142852295" lon="12.36595177690679"><ele>79.33333333333334</ele><time>2026-04-17T17:23:55.998Z</time></trkpt><trkpt lat="41.91477179362787" lon="12.366049259116787"><ele>80.0</ele><time>2026-04-17T17:23:56.998Z</time></trkpt><trkpt lat="41.91482195326221" lon="12.366144693211835"><ele>80.0</ele><time>2026-04-17T17:23:57.998Z</time></trkpt><trkpt lat="41.91487724029577" lon="12.366247692479995"><ele>80.0</ele><time>2026-04-17T17:23:58.998Z</time></trkpt><trkpt lat="41.914932850075516" lon="12.366339735095305"><ele>80.0</ele><time>2026-04-17T17:23:59.998Z</time></trkpt><trkpt lat="41.91499239243387" lon="12.366437114707544"><ele>80.0</ele><time>2026-04-17T17:24:00.998Z</time></trkpt><trkpt lat="41.91503369110427" lon="12.36655423434134"><ele>80.0</ele><time>2026-04-17T17:24:01.997Z</time></trkpt><trkpt lat="41.91509025286417" lon="12.366669531076925"><ele>80.16666666666667</ele><time>2026-04-17T17:24:02.997Z</time></trkpt><trkpt lat="41.91514968330393" lon="12.366787272653998"><ele>80.33333333333334</ele><time>2026-04-17T17:24:03.997Z</time></trkpt><trkpt lat="41.91519858978684" lon="12.366879792222615"><ele>80.5</ele><time>2026-04-17T17:24:04.997Z</time></trkpt><trkpt lat="41.91523577795585" lon="12.366972204443236"><ele>80.66666666666667</ele><time>2026-04-17T17:24:05.997Z</time></trkpt><trkpt lat="41.91527746162419" lon="12.367072907146795"><ele>80.83333333333333</ele><time>2026-04-17T17:24:06.997Z</time></trkpt><trkpt lat="41.91531342009656" lon="12.367165235204357"><ele>81.0</ele><time>2026-04-17T17:24:07.997Z</time></trkpt><trkpt lat="41.91533573776423" lon="12.367290273135913"><ele>81.0</ele><time>2026-04-17T17:24:08.997Z</time></trkpt><trkpt lat="41.91537689246961" lon="12.367394291271909"><ele>81.0</ele><time>2026-04-17T17:24:09.997Z</time></trkpt><trkpt lat="41.91538689364753" lon="12.367524137355526"><ele>81.0</ele><time>2026-04-17T17:24:10.997Z</time></trkpt><trkpt lat="41.915409246351985" lon="12.367631563888875"><ele>81.0</ele><time>2026-04-17T17:24:11.997Z</time></trkpt><trkpt lat="41.9154432987909" lon="12.36773066844767"><ele>81.0</ele><time>2026-04-17T17:24:12.997Z</time></trkpt><trkpt lat="41.9154694363836" lon="12.367837203041296"><ele>81.0</ele><time>2026-04-17T17:24:13.997Z</time></trkpt><trkpt lat="41.915475270607295" lon="12.367934007097013"><ele>80.83333333333333</ele><time>2026-04-17T17:24:14.997Z</time></trkpt><trkpt lat="41.915515589414646" lon="12.36802849355758"><ele>80.66666666666667</ele><time>2026-04-17T17:24:15.997Z</time></trkpt><trkpt lat="41.91554952147815" lon="12.368116938922373"><ele>80.5</ele><time>2026-04-17T17:24:16.997Z</time></trkpt><trkpt lat="41.9155964542323" lon="12.368216139295706"><ele>80.33333333333334</ele><time>2026-04-17T17:24:17.997Z</time></trkpt><trkpt lat="41.91564621509916" lon="12.368299837368426"><ele>80.16666666666667</ele><time>2026-04-17T17:24:18.997Z</time></trkpt><trkpt lat="41.91570128535465" lon="12.368372338442427"><ele>80.0</ele><time>2026-04-17T17:24:19.997Z</time></trkpt><trkpt lat="41.91575045502331" lon="12.368426581325926"><ele>80.0</ele><time>2026-04-17T17:24:20.997Z</time></trkpt><trkpt lat="41.91582124051913" lon="12.368532550454349"><ele>80.0</ele><time>2026-04-17T17:24:22.997Z</time></trkpt><trkpt lat="41.9158353519681" lon="12.368687178934803"><ele>80.0</ele><time>2026-04-17T17:24:25Z</time></trkpt><trkpt lat="41.91584079770429" lon="12.368788210063798"><ele>80.0</ele><time>2026-04-17T17:24:26Z</time></trkpt><trkpt lat="41.915849591703726" lon="12.368893809375527"><ele>80.0</ele><time>2026-04-17T17:24:27Z</time></trkpt><trkpt lat="41.91584823134132" lon="12.369012532049087"><ele>80.0</ele><time>2026-04-17T17:24:28Z</time></trkpt><trkpt lat="41.91587171593292" lon="12.369119360347671"><ele>80.0</ele><time>2026-04-17T17:24:29Z</time></trkpt><trkpt lat="41.915878013571515" lon="12.369213398823996"><ele>80.0</ele><time>2026-04-17T17:24:30Z</time></trkpt><trkpt lat="41.91588254266786" lon="12.369315105994788"><ele>80.0</ele><time>2026-04-17T17:24:31Z</time></trkpt><trkpt lat="41.915891401235676" lon="12.369417498380367"><ele>80.0</ele><time>2026-04-17T17:24:32Z</time></trkpt><trkpt lat="41.91590158699352" lon="12.369516224026649"><ele>80.0</ele><time>2026-04-17T17:24:33Z</time></trkpt><trkpt lat="41.91591782159165" lon="12.369666848691402"><ele>80.2</ele><time>2026-04-17T17:24:35Z</time></trkpt><trkpt lat="41.91593038299341" lon="12.36981465461737"><ele>80.4</ele><time>2026-04-17T17:24:37Z</time></trkpt><trkpt lat="41.915937962961394" lon="12.369949425322515"><ele>80.6</ele><time>2026-04-17T17:24:39Z</time></trkpt><trkpt lat="41.91594878622236" lon="12.370092161789717"><ele>80.8</ele><time>2026-04-17T17:24:41Z</time></trkpt><trkpt lat="41.91594523921543" lon="12.370253862205738"><ele>81.0</ele><time>2026-04-17T17:24:43Z</time></trkpt><trkpt lat="41.915953166716456" lon="12.370394405487211"><ele>80.6</ele><time>2026-04-17T17:24:45Z</time></trkpt><trkpt lat="41.91597636968969" lon="12.370547058946638"><ele>80.19999999999999</ele><time>2026-04-17T17:24:46.999Z</time></trkpt><trkpt lat="41.91598564720152" lon="12.370717216172777"><ele>79.80000000000001</ele><time>2026-04-17T17:24:48.999Z</time></trkpt><trkpt lat="41.91599608259936" lon="12.37084426754738"><ele>79.4</ele><time>2026-04-17T17:24:50.999Z</time></trkpt><trkpt lat="41.916003761424626" lon="12.370967202956297"><ele>79.0</ele><time>2026-04-17T17:25:01.999Z</time></trkpt><trkpt lat="41.91600119411698" lon="12.371087316605943"><ele>79.0</ele><time>2026-04-17T17:25:03.999Z</time></trkpt><trkpt lat="41.91602231821523" lon="12.371202406700156"><ele>79.0</ele><time>2026-04-17T17:25:05.999Z</time></trkpt><trkpt lat="41.91602224599721" lon="12.371349485548352"><ele>79.0</ele><time>2026-04-17T17:25:07.999Z</time></trkpt><trkpt lat="41.9160342363104" lon="12.37150032310471"><ele>79.0</ele><time>2026-04-17T17:25:09.999Z</time></trkpt><trkpt lat="41.91604468547311" lon="12.371631773122404"><ele>79.0</ele><time>2026-04-17T17:25:11.999Z</time></trkpt><trkpt lat="41.91605442313256" lon="12.371776424447802"><ele>79.4</ele><time>2026-04-17T17:25:13.999Z</time></trkpt><trkpt lat="41.91606096545395" lon="12.371920396455007"><ele>79.80000000000001</ele><time>2026-04-17T17:25:15.999Z</time></trkpt><trkpt lat="41.9160713687938" lon="12.372095633931014"><ele>80.19999999999999</ele><time>2026-04-17T17:25:17.999Z</time></trkpt><trkpt lat="41.91607842762337" lon="12.372197262459405"><ele>80.6</ele><time>2026-04-17T17:25:18.999Z</time></trkpt><trkpt lat="41.91608470016024" lon="12.372285615622225"><ele>81.0</ele><time>2026-04-17T17:25:19.999Z</time></trkpt><trkpt lat="41.91609642533936" lon="12.37243969873481"><ele>81.5</ele><time>2026-04-17T17:25:21.999Z</time></trkpt><trkpt lat="41.91611994459671" lon="12.37252918436933"><ele>82.0</ele><time>2026-04-17T17:25:22.999Z</time></trkpt><trkpt lat="41.916123887836655" lon="12.372630327219008"><ele>82.5</ele><time>2026-04-17T17:25:23.999Z</time></trkpt><trkpt lat="41.91613669719276" lon="12.372740954034759"><ele>83.0</ele><time>2026-04-17T17:25:24.999Z</time></trkpt><trkpt lat="41.91613201780536" lon="12.372844701622487"><ele>83.5</ele><time>2026-04-17T17:25:25.998Z</time></trkpt><trkpt lat="41.91615629903349" lon="12.372947117504511"><ele>84.0</ele><time>2026-04-17T17:25:26.998Z</time></trkpt><trkpt lat="41.916162793226476" lon="12.373033528301162"><ele>84.0</ele><time>2026-04-17T17:25:27.998Z</time></trkpt><trkpt lat="41.91617033113329" lon="12.373125475159148"><ele>84.0</ele><time>2026-04-17T17:25:28.998Z</time></trkpt><trkpt lat="41.91617785420165" lon="12.373226309035887"><ele>84.0</ele><time>2026-04-17T17:25:29.998Z</time></trkpt><trkpt lat="41.9161847444092" lon="12.373323379907777"><ele>84.0</ele><time>2026-04-17T17:25:30.998Z</time></trkpt><trkpt lat="41.91619252364645" lon="12.373412336358074"><ele>84.0</ele><time>2026-04-17T17:25:31.998Z</time></trkpt><trkpt lat="41.91620073833187" lon="12.373505786904847"><ele>84.0</ele><time>2026-04-17T17:25:32.998Z</time></trkpt><trkpt lat="41.916204361296984" lon="12.373599010031942"><ele>84.0</ele><time>2026-04-17T17:25:33.998Z</time></trkpt><trkpt lat="41.91621348786575" lon="12.373706160264307"><ele>84.0</ele><time>2026-04-17T17:25:34.998Z</time></trkpt><trkpt lat="41.91622190936506" lon="12.373810621213284"><ele>84.0</ele><time>2026-04-17T17:25:35.998Z</time></trkpt><trkpt lat="41.91622880588182" lon="12.3739187580084"><ele>84.0</ele><time>2026-04-17T17:25:36.998Z</time></trkpt><trkpt lat="41.91623558318037" lon="12.374025816212216"><ele>84.0</ele><time>2026-04-17T17:25:37.998Z</time></trkpt><trkpt lat="41.9162493838446" lon="12.374126360807328"><ele>84.0</ele><time>2026-04-17T17:25:38.998Z</time></trkpt><trkpt lat="41.91625957167775" lon="12.374225529364535"><ele>84.0</ele><time>2026-04-17T17:25:39.998Z</time></trkpt><trkpt lat="41.91626622993829" lon="12.37431030948452"><ele>84.0</ele><time>2026-04-17T17:25:40.998Z</time></trkpt><trkpt lat="41.91627301445857" lon="12.37441736064911"><ele>84.0</ele><time>2026-04-17T17:25:42.998Z</time></trkpt><trkpt lat="41.9162861648715" lon="12.374535318852923"><ele>84.0</ele><time>2026-04-17T17:25:44.998Z</time></trkpt><trkpt lat="41.916282285926435" lon="12.374623607395854"><ele>84.0</ele><time>2026-04-17T17:25:45.998Z</time></trkpt><trkpt lat="41.91628870987596" lon="12.374736999871027"><ele>84.0</ele><time>2026-04-17T17:25:46.998Z</time></trkpt><trkpt lat="41.916297751910264" lon="12.374855393344067"><ele>84.0</ele><time>2026-04-17T17:25:47.998Z</time></trkpt><trkpt lat="41.91631433299174" lon="12.374985413434839"><ele>84.2</ele><time>2026-04-17T17:25:48.998Z</time></trkpt><trkpt lat="41.916326679569885" lon="12.375143568424738"><ele>84.4</ele><time>2026-04-17T17:25:49.998Z</time></trkpt><trkpt lat="41.916336509247124" lon="12.375284518633002"><ele>84.6</ele><time>2026-04-17T17:25:50.998Z</time></trkpt><trkpt lat="41.91634206514962" lon="12.375408175898656"><ele>84.8</ele><time>2026-04-17T17:25:51.998Z</time></trkpt><trkpt lat="41.91634873156502" lon="12.375520879256927"><ele>85.0</ele><time>2026-04-17T17:25:52.998Z</time></trkpt><trkpt lat="41.91635830138075" lon="12.375630513823518"><ele>85.0</ele><time>2026-04-17T17:25:53.998Z</time></trkpt><trkpt lat="41.916349962453005" lon="12.375725326339904"><ele>85.0</ele><time>2026-04-17T17:25:54.998Z</time></trkpt><trkpt lat="41.91631980311709" lon="12.375803958274927"><ele>85.0</ele><time>2026-04-17T17:25:55.998Z</time></trkpt><trkpt lat="41.91627637655602" lon="12.375876076347051"><ele>85.0</ele><time>2026-04-17T17:25:56.998Z</time></trkpt><trkpt lat="41.91621247803527" lon="12.375942792595724"><ele>85.0</ele><time>2026-04-17T17:25:57.998Z</time></trkpt><trkpt lat="41.9161253731781" lon="12.375995440245749"><ele>85.0</ele><time>2026-04-17T17:25:58.998Z</time></trkpt><trkpt lat="41.91601686634834" lon="12.376041277870742"><ele>84.6</ele><time>2026-04-17T17:25:59.998Z</time></trkpt><trkpt lat="41.91589469248281" lon="12.376087295626876"><ele>84.2</ele><time>2026-04-17T17:26:00.998Z</time></trkpt><trkpt lat="41.91578433894122" lon="12.376132777916098"><ele>83.80000000000001</ele><time>2026-04-17T17:26:01.998Z</time></trkpt><trkpt lat="41.91568939738797" lon="12.376181232506132"><ele>83.4</ele><time>2026-04-17T17:26:02.998Z</time></trkpt><trkpt lat="41.915606103388036" lon="12.376220726530802"><ele>83.0</ele><time>2026-04-17T17:26:03.997Z</time></trkpt><trkpt lat="41.9155288191888" lon="12.376254661138121"><ele>83.0</ele><time>2026-04-17T17:26:04.997Z</time></trkpt><trkpt lat="41.91545604038898" lon="12.376284918107267"><ele>83.0</ele><time>2026-04-17T17:26:05.997Z</time></trkpt><trkpt lat="41.915385262046534" lon="12.376306231543127"><ele>83.0</ele><time>2026-04-17T17:26:06.997Z</time></trkpt><trkpt lat="41.91531140666761" lon="12.37630732270319"><ele>83.0</ele><time>2026-04-17T17:26:07.997Z</time></trkpt><trkpt lat="41.91524703496177" lon="12.376285237740687"><ele>83.0</ele><time>2026-04-17T17:26:08.997Z</time></trkpt><trkpt lat="41.91513121085702" lon="12.376303402586533"><ele>83.0</ele><time>2026-04-17T17:26:10.997Z</time></trkpt><trkpt lat="41.91504888443876" lon="12.37641587396933"><ele>82.33333333333334</ele><time>2026-04-17T17:26:12.997Z</time></trkpt><trkpt lat="41.915060604565575" lon="12.376517916714361"><ele>81.66666666666667</ele><time>2026-04-17T17:26:13.997Z</time></trkpt><trkpt lat="41.915119769757005" lon="12.376595116491991"><ele>81.0</ele><time>2026-04-17T17:26:14.997Z</time></trkpt><trkpt lat="41.9151624839987" lon="12.376669993461395"><ele>80.33333333333333</ele><time>2026-04-17T17:26:15.997Z</time></trkpt><trkpt lat="41.91515222388251" lon="12.376816148370416"><ele>79.66666666666666</ele><time>2026-04-17T17:26:16.997Z</time></trkpt><trkpt lat="41.91515727013805" lon="12.376951972536851"><ele>79.0</ele><time>2026-04-17T17:26:17.997Z</time></trkpt><trkpt lat="41.91515847246612" lon="12.377095509661334"><ele>79.0</ele><time>2026-04-17T17:26:18.997Z</time></trkpt><trkpt lat="41.915156629214984" lon="12.377249658108962"><ele>79.0</ele><time>2026-04-17T17:26:19.997Z</time></trkpt><trkpt lat="41.9151520862351" lon="12.377402430424796"><ele>79.0</ele><time>2026-04-17T17:26:20.997Z</time></trkpt><trkpt lat="41.91514784424778" lon="12.37754655485167"><ele>79.0</ele><time>2026-04-17T17:26:21.997Z</time></trkpt><trkpt lat="41.915141986103635" lon="12.377691902911879"><ele>79.0</ele><time>2026-04-17T17:26:22.997Z</time></trkpt><trkpt lat="41.915125837664775" lon="12.377836527720255"><ele>79.0</ele><time>2026-04-17T17:26:23.997Z</time></trkpt><trkpt lat="41.91510558193267" lon="12.377979434980148"><ele>79.0</ele><time>2026-04-17T17:26:24.997Z</time></trkpt><trkpt lat="41.91513794375559" lon="12.378166152568788"><ele>79.0</ele><time>2026-04-17T17:26:25.997Z</time></trkpt><trkpt lat="41.915135378338825" lon="12.378310816859239"><ele>79.0</ele><time>2026-04-17T17:26:26.997Z</time></trkpt><trkpt lat="41.915135893861134" lon="12.378458598146986"><ele>78.60000000000001</ele><time>2026-04-17T17:26:27.997Z</time></trkpt><trkpt lat="41.915148581332936" lon="12.378611465626848"><ele>78.2</ele><time>2026-04-17T17:26:29Z</time></trkpt><trkpt lat="41.915182823260224" lon="12.378749658603281"><ele>77.80000000000001</ele><time>2026-04-17T17:26:30Z</time></trkpt><trkpt lat="41.91523185453997" lon="12.378875877661427"><ele>77.4</ele><time>2026-04-17T17:26:31Z</time></trkpt><trkpt lat="41.91529442241557" lon="12.378986654418208"><ele>77.0</ele><time>2026-04-17T17:26:32Z</time></trkpt><trkpt lat="41.91536177521158" lon="12.37908352557282"><ele>75.33333333333334</ele><time>2026-04-17T17:26:33Z</time></trkpt><trkpt lat="41.915429464934775" lon="12.379164700862303"><ele>73.66666666666667</ele><time>2026-04-17T17:26:34Z</time></trkpt><trkpt lat="41.915497946832126" lon="12.379224274654637"><ele>72.0</ele><time>2026-04-17T17:26:35Z</time></trkpt><trkpt lat="41.91557443000324" lon="12.379313952715181"><ele>70.33333333333333</ele><time>2026-04-17T17:26:37Z</time></trkpt><trkpt lat="41.91562534249055" lon="12.3794246161554"><ele>68.66666666666666</ele><time>2026-04-17T17:26:39Z</time></trkpt><trkpt lat="41.915651970691684" lon="12.379501973788868"><ele>67.0</ele><time>2026-04-17T17:26:40Z</time></trkpt><trkpt lat="41.91567286407398" lon="12.379583459936981"><ele>67.0</ele><time>2026-04-17T17:26:41Z</time></trkpt><trkpt lat="41.91570374211128" lon="12.379657876279238"><ele>67.0</ele><time>2026-04-17T17:26:42Z</time></trkpt><trkpt lat="41.91575215210965" lon="12.379725627895091"><ele>67.0</ele><time>2026-04-17T17:26:43Z</time></trkpt><trkpt lat="41.9157540353061" lon="12.379858249301813"><ele>67.0</ele><time>2026-04-17T17:26:44Z</time></trkpt><trkpt lat="41.91574311464088" lon="12.379981145558292"><ele>67.0</ele><time>2026-04-17T17:26:45Z</time></trkpt><trkpt lat="41.91571230750573" lon="12.380133850961261"><ele>67.0</ele><time>2026-04-17T17:26:46Z</time></trkpt><trkpt lat="41.91567311290601" lon="12.380302428217062"><ele>67.0</ele><time>2026-04-17T17:26:46.999Z</time></trkpt><trkpt lat="41.9156362877377" lon="12.380492021690849"><ele>67.0</ele><time>2026-04-17T17:26:47.999Z</time></trkpt><trkpt lat="41.91560228787333" lon="12.380674900015313"><ele>67.0</ele><time>2026-04-17T17:26:48.999Z</time></trkpt><trkpt lat="41.91556606134615" lon="12.380859641322768"><ele>67.0</ele><time>2026-04-17T17:26:49.999Z</time></trkpt><trkpt lat="41.915530404928774" lon="12.381039473418799"><ele>67.75</ele><time>2026-04-17T17:26:50.999Z</time></trkpt><trkpt lat="41.91549454743864" lon="12.381211787724784"><ele>68.5</ele><time>2026-04-17T17:26:51.999Z</time></trkpt><trkpt lat="41.915459268739326" lon="12.381383650527729"><ele>69.25</ele><time>2026-04-17T17:26:52.999Z</time></trkpt><trkpt lat="41.91541883930309" lon="12.381552128097034"><ele>70.0</ele><time>2026-04-17T17:26:53.999Z</time></trkpt><trkpt lat="41.91537276792441" lon="12.381731756888836"><ele>68.5</ele><time>2026-04-17T17:26:54.999Z</time></trkpt><trkpt lat="41.915353220017" lon="12.381913829275748"><ele>67.0</ele><time>2026-04-17T17:26:55.999Z</time></trkpt><trkpt lat="41.91526239738364" lon="12.38207849809769"><ele>65.5</ele><time>2026-04-17T17:26:56.999Z</time></trkpt><trkpt lat="41.91519688803774" lon="12.382252051223299"><ele>64.0</ele><time>2026-04-17T17:26:57.999Z</time></trkpt><trkpt lat="41.91512170023494" lon="12.382421679597801"><ele>63.0</ele><time>2026-04-17T17:26:58.999Z</time></trkpt><trkpt lat="41.915037824031444" lon="12.38259339903413"><ele>62.0</ele><time>2026-04-17T17:26:59.999Z</time></trkpt><trkpt lat="41.91494726363046" lon="12.382773180257795"><ele>61.0</ele><time>2026-04-17T17:27:00.999Z</time></trkpt><trkpt lat="41.914857897843035" lon="12.382954279518199"><ele>59.0</ele><time>2026-04-17T17:27:01.999Z</time></trkpt><trkpt lat="41.9147688614918" lon="12.383138261156413"><ele>57.0</ele><time>2026-04-17T17:27:02.999Z</time></trkpt><trkpt lat="41.91468357334466" lon="12.383311784887407"><ele>55.0</ele><time>2026-04-17T17:27:03.999Z</time></trkpt><trkpt lat="41.9146017989914" lon="12.383467558964218"><ele>55.0</ele><time>2026-04-17T17:27:04.999Z</time></trkpt><trkpt lat="41.91451794587774" lon="12.3836224624598"><ele>55.0</ele><time>2026-04-17T17:27:05.999Z</time></trkpt><trkpt lat="41.91443355927451" lon="12.383769165026008"><ele>55.0</ele><time>2026-04-17T17:27:06.999Z</time></trkpt><trkpt lat="41.91432696128345" lon="12.383884267425797"><ele>55.0</ele><time>2026-04-17T17:27:07.999Z</time></trkpt><trkpt lat="41.91422141231739" lon="12.384006437754765"><ele>55.5</ele><time>2026-04-17T17:27:08.999Z</time></trkpt><trkpt lat="41.91411358178074" lon="12.384128610898768"><ele>56.0</ele><time>2026-04-17T17:27:09.999Z</time></trkpt><trkpt lat="41.91400156871124" lon="12.384251582869862"><ele>56.5</ele><time>2026-04-17T17:27:10.999Z</time></trkpt><trkpt lat="41.91389813688681" lon="12.3843651933391"><ele>57.0</ele><time>2026-04-17T17:27:11.999Z</time></trkpt><trkpt lat="41.91382420004359" lon="12.384495353205141"><ele>57.0</ele><time>2026-04-17T17:27:12.999Z</time></trkpt><trkpt lat="41.91373565284801" lon="12.384590493518441"><ele>57.0</ele><time>2026-04-17T17:27:13.999Z</time></trkpt><trkpt lat="41.91363406497853" lon="12.384678383813208"><ele>57.0</ele><time>2026-04-17T17:27:14.999Z</time></trkpt><trkpt lat="41.91342135494605" lon="12.384809017009651"><ele>57.33333333333333</ele><time>2026-04-17T17:27:16.999Z</time></trkpt><trkpt lat="41.91320947502444" lon="12.384890014733871"><ele>57.666666666666664</ele><time>2026-04-17T17:27:18.999Z</time></trkpt><trkpt lat="41.913116743787775" lon="12.3848856359204"><ele>58.0</ele><time>2026-04-17T17:27:19.999Z</time></trkpt><trkpt lat="41.91291834814709" lon="12.384988622640778"><ele>58.0</ele><time>2026-04-17T17:27:21.999Z</time></trkpt><trkpt lat="41.91279114755799" lon="12.385159610811538"><ele>58.0</ele><time>2026-04-17T17:27:23.999Z</time></trkpt><trkpt lat="41.91274724059443" lon="12.385271767452734"><ele>58.0</ele><time>2026-04-17T17:27:24.999Z</time></trkpt><trkpt lat="41.91270303848259" lon="12.38539436381919"><ele>58.0</ele><time>2026-04-17T17:27:25.999Z</time></trkpt><trkpt lat="41.912670365945615" lon="12.385504723118137"><ele>57.0</ele><time>2026-04-17T17:27:26.999Z</time></trkpt><trkpt lat="41.91263511542209" lon="12.385647529337499"><ele>56.0</ele><time>2026-04-17T17:27:27.998Z</time></trkpt><trkpt lat="41.91264607211439" lon="12.385809380898444"><ele>55.0</ele><time>2026-04-17T17:27:28.998Z</time></trkpt><trkpt lat="41.912661845724564" lon="12.385946766102359"><ele>54.0</ele><time>2026-04-17T17:27:29.998Z</time></trkpt><trkpt lat="41.91269194071884" lon="12.386101714553039"><ele>54.0</ele><time>2026-04-17T17:27:30.998Z</time></trkpt><trkpt lat="41.9127338069152" lon="12.386255605570113"><ele>54.00000000000001</ele><time>2026-04-17T17:27:31.998Z</time></trkpt><trkpt lat="41.91277965912176" lon="12.386392225194705"><ele>54.00000000000001</ele><time>2026-04-17T17:27:32.998Z</time></trkpt><trkpt lat="41.91283307516239" lon="12.386500226557027"><ele>54.0</ele><time>2026-04-17T17:27:33.998Z</time></trkpt><trkpt lat="41.912886157822165" lon="12.386588044670155"><ele>54.0</ele><time>2026-04-17T17:27:34.998Z</time></trkpt><trkpt lat="41.912937613215306" lon="12.386663926051716"><ele>53.6</ele><time>2026-04-17T17:27:35.998Z</time></trkpt><trkpt lat="41.91299645739889" lon="12.38673967036709"><ele>53.2</ele><time>2026-04-17T17:27:36.998Z</time></trkpt><trkpt lat="41.913067731195774" lon="12.386810962804727"><ele>52.800000000000004</ele><time>2026-04-17T17:27:37.998Z</time></trkpt><trkpt lat="41.91315494529634" lon="12.386894313548204"><ele>52.400000000000006</ele><time>2026-04-17T17:27:38.998Z</time></trkpt><trkpt lat="41.91323665959006" lon="12.386988412117612"><ele>52.0</ele><time>2026-04-17T17:27:39.998Z</time></trkpt><trkpt lat="41.913308417902414" lon="12.387067288900163"><ele>51.99999999999999</ele><time>2026-04-17T17:27:40.998Z</time></trkpt><trkpt lat="41.91338437728567" lon="12.387151819141206"><ele>52.0</ele><time>2026-04-17T17:27:41.998Z</time></trkpt><trkpt lat="41.91345409219436" lon="12.387231512448146"><ele>52.0</ele><time>2026-04-17T17:27:42.998Z</time></trkpt><trkpt lat="41.91351258498644" lon="12.387296929251434"><ele>52.0</ele><time>2026-04-17T17:27:43.998Z</time></trkpt><trkpt lat="41.91356479122557" lon="12.387354427570488"><ele>51.99999999999999</ele><time>2026-04-17T17:27:44.998Z</time></trkpt><trkpt lat="41.9136579329734" lon="12.387445380284733"><ele>52.0</ele><time>2026-04-17T17:27:46.998Z</time></trkpt><trkpt lat="41.9137581613273" lon="12.387549503615851"><ele>52.83333333333333</ele><time>2026-04-17T17:27:48.998Z</time></trkpt><trkpt lat="41.91380520918428" lon="12.387617087206463"><ele>53.666666666666664</ele><time>2026-04-17T17:27:49.998Z</time></trkpt><trkpt lat="41.91386365029943" lon="12.387679089285017"><ele>54.5</ele><time>2026-04-17T17:27:50.998Z</time></trkpt><trkpt lat="41.913906758849365" lon="12.387769421385103"><ele>55.33333333333333</ele><time>2026-04-17T17:27:51.998Z</time></trkpt><trkpt lat="41.9139428668286" lon="12.387879408696806"><ele>56.166666666666664</ele><time>2026-04-17T17:27:52.998Z</time></trkpt><trkpt lat="41.913969520095215" lon="12.388002827092123"><ele>57.0</ele><time>2026-04-17T17:27:53.998Z</time></trkpt><trkpt lat="41.91397951133583" lon="12.388124879157678"><ele>57.0</ele><time>2026-04-17T17:27:54.998Z</time></trkpt><trkpt lat="41.913980340258554" lon="12.388231019023742"><ele>57.0</ele><time>2026-04-17T17:27:55.998Z</time></trkpt><trkpt lat="41.91398145693931" lon="12.388347823753303"><ele>57.0</ele><time>2026-04-17T17:27:56.998Z</time></trkpt><trkpt lat="41.91392399859495" lon="12.388470414641981"><ele>57.0</ele><time>2026-04-17T17:27:57.998Z</time></trkpt><trkpt lat="41.913906147701375" lon="12.38860178518067"><ele>57.0</ele><time>2026-04-17T17:27:58.998Z</time></trkpt><trkpt lat="41.9138911692958" lon="12.388724624674506"><ele>57.400000000000006</ele><time>2026-04-17T17:27:59.998Z</time></trkpt><trkpt lat="41.91387104183837" lon="12.38887074682111"><ele>57.800000000000004</ele><time>2026-04-17T17:28:00.998Z</time></trkpt><trkpt lat="41.913841758916654" lon="12.389002091833012"><ele>58.2</ele><time>2026-04-17T17:28:01.998Z</time></trkpt><trkpt lat="41.91379299083119" lon="12.389116677181796"><ele>58.6</ele><time>2026-04-17T17:28:02.998Z</time></trkpt><trkpt lat="41.913733443114346" lon="12.389230589270143"><ele>59.0</ele><time>2026-04-17T17:28:03.998Z</time></trkpt><trkpt lat="41.913652077380725" lon="12.38933721839396"><ele>59.0</ele><time>2026-04-17T17:28:04.998Z</time></trkpt><trkpt lat="41.91355884623168" lon="12.389457853278504"><ele>59.0</ele><time>2026-04-17T17:28:05.997Z</time></trkpt><trkpt lat="41.91345738098078" lon="12.389580803941154"><ele>59.0</ele><time>2026-04-17T17:28:06.997Z</time></trkpt><trkpt lat="41.91335215849611" lon="12.389710156283119"><ele>59.0</ele><time>2026-04-17T17:28:07.997Z</time></trkpt><trkpt lat="41.91324964361213" lon="12.389839479916231"><ele>63.66666666666667</ele><time>2026-04-17T17:28:08.997Z</time></trkpt><trkpt lat="41.91314271528896" lon="12.389974250182265"><ele>68.33333333333333</ele><time>2026-04-17T17:28:09.997Z</time></trkpt><trkpt lat="41.91302955963092" lon="12.390122995180354"><ele>73.0</ele><time>2026-04-17T17:28:10.998Z</time></trkpt><trkpt lat="41.91291588114898" lon="12.390285892037436"><ele>73.0</ele><time>2026-04-17T17:28:11.997Z</time></trkpt><trkpt lat="41.912795176435715" lon="12.390468679315722"><ele>73.0</ele><time>2026-04-17T17:28:12.997Z</time></trkpt><trkpt lat="41.91267270503056" lon="12.390650992875116"><ele>73.0</ele><time>2026-04-17T17:28:13.997Z</time></trkpt><trkpt lat="41.912554762512784" lon="12.39081535998125"><ele>75.66666666666666</ele><time>2026-04-17T17:28:14.997Z</time></trkpt><trkpt lat="41.9124396134369" lon="12.390975603090673"><ele>78.33333333333333</ele><time>2026-04-17T17:28:15.997Z</time></trkpt><trkpt lat="41.91232404891779" lon="12.391127146704386"><ele>81.0</ele><time>2026-04-17T17:28:16.997Z</time></trkpt><trkpt lat="41.912215006787534" lon="12.391253373792352"><ele>81.5</ele><time>2026-04-17T17:28:17.997Z</time></trkpt><trkpt lat="41.912103598157124" lon="12.391377186460161"><ele>82.0</ele><time>2026-04-17T17:28:18.997Z</time></trkpt><trkpt lat="41.91200179187811" lon="12.391490027241877"><ele>82.5</ele><time>2026-04-17T17:28:19.997Z</time></trkpt><trkpt lat="41.91190402584676" lon="12.391606989744123"><ele>83.0</ele><time>2026-04-17T17:28:20.997Z</time></trkpt><trkpt lat="41.911815989550796" lon="12.391716559812304"><ele>82.25</ele><time>2026-04-17T17:28:21.997Z</time></trkpt><trkpt lat="41.91172403376988" lon="12.391824290521425"><ele>81.5</ele><time>2026-04-17T17:28:22.997Z</time></trkpt><trkpt lat="41.91162191401947" lon="12.391927043592787"><ele>80.75</ele><time>2026-04-17T17:28:23.997Z</time></trkpt><trkpt lat="41.91150851749247" lon="12.392025383161924"><ele>80.0</ele><time>2026-04-17T17:28:24.997Z</time></trkpt><trkpt lat="41.91138951925052" lon="12.392104917829958"><ele>79.25</ele><time>2026-04-17T17:28:25.997Z</time></trkpt><trkpt lat="41.911275868545" lon="12.39218992302642"><ele>78.5</ele><time>2026-04-17T17:28:26.997Z</time></trkpt><trkpt lat="41.91116961304029" lon="12.39228361233851"><ele>77.75</ele><time>2026-04-17T17:28:27.997Z</time></trkpt><trkpt lat="41.91107831011324" lon="12.3923929845329"><ele>77.0</ele><time>2026-04-17T17:28:28.997Z</time></trkpt><trkpt lat="41.91099670980838" lon="12.392514126912195"><ele>77.0</ele><time>2026-04-17T17:28:29.997Z</time></trkpt><trkpt lat="41.91092472271915" lon="12.392639001296972"><ele>77.0</ele><time>2026-04-17T17:28:30.997Z</time></trkpt><trkpt lat="41.91086977581818" lon="12.392770783624897"><ele>77.0</ele><time>2026-04-17T17:28:31.997Z</time></trkpt><trkpt lat="41.910829821797215" lon="12.392892286049445"><ele>77.0</ele><time>2026-04-17T17:28:32.997Z</time></trkpt><trkpt lat="41.910804241496734" lon="12.39298638209631"><ele>77.0</ele><time>2026-04-17T17:28:33.999Z</time></trkpt><trkpt lat="41.910791278631194" lon="12.39307018798712"><ele>75.83333333333334</ele><time>2026-04-17T17:28:34.999Z</time></trkpt><trkpt lat="41.91079180599356" lon="12.393185833680734"><ele>74.66666666666667</ele><time>2026-04-17T17:28:36.999Z</time></trkpt><trkpt lat="41.9107760467875" lon="12.39329766023844"><ele>73.5</ele><time>2026-04-17T17:28:59.999Z</time></trkpt><trkpt lat="41.91076595576198" lon="12.39339208637687"><ele>72.33333333333333</ele><time>2026-04-17T17:29:00.999Z</time></trkpt><trkpt lat="41.91075906688895" lon="12.393499819498455"><ele>71.16666666666666</ele><time>2026-04-17T17:29:01.999Z</time></trkpt><trkpt lat="41.91073949914783" lon="12.393600156879977"><ele>70.0</ele><time>2026-04-17T17:29:02.999Z</time></trkpt><trkpt lat="41.91072174686356" lon="12.393752391427508"><ele>70.25</ele><time>2026-04-17T17:29:03.999Z</time></trkpt><trkpt lat="41.91070418600211" lon="12.39392791418324"><ele>70.5</ele><time>2026-04-17T17:29:04.999Z</time></trkpt><trkpt lat="41.91068168264332" lon="12.394120301624422"><ele>70.75</ele><time>2026-04-17T17:29:05.999Z</time></trkpt><trkpt lat="41.910666770403374" lon="12.39431376502187"><ele>71.0</ele><time>2026-04-17T17:29:06.999Z</time></trkpt><trkpt lat="41.9106576408994" lon="12.394501010566898"><ele>73.33333333333334</ele><time>2026-04-17T17:29:07.999Z</time></trkpt><trkpt lat="41.910647402552186" lon="12.39470247225348"><ele>75.66666666666667</ele><time>2026-04-17T17:29:08.999Z</time></trkpt><trkpt lat="41.9106413281505" lon="12.39490030541413"><ele>78.0</ele><time>2026-04-17T17:29:09.999Z</time></trkpt><trkpt lat="41.91064474864993" lon="12.395106268747135"><ele>78.0</ele><time>2026-04-17T17:29:10.999Z</time></trkpt><trkpt lat="41.91068678606161" lon="12.395311970082211"><ele>78.0</ele><time>2026-04-17T17:29:11.999Z</time></trkpt><trkpt lat="41.91073582805363" lon="12.395529837588052"><ele>78.0</ele><time>2026-04-17T17:29:12.999Z</time></trkpt><trkpt lat="41.91078385238548" lon="12.395763497042147"><ele>79.0</ele><time>2026-04-17T17:29:13.999Z</time></trkpt><trkpt lat="41.91086251591948" lon="12.395997143202605"><ele>80.0</ele><time>2026-04-17T17:29:14.999Z</time></trkpt><trkpt lat="41.91093967509431" lon="12.396216961951168"><ele>81.0</ele><time>2026-04-17T17:29:15.999Z</time></trkpt><trkpt lat="41.91100992435813" lon="12.396404505838193"><ele>82.33333333333333</ele><time>2026-04-17T17:29:16.999Z</time></trkpt><trkpt lat="41.91107893032688" lon="12.396605032021489"><ele>83.66666666666666</ele><time>2026-04-17T17:29:17.999Z</time></trkpt><trkpt lat="41.91113906547737" lon="12.396812107741596"><ele>85.0</ele><time>2026-04-17T17:29:18.999Z</time></trkpt><trkpt lat="41.91119823149538" lon="12.397024511571683"><ele>84.66666666666666</ele><time>2026-04-17T17:29:19.999Z</time></trkpt><trkpt lat="41.911244413657165" lon="12.39723723024278"><ele>84.33333333333333</ele><time>2026-04-17T17:29:20.999Z</time></trkpt><trkpt lat="41.911269896082906" lon="12.397445572573092"><ele>84.0</ele><time>2026-04-17T17:29:21.999Z</time></trkpt><trkpt lat="41.911280324999545" lon="12.397654690693695"><ele>84.0</ele><time>2026-04-17T17:29:22.999Z</time></trkpt><trkpt lat="41.91128103773362" lon="12.397859309071867"><ele>84.0</ele><time>2026-04-17T17:29:23.999Z</time></trkpt><trkpt lat="41.91125854226202" lon="12.398061882069449"><ele>84.0</ele><time>2026-04-17T17:29:24.999Z</time></trkpt><trkpt lat="41.91125584532378" lon="12.398256084699758"><ele>84.0</ele><time>2026-04-17T17:29:25.999Z</time></trkpt><trkpt lat="41.91122086898645" lon="12.398414718679458"><ele>84.0</ele><time>2026-04-17T17:29:26.999Z</time></trkpt><trkpt lat="41.91117186571603" lon="12.398561880978068"><ele>84.0</ele><time>2026-04-17T17:29:27.999Z</time></trkpt><trkpt lat="41.91111991339906" lon="12.398687079860586"><ele>84.0</ele><time>2026-04-17T17:29:28.999Z</time></trkpt><trkpt lat="41.91106656183465" lon="12.398782934222872"><ele>84.0</ele><time>2026-04-17T17:29:29.998Z</time></trkpt><trkpt lat="41.91101695890918" lon="12.398872367467689"><ele>84.0</ele><time>2026-04-17T17:29:30.998Z</time></trkpt><trkpt lat="41.91094215626185" lon="12.398982747334477"><ele>84.16666666666667</ele><time>2026-04-17T17:29:32.998Z</time></trkpt><trkpt lat="41.91089470895486" lon="12.399060108148934"><ele>84.33333333333333</ele><time>2026-04-17T17:29:34.998Z</time></trkpt><trkpt lat="41.91083406730692" lon="12.39913711603154"><ele>84.5</ele><time>2026-04-17T17:31:01.999Z</time></trkpt><trkpt lat="41.91078069820677" lon="12.399205411868342"><ele>84.66666666666666</ele><time>2026-04-17T17:31:02.999Z</time></trkpt><trkpt lat="41.91070692221623" lon="12.399285817920436"><ele>84.83333333333333</ele><time>2026-04-17T17:31:03.999Z</time></trkpt><trkpt lat="41.91062925557933" lon="12.39938233014964"><ele>85.0</ele><time>2026-04-17T17:31:04.999Z</time></trkpt><trkpt lat="41.91053923974185" lon="12.399502537083675"><ele>85.0</ele><time>2026-04-17T17:31:05.999Z</time></trkpt><trkpt lat="41.910459602949146" lon="12.399623645052893"><ele>85.0</ele><time>2026-04-17T17:31:06.999Z</time></trkpt><trkpt lat="41.91038110663739" lon="12.399748647943872"><ele>85.0</ele><time>2026-04-17T17:31:07.999Z</time></trkpt><trkpt lat="41.910302686156975" lon="12.399893824332116"><ele>85.0</ele><time>2026-04-17T17:31:08.999Z</time></trkpt><trkpt lat="41.91022692109693" lon="12.400036225093006"><ele>85.0</ele><time>2026-04-17T17:31:09.999Z</time></trkpt><trkpt lat="41.91015308033242" lon="12.400175619682543"><ele>85.0</ele><time>2026-04-17T17:31:10.999Z</time></trkpt><trkpt lat="41.91008205741623" lon="12.4003127757135"><ele>85.0</ele><time>2026-04-17T17:31:11.999Z</time></trkpt><trkpt lat="41.910006605448146" lon="12.400467200919444"><ele>85.0</ele><time>2026-04-17T17:31:12.999Z</time></trkpt><trkpt lat="41.90993076791791" lon="12.400621956870985"><ele>85.0</ele><time>2026-04-17T17:31:13.999Z</time></trkpt><trkpt lat="41.90985277665373" lon="12.400784476681633"><ele>85.0</ele><time>2026-04-17T17:31:14.999Z</time></trkpt><trkpt lat="41.90977568869911" lon="12.400953324232008"><ele>85.0</ele><time>2026-04-17T17:31:15.999Z</time></trkpt><trkpt lat="41.909693123454154" lon="12.401128850037475"><ele>85.0</ele><time>2026-04-17T17:31:16.999Z</time></trkpt><trkpt lat="41.90960556475892" lon="12.401304923430965"><ele>83.5</ele><time>2026-04-17T17:31:17.999Z</time></trkpt><trkpt lat="41.909519087439776" lon="12.401467706276062"><ele>82.0</ele><time>2026-04-17T17:31:18.999Z</time></trkpt><trkpt lat="41.90943648830723" lon="12.401619944553843"><ele>80.5</ele><time>2026-04-17T17:31:19.999Z</time></trkpt><trkpt lat="41.90935875302475" lon="12.401773051641836"><ele>79.0</ele><time>2026-04-17T17:31:20.999Z</time></trkpt><trkpt lat="41.909281107664114" lon="12.401927263544474"><ele>76.0</ele><time>2026-04-17T17:31:21.999Z</time></trkpt><trkpt lat="41.909202515840015" lon="12.40210087700136"><ele>73.0</ele><time>2026-04-17T17:31:22.999Z</time></trkpt><trkpt lat="41.90912505982649" lon="12.402299939502832"><ele>70.0</ele><time>2026-04-17T17:31:23.999Z</time></trkpt><trkpt lat="41.90906116179877" lon="12.402521325075408"><ele>69.66666666666666</ele><time>2026-04-17T17:31:24.999Z</time></trkpt><trkpt lat="41.90900371675626" lon="12.40276148469654"><ele>69.33333333333333</ele><time>2026-04-17T17:31:25.999Z</time></trkpt><trkpt lat="41.90895201378256" lon="12.403011022829038"><ele>69.0</ele><time>2026-04-17T17:31:26.999Z</time></trkpt><trkpt lat="41.90888479529271" lon="12.403250531261635"><ele>69.0</ele><time>2026-04-17T17:31:27.999Z</time></trkpt><trkpt lat="41.9088341805726" lon="12.403465308298852"><ele>69.0</ele><time>2026-04-17T17:31:28.999Z</time></trkpt><trkpt lat="41.90880536949183" lon="12.403681024463715"><ele>69.0</ele><time>2026-04-17T17:31:29.999Z</time></trkpt><trkpt lat="41.90876899190875" lon="12.403900537038664"><ele>71.0</ele><time>2026-04-17T17:31:30.999Z</time></trkpt><trkpt lat="41.90873259934572" lon="12.404128991159334"><ele>73.0</ele><time>2026-04-17T17:31:31.999Z</time></trkpt><trkpt lat="41.90870557742311" lon="12.404365875915019"><ele>75.0</ele><time>2026-04-17T17:31:32.999Z</time></trkpt><trkpt lat="41.90869235306284" lon="12.404621273672765"><ele>73.33333333333333</ele><time>2026-04-17T17:31:33.999Z</time></trkpt><trkpt lat="41.908687315023165" lon="12.404891811790158"><ele>71.66666666666666</ele><time>2026-04-17T17:31:34.999Z</time></trkpt><trkpt lat="41.908684174076384" lon="12.405175386716412"><ele>70.0</ele><time>2026-04-17T17:31:35.999Z</time></trkpt><trkpt lat="41.90868056062641" lon="12.405470930635044"><ele>68.0</ele><time>2026-04-17T17:31:36.999Z</time></trkpt><trkpt lat="41.90866562219817" lon="12.405746138631915"><ele>66.0</ele><time>2026-04-17T17:31:37.999Z</time></trkpt><trkpt lat="41.90862795756173" lon="12.405998323296476"><ele>64.0</ele><time>2026-04-17T17:31:38.999Z</time></trkpt><trkpt lat="41.90857072335835" lon="12.40622730584297"><ele>64.25</ele><time>2026-04-17T17:31:39.998Z</time></trkpt><trkpt lat="41.90850734609482" lon="12.406412911648813"><ele>64.5</ele><time>2026-04-17T17:31:40.998Z</time></trkpt><trkpt lat="41.90842589899522" lon="12.406570970793398"><ele>64.75</ele><time>2026-04-17T17:31:41.998Z</time></trkpt><trkpt lat="41.908322031986856" lon="12.406716767955942"><ele>65.0</ele><time>2026-04-17T17:31:42.998Z</time></trkpt><trkpt lat="41.90822112837028" lon="12.406878895656336"><ele>66.75</ele><time>2026-04-17T17:31:43.998Z</time></trkpt><trkpt lat="41.90811735929838" lon="12.407032302122087"><ele>68.5</ele><time>2026-04-17T17:31:44.998Z</time></trkpt><trkpt lat="41.9080131036879" lon="12.407153187176513"><ele>70.25</ele><time>2026-04-17T17:31:45.998Z</time></trkpt><trkpt lat="41.90789919707078" lon="12.407276441425212"><ele>72.0</ele><time>2026-04-17T17:31:46.998Z</time></trkpt><trkpt lat="41.90778141904167" lon="12.407399679973198"><ele>73.75</ele><time>2026-04-17T17:31:47.998Z</time></trkpt><trkpt lat="41.90766470427907" lon="12.407520240314321"><ele>75.5</ele><time>2026-04-17T17:31:48.998Z</time></trkpt><trkpt lat="41.90755941605096" lon="12.407623792913615"><ele>77.25</ele><time>2026-04-17T17:31:49.998Z</time></trkpt><trkpt lat="41.907472579369006" lon="12.407709288172692"><ele>79.0</ele><time>2026-04-17T17:31:50.998Z</time></trkpt><trkpt lat="41.907394738322395" lon="12.407781819973707"><ele>79.0</ele><time>2026-04-17T17:31:51.998Z</time></trkpt><trkpt lat="41.907327013903256" lon="12.407829823118336"><ele>79.0</ele><time>2026-04-17T17:31:52.998Z</time></trkpt><trkpt lat="41.90724113014838" lon="12.407877608094543"><ele>79.0</ele><time>2026-04-17T17:31:54.998Z</time></trkpt><trkpt lat="41.90717314149826" lon="12.407914228239182"><ele>79.0</ele><time>2026-04-17T17:32:34.997Z</time></trkpt><trkpt lat="41.90709289368846" lon="12.407935723202137"><ele>79.0</ele><time>2026-04-17T17:32:35.997Z</time></trkpt><trkpt lat="41.906992750906966" lon="12.407984103112783"><ele>79.0</ele><time>2026-04-17T17:32:36.997Z</time></trkpt><trkpt lat="41.906886301166594" lon="12.408043643656546"><ele>79.33333333333333</ele><time>2026-04-17T17:32:37.997Z</time></trkpt><trkpt lat="41.90674737986916" lon="12.40811846832885"><ele>79.66666666666667</ele><time>2026-04-17T17:32:38.997Z</time></trkpt><trkpt lat="41.90660265968943" lon="12.408198262287302"><ele>80.0</ele><time>2026-04-17T17:32:39.997Z</time></trkpt><trkpt lat="41.90644336734326" lon="12.408291767612033"><ele>80.0</ele><time>2026-04-17T17:32:40.997Z</time></trkpt><trkpt lat="41.906290051494224" lon="12.408407644767701"><ele>80.0</ele><time>2026-04-17T17:32:41.997Z</time></trkpt><trkpt lat="41.90613408888472" lon="12.408477426519676"><ele>80.0</ele><time>2026-04-17T17:32:42.997Z</time></trkpt><trkpt lat="41.90598491854276" lon="12.408524343694303"><ele>79.25</ele><time>2026-04-17T17:32:43.997Z</time></trkpt><trkpt lat="41.905841224390684" lon="12.40854961336012"><ele>78.5</ele><time>2026-04-17T17:32:45Z</time></trkpt><trkpt lat="41.90571102476676" lon="12.408552364183803"><ele>77.75</ele><time>2026-04-17T17:32:46Z</time></trkpt><trkpt lat="41.90559248731989" lon="12.408543816278792"><ele>77.0</ele><time>2026-04-17T17:32:47Z</time></trkpt><trkpt lat="41.905497587387025" lon="12.408535887375892"><ele>77.0</ele><time>2026-04-17T17:32:48Z</time></trkpt><trkpt lat="41.90541597369071" lon="12.408535226170235"><ele>77.0</ele><time>2026-04-17T17:32:49Z</time></trkpt><trkpt lat="41.90535082515509" lon="12.408552586529645"><ele>77.0</ele><time>2026-04-17T17:32:50Z</time></trkpt><trkpt lat="41.905231884427906" lon="12.408581930519121"><ele>77.0</ele><time>2026-04-17T17:32:52Z</time></trkpt><trkpt lat="41.90516289989531" lon="12.408617554067652"><ele>77.0</ele><time>2026-04-17T17:32:53Z</time></trkpt><trkpt lat="41.90505588597228" lon="12.408684535036222"><ele>76.75</ele><time>2026-04-17T17:32:55Z</time></trkpt><trkpt lat="41.90498702327182" lon="12.408731425935994"><ele>76.5</ele><time>2026-04-17T17:32:56Z</time></trkpt><trkpt lat="41.904905972008734" lon="12.408815338998684"><ele>76.25</ele><time>2026-04-17T17:32:57Z</time></trkpt><trkpt lat="41.9048280062849" lon="12.408961391339437"><ele>76.0</ele><time>2026-04-17T17:32:58Z</time></trkpt><trkpt lat="41.904756021297764" lon="12.409130198908633"><ele>72.33333333333333</ele><time>2026-04-17T17:32:59Z</time></trkpt><trkpt lat="41.90467516498427" lon="12.409298110254628"><ele>68.66666666666667</ele><time>2026-04-17T17:33:00Z</time></trkpt><trkpt lat="41.90458134509442" lon="12.40945692404213"><ele>65.0</ele><time>2026-04-17T17:33:01Z</time></trkpt><trkpt lat="41.90448023414213" lon="12.409613661992598"><ele>64.0</ele><time>2026-04-17T17:33:02Z</time></trkpt><trkpt lat="41.90436609364379" lon="12.409766425657653"><ele>63.0</ele><time>2026-04-17T17:33:03Z</time></trkpt><trkpt lat="41.90424733072649" lon="12.409920376450195"><ele>62.0</ele><time>2026-04-17T17:33:04Z</time></trkpt><trkpt lat="41.90414168048244" lon="12.41005596496029"><ele>60.5</ele><time>2026-04-17T17:33:05Z</time></trkpt><trkpt lat="41.904044750905186" lon="12.410179508589362"><ele>59.0</ele><time>2026-04-17T17:33:05.999Z</time></trkpt><trkpt lat="41.90395339055986" lon="12.410282351510627"><ele>57.5</ele><time>2026-04-17T17:33:06.999Z</time></trkpt><trkpt lat="41.9038585736625" lon="12.410386813121823"><ele>56.0</ele><time>2026-04-17T17:33:07.999Z</time></trkpt><trkpt lat="41.90375266497326" lon="12.410476520099131"><ele>57.0</ele><time>2026-04-17T17:33:08.999Z</time></trkpt><trkpt lat="41.90364318931554" lon="12.41056325687507"><ele>58.0</ele><time>2026-04-17T17:33:09.999Z</time></trkpt><trkpt lat="41.903533165091574" lon="12.410654383199551"><ele>59.0</ele><time>2026-04-17T17:33:10.999Z</time></trkpt><trkpt lat="41.90342900953646" lon="12.410780385515098"><ele>60.0</ele><time>2026-04-17T17:33:11.999Z</time></trkpt><trkpt lat="41.90333694091097" lon="12.410933750006668"><ele>62.33333333333333</ele><time>2026-04-17T17:33:12.999Z</time></trkpt><trkpt lat="41.903264939467526" lon="12.411123323755705"><ele>64.66666666666666</ele><time>2026-04-17T17:33:13.999Z</time></trkpt><trkpt lat="41.90321362463195" lon="12.411321600593515"><ele>67.0</ele><time>2026-04-17T17:33:14.999Z</time></trkpt><trkpt lat="41.903172353043864" lon="12.411501816080253"><ele>68.0</ele><time>2026-04-17T17:33:15.999Z</time></trkpt><trkpt lat="41.90313285373553" lon="12.411659270920525"><ele>69.0</ele><time>2026-04-17T17:33:16.999Z</time></trkpt><trkpt lat="41.90310595061932" lon="12.411812458555922"><ele>70.0</ele><time>2026-04-17T17:33:17.999Z</time></trkpt><trkpt lat="41.90308396641573" lon="12.411965881459293"><ele>71.0</ele><time>2026-04-17T17:33:18.999Z</time></trkpt><trkpt lat="41.90306870275059" lon="12.412116965361351"><ele>72.0</ele><time>2026-04-17T17:33:19.999Z</time></trkpt><trkpt lat="41.90305635095434" lon="12.41224409696647"><ele>73.0</ele><time>2026-04-17T17:33:20.999Z</time></trkpt><trkpt lat="41.90305230666546" lon="12.412353665459488"><ele>74.0</ele><time>2026-04-17T17:33:21.999Z</time></trkpt><trkpt lat="41.903045353625" lon="12.412457996773458"><ele>75.0</ele><time>2026-04-17T17:33:22.999Z</time></trkpt><trkpt lat="41.903038064898176" lon="12.412548193914756"><ele>76.0</ele><time>2026-04-17T17:33:23.999Z</time></trkpt><trkpt lat="41.903022315703815" lon="12.412701933046295"><ele>77.0</ele><time>2026-04-17T17:33:25.999Z</time></trkpt><trkpt lat="41.9030174505268" lon="12.412787721533444"><ele>77.0</ele><time>2026-04-17T17:33:26.999Z</time></trkpt><trkpt lat="41.902993372396864" lon="12.412961729229739"><ele>77.0</ele><time>2026-04-17T17:33:28.999Z</time></trkpt><trkpt lat="41.90297653443043" lon="12.413067632072128"><ele>77.0</ele><time>2026-04-17T17:33:29.999Z</time></trkpt><trkpt lat="41.90296620380105" lon="12.413184208087655"><ele>77.0</ele><time>2026-04-17T17:33:30.999Z</time></trkpt><trkpt lat="41.90295813291819" lon="12.41327994423563"><ele>77.0</ele><time>2026-04-17T17:33:31.999Z</time></trkpt><trkpt lat="41.902951759775775" lon="12.413385882406052"><ele>77.83333333333334</ele><time>2026-04-17T17:33:32.999Z</time></trkpt><trkpt lat="41.90295370296528" lon="12.41350095473551"><ele>78.66666666666667</ele><time>2026-04-17T17:33:33.999Z</time></trkpt><trkpt lat="41.9029583097104" lon="12.41362552888892"><ele>79.5</ele><time>2026-04-17T17:33:34.999Z</time></trkpt><trkpt lat="41.90297325842869" lon="12.413744024473202"><ele>80.33333333333333</ele><time>2026-04-17T17:33:35.999Z</time></trkpt><trkpt lat="41.90298596973645" lon="12.41384490848016"><ele>81.16666666666666</ele><time>2026-04-17T17:33:36.999Z</time></trkpt><trkpt lat="41.903009557486484" lon="12.413973014473447"><ele>82.0</ele><time>2026-04-17T17:33:37.999Z</time></trkpt><trkpt lat="41.9030295301436" lon="12.41408385410332"><ele>82.8</ele><time>2026-04-17T17:33:38.999Z</time></trkpt><trkpt lat="41.90305655403002" lon="12.414192580350779"><ele>83.6</ele><time>2026-04-17T17:33:39.999Z</time></trkpt><trkpt lat="41.903082569701304" lon="12.414301291960863"><ele>84.39999999999999</ele><time>2026-04-17T17:33:40.999Z</time></trkpt><trkpt lat="41.90311515622613" lon="12.414404725128556"><ele>85.19999999999999</ele><time>2026-04-17T17:33:41.999Z</time></trkpt><trkpt lat="41.9031538986305" lon="12.414521049525794"><ele>86.0</ele><time>2026-04-17T17:33:42.999Z</time></trkpt><trkpt lat="41.90319831681776" lon="12.414656142671545"><ele>86.4</ele><time>2026-04-17T17:33:43.999Z</time></trkpt><trkpt lat="41.903232791032764" lon="12.414774917500665"><ele>86.8</ele><time>2026-04-17T17:33:44.999Z</time></trkpt><trkpt lat="41.903269616237544" lon="12.414880162621229"><ele>87.2</ele><time>2026-04-17T17:33:45.999Z</time></trkpt><trkpt lat="41.90330472916004" lon="12.414988235745799"><ele>87.60000000000001</ele><time>2026-04-17T17:33:46.999Z</time></trkpt><trkpt lat="41.9033397789406" lon="12.41511593113094"><ele>88.0</ele><time>2026-04-17T17:33:47.998Z</time></trkpt><trkpt lat="41.903372885941806" lon="12.415251440445461"><ele>88.0</ele><time>2026-04-17T17:33:48.998Z</time></trkpt><trkpt lat="41.903392319442204" lon="12.415371087625637"><ele>88.0</ele><time>2026-04-17T17:33:49.998Z</time></trkpt><trkpt lat="41.90340704251588" lon="12.415471774139222"><ele>88.0</ele><time>2026-04-17T17:33:50.998Z</time></trkpt><trkpt lat="41.90341954734281" lon="12.415562072117538"><ele>88.0</ele><time>2026-04-17T17:33:51.998Z</time></trkpt><trkpt lat="41.90343144939468" lon="12.415656186972749"><ele>88.0</ele><time>2026-04-17T17:33:52.998Z</time></trkpt><trkpt lat="41.90344186341263" lon="12.41575341167414"><ele>88.0</ele><time>2026-04-17T17:33:53.998Z</time></trkpt><trkpt lat="41.903450251311504" lon="12.415854270411325"><ele>88.16666666666666</ele><time>2026-04-17T17:33:54.998Z</time></trkpt><trkpt lat="41.903458469830426" lon="12.415950679014742"><ele>88.33333333333333</ele><time>2026-04-17T17:33:55.998Z</time></trkpt><trkpt lat="41.90346695786816" lon="12.416051025978934"><ele>88.5</ele><time>2026-04-17T17:33:56.998Z</time></trkpt><trkpt lat="41.903471855208764" lon="12.41615171614766"><ele>88.66666666666667</ele><time>2026-04-17T17:33:57.998Z</time></trkpt><trkpt lat="41.90346472881599" lon="12.416251102369964"><ele>88.83333333333334</ele><time>2026-04-17T17:33:58.998Z</time></trkpt><trkpt lat="41.903456054528455" lon="12.416369896689671"><ele>89.0</ele><time>2026-04-17T17:33:59.998Z</time></trkpt><trkpt lat="41.90346058369631" lon="12.4165211055522"><ele>89.5</ele><time>2026-04-17T17:34:00.998Z</time></trkpt><trkpt lat="41.903466448165524" lon="12.416679229693885"><ele>90.0</ele><time>2026-04-17T17:34:01.998Z</time></trkpt><trkpt lat="41.9034696164006" lon="12.41684042299839"><ele>90.5</ele><time>2026-04-17T17:34:02.998Z</time></trkpt><trkpt lat="41.90347613475766" lon="12.41701929342008"><ele>91.0</ele><time>2026-04-17T17:34:03.998Z</time></trkpt><trkpt lat="41.903477230602775" lon="12.417179735608489"><ele>91.0</ele><time>2026-04-17T17:34:04.998Z</time></trkpt><trkpt lat="41.903484873290935" lon="12.41734289139039"><ele>91.0</ele><time>2026-04-17T17:34:05.998Z</time></trkpt><trkpt lat="41.90349165230655" lon="12.417494383265982"><ele>91.0</ele><time>2026-04-17T17:34:06.998Z</time></trkpt><trkpt lat="41.90350258915753" lon="12.417657746747576"><ele>91.0</ele><time>2026-04-17T17:34:07.998Z</time></trkpt><trkpt lat="41.903514169099246" lon="12.41783432358875"><ele>91.0</ele><time>2026-04-17T17:34:08.998Z</time></trkpt><trkpt lat="41.90351621033433" lon="12.418005583046499"><ele>91.0</ele><time>2026-04-17T17:34:09.998Z</time></trkpt><trkpt lat="41.90352182418884" lon="12.418168598153363"><ele>91.0</ele><time>2026-04-17T17:34:10.998Z</time></trkpt><trkpt lat="41.90353796484246" lon="12.418338910049956"><ele>91.0</ele><time>2026-04-17T17:34:11.998Z</time></trkpt><trkpt lat="41.903558376880945" lon="12.4185030036811"><ele>91.0</ele><time>2026-04-17T17:34:12.998Z</time></trkpt><trkpt lat="41.90356958084617" lon="12.418645634531135"><ele>91.0</ele><time>2026-04-17T17:34:13.998Z</time></trkpt><trkpt lat="41.903573856200204" lon="12.41878215003685"><ele>91.0</ele><time>2026-04-17T17:34:14.998Z</time></trkpt><trkpt lat="41.90358040563207" lon="12.418905190703272"><ele>91.0</ele><time>2026-04-17T17:34:15.998Z</time></trkpt><trkpt lat="41.903580591262276" lon="12.419015201128806"><ele>91.0</ele><time>2026-04-17T17:34:16.998Z</time></trkpt><trkpt lat="41.90357966694531" lon="12.419137049536642"><ele>91.4</ele><time>2026-04-17T17:34:17.998Z</time></trkpt><trkpt lat="41.90357646504957" lon="12.419274012941797"><ele>91.8</ele><time>2026-04-17T17:34:18.998Z</time></trkpt><trkpt lat="41.90356891511491" lon="12.41940106977428"><ele>92.2</ele><time>2026-04-17T17:34:19.998Z</time></trkpt><trkpt lat="41.90355997312471" lon="12.419537420875862"><ele>92.60000000000001</ele><time>2026-04-17T17:34:20.998Z</time></trkpt><trkpt lat="41.90354200845446" lon="12.419688184178748"><ele>93.0</ele><time>2026-04-17T17:34:21.998Z</time></trkpt><trkpt lat="41.903516993121585" lon="12.419849144387348"><ele>93.0</ele><time>2026-04-17T17:34:22.998Z</time></trkpt><trkpt lat="41.90349500673846" lon="12.419999234868191"><ele>93.0</ele><time>2026-04-17T17:34:23.998Z</time></trkpt><trkpt lat="41.90348051813506" lon="12.420131980890421"><ele>93.0</ele><time>2026-04-17T17:34:24.998Z</time></trkpt><trkpt lat="41.903469123314025" lon="12.420251944670442"><ele>93.0</ele><time>2026-04-17T17:34:25.998Z</time></trkpt><trkpt lat="41.90345762500403" lon="12.420359132119037"><ele>93.0</ele><time>2026-04-17T17:34:26.998Z</time></trkpt><trkpt lat="41.9034463716273" lon="12.4204726700425"><ele>92.83333333333333</ele><time>2026-04-17T17:34:27.997Z</time></trkpt><trkpt lat="41.90343585488119" lon="12.420564672594432"><ele>92.66666666666667</ele><time>2026-04-17T17:34:28.997Z</time></trkpt><trkpt lat="41.903424493279005" lon="12.420666793928971"><ele>92.5</ele><time>2026-04-17T17:34:29.997Z</time></trkpt><trkpt lat="41.90341305831613" lon="12.420767407923169"><ele>92.33333333333334</ele><time>2026-04-17T17:34:30.997Z</time></trkpt><trkpt lat="41.90340159362856" lon="12.420871569496539"><ele>92.16666666666667</ele><time>2026-04-17T17:34:31.997Z</time></trkpt><trkpt lat="41.90338518852529" lon="12.420965387230014"><ele>92.0</ele><time>2026-04-17T17:34:32.997Z</time></trkpt><trkpt lat="41.903360436895966" lon="12.421120110190834"><ele>91.8</ele><time>2026-04-17T17:34:34.997Z</time></trkpt><trkpt lat="41.903337400652305" lon="12.4212624061649"><ele>91.6</ele><time>2026-04-17T17:34:36.997Z</time></trkpt><trkpt lat="41.90330410584506" lon="12.42139019004518"><ele>91.39999999999999</ele><time>2026-04-17T17:34:38.997Z</time></trkpt><trkpt lat="41.903257952976894" lon="12.421533228063458"><ele>91.19999999999999</ele><time>2026-04-17T17:34:40.997Z</time></trkpt><trkpt lat="41.903232290101094" lon="12.421615229875732"><ele>91.0</ele><time>2026-04-17T17:34:41.997Z</time></trkpt><trkpt lat="41.903206033666194" lon="12.421692645192586"><ele>90.19999999999999</ele><time>2026-04-17T17:34:42.997Z</time></trkpt><trkpt lat="41.90316517052949" lon="12.421831365608634"><ele>89.39999999999999</ele><time>2026-04-17T17:34:44.997Z</time></trkpt><trkpt lat="41.90314094934416" lon="12.421932006936725"><ele>88.6</ele><time>2026-04-17T17:34:45.997Z</time></trkpt><trkpt lat="41.90310593939452" lon="12.422061551717793"><ele>87.8</ele><time>2026-04-17T17:34:46.997Z</time></trkpt><trkpt lat="41.90305667558887" lon="12.422211058044596"><ele>87.0</ele><time>2026-04-17T17:34:47.997Z</time></trkpt><trkpt lat="41.9030119736594" lon="12.422380497001182"><ele>87.0</ele><time>2026-04-17T17:34:48.997Z</time></trkpt><trkpt lat="41.902964922274755" lon="12.42255885783066"><ele>87.0</ele><time>2026-04-17T17:34:49.997Z</time></trkpt><trkpt lat="41.90292130770364" lon="12.42273250106356"><ele>87.0</ele><time>2026-04-17T17:34:51Z</time></trkpt><trkpt lat="41.902881316654856" lon="12.42289087669243"><ele>87.0</ele><time>2026-04-17T17:34:52Z</time></trkpt><trkpt lat="41.90284253142319" lon="12.423051287496973"><ele>87.75</ele><time>2026-04-17T17:34:53Z</time></trkpt><trkpt lat="41.90279807918265" lon="12.423219167255617"><ele>88.5</ele><time>2026-04-17T17:34:54Z</time></trkpt><trkpt lat="41.90275581495508" lon="12.42336444708973"><ele>89.25</ele><time>2026-04-17T17:34:55Z</time></trkpt><trkpt lat="41.90271672572383" lon="12.423511514899847"><ele>90.0</ele><time>2026-04-17T17:34:56Z</time></trkpt><trkpt lat="41.90268116617266" lon="12.423641299056575"><ele>90.0</ele><time>2026-04-17T17:34:57Z</time></trkpt><trkpt lat="41.90265480411788" lon="12.423756236684019"><ele>90.0</ele><time>2026-04-17T17:34:58Z</time></trkpt><trkpt lat="41.90263404630011" lon="12.423859936949713"><ele>90.0</ele><time>2026-04-17T17:34:59Z</time></trkpt><trkpt lat="41.90261084091734" lon="12.423952128197465"><ele>90.0</ele><time>2026-04-17T17:35:00Z</time></trkpt><trkpt lat="41.90256787459752" lon="12.424063098856056"><ele>90.0</ele><time>2026-04-17T17:35:02Z</time></trkpt><trkpt lat="41.90252232561228" lon="12.42418575849072"><ele>90.0</ele><time>2026-04-17T17:35:04Z</time></trkpt><trkpt lat="41.90248758971963" lon="12.424297208544111"><ele>90.4</ele><time>2026-04-17T17:35:05Z</time></trkpt><trkpt lat="41.9024448799597" lon="12.424407629020616"><ele>90.8</ele><time>2026-04-17T17:35:06Z</time></trkpt><trkpt lat="41.90239762185428" lon="12.424524197476185"><ele>91.19999999999999</ele><time>2026-04-17T17:35:07Z</time></trkpt><trkpt lat="41.902352347748966" lon="12.424650527957814"><ele>91.6</ele><time>2026-04-17T17:35:08Z</time></trkpt><trkpt lat="41.90230677260356" lon="12.424753378869045"><ele>92.0</ele><time>2026-04-17T17:35:09Z</time></trkpt><trkpt lat="41.90226527897731" lon="12.42484581366133"><ele>92.39999999999999</ele><time>2026-04-17T17:35:09.999Z</time></trkpt><trkpt lat="41.90222551653839" lon="12.424937401653365"><ele>92.8</ele><time>2026-04-17T17:35:10.999Z</time></trkpt><trkpt lat="41.90219104688566" lon="12.42503236752244"><ele>93.2</ele><time>2026-04-17T17:35:11.999Z</time></trkpt><trkpt lat="41.90215633836366" lon="12.425127229816002"><ele>93.6</ele><time>2026-04-17T17:35:12.999Z</time></trkpt><trkpt lat="41.90208677145269" lon="12.42525736627415"><ele>94.0</ele><time>2026-04-17T17:35:14.999Z</time></trkpt><trkpt lat="41.90204120946505" lon="12.425371683437945"><ele>94.0</ele><time>2026-04-17T17:35:16.999Z</time></trkpt><trkpt lat="41.902022254403526" lon="12.42545453546817"><ele>94.0</ele><time>2026-04-17T17:35:19.999Z</time></trkpt><trkpt lat="41.90198220422886" lon="12.425525539416947"><ele>94.0</ele><time>2026-04-17T17:36:10.998Z</time></trkpt><trkpt lat="41.90194637160014" lon="12.425620171213145"><ele>94.0</ele><time>2026-04-17T17:36:11.998Z</time></trkpt><trkpt lat="41.9019099972108" lon="12.425766658753957"><ele>94.0</ele><time>2026-04-17T17:36:12.998Z</time></trkpt><trkpt lat="41.90185241945643" lon="12.425900402674813"><ele>94.0</ele><time>2026-04-17T17:36:13.998Z</time></trkpt><trkpt lat="41.90178929722853" lon="12.426052866139214"><ele>93.75</ele><time>2026-04-17T17:36:14.998Z</time></trkpt><trkpt lat="41.9017289144521" lon="12.42617820996907"><ele>93.5</ele><time>2026-04-17T17:36:15.998Z</time></trkpt><trkpt lat="41.90166586960307" lon="12.42631502627152"><ele>93.25</ele><time>2026-04-17T17:36:16.998Z</time></trkpt><trkpt lat="41.90159453671625" lon="12.426453945450533"><ele>93.0</ele><time>2026-04-17T17:36:17.998Z</time></trkpt><trkpt lat="41.901536380023856" lon="12.426585447735546"><ele>93.0</ele><time>2026-04-17T17:36:18.998Z</time></trkpt><trkpt lat="41.90147315331102" lon="12.426713115831244"><ele>93.0</ele><time>2026-04-17T17:36:19.998Z</time></trkpt><trkpt lat="41.90140544608518" lon="12.42683363300134"><ele>93.0</ele><time>2026-04-17T17:36:20.998Z</time></trkpt><trkpt lat="41.90134457405174" lon="12.426938546445632"><ele>93.0</ele><time>2026-04-17T17:36:21.998Z</time></trkpt><trkpt lat="41.901297384969986" lon="12.427026571600583"><ele>93.0</ele><time>2026-04-17T17:36:22.998Z</time></trkpt><trkpt lat="41.90124310533458" lon="12.427102427278635"><ele>94.25</ele><time>2026-04-17T17:36:24.998Z</time></trkpt><trkpt lat="41.90117035414205" lon="12.427229090738637"><ele>95.5</ele><time>2026-04-17T17:36:26.998Z</time></trkpt><trkpt lat="41.9011043129963" lon="12.42734688615006"><ele>96.75</ele><time>2026-04-17T17:36:27.998Z</time></trkpt><trkpt lat="41.90103316010001" lon="12.427464574913987"><ele>98.0</ele><time>2026-04-17T17:36:28.998Z</time></trkpt><trkpt lat="41.90094986954936" lon="12.427579286263425"><ele>98.0</ele><time>2026-04-17T17:36:29.998Z</time></trkpt><trkpt lat="41.90085237483154" lon="12.427670114159122"><ele>98.0</ele><time>2026-04-17T17:36:30.998Z</time></trkpt><trkpt lat="41.900758845129936" lon="12.427774857802207"><ele>98.0</ele><time>2026-04-17T17:36:31.998Z</time></trkpt><trkpt lat="41.900666100527864" lon="12.427880318326123"><ele>98.0</ele><time>2026-04-17T17:36:32.998Z</time></trkpt><trkpt lat="41.90057655714814" lon="12.427985487566707"><ele>98.0</ele><time>2026-04-17T17:36:33.998Z</time></trkpt><trkpt lat="41.90048178406168" lon="12.42809280149914"><ele>98.0</ele><time>2026-04-17T17:36:34.997Z</time></trkpt><trkpt lat="41.90040271701968" lon="12.428199712422723"><ele>98.0</ele><time>2026-04-17T17:36:35.997Z</time></trkpt><trkpt lat="41.90031496265465" lon="12.428274618205737"><ele>98.0</ele><time>2026-04-17T17:36:36.997Z</time></trkpt><trkpt lat="41.9002345421056" lon="12.428351012499517"><ele>98.0</ele><time>2026-04-17T17:36:37.997Z</time></trkpt><trkpt lat="41.90016835206828" lon="12.42840391868044"><ele>98.0</ele><time>2026-04-17T17:36:38.997Z</time></trkpt><trkpt lat="41.90009844238764" lon="12.428450023791989"><ele>98.0</ele><time>2026-04-17T17:36:39.997Z</time></trkpt><trkpt lat="41.90002643528395" lon="12.428492362104162"><ele>98.0</ele><time>2026-04-17T17:36:40.997Z</time></trkpt><trkpt lat="41.89995267840682" lon="12.42854014821942"><ele>98.0</ele><time>2026-04-17T17:36:41.997Z</time></trkpt><trkpt lat="41.89986835675415" lon="12.428624336801665"><ele>98.0</ele><time>2026-04-17T17:36:42.997Z</time></trkpt><trkpt lat="41.89977498666559" lon="12.428695576193768"><ele>97.2</ele><time>2026-04-17T17:36:43.997Z</time></trkpt><trkpt lat="41.89967876394344" lon="12.428765994404694"><ele>96.4</ele><time>2026-04-17T17:36:44.997Z</time></trkpt><trkpt lat="41.89959195369767" lon="12.428829398771283"><ele>95.60000000000001</ele><time>2026-04-17T17:36:45.997Z</time></trkpt><trkpt lat="41.89951188967584" lon="12.42888665331424"><ele>94.80000000000001</ele><time>2026-04-17T17:36:46.997Z</time></trkpt><trkpt lat="41.899438893776306" lon="12.428942272530536"><ele>94.0</ele><time>2026-04-17T17:36:47.997Z</time></trkpt><trkpt lat="41.899366511502734" lon="12.428996173111988"><ele>94.0</ele><time>2026-04-17T17:36:48.997Z</time></trkpt><trkpt lat="41.8993033424308" lon="12.429041908857402"><ele>94.0</ele><time>2026-04-17T17:36:49.997Z</time></trkpt><trkpt lat="41.89924253650179" lon="12.429086703207632"><ele>94.0</ele><time>2026-04-17T17:36:50.997Z</time></trkpt><trkpt lat="41.89915434876291" lon="12.429153612055783"><ele>94.0</ele><time>2026-04-17T17:36:52.997Z</time></trkpt><trkpt lat="41.89907503782634" lon="12.429193551246891"><ele>94.0</ele><time>2026-04-17T17:36:54.997Z</time></trkpt><trkpt lat="41.89900551939497" lon="12.429233965507654"><ele>94.0</ele><time>2026-04-17T17:36:57Z</time></trkpt><trkpt lat="41.89892893047664" lon="12.429280018282713"><ele>93.2</ele><time>2026-04-17T17:36:59Z</time></trkpt><trkpt lat="41.898848706705785" lon="12.429326169408471"><ele>92.4</ele><time>2026-04-17T17:37:01Z</time></trkpt><trkpt lat="41.898755743454664" lon="12.42937974072867"><ele>91.6</ele><time>2026-04-17T17:37:23.999Z</time></trkpt><trkpt lat="41.89864161665294" lon="12.429447756577085"><ele>90.8</ele><time>2026-04-17T17:37:25.999Z</time></trkpt><trkpt lat="41.89853127484751" lon="12.42949666910589"><ele>90.0</ele><time>2026-04-17T17:37:27.999Z</time></trkpt><trkpt lat="41.89850402063716" lon="12.429581128850625"><ele>90.33333333333333</ele><time>2026-04-17T17:37:28.999Z</time></trkpt><trkpt lat="41.89842532296163" lon="12.429669579956958"><ele>90.66666666666667</ele><time>2026-04-17T17:37:30.999Z</time></trkpt><trkpt lat="41.898369478787245" lon="12.429741998826636"><ele>91.0</ele><time>2026-04-17T17:37:32.999Z</time></trkpt><trkpt lat="41.898359322068686" lon="12.42983859322409"><ele>91.33333333333334</ele><time>2026-04-17T17:37:33.999Z</time></trkpt><trkpt lat="41.898423235285684" lon="12.429958640940951"><ele>91.66666666666667</ele><time>2026-04-17T17:37:35.999Z</time></trkpt><trkpt lat="41.89840902500601" lon="12.43005346843965"><ele>92.0</ele><time>2026-04-17T17:38:04.998Z</time></trkpt><trkpt lat="41.8984249399635" lon="12.430169959831938"><ele>92.39999999999999</ele><time>2026-04-17T17:38:09.998Z</time></trkpt><trkpt lat="41.898435768717505" lon="12.430260425219469"><ele>92.8</ele><time>2026-04-17T17:38:10.998Z</time></trkpt><trkpt lat="41.89842432692389" lon="12.430375180931689"><ele>93.2</ele><time>2026-04-17T17:38:11.998Z</time></trkpt><trkpt lat="41.8984136693482" lon="12.430498864767683"><ele>93.6</ele><time>2026-04-17T17:38:12.998Z</time></trkpt><trkpt lat="41.89840424508784" lon="12.430630728364136"><ele>94.0</ele><time>2026-04-17T17:38:13.998Z</time></trkpt><trkpt lat="41.8984074436569" lon="12.430781875298624"><ele>93.75</ele><time>2026-04-17T17:38:14.998Z</time></trkpt><trkpt lat="41.898416754085815" lon="12.43095455369138"><ele>93.5</ele><time>2026-04-17T17:38:15.998Z</time></trkpt><trkpt lat="41.89844104542748" lon="12.431128437087082"><ele>93.25</ele><time>2026-04-17T17:38:16.998Z</time></trkpt><trkpt lat="41.898463569668706" lon="12.43130711248472"><ele>93.0</ele><time>2026-04-17T17:38:17.998Z</time></trkpt><trkpt lat="41.89849487752418" lon="12.431494030371196"><ele>92.0</ele><time>2026-04-17T17:38:18.998Z</time></trkpt><trkpt lat="41.898532221218304" lon="12.431664363322925"><ele>91.0</ele><time>2026-04-17T17:38:19.998Z</time></trkpt><trkpt lat="41.89856755923553" lon="12.431834226460426"><ele>90.0</ele><time>2026-04-17T17:38:20.998Z</time></trkpt><trkpt lat="41.89861061508973" lon="12.432007591287832"><ele>89.0</ele><time>2026-04-17T17:38:21.998Z</time></trkpt><trkpt lat="41.89865550142385" lon="12.432179658094247"><ele>88.75</ele><time>2026-04-17T17:38:22.998Z</time></trkpt><trkpt lat="41.89869047329178" lon="12.432346102065633"><ele>88.5</ele><time>2026-04-17T17:38:23.998Z</time></trkpt><trkpt lat="41.89872722859711" lon="12.432512958776236"><ele>88.25</ele><time>2026-04-17T17:38:24.998Z</time></trkpt><trkpt lat="41.8987705292673" lon="12.432686364868678"><ele>88.0</ele><time>2026-04-17T17:38:25.998Z</time></trkpt><trkpt lat="41.898812068723856" lon="12.43286368095653"><ele>86.5</ele><time>2026-04-17T17:38:26.998Z</time></trkpt><trkpt lat="41.89885242936166" lon="12.433032068147183"><ele>85.0</ele><time>2026-04-17T17:38:27.998Z</time></trkpt><trkpt lat="41.89889238351989" lon="12.433187119903378"><ele>83.5</ele><time>2026-04-17T17:38:28.998Z</time></trkpt><trkpt lat="41.89893092285605" lon="12.43334531130808"><ele>82.0</ele><time>2026-04-17T17:38:29.998Z</time></trkpt><trkpt lat="41.89896886387457" lon="12.433504522084759"><ele>82.0</ele><time>2026-04-17T17:38:30.998Z</time></trkpt><trkpt lat="41.89900911020678" lon="12.433668210877913"><ele>82.0</ele><time>2026-04-17T17:38:31.998Z</time></trkpt><trkpt lat="41.89905129727988" lon="12.4338367893156"><ele>82.0</ele><time>2026-04-17T17:38:32.998Z</time></trkpt><trkpt lat="41.89909513927838" lon="12.434007313885024"><ele>82.0</ele><time>2026-04-17T17:38:33.998Z</time></trkpt><trkpt lat="41.89913702796701" lon="12.434168121288836"><ele>81.75</ele><time>2026-04-17T17:38:34.998Z</time></trkpt><trkpt lat="41.89917460289727" lon="12.434315993412405"><ele>81.5</ele><time>2026-04-17T17:38:35.998Z</time></trkpt><trkpt lat="41.89921261543013" lon="12.434459211991395"><ele>81.25</ele><time>2026-04-17T17:38:36.998Z</time></trkpt><trkpt lat="41.8992488028375" lon="12.434599124613257"><ele>81.0</ele><time>2026-04-17T17:38:37.998Z</time></trkpt><trkpt lat="41.899284155144905" lon="12.43473978218219"><ele>78.75</ele><time>2026-04-17T17:38:38.998Z</time></trkpt><trkpt lat="41.89931866704744" lon="12.434881004832302"><ele>76.5</ele><time>2026-04-17T17:38:39.998Z</time></trkpt><trkpt lat="41.89935463211236" lon="12.435024110723768"><ele>74.25</ele><time>2026-04-17T17:38:40.997Z</time></trkpt><trkpt lat="41.89938934292505" lon="12.435171972225127"><ele>72.0</ele><time>2026-04-17T17:38:41.997Z</time></trkpt><trkpt lat="41.89942767434325" lon="12.435328120518344"><ele>70.75</ele><time>2026-04-17T17:38:42.997Z</time></trkpt><trkpt lat="41.89946983386459" lon="12.435479305443469"><ele>69.5</ele><time>2026-04-17T17:38:43.997Z</time></trkpt><trkpt lat="41.89951749677963" lon="12.435629931641095"><ele>68.25</ele><time>2026-04-17T17:38:44.997Z</time></trkpt><trkpt lat="41.89956779805539" lon="12.435777893589213"><ele>67.0</ele><time>2026-04-17T17:38:45.997Z</time></trkpt><trkpt lat="41.899622762491646" lon="12.435923490149106"><ele>67.0</ele><time>2026-04-17T17:38:46.997Z</time></trkpt><trkpt lat="41.89967781457441" lon="12.436068683983873"><ele>67.0</ele><time>2026-04-17T17:38:47.997Z</time></trkpt><trkpt lat="41.89973596688284" lon="12.43621040068672"><ele>67.0</ele><time>2026-04-17T17:38:48.997Z</time></trkpt><trkpt lat="41.8998033860678" lon="12.436357586210672"><ele>67.0</ele><time>2026-04-17T17:38:49.997Z</time></trkpt><trkpt lat="41.899879450530186" lon="12.436505814218584"><ele>66.25</ele><time>2026-04-17T17:38:50.997Z</time></trkpt><trkpt lat="41.89996073097231" lon="12.43665117136999"><ele>65.5</ele><time>2026-04-17T17:38:51.997Z</time></trkpt><trkpt lat="41.900044945536074" lon="12.436799955622716"><ele>64.75</ele><time>2026-04-17T17:38:52.997Z</time></trkpt><trkpt lat="41.9001260470846" lon="12.436953809849268"><ele>64.0</ele><time>2026-04-17T17:38:53.997Z</time></trkpt><trkpt lat="41.900204140104066" lon="12.43710178942201"><ele>61.75</ele><time>2026-04-17T17:38:54.997Z</time></trkpt><trkpt lat="41.90028235887524" lon="12.43724001304099"><ele>59.5</ele><time>2026-04-17T17:38:55.997Z</time></trkpt><trkpt lat="41.90035968987273" lon="12.437378973661671"><ele>57.25</ele><time>2026-04-17T17:38:56.997Z</time></trkpt><trkpt lat="41.90044352970492" lon="12.437516661196202"><ele>55.0</ele><time>2026-04-17T17:38:57.997Z</time></trkpt><trkpt lat="41.90052389797203" lon="12.437642686103926"><ele>55.0</ele><time>2026-04-17T17:38:58.997Z</time></trkpt><trkpt lat="41.90060104164227" lon="12.437756296789859"><ele>55.0</ele><time>2026-04-17T17:38:59.997Z</time></trkpt><trkpt lat="41.90067596402617" lon="12.43786803751259"><ele>55.0</ele><time>2026-04-17T17:39:01Z</time></trkpt><trkpt lat="41.90074923383218" lon="12.437971042579829"><ele>55.0</ele><time>2026-04-17T17:39:02Z</time></trkpt><trkpt lat="41.90081349299315" lon="12.438064167998643"><ele>55.0</ele><time>2026-04-17T17:39:03Z</time></trkpt><trkpt lat="41.90087274505116" lon="12.438156865134692"><ele>56.0</ele><time>2026-04-17T17:39:04Z</time></trkpt><trkpt lat="41.900921947302876" lon="12.438252363189434"><ele>44.0</ele><time>2026-04-17T17:39:05Z</time></trkpt><trkpt lat="41.90096014253459" lon="12.438344517385007"><ele>44.0</ele><time>2026-04-17T17:39:06Z</time></trkpt><trkpt lat="41.90099647995737" lon="12.43842340182839"><ele>44.0</ele><time>2026-04-17T17:39:07Z</time></trkpt><trkpt lat="41.901063963749294" lon="12.43854106999966"><ele>44.0</ele><time>2026-04-17T17:39:09Z</time></trkpt></trkseg></trk></gpx>